<?xml version="1.0" encoding="UTF-8"?>
<gpx version="1.1" creator="2bulu-scraper" xmlns="http://www.topografix.com/GPX/1/1">
  <metadata><name>峨眉山全程徒步</name><desc>source: 2bulu.com trackId=85685632; exported 2026-09-01T16:16:09.867Z</desc>
    <bounds minlat="29.522492" minlon="103.326825" maxlat="29.574318" maxlon="103.442438"/>
    <link href="https://www.2bulu.com/track/t-pLkW%252BdGaGK3p%252FR2KBg5Tzw%253D%253D.htm"><text>2bulu 源页面</text></link>
  </metadata>
  <wpt lat="29.570633" lon="103.441383"><ele>543</ele><name></name></wpt>
  <wpt lat="29.566567" lon="103.407883"><ele>821</ele><name></name></wpt>
  <wpt lat="29.573555" lon="103.393417"><ele>729</ele><name></name></wpt>
  <wpt lat="29.57418" lon="103.392447"><ele>703</ele><name></name></wpt>
  <wpt lat="29.574167" lon="103.392447"><ele>704</ele><name></name></wpt>
  <wpt lat="29.574192" lon="103.392288"><ele>697</ele><name></name></wpt>
  <wpt lat="29.573488" lon="103.391875"><ele>716</ele><name></name></wpt>
  <wpt lat="29.573488" lon="103.391922"><ele>715</ele><name></name></wpt>
  <wpt lat="29.571317" lon="103.391695"><ele>724</ele><name></name></wpt>
  <wpt lat="29.568363" lon="103.39073"><ele>715</ele><name></name></wpt>
  <wpt lat="29.568512" lon="103.39087"><ele>727</ele><name></name></wpt>
  <wpt lat="29.568445" lon="103.390878"><ele>731</ele><name></name></wpt>
  <wpt lat="29.566003" lon="103.389717"><ele>753</ele><name></name></wpt>
  <wpt lat="29.5619" lon="103.389442"><ele>779</ele><name></name></wpt>
  <wpt lat="29.55683" lon="103.386095"><ele>847</ele><name></name></wpt>
  <wpt lat="29.550408" lon="103.370475"><ele>1242</ele><name></name></wpt>
  <wpt lat="29.550387" lon="103.370422"><ele>1244</ele><name></name></wpt>
  <wpt lat="29.550128" lon="103.36135"><ele>1649</ele><name></name></wpt>
  <wpt lat="29.5503" lon="103.356963"><ele>1741</ele><name></name></wpt>
  <wpt lat="29.550033" lon="103.35698"><ele>1749</ele><name></name></wpt>
  <wpt lat="29.550188" lon="103.35598"><ele>1729</ele><name></name></wpt>
  <wpt lat="29.552263" lon="103.352325"><ele>1613</ele><name></name></wpt>
  <wpt lat="29.558688" lon="103.353325"><ele>1545</ele><name></name></wpt>
  <wpt lat="29.558822" lon="103.344262"><ele>2057</ele><name></name></wpt>
  <wpt lat="29.558503" lon="103.343987"><ele>2071</ele><name></name></wpt>
  <wpt lat="29.54693" lon="103.339455"><ele>2402</ele><name></name></wpt>
  <wpt lat="29.542453" lon="103.332138"><ele>2431</ele><name></name></wpt>
  <wpt lat="29.542367" lon="103.332183"><ele>2430</ele><name></name></wpt>
  <wpt lat="29.54235" lon="103.332213"><ele>2429</ele><name></name></wpt>
  <wpt lat="29.54228" lon="103.3321"><ele>2428</ele><name></name></wpt>
  <wpt lat="29.532345" lon="103.331192"><ele>2653</ele><name></name></wpt>
  <wpt lat="29.52735" lon="103.33248"><ele>2957</ele><name></name></wpt>
  <wpt lat="29.523255" lon="103.334763"><ele>3044</ele><name></name></wpt>
  <wpt lat="29.522767" lon="103.334975"><ele>3047</ele><name></name></wpt>
  <wpt lat="29.5228" lon="103.335158"><ele>3053</ele><name></name></wpt>
  <wpt lat="29.522887" lon="103.335762"><ele>3063</ele><name></name></wpt>
  <wpt lat="29.52317" lon="103.334738"><ele>3044</ele><name></name></wpt>
  <wpt lat="29.570738" lon="103.441338"><ele>536</ele><name></name></wpt>
  <wpt lat="29.571233" lon="103.441383"><ele>536</ele><name></name></wpt>
  <trk><name>峨眉山全程徒步</name>
      <trkseg>
        <trkpt lat="29.572214" lon="103.442438"><ele>505</ele><time>2026-05-11T12:59:15.000Z</time></trkpt>
        <trkpt lat="29.572157" lon="103.442334"><ele>514</ele><time>2026-05-11T12:59:27.000Z</time></trkpt>
        <trkpt lat="29.572057" lon="103.442158"><ele>513</ele><time>2026-05-11T12:59:42.000Z</time></trkpt>
        <trkpt lat="29.571977" lon="103.441959"><ele>511</ele><time>2026-05-11T12:59:58.000Z</time></trkpt>
        <trkpt lat="29.571894" lon="103.441767"><ele>507</ele><time>2026-05-11T13:00:12.000Z</time></trkpt>
        <trkpt lat="29.571848" lon="103.441596"><ele>505</ele><time>2026-05-11T13:00:22.000Z</time></trkpt>
        <trkpt lat="29.571726" lon="103.441443"><ele>509</ele><time>2026-05-11T13:00:36.000Z</time></trkpt>
        <trkpt lat="29.571634" lon="103.44142"><ele>511</ele><time>2026-05-11T13:00:45.000Z</time></trkpt>
        <trkpt lat="29.571464" lon="103.441339"><ele>513</ele><time>2026-05-11T13:00:58.000Z</time></trkpt>
        <trkpt lat="29.571425" lon="103.441318"><ele>514</ele><time>2026-05-11T13:01:01.000Z</time></trkpt>
        <trkpt lat="29.571387" lon="103.441321"><ele>514</ele><time>2026-05-11T13:01:04.000Z</time></trkpt>
        <trkpt lat="29.571199" lon="103.441355"><ele>516</ele><time>2026-05-11T13:01:18.000Z</time></trkpt>
        <trkpt lat="29.571028" lon="103.441416"><ele>518</ele><time>2026-05-11T13:01:32.000Z</time></trkpt>
        <trkpt lat="29.570919" lon="103.441435"><ele>519</ele><time>2026-05-11T13:01:44.000Z</time></trkpt>
        <trkpt lat="29.57092" lon="103.441435"><ele>519</ele><time>2026-05-11T13:01:55.000Z</time></trkpt>
        <trkpt lat="29.570914" lon="103.441436"><ele>519</ele><time>2026-05-11T13:01:57.000Z</time></trkpt>
        <trkpt lat="29.570911" lon="103.441439"><ele>519</ele><time>2026-05-11T13:01:58.000Z</time></trkpt>
        <trkpt lat="29.570908" lon="103.441442"><ele>519</ele><time>2026-05-11T13:01:59.000Z</time></trkpt>
        <trkpt lat="29.57091" lon="103.441457"><ele>520</ele><time>2026-05-11T13:02:02.000Z</time></trkpt>
        <trkpt lat="29.570911" lon="103.441475"><ele>520</ele><time>2026-05-11T13:02:07.000Z</time></trkpt>
        <trkpt lat="29.570903" lon="103.441485"><ele>520</ele><time>2026-05-11T13:02:13.000Z</time></trkpt>
        <trkpt lat="29.57087" lon="103.441484"><ele>520</ele><time>2026-05-11T13:02:25.000Z</time></trkpt>
        <trkpt lat="29.570816" lon="103.441471"><ele>520</ele><time>2026-05-11T13:02:53.000Z</time></trkpt>
        <trkpt lat="29.570742" lon="103.441464"><ele>521</ele><time>2026-05-11T13:03:27.000Z</time></trkpt>
        <trkpt lat="29.570723" lon="103.441464"><ele>521</ele><time>2026-05-11T13:03:29.000Z</time></trkpt>
        <trkpt lat="29.570712" lon="103.441468"><ele>521</ele><time>2026-05-11T13:03:30.000Z</time></trkpt>
        <trkpt lat="29.570698" lon="103.441477"><ele>521</ele><time>2026-05-11T13:03:32.000Z</time></trkpt>
        <trkpt lat="29.570676" lon="103.441481"><ele>521</ele><time>2026-05-11T13:03:34.000Z</time></trkpt>
        <trkpt lat="29.570631" lon="103.441508"><ele>521</ele><time>2026-05-11T13:03:40.000Z</time></trkpt>
        <trkpt lat="29.570639" lon="103.441399"><ele>521</ele><time>2026-05-11T13:03:51.000Z</time></trkpt>
        <trkpt lat="29.570644" lon="103.441406"><ele>521</ele><time>2026-05-11T13:03:58.000Z</time></trkpt>
        <trkpt lat="29.570641" lon="103.441409"><ele>521</ele><time>2026-05-11T13:04:00.000Z</time></trkpt>
        <trkpt lat="29.570636" lon="103.441412"><ele>521</ele><time>2026-05-11T13:04:01.000Z</time></trkpt>
        <trkpt lat="29.570629" lon="103.441418"><ele>521</ele><time>2026-05-11T13:04:02.000Z</time></trkpt>
        <trkpt lat="29.570521" lon="103.441444"><ele>521</ele><time>2026-05-11T13:04:11.000Z</time></trkpt>
        <trkpt lat="29.570495" lon="103.441432"><ele>521</ele><time>2026-05-11T13:04:13.000Z</time></trkpt>
        <trkpt lat="29.57046" lon="103.441417"><ele>521</ele><time>2026-05-11T13:04:16.000Z</time></trkpt>
        <trkpt lat="29.570438" lon="103.441406"><ele>521</ele><time>2026-05-11T13:04:18.000Z</time></trkpt>
        <trkpt lat="29.570393" lon="103.441364"><ele>521</ele><time>2026-05-11T13:04:22.000Z</time></trkpt>
        <trkpt lat="29.570327" lon="103.44133"><ele>521</ele><time>2026-05-11T13:04:27.000Z</time></trkpt>
        <trkpt lat="29.570248" lon="103.441287"><ele>522</ele><time>2026-05-11T13:04:33.000Z</time></trkpt>
        <trkpt lat="29.570112" lon="103.44122"><ele>523</ele><time>2026-05-11T13:04:42.000Z</time></trkpt>
        <trkpt lat="29.569947" lon="103.441122"><ele>524</ele><time>2026-05-11T13:04:54.000Z</time></trkpt>
        <trkpt lat="29.569792" lon="103.441004"><ele>520</ele><time>2026-05-11T13:05:09.000Z</time></trkpt>
        <trkpt lat="29.569608" lon="103.44097"><ele>521</ele><time>2026-05-11T13:05:22.000Z</time></trkpt>
        <trkpt lat="29.569428" lon="103.440947"><ele>518</ele><time>2026-05-11T13:05:36.000Z</time></trkpt>
        <trkpt lat="29.569244" lon="103.440946"><ele>513</ele><time>2026-05-11T13:05:52.000Z</time></trkpt>
        <trkpt lat="29.569236" lon="103.440937"><ele>512</ele><time>2026-05-11T13:05:55.000Z</time></trkpt>
        <trkpt lat="29.569227" lon="103.440922"><ele>512</ele><time>2026-05-11T13:05:57.000Z</time></trkpt>
        <trkpt lat="29.569143" lon="103.440736"><ele>511</ele><time>2026-05-11T13:06:13.000Z</time></trkpt>
        <trkpt lat="29.569022" lon="103.440661"><ele>514</ele><time>2026-05-11T13:06:24.000Z</time></trkpt>
        <trkpt lat="29.568985" lon="103.440453"><ele>517</ele><time>2026-05-11T13:06:37.000Z</time></trkpt>
        <trkpt lat="29.568914" lon="103.440255"><ele>519</ele><time>2026-05-11T13:06:52.000Z</time></trkpt>
        <trkpt lat="29.568809" lon="103.440072"><ele>522</ele><time>2026-05-11T13:07:07.000Z</time></trkpt>
        <trkpt lat="29.568682" lon="103.439907"><ele>526</ele><time>2026-05-11T13:07:22.000Z</time></trkpt>
        <trkpt lat="29.568553" lon="103.439755"><ele>531</ele><time>2026-05-11T13:07:37.000Z</time></trkpt>
        <trkpt lat="29.568512" lon="103.4397"><ele>532</ele><time>2026-05-11T13:07:42.000Z</time></trkpt>
        <trkpt lat="29.568393" lon="103.43952"><ele>531</ele><time>2026-05-11T13:07:56.000Z</time></trkpt>
        <trkpt lat="29.568251" lon="103.439393"><ele>535</ele><time>2026-05-11T13:08:09.000Z</time></trkpt>
        <trkpt lat="29.568107" lon="103.439251"><ele>536</ele><time>2026-05-11T13:08:25.000Z</time></trkpt>
        <trkpt lat="29.568004" lon="103.439154"><ele>536</ele><time>2026-05-11T13:08:34.000Z</time></trkpt>
        <trkpt lat="29.567885" lon="103.438997"><ele>539</ele><time>2026-05-11T13:08:47.000Z</time></trkpt>
        <trkpt lat="29.567775" lon="103.438849"><ele>541</ele><time>2026-05-11T13:09:00.000Z</time></trkpt>
        <trkpt lat="29.567705" lon="103.438739"><ele>540</ele><time>2026-05-11T13:09:08.000Z</time></trkpt>
        <trkpt lat="29.567698" lon="103.438726"><ele>539</ele><time>2026-05-11T13:09:09.000Z</time></trkpt>
        <trkpt lat="29.567605" lon="103.438541"><ele>535</ele><time>2026-05-11T13:09:23.000Z</time></trkpt>
        <trkpt lat="29.567456" lon="103.43841"><ele>540</ele><time>2026-05-11T13:09:37.000Z</time></trkpt>
        <trkpt lat="29.567386" lon="103.438304"><ele>540</ele><time>2026-05-11T13:09:45.000Z</time></trkpt>
        <trkpt lat="29.567276" lon="103.438129"><ele>541</ele><time>2026-05-11T13:10:00.000Z</time></trkpt>
        <trkpt lat="29.567207" lon="103.437971"><ele>538</ele><time>2026-05-11T13:10:12.000Z</time></trkpt>
        <trkpt lat="29.567119" lon="103.437791"><ele>540</ele><time>2026-05-11T13:10:27.000Z</time></trkpt>
        <trkpt lat="29.567024" lon="103.43765"><ele>540</ele><time>2026-05-11T13:10:40.000Z</time></trkpt>
        <trkpt lat="29.566918" lon="103.437479"><ele>544</ele><time>2026-05-11T13:10:55.000Z</time></trkpt>
        <trkpt lat="29.566805" lon="103.437313"><ele>544</ele><time>2026-05-11T13:11:10.000Z</time></trkpt>
        <trkpt lat="29.566712" lon="103.437129"><ele>548</ele><time>2026-05-11T13:11:25.000Z</time></trkpt>
        <trkpt lat="29.566664" lon="103.437049"><ele>548</ele><time>2026-05-11T13:11:33.000Z</time></trkpt>
        <trkpt lat="29.566554" lon="103.43692"><ele>552</ele><time>2026-05-11T13:11:46.000Z</time></trkpt>
        <trkpt lat="29.566507" lon="103.43685"><ele>553</ele><time>2026-05-11T13:11:51.000Z</time></trkpt>
        <trkpt lat="29.566431" lon="103.436653"><ele>550</ele><time>2026-05-11T13:12:04.000Z</time></trkpt>
        <trkpt lat="29.566408" lon="103.436615"><ele>550</ele><time>2026-05-11T13:12:07.000Z</time></trkpt>
        <trkpt lat="29.566335" lon="103.436424"><ele>550</ele><time>2026-05-11T13:12:20.000Z</time></trkpt>
        <trkpt lat="29.566279" lon="103.436221"><ele>547</ele><time>2026-05-11T13:12:34.000Z</time></trkpt>
        <trkpt lat="29.566214" lon="103.436016"><ele>546</ele><time>2026-05-11T13:12:50.000Z</time></trkpt>
        <trkpt lat="29.566197" lon="103.435936"><ele>545</ele><time>2026-05-11T13:12:56.000Z</time></trkpt>
        <trkpt lat="29.566176" lon="103.435855"><ele>546</ele><time>2026-05-11T13:13:01.000Z</time></trkpt>
        <trkpt lat="29.566137" lon="103.435695"><ele>545</ele><time>2026-05-11T13:13:12.000Z</time></trkpt>
        <trkpt lat="29.566076" lon="103.435492"><ele>545</ele><time>2026-05-11T13:13:26.000Z</time></trkpt>
        <trkpt lat="29.565986" lon="103.435306"><ele>557</ele><time>2026-05-11T13:13:45.000Z</time></trkpt>
        <trkpt lat="29.565985" lon="103.435303"><ele>556</ele><time>2026-05-11T13:13:46.000Z</time></trkpt>
        <trkpt lat="29.565996" lon="103.435302"><ele>554</ele><time>2026-05-11T13:13:50.000Z</time></trkpt>
        <trkpt lat="29.566008" lon="103.435295"><ele>554</ele><time>2026-05-11T13:13:53.000Z</time></trkpt>
        <trkpt lat="29.565993" lon="103.435279"><ele>553</ele><time>2026-05-11T13:13:56.000Z</time></trkpt>
        <trkpt lat="29.565986" lon="103.43527"><ele>553</ele><time>2026-05-11T13:13:57.000Z</time></trkpt>
        <trkpt lat="29.565961" lon="103.435207"><ele>553</ele><time>2026-05-11T13:14:04.000Z</time></trkpt>
        <trkpt lat="29.565953" lon="103.43519"><ele>553</ele><time>2026-05-11T13:14:06.000Z</time></trkpt>
        <trkpt lat="29.565939" lon="103.435159"><ele>555</ele><time>2026-05-11T13:14:09.000Z</time></trkpt>
        <trkpt lat="29.56593" lon="103.435147"><ele>555</ele><time>2026-05-11T13:14:10.000Z</time></trkpt>
        <trkpt lat="29.56592" lon="103.435126"><ele>555</ele><time>2026-05-11T13:14:13.000Z</time></trkpt>
        <trkpt lat="29.565912" lon="103.435094"><ele>553</ele><time>2026-05-11T13:14:17.000Z</time></trkpt>
        <trkpt lat="29.565889" lon="103.435062"><ele>555</ele><time>2026-05-11T13:14:23.000Z</time></trkpt>
        <trkpt lat="29.565873" lon="103.435032"><ele>556</ele><time>2026-05-11T13:14:36.000Z</time></trkpt>
        <trkpt lat="29.565857" lon="103.435018"><ele>556</ele><time>2026-05-11T13:14:38.000Z</time></trkpt>
        <trkpt lat="29.565827" lon="103.435003"><ele>557</ele><time>2026-05-11T13:14:41.000Z</time></trkpt>
        <trkpt lat="29.565742" lon="103.434967"><ele>561</ele><time>2026-05-11T13:14:50.000Z</time></trkpt>
        <trkpt lat="29.565735" lon="103.434962"><ele>561</ele><time>2026-05-11T13:14:51.000Z</time></trkpt>
        <trkpt lat="29.56573" lon="103.43496"><ele>561</ele><time>2026-05-11T13:14:52.000Z</time></trkpt>
        <trkpt lat="29.565701" lon="103.434938"><ele>561</ele><time>2026-05-11T13:14:55.000Z</time></trkpt>
        <trkpt lat="29.565635" lon="103.434892"><ele>564</ele><time>2026-05-11T13:15:00.000Z</time></trkpt>
        <trkpt lat="29.565604" lon="103.434854"><ele>565</ele><time>2026-05-11T13:15:03.000Z</time></trkpt>
        <trkpt lat="29.565581" lon="103.434827"><ele>566</ele><time>2026-05-11T13:15:05.000Z</time></trkpt>
        <trkpt lat="29.565522" lon="103.434671"><ele>567</ele><time>2026-05-11T13:15:17.000Z</time></trkpt>
        <trkpt lat="29.565565" lon="103.434462"><ele>564</ele><time>2026-05-11T13:15:29.000Z</time></trkpt>
        <trkpt lat="29.565623" lon="103.434369"><ele>562</ele><time>2026-05-11T13:15:38.000Z</time></trkpt>
        <trkpt lat="29.565633" lon="103.434355"><ele>563</ele><time>2026-05-11T13:15:42.000Z</time></trkpt>
        <trkpt lat="29.565644" lon="103.434283"><ele>563</ele><time>2026-05-11T13:15:52.000Z</time></trkpt>
        <trkpt lat="29.565666" lon="103.434265"><ele>564</ele><time>2026-05-11T13:15:55.000Z</time></trkpt>
        <trkpt lat="29.565676" lon="103.434244"><ele>566</ele><time>2026-05-11T13:15:57.000Z</time></trkpt>
        <trkpt lat="29.565678" lon="103.434078"><ele>581</ele><time>2026-05-11T13:16:14.000Z</time></trkpt>
        <trkpt lat="29.565672" lon="103.433956"><ele>582</ele><time>2026-05-11T13:16:26.000Z</time></trkpt>
        <trkpt lat="29.565677" lon="103.433893"><ele>585</ele><time>2026-05-11T13:16:32.000Z</time></trkpt>
        <trkpt lat="29.565685" lon="103.433681"><ele>585</ele><time>2026-05-11T13:16:48.000Z</time></trkpt>
        <trkpt lat="29.565689" lon="103.433512"><ele>588</ele><time>2026-05-11T13:17:01.000Z</time></trkpt>
        <trkpt lat="29.565662" lon="103.43335"><ele>588</ele><time>2026-05-11T13:17:12.000Z</time></trkpt>
        <trkpt lat="29.565629" lon="103.433152"><ele>588</ele><time>2026-05-11T13:17:26.000Z</time></trkpt>
        <trkpt lat="29.565601" lon="103.432926"><ele>582</ele><time>2026-05-11T13:17:42.000Z</time></trkpt>
        <trkpt lat="29.565582" lon="103.432844"><ele>580</ele><time>2026-05-11T13:17:48.000Z</time></trkpt>
        <trkpt lat="29.565492" lon="103.432684"><ele>581</ele><time>2026-05-11T13:18:02.000Z</time></trkpt>
        <trkpt lat="29.565524" lon="103.432421"><ele>581</ele><time>2026-05-11T13:18:18.000Z</time></trkpt>
        <trkpt lat="29.565443" lon="103.432354"><ele>582</ele><time>2026-05-11T13:18:28.000Z</time></trkpt>
        <trkpt lat="29.565387" lon="103.432294"><ele>587</ele><time>2026-05-11T13:18:34.000Z</time></trkpt>
        <trkpt lat="29.565355" lon="103.432204"><ele>588</ele><time>2026-05-11T13:18:43.000Z</time></trkpt>
        <trkpt lat="29.565319" lon="103.432084"><ele>587</ele><time>2026-05-11T13:18:55.000Z</time></trkpt>
        <trkpt lat="29.565316" lon="103.432074"><ele>587</ele><time>2026-05-11T13:18:56.000Z</time></trkpt>
        <trkpt lat="29.565312" lon="103.432069"><ele>588</ele><time>2026-05-11T13:18:57.000Z</time></trkpt>
        <trkpt lat="29.565301" lon="103.432016"><ele>588</ele><time>2026-05-11T13:19:02.000Z</time></trkpt>
        <trkpt lat="29.5653" lon="103.432006"><ele>588</ele><time>2026-05-11T13:19:03.000Z</time></trkpt>
        <trkpt lat="29.565321" lon="103.431908"><ele>587</ele><time>2026-05-11T13:19:11.000Z</time></trkpt>
        <trkpt lat="29.565347" lon="103.431843"><ele>587</ele><time>2026-05-11T13:19:17.000Z</time></trkpt>
        <trkpt lat="29.56536" lon="103.431809"><ele>587</ele><time>2026-05-11T13:19:20.000Z</time></trkpt>
        <trkpt lat="29.565423" lon="103.431615"><ele>587</ele><time>2026-05-11T13:19:40.000Z</time></trkpt>
        <trkpt lat="29.565468" lon="103.431415"><ele>590</ele><time>2026-05-11T13:19:57.000Z</time></trkpt>
        <trkpt lat="29.565469" lon="103.431376"><ele>591</ele><time>2026-05-11T13:20:01.000Z</time></trkpt>
        <trkpt lat="29.565479" lon="103.431301"><ele>592</ele><time>2026-05-11T13:20:12.000Z</time></trkpt>
        <trkpt lat="29.565489" lon="103.431245"><ele>592</ele><time>2026-05-11T13:20:17.000Z</time></trkpt>
        <trkpt lat="29.565499" lon="103.431203"><ele>593</ele><time>2026-05-11T13:20:20.000Z</time></trkpt>
        <trkpt lat="29.5655" lon="103.431164"><ele>594</ele><time>2026-05-11T13:20:23.000Z</time></trkpt>
        <trkpt lat="29.565455" lon="103.430985"><ele>601</ele><time>2026-05-11T13:20:41.000Z</time></trkpt>
        <trkpt lat="29.565428" lon="103.430933"><ele>600</ele><time>2026-05-11T13:20:46.000Z</time></trkpt>
        <trkpt lat="29.56537" lon="103.430747"><ele>599</ele><time>2026-05-11T13:21:04.000Z</time></trkpt>
        <trkpt lat="29.565345" lon="103.430602"><ele>600</ele><time>2026-05-11T13:21:18.000Z</time></trkpt>
        <trkpt lat="29.565307" lon="103.430388"><ele>605</ele><time>2026-05-11T13:21:36.000Z</time></trkpt>
        <trkpt lat="29.565304" lon="103.430339"><ele>605</ele><time>2026-05-11T13:21:39.000Z</time></trkpt>
        <trkpt lat="29.56529" lon="103.430262"><ele>606</ele><time>2026-05-11T13:21:44.000Z</time></trkpt>
        <trkpt lat="29.565242" lon="103.430052"><ele>610</ele><time>2026-05-11T13:22:00.000Z</time></trkpt>
        <trkpt lat="29.565195" lon="103.429851"><ele>612</ele><time>2026-05-11T13:22:16.000Z</time></trkpt>
        <trkpt lat="29.565114" lon="103.429664"><ele>614</ele><time>2026-05-11T13:22:31.000Z</time></trkpt>
        <trkpt lat="29.565052" lon="103.429524"><ele>616</ele><time>2026-05-11T13:22:43.000Z</time></trkpt>
        <trkpt lat="29.565007" lon="103.42948"><ele>615</ele><time>2026-05-11T13:22:48.000Z</time></trkpt>
        <trkpt lat="29.564943" lon="103.429287"><ele>613</ele><time>2026-05-11T13:23:02.000Z</time></trkpt>
        <trkpt lat="29.564905" lon="103.429083"><ele>610</ele><time>2026-05-11T13:23:16.000Z</time></trkpt>
        <trkpt lat="29.564879" lon="103.428873"><ele>606</ele><time>2026-05-11T13:23:31.000Z</time></trkpt>
        <trkpt lat="29.564785" lon="103.428674"><ele>620</ele><time>2026-05-11T13:23:45.000Z</time></trkpt>
        <trkpt lat="29.564778" lon="103.428457"><ele>619</ele><time>2026-05-11T13:23:57.000Z</time></trkpt>
        <trkpt lat="29.564789" lon="103.428444"><ele>618</ele><time>2026-05-11T13:23:58.000Z</time></trkpt>
        <trkpt lat="29.564931" lon="103.428325"><ele>616</ele><time>2026-05-11T13:24:11.000Z</time></trkpt>
        <trkpt lat="29.564982" lon="103.428261"><ele>618</ele><time>2026-05-11T13:24:18.000Z</time></trkpt>
        <trkpt lat="29.565013" lon="103.428207"><ele>620</ele><time>2026-05-11T13:24:23.000Z</time></trkpt>
        <trkpt lat="29.565061" lon="103.42818"><ele>620</ele><time>2026-05-11T13:24:27.000Z</time></trkpt>
        <trkpt lat="29.56514" lon="103.428128"><ele>618</ele><time>2026-05-11T13:24:34.000Z</time></trkpt>
        <trkpt lat="29.565202" lon="103.428074"><ele>619</ele><time>2026-05-11T13:24:40.000Z</time></trkpt>
        <trkpt lat="29.565355" lon="103.428006"><ele>612</ele><time>2026-05-11T13:24:51.000Z</time></trkpt>
        <trkpt lat="29.565397" lon="103.428006"><ele>610</ele><time>2026-05-11T13:24:53.000Z</time></trkpt>
        <trkpt lat="29.565428" lon="103.428001"><ele>609</ele><time>2026-05-11T13:24:55.000Z</time></trkpt>
        <trkpt lat="29.565448" lon="103.427991"><ele>607</ele><time>2026-05-11T13:24:57.000Z</time></trkpt>
        <trkpt lat="29.565488" lon="103.427793"><ele>612</ele><time>2026-05-11T13:25:17.000Z</time></trkpt>
        <trkpt lat="29.565401" lon="103.42759"><ele>618</ele><time>2026-05-11T13:25:32.000Z</time></trkpt>
        <trkpt lat="29.565355" lon="103.427497"><ele>621</ele><time>2026-05-11T13:25:38.000Z</time></trkpt>
        <trkpt lat="29.565384" lon="103.427289"><ele>628</ele><time>2026-05-11T13:25:50.000Z</time></trkpt>
        <trkpt lat="29.565391" lon="103.427153"><ele>634</ele><time>2026-05-11T13:26:00.000Z</time></trkpt>
        <trkpt lat="29.565349" lon="103.427099"><ele>631</ele><time>2026-05-11T13:26:07.000Z</time></trkpt>
        <trkpt lat="29.565187" lon="103.42699"><ele>624</ele><time>2026-05-11T13:26:21.000Z</time></trkpt>
        <trkpt lat="29.565131" lon="103.426953"><ele>625</ele><time>2026-05-11T13:26:26.000Z</time></trkpt>
        <trkpt lat="29.565065" lon="103.426936"><ele>626</ele><time>2026-05-11T13:26:33.000Z</time></trkpt>
        <trkpt lat="29.565048" lon="103.426926"><ele>627</ele><time>2026-05-11T13:26:35.000Z</time></trkpt>
        <trkpt lat="29.565016" lon="103.426951"><ele>626</ele><time>2026-05-11T13:26:39.000Z</time></trkpt>
        <trkpt lat="29.565009" lon="103.426953"><ele>625</ele><time>2026-05-11T13:26:41.000Z</time></trkpt>
        <trkpt lat="29.564999" lon="103.426934"><ele>626</ele><time>2026-05-11T13:26:43.000Z</time></trkpt>
        <trkpt lat="29.564958" lon="103.42681"><ele>627</ele><time>2026-05-11T13:26:55.000Z</time></trkpt>
        <trkpt lat="29.564943" lon="103.426806"><ele>627</ele><time>2026-05-11T13:27:02.000Z</time></trkpt>
        <trkpt lat="29.564949" lon="103.426716"><ele>628</ele><time>2026-05-11T13:27:10.000Z</time></trkpt>
        <trkpt lat="29.564951" lon="103.426705"><ele>630</ele><time>2026-05-11T13:27:12.000Z</time></trkpt>
        <trkpt lat="29.564958" lon="103.426688"><ele>631</ele><time>2026-05-11T13:27:16.000Z</time></trkpt>
        <trkpt lat="29.564957" lon="103.426666"><ele>629</ele><time>2026-05-11T13:27:21.000Z</time></trkpt>
        <trkpt lat="29.564965" lon="103.426665"><ele>628</ele><time>2026-05-11T13:27:23.000Z</time></trkpt>
        <trkpt lat="29.564984" lon="103.426674"><ele>629</ele><time>2026-05-11T13:27:28.000Z</time></trkpt>
        <trkpt lat="29.564995" lon="103.426659"><ele>626</ele><time>2026-05-11T13:27:34.000Z</time></trkpt>
        <trkpt lat="29.565002" lon="103.426653"><ele>624</ele><time>2026-05-11T13:27:36.000Z</time></trkpt>
        <trkpt lat="29.565009" lon="103.426649"><ele>623</ele><time>2026-05-11T13:27:38.000Z</time></trkpt>
        <trkpt lat="29.565078" lon="103.426653"><ele>615</ele><time>2026-05-11T13:27:54.000Z</time></trkpt>
        <trkpt lat="29.565108" lon="103.426666"><ele>614</ele><time>2026-05-11T13:27:58.000Z</time></trkpt>
        <trkpt lat="29.565116" lon="103.426631"><ele>613</ele><time>2026-05-11T13:28:04.000Z</time></trkpt>
        <trkpt lat="29.565107" lon="103.426618"><ele>615</ele><time>2026-05-11T13:28:05.000Z</time></trkpt>
        <trkpt lat="29.565117" lon="103.426623"><ele>617</ele><time>2026-05-11T13:28:07.000Z</time></trkpt>
        <trkpt lat="29.565111" lon="103.426597"><ele>622</ele><time>2026-05-11T13:28:11.000Z</time></trkpt>
        <trkpt lat="29.565099" lon="103.426581"><ele>625</ele><time>2026-05-11T13:28:14.000Z</time></trkpt>
        <trkpt lat="29.565082" lon="103.426541"><ele>629</ele><time>2026-05-11T13:28:20.000Z</time></trkpt>
        <trkpt lat="29.565067" lon="103.426491"><ele>632</ele><time>2026-05-11T13:28:26.000Z</time></trkpt>
        <trkpt lat="29.565061" lon="103.426404"><ele>638</ele><time>2026-05-11T13:28:54.000Z</time></trkpt>
        <trkpt lat="29.565054" lon="103.426387"><ele>640</ele><time>2026-05-11T13:28:59.000Z</time></trkpt>
        <trkpt lat="29.565063" lon="103.426347"><ele>640</ele><time>2026-05-11T13:29:08.000Z</time></trkpt>
        <trkpt lat="29.565088" lon="103.426292"><ele>646</ele><time>2026-05-11T13:29:27.000Z</time></trkpt>
        <trkpt lat="29.565085" lon="103.426281"><ele>649</ele><time>2026-05-11T13:29:32.000Z</time></trkpt>
        <trkpt lat="29.565065" lon="103.426241"><ele>658</ele><time>2026-05-11T13:29:49.000Z</time></trkpt>
        <trkpt lat="29.565122" lon="103.426219"><ele>652</ele><time>2026-05-11T13:29:59.000Z</time></trkpt>
        <trkpt lat="29.565129" lon="103.426187"><ele>650</ele><time>2026-05-11T13:30:06.000Z</time></trkpt>
        <trkpt lat="29.565145" lon="103.426115"><ele>650</ele><time>2026-05-11T13:30:25.000Z</time></trkpt>
        <trkpt lat="29.565163" lon="103.426103"><ele>651</ele><time>2026-05-11T13:30:36.000Z</time></trkpt>
        <trkpt lat="29.565147" lon="103.426061"><ele>657</ele><time>2026-05-11T13:30:46.000Z</time></trkpt>
        <trkpt lat="29.565138" lon="103.426017"><ele>668</ele><time>2026-05-11T13:30:56.000Z</time></trkpt>
        <trkpt lat="29.565143" lon="103.426009"><ele>667</ele><time>2026-05-11T13:30:58.000Z</time></trkpt>
        <trkpt lat="29.565241" lon="103.425838"><ele>663</ele><time>2026-05-11T13:31:45.000Z</time></trkpt>
        <trkpt lat="29.565181" lon="103.425796"><ele>684</ele><time>2026-05-11T13:31:59.000Z</time></trkpt>
        <trkpt lat="29.565171" lon="103.425792"><ele>688</ele><time>2026-05-11T13:32:01.000Z</time></trkpt>
        <trkpt lat="29.565142" lon="103.42579"><ele>692</ele><time>2026-05-11T13:32:13.000Z</time></trkpt>
        <trkpt lat="29.565137" lon="103.425799"><ele>691</ele><time>2026-05-11T13:32:16.000Z</time></trkpt>
        <trkpt lat="29.565139" lon="103.425814"><ele>690</ele><time>2026-05-11T13:32:19.000Z</time></trkpt>
        <trkpt lat="29.565176" lon="103.425809"><ele>688</ele><time>2026-05-11T13:32:27.000Z</time></trkpt>
        <trkpt lat="29.565181" lon="103.425805"><ele>688</ele><time>2026-05-11T13:32:28.000Z</time></trkpt>
        <trkpt lat="29.565128" lon="103.425679"><ele>679</ele><time>2026-05-11T13:32:54.000Z</time></trkpt>
        <trkpt lat="29.565109" lon="103.425666"><ele>677</ele><time>2026-05-11T13:32:57.000Z</time></trkpt>
        <trkpt lat="29.565096" lon="103.425651"><ele>676</ele><time>2026-05-11T13:32:59.000Z</time></trkpt>
        <trkpt lat="29.565088" lon="103.425622"><ele>678</ele><time>2026-05-11T13:33:03.000Z</time></trkpt>
        <trkpt lat="29.565084" lon="103.425604"><ele>677</ele><time>2026-05-11T13:33:05.000Z</time></trkpt>
        <trkpt lat="29.565085" lon="103.425572"><ele>673</ele><time>2026-05-11T13:33:09.000Z</time></trkpt>
        <trkpt lat="29.565083" lon="103.425541"><ele>672</ele><time>2026-05-11T13:33:11.000Z</time></trkpt>
        <trkpt lat="29.56508" lon="103.42553"><ele>672</ele><time>2026-05-11T13:33:12.000Z</time></trkpt>
        <trkpt lat="29.565075" lon="103.425509"><ele>671</ele><time>2026-05-11T13:33:14.000Z</time></trkpt>
        <trkpt lat="29.565077" lon="103.425504"><ele>671</ele><time>2026-05-11T13:33:15.000Z</time></trkpt>
        <trkpt lat="29.565076" lon="103.425495"><ele>669</ele><time>2026-05-11T13:33:18.000Z</time></trkpt>
        <trkpt lat="29.565063" lon="103.425491"><ele>668</ele><time>2026-05-11T13:33:20.000Z</time></trkpt>
        <trkpt lat="29.565021" lon="103.425457"><ele>668</ele><time>2026-05-11T13:33:26.000Z</time></trkpt>
        <trkpt lat="29.565008" lon="103.425442"><ele>669</ele><time>2026-05-11T13:33:28.000Z</time></trkpt>
        <trkpt lat="29.564997" lon="103.425413"><ele>671</ele><time>2026-05-11T13:33:32.000Z</time></trkpt>
        <trkpt lat="29.565015" lon="103.425393"><ele>667</ele><time>2026-05-11T13:33:36.000Z</time></trkpt>
        <trkpt lat="29.564967" lon="103.425334"><ele>664</ele><time>2026-05-11T13:33:46.000Z</time></trkpt>
        <trkpt lat="29.564931" lon="103.425276"><ele>669</ele><time>2026-05-11T13:33:55.000Z</time></trkpt>
        <trkpt lat="29.564911" lon="103.425244"><ele>669</ele><time>2026-05-11T13:33:59.000Z</time></trkpt>
        <trkpt lat="29.564893" lon="103.425218"><ele>669</ele><time>2026-05-11T13:34:02.000Z</time></trkpt>
        <trkpt lat="29.564885" lon="103.425212"><ele>668</ele><time>2026-05-11T13:34:05.000Z</time></trkpt>
        <trkpt lat="29.56488" lon="103.425199"><ele>668</ele><time>2026-05-11T13:34:09.000Z</time></trkpt>
        <trkpt lat="29.564869" lon="103.42518"><ele>672</ele><time>2026-05-11T13:34:14.000Z</time></trkpt>
        <trkpt lat="29.564775" lon="103.425123"><ele>684</ele><time>2026-05-11T13:34:40.000Z</time></trkpt>
        <trkpt lat="29.564768" lon="103.42512"><ele>685</ele><time>2026-05-11T13:34:42.000Z</time></trkpt>
        <trkpt lat="29.564757" lon="103.425104"><ele>684</ele><time>2026-05-11T13:34:43.000Z</time></trkpt>
        <trkpt lat="29.564754" lon="103.425095"><ele>683</ele><time>2026-05-11T13:34:44.000Z</time></trkpt>
        <trkpt lat="29.564752" lon="103.425088"><ele>684</ele><time>2026-05-11T13:34:45.000Z</time></trkpt>
        <trkpt lat="29.56475" lon="103.425081"><ele>685</ele><time>2026-05-11T13:34:46.000Z</time></trkpt>
        <trkpt lat="29.564752" lon="103.425075"><ele>685</ele><time>2026-05-11T13:34:47.000Z</time></trkpt>
        <trkpt lat="29.564749" lon="103.425066"><ele>686</ele><time>2026-05-11T13:34:48.000Z</time></trkpt>
        <trkpt lat="29.56475" lon="103.425061"><ele>686</ele><time>2026-05-11T13:34:49.000Z</time></trkpt>
        <trkpt lat="29.564747" lon="103.425054"><ele>686</ele><time>2026-05-11T13:34:50.000Z</time></trkpt>
        <trkpt lat="29.564746" lon="103.425045"><ele>685</ele><time>2026-05-11T13:34:51.000Z</time></trkpt>
        <trkpt lat="29.564743" lon="103.425021"><ele>683</ele><time>2026-05-11T13:34:55.000Z</time></trkpt>
        <trkpt lat="29.564741" lon="103.42501"><ele>680</ele><time>2026-05-11T13:34:57.000Z</time></trkpt>
        <trkpt lat="29.564743" lon="103.42501"><ele>679</ele><time>2026-05-11T13:34:58.000Z</time></trkpt>
        <trkpt lat="29.564748" lon="103.425006"><ele>678</ele><time>2026-05-11T13:34:59.000Z</time></trkpt>
        <trkpt lat="29.56475" lon="103.425002"><ele>677</ele><time>2026-05-11T13:35:00.000Z</time></trkpt>
        <trkpt lat="29.564749" lon="103.424997"><ele>677</ele><time>2026-05-11T13:35:01.000Z</time></trkpt>
        <trkpt lat="29.564751" lon="103.424992"><ele>676</ele><time>2026-05-11T13:35:02.000Z</time></trkpt>
        <trkpt lat="29.564754" lon="103.424987"><ele>674</ele><time>2026-05-11T13:35:03.000Z</time></trkpt>
        <trkpt lat="29.564744" lon="103.424979"><ele>678</ele><time>2026-05-11T13:35:04.000Z</time></trkpt>
        <trkpt lat="29.564743" lon="103.424978"><ele>680</ele><time>2026-05-11T13:35:05.000Z</time></trkpt>
        <trkpt lat="29.564748" lon="103.424973"><ele>678</ele><time>2026-05-11T13:35:06.000Z</time></trkpt>
        <trkpt lat="29.564753" lon="103.424967"><ele>677</ele><time>2026-05-11T13:35:08.000Z</time></trkpt>
        <trkpt lat="29.564758" lon="103.424931"><ele>676</ele><time>2026-05-11T13:35:21.000Z</time></trkpt>
        <trkpt lat="29.564759" lon="103.42486"><ele>671</ele><time>2026-05-11T13:35:30.000Z</time></trkpt>
        <trkpt lat="29.564741" lon="103.424827"><ele>672</ele><time>2026-05-11T13:35:34.000Z</time></trkpt>
        <trkpt lat="29.564694" lon="103.424805"><ele>681</ele><time>2026-05-11T13:35:40.000Z</time></trkpt>
        <trkpt lat="29.56468" lon="103.424783"><ele>689</ele><time>2026-05-11T13:35:48.000Z</time></trkpt>
        <trkpt lat="29.564624" lon="103.424676"><ele>694</ele><time>2026-05-11T13:36:00.000Z</time></trkpt>
        <trkpt lat="29.564631" lon="103.424674"><ele>694</ele><time>2026-05-11T13:36:02.000Z</time></trkpt>
        <trkpt lat="29.564632" lon="103.424537"><ele>698</ele><time>2026-05-11T13:36:28.000Z</time></trkpt>
        <trkpt lat="29.564593" lon="103.424346"><ele>701</ele><time>2026-05-11T13:36:57.000Z</time></trkpt>
        <trkpt lat="29.564564" lon="103.424292"><ele>702</ele><time>2026-05-11T13:37:04.000Z</time></trkpt>
        <trkpt lat="29.564596" lon="103.424233"><ele>695</ele><time>2026-05-11T13:37:16.000Z</time></trkpt>
        <trkpt lat="29.564528" lon="103.424198"><ele>702</ele><time>2026-05-11T13:37:40.000Z</time></trkpt>
        <trkpt lat="29.564522" lon="103.424195"><ele>703</ele><time>2026-05-11T13:37:42.000Z</time></trkpt>
        <trkpt lat="29.564523" lon="103.424177"><ele>703</ele><time>2026-05-11T13:37:44.000Z</time></trkpt>
        <trkpt lat="29.564519" lon="103.424182"><ele>705</ele><time>2026-05-11T13:37:46.000Z</time></trkpt>
        <trkpt lat="29.564496" lon="103.424158"><ele>710</ele><time>2026-05-11T13:37:50.000Z</time></trkpt>
        <trkpt lat="29.564473" lon="103.424149"><ele>712</ele><time>2026-05-11T13:37:54.000Z</time></trkpt>
        <trkpt lat="29.564443" lon="103.424148"><ele>714</ele><time>2026-05-11T13:37:57.000Z</time></trkpt>
        <trkpt lat="29.56445" lon="103.424133"><ele>715</ele><time>2026-05-11T13:38:00.000Z</time></trkpt>
        <trkpt lat="29.56451" lon="103.424117"><ele>714</ele><time>2026-05-11T13:38:04.000Z</time></trkpt>
        <trkpt lat="29.564517" lon="103.424107"><ele>713</ele><time>2026-05-11T13:38:07.000Z</time></trkpt>
        <trkpt lat="29.564556" lon="103.424089"><ele>712</ele><time>2026-05-11T13:38:11.000Z</time></trkpt>
        <trkpt lat="29.564579" lon="103.424062"><ele>711</ele><time>2026-05-11T13:38:15.000Z</time></trkpt>
        <trkpt lat="29.564583" lon="103.424051"><ele>712</ele><time>2026-05-11T13:38:17.000Z</time></trkpt>
        <trkpt lat="29.564586" lon="103.424046"><ele>712</ele><time>2026-05-11T13:38:19.000Z</time></trkpt>
        <trkpt lat="29.564608" lon="103.424038"><ele>712</ele><time>2026-05-11T13:38:21.000Z</time></trkpt>
        <trkpt lat="29.564615" lon="103.424004"><ele>718</ele><time>2026-05-11T13:38:31.000Z</time></trkpt>
        <trkpt lat="29.564622" lon="103.423969"><ele>721</ele><time>2026-05-11T13:38:35.000Z</time></trkpt>
        <trkpt lat="29.564641" lon="103.423967"><ele>720</ele><time>2026-05-11T13:38:37.000Z</time></trkpt>
        <trkpt lat="29.564648" lon="103.423954"><ele>718</ele><time>2026-05-11T13:38:40.000Z</time></trkpt>
        <trkpt lat="29.564598" lon="103.423922"><ele>717</ele><time>2026-05-11T13:38:46.000Z</time></trkpt>
        <trkpt lat="29.564575" lon="103.423902"><ele>718</ele><time>2026-05-11T13:38:50.000Z</time></trkpt>
        <trkpt lat="29.56454" lon="103.423863"><ele>722</ele><time>2026-05-11T13:38:57.000Z</time></trkpt>
        <trkpt lat="29.564547" lon="103.423842"><ele>725</ele><time>2026-05-11T13:39:02.000Z</time></trkpt>
        <trkpt lat="29.564545" lon="103.423827"><ele>725</ele><time>2026-05-11T13:39:05.000Z</time></trkpt>
        <trkpt lat="29.564548" lon="103.423824"><ele>724</ele><time>2026-05-11T13:39:07.000Z</time></trkpt>
        <trkpt lat="29.564546" lon="103.423822"><ele>724</ele><time>2026-05-11T13:39:09.000Z</time></trkpt>
        <trkpt lat="29.564515" lon="103.423803"><ele>722</ele><time>2026-05-11T13:39:15.000Z</time></trkpt>
        <trkpt lat="29.564538" lon="103.423734"><ele>724</ele><time>2026-05-11T13:39:23.000Z</time></trkpt>
        <trkpt lat="29.564568" lon="103.42363"><ele>723</ele><time>2026-05-11T13:39:33.000Z</time></trkpt>
        <trkpt lat="29.56458" lon="103.423607"><ele>722</ele><time>2026-05-11T13:39:38.000Z</time></trkpt>
        <trkpt lat="29.564584" lon="103.423594"><ele>723</ele><time>2026-05-11T13:39:41.000Z</time></trkpt>
        <trkpt lat="29.564538" lon="103.423475"><ele>721</ele><time>2026-05-11T13:39:52.000Z</time></trkpt>
        <trkpt lat="29.564503" lon="103.423357"><ele>719</ele><time>2026-05-11T13:40:14.000Z</time></trkpt>
        <trkpt lat="29.564503" lon="103.423345"><ele>719</ele><time>2026-05-11T13:40:18.000Z</time></trkpt>
        <trkpt lat="29.564486" lon="103.423328"><ele>719</ele><time>2026-05-11T13:40:21.000Z</time></trkpt>
        <trkpt lat="29.564475" lon="103.423298"><ele>720</ele><time>2026-05-11T13:40:25.000Z</time></trkpt>
        <trkpt lat="29.564436" lon="103.423193"><ele>732</ele><time>2026-05-11T13:40:40.000Z</time></trkpt>
        <trkpt lat="29.564429" lon="103.423019"><ele>741</ele><time>2026-05-11T13:41:16.000Z</time></trkpt>
        <trkpt lat="29.564439" lon="103.422916"><ele>745</ele><time>2026-05-11T13:41:40.000Z</time></trkpt>
        <trkpt lat="29.564425" lon="103.422853"><ele>748</ele><time>2026-05-11T13:41:51.000Z</time></trkpt>
        <trkpt lat="29.564397" lon="103.422826"><ele>760</ele><time>2026-05-11T13:42:03.000Z</time></trkpt>
        <trkpt lat="29.56438" lon="103.422761"><ele>759</ele><time>2026-05-11T13:42:13.000Z</time></trkpt>
        <trkpt lat="29.56438" lon="103.422689"><ele>751</ele><time>2026-05-11T13:42:20.000Z</time></trkpt>
        <trkpt lat="29.564385" lon="103.422672"><ele>750</ele><time>2026-05-11T13:42:23.000Z</time></trkpt>
        <trkpt lat="29.564347" lon="103.422469"><ele>748</ele><time>2026-05-11T13:42:49.000Z</time></trkpt>
        <trkpt lat="29.564373" lon="103.422376"><ele>740</ele><time>2026-05-11T13:43:11.000Z</time></trkpt>
        <trkpt lat="29.564371" lon="103.422371"><ele>740</ele><time>2026-05-11T13:43:12.000Z</time></trkpt>
        <trkpt lat="29.564371" lon="103.422356"><ele>740</ele><time>2026-05-11T13:43:17.000Z</time></trkpt>
        <trkpt lat="29.564373" lon="103.422352"><ele>741</ele><time>2026-05-11T13:43:18.000Z</time></trkpt>
        <trkpt lat="29.564376" lon="103.422354"><ele>742</ele><time>2026-05-11T13:43:19.000Z</time></trkpt>
        <trkpt lat="29.564372" lon="103.42235"><ele>743</ele><time>2026-05-11T13:43:21.000Z</time></trkpt>
        <trkpt lat="29.564369" lon="103.422345"><ele>743</ele><time>2026-05-11T13:43:22.000Z</time></trkpt>
        <trkpt lat="29.564363" lon="103.422341"><ele>743</ele><time>2026-05-11T13:43:23.000Z</time></trkpt>
        <trkpt lat="29.564367" lon="103.422348"><ele>744</ele><time>2026-05-11T13:43:24.000Z</time></trkpt>
        <trkpt lat="29.564365" lon="103.422344"><ele>745</ele><time>2026-05-11T13:43:25.000Z</time></trkpt>
        <trkpt lat="29.564369" lon="103.422343"><ele>745</ele><time>2026-05-11T13:43:26.000Z</time></trkpt>
        <trkpt lat="29.564361" lon="103.422322"><ele>748</ele><time>2026-05-11T13:43:31.000Z</time></trkpt>
        <trkpt lat="29.56435" lon="103.422288"><ele>749</ele><time>2026-05-11T13:43:37.000Z</time></trkpt>
        <trkpt lat="29.56436" lon="103.422307"><ele>752</ele><time>2026-05-11T13:43:39.000Z</time></trkpt>
        <trkpt lat="29.564355" lon="103.422286"><ele>754</ele><time>2026-05-11T13:43:42.000Z</time></trkpt>
        <trkpt lat="29.564316" lon="103.422103"><ele>761</ele><time>2026-05-11T13:44:02.000Z</time></trkpt>
        <trkpt lat="29.564338" lon="103.422121"><ele>762</ele><time>2026-05-11T13:44:08.000Z</time></trkpt>
        <trkpt lat="29.564326" lon="103.422105"><ele>761</ele><time>2026-05-11T13:44:11.000Z</time></trkpt>
        <trkpt lat="29.564315" lon="103.422034"><ele>755</ele><time>2026-05-11T13:44:20.000Z</time></trkpt>
        <trkpt lat="29.564306" lon="103.422016"><ele>754</ele><time>2026-05-11T13:44:23.000Z</time></trkpt>
        <trkpt lat="29.564286" lon="103.421979"><ele>755</ele><time>2026-05-11T13:44:31.000Z</time></trkpt>
        <trkpt lat="29.564281" lon="103.42196"><ele>755</ele><time>2026-05-11T13:44:34.000Z</time></trkpt>
        <trkpt lat="29.56428" lon="103.421952"><ele>756</ele><time>2026-05-11T13:44:36.000Z</time></trkpt>
        <trkpt lat="29.564283" lon="103.421937"><ele>756</ele><time>2026-05-11T13:44:39.000Z</time></trkpt>
        <trkpt lat="29.564285" lon="103.421927"><ele>757</ele><time>2026-05-11T13:44:42.000Z</time></trkpt>
        <trkpt lat="29.564279" lon="103.421907"><ele>756</ele><time>2026-05-11T13:44:46.000Z</time></trkpt>
        <trkpt lat="29.564279" lon="103.421887"><ele>756</ele><time>2026-05-11T13:44:49.000Z</time></trkpt>
        <trkpt lat="29.56428" lon="103.421864"><ele>757</ele><time>2026-05-11T13:44:52.000Z</time></trkpt>
        <trkpt lat="29.564294" lon="103.421827"><ele>761</ele><time>2026-05-11T13:45:03.000Z</time></trkpt>
        <trkpt lat="29.564297" lon="103.421717"><ele>772</ele><time>2026-05-11T13:45:34.000Z</time></trkpt>
        <trkpt lat="29.564284" lon="103.421718"><ele>775</ele><time>2026-05-11T13:45:37.000Z</time></trkpt>
        <trkpt lat="29.564281" lon="103.421728"><ele>778</ele><time>2026-05-11T13:45:40.000Z</time></trkpt>
        <trkpt lat="29.56428" lon="103.421717"><ele>781</ele><time>2026-05-11T13:45:47.000Z</time></trkpt>
        <trkpt lat="29.564301" lon="103.421721"><ele>784</ele><time>2026-05-11T13:46:02.000Z</time></trkpt>
        <trkpt lat="29.564308" lon="103.421695"><ele>785</ele><time>2026-05-11T13:46:10.000Z</time></trkpt>
        <trkpt lat="29.564304" lon="103.42167"><ele>783</ele><time>2026-05-11T13:46:13.000Z</time></trkpt>
        <trkpt lat="29.564298" lon="103.421655"><ele>782</ele><time>2026-05-11T13:46:16.000Z</time></trkpt>
        <trkpt lat="29.564287" lon="103.421624"><ele>787</ele><time>2026-05-11T13:46:28.000Z</time></trkpt>
        <trkpt lat="29.564263" lon="103.421424"><ele>806</ele><time>2026-05-11T13:47:03.000Z</time></trkpt>
        <trkpt lat="29.564284" lon="103.421361"><ele>801</ele><time>2026-05-11T13:47:09.000Z</time></trkpt>
        <trkpt lat="29.56446" lon="103.421216"><ele>786</ele><time>2026-05-11T13:47:41.000Z</time></trkpt>
        <trkpt lat="29.564548" lon="103.421097"><ele>794</ele><time>2026-05-11T13:48:06.000Z</time></trkpt>
        <trkpt lat="29.56459" lon="103.421081"><ele>808</ele><time>2026-05-11T13:48:17.000Z</time></trkpt>
        <trkpt lat="29.564604" lon="103.42109"><ele>809</ele><time>2026-05-11T13:48:18.000Z</time></trkpt>
        <trkpt lat="29.56463" lon="103.421101"><ele>813</ele><time>2026-05-11T13:48:25.000Z</time></trkpt>
        <trkpt lat="29.564631" lon="103.421102"><ele>813</ele><time>2026-05-11T13:48:26.000Z</time></trkpt>
        <trkpt lat="29.564628" lon="103.421114"><ele>816</ele><time>2026-05-11T13:48:30.000Z</time></trkpt>
        <trkpt lat="29.56463" lon="103.421123"><ele>819</ele><time>2026-05-11T13:48:33.000Z</time></trkpt>
        <trkpt lat="29.564642" lon="103.421143"><ele>822</ele><time>2026-05-11T13:48:36.000Z</time></trkpt>
        <trkpt lat="29.564653" lon="103.421159"><ele>823</ele><time>2026-05-11T13:48:38.000Z</time></trkpt>
        <trkpt lat="29.56468" lon="103.421184"><ele>827</ele><time>2026-05-11T13:48:43.000Z</time></trkpt>
        <trkpt lat="29.564747" lon="103.421237"><ele>825</ele><time>2026-05-11T13:48:52.000Z</time></trkpt>
        <trkpt lat="29.564752" lon="103.421245"><ele>825</ele><time>2026-05-11T13:48:53.000Z</time></trkpt>
        <trkpt lat="29.564803" lon="103.421313"><ele>823</ele><time>2026-05-11T13:49:05.000Z</time></trkpt>
        <trkpt lat="29.564893" lon="103.42135"><ele>810</ele><time>2026-05-11T13:49:17.000Z</time></trkpt>
        <trkpt lat="29.564953" lon="103.421386"><ele>810</ele><time>2026-05-11T13:49:31.000Z</time></trkpt>
        <trkpt lat="29.56498" lon="103.421358"><ele>819</ele><time>2026-05-11T13:49:42.000Z</time></trkpt>
        <trkpt lat="29.564986" lon="103.421358"><ele>821</ele><time>2026-05-11T13:49:44.000Z</time></trkpt>
        <trkpt lat="29.564987" lon="103.421356"><ele>823</ele><time>2026-05-11T13:49:46.000Z</time></trkpt>
        <trkpt lat="29.564989" lon="103.421365"><ele>828</ele><time>2026-05-11T13:49:50.000Z</time></trkpt>
        <trkpt lat="29.564991" lon="103.421363"><ele>829</ele><time>2026-05-11T13:49:51.000Z</time></trkpt>
        <trkpt lat="29.564992" lon="103.421356"><ele>830</ele><time>2026-05-11T13:49:53.000Z</time></trkpt>
        <trkpt lat="29.56505" lon="103.421357"><ele>835</ele><time>2026-05-11T13:50:12.000Z</time></trkpt>
        <trkpt lat="29.565069" lon="103.421352"><ele>830</ele><time>2026-05-11T13:50:24.000Z</time></trkpt>
        <trkpt lat="29.565069" lon="103.421355"><ele>831</ele><time>2026-05-11T13:50:30.000Z</time></trkpt>
        <trkpt lat="29.565065" lon="103.421359"><ele>832</ele><time>2026-05-11T13:50:48.000Z</time></trkpt>
        <trkpt lat="29.565068" lon="103.421366"><ele>831</ele><time>2026-05-11T13:50:57.000Z</time></trkpt>
        <trkpt lat="29.565073" lon="103.421372"><ele>830</ele><time>2026-05-11T13:51:00.000Z</time></trkpt>
        <trkpt lat="29.565074" lon="103.421371"><ele>830</ele><time>2026-05-11T13:51:01.000Z</time></trkpt>
        <trkpt lat="29.565074" lon="103.421372"><ele>830</ele><time>2026-05-11T13:51:02.000Z</time></trkpt>
        <trkpt lat="29.565085" lon="103.42137"><ele>826</ele><time>2026-05-11T13:51:09.000Z</time></trkpt>
        <trkpt lat="29.56509" lon="103.421373"><ele>825</ele><time>2026-05-11T13:51:12.000Z</time></trkpt>
        <trkpt lat="29.565109" lon="103.42138"><ele>821</ele><time>2026-05-11T13:51:24.000Z</time></trkpt>
        <trkpt lat="29.565113" lon="103.42138"><ele>821</ele><time>2026-05-11T13:51:26.000Z</time></trkpt>
        <trkpt lat="29.565127" lon="103.421373"><ele>819</ele><time>2026-05-11T13:51:34.000Z</time></trkpt>
        <trkpt lat="29.565126" lon="103.42137"><ele>818</ele><time>2026-05-11T13:51:40.000Z</time></trkpt>
        <trkpt lat="29.565117" lon="103.421353"><ele>817</ele><time>2026-05-11T13:51:50.000Z</time></trkpt>
        <trkpt lat="29.565113" lon="103.42134"><ele>816</ele><time>2026-05-11T13:51:56.000Z</time></trkpt>
        <trkpt lat="29.565119" lon="103.421329"><ele>815</ele><time>2026-05-11T13:51:59.000Z</time></trkpt>
        <trkpt lat="29.565157" lon="103.421296"><ele>812</ele><time>2026-05-11T13:52:11.000Z</time></trkpt>
        <trkpt lat="29.565181" lon="103.421279"><ele>811</ele><time>2026-05-11T13:52:18.000Z</time></trkpt>
        <trkpt lat="29.565219" lon="103.421248"><ele>811</ele><time>2026-05-11T13:52:26.000Z</time></trkpt>
        <trkpt lat="29.565252" lon="103.421216"><ele>813</ele><time>2026-05-11T13:52:34.000Z</time></trkpt>
        <trkpt lat="29.565283" lon="103.421202"><ele>815</ele><time>2026-05-11T13:52:42.000Z</time></trkpt>
        <trkpt lat="29.565291" lon="103.421198"><ele>816</ele><time>2026-05-11T13:52:44.000Z</time></trkpt>
        <trkpt lat="29.565309" lon="103.421187"><ele>822</ele><time>2026-05-11T13:52:52.000Z</time></trkpt>
        <trkpt lat="29.56536" lon="103.421166"><ele>825</ele><time>2026-05-11T13:53:07.000Z</time></trkpt>
        <trkpt lat="29.565407" lon="103.421154"><ele>825</ele><time>2026-05-11T13:53:14.000Z</time></trkpt>
        <trkpt lat="29.565436" lon="103.421143"><ele>824</ele><time>2026-05-11T13:53:18.000Z</time></trkpt>
        <trkpt lat="29.565476" lon="103.421132"><ele>822</ele><time>2026-05-11T13:53:23.000Z</time></trkpt>
        <trkpt lat="29.56549" lon="103.421116"><ele>823</ele><time>2026-05-11T13:53:27.000Z</time></trkpt>
        <trkpt lat="29.565533" lon="103.421083"><ele>824</ele><time>2026-05-11T13:53:33.000Z</time></trkpt>
        <trkpt lat="29.56555" lon="103.42107"><ele>824</ele><time>2026-05-11T13:53:35.000Z</time></trkpt>
        <trkpt lat="29.56558" lon="103.421063"><ele>824</ele><time>2026-05-11T13:53:37.000Z</time></trkpt>
        <trkpt lat="29.565636" lon="103.42106"><ele>824</ele><time>2026-05-11T13:53:43.000Z</time></trkpt>
        <trkpt lat="29.56568" lon="103.421066"><ele>825</ele><time>2026-05-11T13:53:48.000Z</time></trkpt>
        <trkpt lat="29.565771" lon="103.421083"><ele>826</ele><time>2026-05-11T13:53:58.000Z</time></trkpt>
        <trkpt lat="29.5658" lon="103.42108"><ele>827</ele><time>2026-05-11T13:54:01.000Z</time></trkpt>
        <trkpt lat="29.565858" lon="103.421088"><ele>830</ele><time>2026-05-11T13:54:08.000Z</time></trkpt>
        <trkpt lat="29.565875" lon="103.421092"><ele>831</ele><time>2026-05-11T13:54:10.000Z</time></trkpt>
        <trkpt lat="29.565893" lon="103.421099"><ele>832</ele><time>2026-05-11T13:54:13.000Z</time></trkpt>
        <trkpt lat="29.565911" lon="103.421103"><ele>832</ele><time>2026-05-11T13:54:15.000Z</time></trkpt>
        <trkpt lat="29.566017" lon="103.421132"><ele>832</ele><time>2026-05-11T13:54:36.000Z</time></trkpt>
        <trkpt lat="29.566086" lon="103.421117"><ele>833</ele><time>2026-05-11T13:54:47.000Z</time></trkpt>
        <trkpt lat="29.56613" lon="103.421103"><ele>832</ele><time>2026-05-11T13:54:52.000Z</time></trkpt>
        <trkpt lat="29.56622" lon="103.420933"><ele>834</ele><time>2026-05-11T13:55:18.000Z</time></trkpt>
        <trkpt lat="29.566246" lon="103.420813"><ele>836</ele><time>2026-05-11T13:55:28.000Z</time></trkpt>
        <trkpt lat="29.566294" lon="103.42061"><ele>839</ele><time>2026-05-11T13:55:46.000Z</time></trkpt>
        <trkpt lat="29.566348" lon="103.420458"><ele>839</ele><time>2026-05-11T13:56:01.000Z</time></trkpt>
        <trkpt lat="29.566412" lon="103.420332"><ele>836</ele><time>2026-05-11T13:56:13.000Z</time></trkpt>
        <trkpt lat="29.566433" lon="103.420304"><ele>837</ele><time>2026-05-11T13:56:16.000Z</time></trkpt>
        <trkpt lat="29.56644" lon="103.420294"><ele>838</ele><time>2026-05-11T13:56:17.000Z</time></trkpt>
        <trkpt lat="29.566533" lon="103.420103"><ele>842</ele><time>2026-05-11T13:56:33.000Z</time></trkpt>
        <trkpt lat="29.566539" lon="103.420035"><ele>843</ele><time>2026-05-11T13:56:38.000Z</time></trkpt>
        <trkpt lat="29.566603" lon="103.419849"><ele>848</ele><time>2026-05-11T13:56:55.000Z</time></trkpt>
        <trkpt lat="29.566636" lon="103.419825"><ele>848</ele><time>2026-05-11T13:57:00.000Z</time></trkpt>
        <trkpt lat="29.566644" lon="103.419821"><ele>848</ele><time>2026-05-11T13:57:01.000Z</time></trkpt>
        <trkpt lat="29.566663" lon="103.419808"><ele>848</ele><time>2026-05-11T13:57:03.000Z</time></trkpt>
        <trkpt lat="29.56668" lon="103.419798"><ele>849</ele><time>2026-05-11T13:57:06.000Z</time></trkpt>
        <trkpt lat="29.566688" lon="103.419791"><ele>850</ele><time>2026-05-11T13:57:09.000Z</time></trkpt>
        <trkpt lat="29.566689" lon="103.419787"><ele>850</ele><time>2026-05-11T13:57:11.000Z</time></trkpt>
        <trkpt lat="29.566703" lon="103.419781"><ele>850</ele><time>2026-05-11T13:57:15.000Z</time></trkpt>
        <trkpt lat="29.566709" lon="103.419785"><ele>850</ele><time>2026-05-11T13:57:17.000Z</time></trkpt>
        <trkpt lat="29.566749" lon="103.419863"><ele>854</ele><time>2026-05-11T13:57:27.000Z</time></trkpt>
        <trkpt lat="29.566791" lon="103.419932"><ele>858</ele><time>2026-05-11T13:57:39.000Z</time></trkpt>
        <trkpt lat="29.566821" lon="103.419996"><ele>864</ele><time>2026-05-11T13:57:53.000Z</time></trkpt>
        <trkpt lat="29.566848" lon="103.420076"><ele>878</ele><time>2026-05-11T13:58:15.000Z</time></trkpt>
        <trkpt lat="29.566911" lon="103.420224"><ele>865</ele><time>2026-05-11T13:58:48.000Z</time></trkpt>
        <trkpt lat="29.566941" lon="103.420261"><ele>857</ele><time>2026-05-11T13:58:52.000Z</time></trkpt>
        <trkpt lat="29.566974" lon="103.420314"><ele>854</ele><time>2026-05-11T13:59:00.000Z</time></trkpt>
        <trkpt lat="29.567127" lon="103.420423"><ele>858</ele><time>2026-05-11T13:59:33.000Z</time></trkpt>
        <trkpt lat="29.567248" lon="103.420454"><ele>858</ele><time>2026-05-11T13:59:57.000Z</time></trkpt>
        <trkpt lat="29.567258" lon="103.420447"><ele>858</ele><time>2026-05-11T14:00:00.000Z</time></trkpt>
        <trkpt lat="29.567287" lon="103.420433"><ele>858</ele><time>2026-05-11T14:00:05.000Z</time></trkpt>
        <trkpt lat="29.567371" lon="103.420428"><ele>862</ele><time>2026-05-11T14:00:33.000Z</time></trkpt>
        <trkpt lat="29.567433" lon="103.42042"><ele>867</ele><time>2026-05-11T14:00:47.000Z</time></trkpt>
        <trkpt lat="29.567439" lon="103.420419"><ele>868</ele><time>2026-05-11T14:00:51.000Z</time></trkpt>
        <trkpt lat="29.56752" lon="103.420345"><ele>876</ele><time>2026-05-11T14:01:12.000Z</time></trkpt>
        <trkpt lat="29.567598" lon="103.420305"><ele>881</ele><time>2026-05-11T14:01:39.000Z</time></trkpt>
        <trkpt lat="29.567639" lon="103.420281"><ele>883</ele><time>2026-05-11T14:01:53.000Z</time></trkpt>
        <trkpt lat="29.567795" lon="103.420208"><ele>896</ele><time>2026-05-11T14:02:33.000Z</time></trkpt>
        <trkpt lat="29.567946" lon="103.420113"><ele>897</ele><time>2026-05-11T14:03:04.000Z</time></trkpt>
        <trkpt lat="29.567988" lon="103.420127"><ele>896</ele><time>2026-05-11T14:03:19.000Z</time></trkpt>
        <trkpt lat="29.568086" lon="103.420068"><ele>900</ele><time>2026-05-11T14:03:51.000Z</time></trkpt>
        <trkpt lat="29.568193" lon="103.420064"><ele>901</ele><time>2026-05-11T14:04:16.000Z</time></trkpt>
        <trkpt lat="29.568238" lon="103.420063"><ele>902</ele><time>2026-05-11T14:04:26.000Z</time></trkpt>
        <trkpt lat="29.568412" lon="103.420031"><ele>921</ele><time>2026-05-11T14:05:24.000Z</time></trkpt>
        <trkpt lat="29.568591" lon="103.420064"><ele>916</ele><time>2026-05-11T14:06:08.000Z</time></trkpt>
        <trkpt lat="29.568614" lon="103.420051"><ele>917</ele><time>2026-05-11T14:06:14.000Z</time></trkpt>
        <trkpt lat="29.568631" lon="103.420047"><ele>919</ele><time>2026-05-11T14:06:18.000Z</time></trkpt>
        <trkpt lat="29.568656" lon="103.420022"><ele>923</ele><time>2026-05-11T14:06:24.000Z</time></trkpt>
        <trkpt lat="29.568717" lon="103.419973"><ele>935</ele><time>2026-05-11T14:06:51.000Z</time></trkpt>
        <trkpt lat="29.568828" lon="103.419939"><ele>939</ele><time>2026-05-11T14:07:16.000Z</time></trkpt>
        <trkpt lat="29.568932" lon="103.419883"><ele>939</ele><time>2026-05-11T14:07:33.000Z</time></trkpt>
        <trkpt lat="29.569054" lon="103.419839"><ele>935</ele><time>2026-05-11T14:07:44.000Z</time></trkpt>
        <trkpt lat="29.569153" lon="103.419818"><ele>933</ele><time>2026-05-11T14:07:55.000Z</time></trkpt>
        <trkpt lat="29.569172" lon="103.419817"><ele>933</ele><time>2026-05-11T14:07:57.000Z</time></trkpt>
        <trkpt lat="29.569241" lon="103.419811"><ele>930</ele><time>2026-05-11T14:08:05.000Z</time></trkpt>
        <trkpt lat="29.569267" lon="103.419801"><ele>930</ele><time>2026-05-11T14:08:09.000Z</time></trkpt>
        <trkpt lat="29.569329" lon="103.419784"><ele>931</ele><time>2026-05-11T14:08:16.000Z</time></trkpt>
        <trkpt lat="29.569408" lon="103.419709"><ele>929</ele><time>2026-05-11T14:08:31.000Z</time></trkpt>
        <trkpt lat="29.56941" lon="103.419639"><ele>930</ele><time>2026-05-11T14:08:39.000Z</time></trkpt>
        <trkpt lat="29.569428" lon="103.419608"><ele>930</ele><time>2026-05-11T14:08:44.000Z</time></trkpt>
        <trkpt lat="29.569503" lon="103.419536"><ele>928</ele><time>2026-05-11T14:08:55.000Z</time></trkpt>
        <trkpt lat="29.569524" lon="103.419505"><ele>927</ele><time>2026-05-11T14:08:58.000Z</time></trkpt>
        <trkpt lat="29.569617" lon="103.419383"><ele>920</ele><time>2026-05-11T14:09:13.000Z</time></trkpt>
        <trkpt lat="29.569636" lon="103.419361"><ele>919</ele><time>2026-05-11T14:09:16.000Z</time></trkpt>
        <trkpt lat="29.569698" lon="103.419273"><ele>918</ele><time>2026-05-11T14:09:26.000Z</time></trkpt>
        <trkpt lat="29.569702" lon="103.419252"><ele>919</ele><time>2026-05-11T14:09:28.000Z</time></trkpt>
        <trkpt lat="29.569697" lon="103.419229"><ele>920</ele><time>2026-05-11T14:09:30.000Z</time></trkpt>
        <trkpt lat="29.5697" lon="103.41916"><ele>923</ele><time>2026-05-11T14:09:37.000Z</time></trkpt>
        <trkpt lat="29.569708" lon="103.418953"><ele>922</ele><time>2026-05-11T14:09:55.000Z</time></trkpt>
        <trkpt lat="29.569735" lon="103.418807"><ele>922</ele><time>2026-05-11T14:10:15.000Z</time></trkpt>
        <trkpt lat="29.569734" lon="103.418804"><ele>922</ele><time>2026-05-11T14:10:16.000Z</time></trkpt>
        <trkpt lat="29.569733" lon="103.4188"><ele>922</ele><time>2026-05-11T14:10:21.000Z</time></trkpt>
        <trkpt lat="29.569696" lon="103.418586"><ele>936</ele><time>2026-05-11T14:10:44.000Z</time></trkpt>
        <trkpt lat="29.569705" lon="103.418546"><ele>937</ele><time>2026-05-11T14:10:47.000Z</time></trkpt>
        <trkpt lat="29.569728" lon="103.418497"><ele>938</ele><time>2026-05-11T14:10:53.000Z</time></trkpt>
        <trkpt lat="29.569734" lon="103.418474"><ele>938</ele><time>2026-05-11T14:10:57.000Z</time></trkpt>
        <trkpt lat="29.569728" lon="103.418464"><ele>938</ele><time>2026-05-11T14:10:58.000Z</time></trkpt>
        <trkpt lat="29.56972" lon="103.418445"><ele>938</ele><time>2026-05-11T14:11:00.000Z</time></trkpt>
        <trkpt lat="29.569716" lon="103.418412"><ele>938</ele><time>2026-05-11T14:11:03.000Z</time></trkpt>
        <trkpt lat="29.569718" lon="103.418394"><ele>937</ele><time>2026-05-11T14:11:05.000Z</time></trkpt>
        <trkpt lat="29.56971" lon="103.418297"><ele>933</ele><time>2026-05-11T14:11:14.000Z</time></trkpt>
        <trkpt lat="29.569702" lon="103.418137"><ele>929</ele><time>2026-05-11T14:11:25.000Z</time></trkpt>
        <trkpt lat="29.569733" lon="103.418029"><ele>928</ele><time>2026-05-11T14:11:33.000Z</time></trkpt>
        <trkpt lat="29.569754" lon="103.417965"><ele>927</ele><time>2026-05-11T14:11:37.000Z</time></trkpt>
        <trkpt lat="29.569891" lon="103.417804"><ele>926</ele><time>2026-05-11T14:11:50.000Z</time></trkpt>
        <trkpt lat="29.56997" lon="103.417658"><ele>921</ele><time>2026-05-11T14:12:05.000Z</time></trkpt>
        <trkpt lat="29.569979" lon="103.417596"><ele>921</ele><time>2026-05-11T14:12:11.000Z</time></trkpt>
        <trkpt lat="29.569967" lon="103.41754"><ele>920</ele><time>2026-05-11T14:12:14.000Z</time></trkpt>
        <trkpt lat="29.569981" lon="103.417326"><ele>919</ele><time>2026-05-11T14:12:28.000Z</time></trkpt>
        <trkpt lat="29.569999" lon="103.417135"><ele>919</ele><time>2026-05-11T14:12:45.000Z</time></trkpt>
        <trkpt lat="29.570021" lon="103.417111"><ele>920</ele><time>2026-05-11T14:12:48.000Z</time></trkpt>
        <trkpt lat="29.570092" lon="103.417075"><ele>922</ele><time>2026-05-11T14:12:53.000Z</time></trkpt>
        <trkpt lat="29.57015" lon="103.417053"><ele>922</ele><time>2026-05-11T14:12:57.000Z</time></trkpt>
        <trkpt lat="29.570185" lon="103.417039"><ele>922</ele><time>2026-05-11T14:13:01.000Z</time></trkpt>
        <trkpt lat="29.570211" lon="103.417014"><ele>921</ele><time>2026-05-11T14:13:05.000Z</time></trkpt>
        <trkpt lat="29.570231" lon="103.416951"><ele>918</ele><time>2026-05-11T14:13:10.000Z</time></trkpt>
        <trkpt lat="29.570217" lon="103.416905"><ele>917</ele><time>2026-05-11T14:13:14.000Z</time></trkpt>
        <trkpt lat="29.570221" lon="103.416804"><ele>916</ele><time>2026-05-11T14:13:23.000Z</time></trkpt>
        <trkpt lat="29.570234" lon="103.416782"><ele>915</ele><time>2026-05-11T14:13:25.000Z</time></trkpt>
        <trkpt lat="29.570239" lon="103.416566"><ele>913</ele><time>2026-05-11T14:13:43.000Z</time></trkpt>
        <trkpt lat="29.570248" lon="103.416486"><ele>912</ele><time>2026-05-11T14:13:52.000Z</time></trkpt>
        <trkpt lat="29.570261" lon="103.416326"><ele>911</ele><time>2026-05-11T14:14:06.000Z</time></trkpt>
        <trkpt lat="29.570257" lon="103.416303"><ele>911</ele><time>2026-05-11T14:14:08.000Z</time></trkpt>
        <trkpt lat="29.570266" lon="103.416265"><ele>912</ele><time>2026-05-11T14:14:11.000Z</time></trkpt>
        <trkpt lat="29.570404" lon="103.416154"><ele>916</ele><time>2026-05-11T14:14:24.000Z</time></trkpt>
        <trkpt lat="29.570449" lon="103.416122"><ele>916</ele><time>2026-05-11T14:14:29.000Z</time></trkpt>
        <trkpt lat="29.570469" lon="103.416098"><ele>916</ele><time>2026-05-11T14:14:32.000Z</time></trkpt>
        <trkpt lat="29.57048" lon="103.416089"><ele>915</ele><time>2026-05-11T14:14:34.000Z</time></trkpt>
        <trkpt lat="29.570506" lon="103.416074"><ele>915</ele><time>2026-05-11T14:14:37.000Z</time></trkpt>
        <trkpt lat="29.570516" lon="103.416064"><ele>913</ele><time>2026-05-11T14:14:40.000Z</time></trkpt>
        <trkpt lat="29.57052" lon="103.416054"><ele>913</ele><time>2026-05-11T14:14:42.000Z</time></trkpt>
        <trkpt lat="29.570542" lon="103.416029"><ele>914</ele><time>2026-05-11T14:14:48.000Z</time></trkpt>
        <trkpt lat="29.570575" lon="103.41602"><ele>916</ele><time>2026-05-11T14:14:52.000Z</time></trkpt>
        <trkpt lat="29.570615" lon="103.416016"><ele>919</ele><time>2026-05-11T14:14:57.000Z</time></trkpt>
        <trkpt lat="29.570618" lon="103.416011"><ele>919</ele><time>2026-05-11T14:15:00.000Z</time></trkpt>
        <trkpt lat="29.5708" lon="103.415948"><ele>926</ele><time>2026-05-11T14:15:29.000Z</time></trkpt>
        <trkpt lat="29.570849" lon="103.415914"><ele>929</ele><time>2026-05-11T14:15:39.000Z</time></trkpt>
        <trkpt lat="29.570817" lon="103.41593"><ele>928</ele><time>2026-05-11T14:15:49.000Z</time></trkpt>
        <trkpt lat="29.570811" lon="103.415927"><ele>928</ele><time>2026-05-11T14:15:50.000Z</time></trkpt>
        <trkpt lat="29.570804" lon="103.415921"><ele>928</ele><time>2026-05-11T14:15:51.000Z</time></trkpt>
        <trkpt lat="29.570778" lon="103.415906"><ele>928</ele><time>2026-05-11T14:15:53.000Z</time></trkpt>
        <trkpt lat="29.570766" lon="103.415897"><ele>929</ele><time>2026-05-11T14:15:54.000Z</time></trkpt>
        <trkpt lat="29.570749" lon="103.415885"><ele>929</ele><time>2026-05-11T14:15:56.000Z</time></trkpt>
        <trkpt lat="29.5706" lon="103.415812"><ele>920</ele><time>2026-05-11T14:16:12.000Z</time></trkpt>
        <trkpt lat="29.570481" lon="103.415772"><ele>918</ele><time>2026-05-11T14:16:20.000Z</time></trkpt>
        <trkpt lat="29.570449" lon="103.415756"><ele>918</ele><time>2026-05-11T14:16:23.000Z</time></trkpt>
        <trkpt lat="29.570436" lon="103.415748"><ele>918</ele><time>2026-05-11T14:16:24.000Z</time></trkpt>
        <trkpt lat="29.570423" lon="103.41574"><ele>918</ele><time>2026-05-11T14:16:25.000Z</time></trkpt>
        <trkpt lat="29.570399" lon="103.415717"><ele>918</ele><time>2026-05-11T14:16:28.000Z</time></trkpt>
        <trkpt lat="29.570386" lon="103.415699"><ele>917</ele><time>2026-05-11T14:16:30.000Z</time></trkpt>
        <trkpt lat="29.570378" lon="103.415687"><ele>917</ele><time>2026-05-11T14:16:31.000Z</time></trkpt>
        <trkpt lat="29.57037" lon="103.415676"><ele>917</ele><time>2026-05-11T14:16:32.000Z</time></trkpt>
        <trkpt lat="29.570365" lon="103.415667"><ele>917</ele><time>2026-05-11T14:16:33.000Z</time></trkpt>
        <trkpt lat="29.570347" lon="103.415651"><ele>918</ele><time>2026-05-11T14:16:35.000Z</time></trkpt>
        <trkpt lat="29.570311" lon="103.415626"><ele>918</ele><time>2026-05-11T14:16:38.000Z</time></trkpt>
        <trkpt lat="29.570281" lon="103.415601"><ele>919</ele><time>2026-05-11T14:16:41.000Z</time></trkpt>
        <trkpt lat="29.57027" lon="103.415596"><ele>919</ele><time>2026-05-11T14:16:42.000Z</time></trkpt>
        <trkpt lat="29.570246" lon="103.415596"><ele>918</ele><time>2026-05-11T14:16:44.000Z</time></trkpt>
        <trkpt lat="29.570236" lon="103.415593"><ele>918</ele><time>2026-05-11T14:16:45.000Z</time></trkpt>
        <trkpt lat="29.570227" lon="103.415588"><ele>918</ele><time>2026-05-11T14:16:46.000Z</time></trkpt>
        <trkpt lat="29.570216" lon="103.415583"><ele>918</ele><time>2026-05-11T14:16:47.000Z</time></trkpt>
        <trkpt lat="29.570205" lon="103.415576"><ele>919</ele><time>2026-05-11T14:16:48.000Z</time></trkpt>
        <trkpt lat="29.570192" lon="103.415572"><ele>920</ele><time>2026-05-11T14:16:49.000Z</time></trkpt>
        <trkpt lat="29.570182" lon="103.415571"><ele>920</ele><time>2026-05-11T14:16:50.000Z</time></trkpt>
        <trkpt lat="29.570152" lon="103.415561"><ele>921</ele><time>2026-05-11T14:16:54.000Z</time></trkpt>
        <trkpt lat="29.570143" lon="103.415564"><ele>921</ele><time>2026-05-11T14:16:58.000Z</time></trkpt>
        <trkpt lat="29.570099" lon="103.415553"><ele>923</ele><time>2026-05-11T14:17:08.000Z</time></trkpt>
        <trkpt lat="29.570091" lon="103.415549"><ele>923</ele><time>2026-05-11T14:17:10.000Z</time></trkpt>
        <trkpt lat="29.570087" lon="103.415545"><ele>924</ele><time>2026-05-11T14:17:11.000Z</time></trkpt>
        <trkpt lat="29.57008" lon="103.415542"><ele>924</ele><time>2026-05-11T14:17:12.000Z</time></trkpt>
        <trkpt lat="29.57007" lon="103.415538"><ele>924</ele><time>2026-05-11T14:17:13.000Z</time></trkpt>
        <trkpt lat="29.570064" lon="103.415533"><ele>924</ele><time>2026-05-11T14:17:14.000Z</time></trkpt>
        <trkpt lat="29.569977" lon="103.415461"><ele>928</ele><time>2026-05-11T14:17:25.000Z</time></trkpt>
        <trkpt lat="29.569928" lon="103.41541"><ele>929</ele><time>2026-05-11T14:17:32.000Z</time></trkpt>
        <trkpt lat="29.569912" lon="103.415387"><ele>930</ele><time>2026-05-11T14:17:35.000Z</time></trkpt>
        <trkpt lat="29.569889" lon="103.415338"><ele>930</ele><time>2026-05-11T14:17:40.000Z</time></trkpt>
        <trkpt lat="29.569836" lon="103.415133"><ele>933</ele><time>2026-05-11T14:17:54.000Z</time></trkpt>
        <trkpt lat="29.569811" lon="103.415036"><ele>934</ele><time>2026-05-11T14:18:00.000Z</time></trkpt>
        <trkpt lat="29.569773" lon="103.414945"><ele>934</ele><time>2026-05-11T14:18:07.000Z</time></trkpt>
        <trkpt lat="29.569693" lon="103.414853"><ele>934</ele><time>2026-05-11T14:18:15.000Z</time></trkpt>
        <trkpt lat="29.569587" lon="103.414762"><ele>934</ele><time>2026-05-11T14:18:30.000Z</time></trkpt>
        <trkpt lat="29.569574" lon="103.414762"><ele>934</ele><time>2026-05-11T14:18:32.000Z</time></trkpt>
        <trkpt lat="29.569557" lon="103.414765"><ele>934</ele><time>2026-05-11T14:18:34.000Z</time></trkpt>
        <trkpt lat="29.56952" lon="103.414766"><ele>935</ele><time>2026-05-11T14:18:38.000Z</time></trkpt>
        <trkpt lat="29.569501" lon="103.414773"><ele>935</ele><time>2026-05-11T14:18:40.000Z</time></trkpt>
        <trkpt lat="29.569315" lon="103.414835"><ele>929</ele><time>2026-05-11T14:18:58.000Z</time></trkpt>
        <trkpt lat="29.569173" lon="103.41474"><ele>927</ele><time>2026-05-11T14:19:20.000Z</time></trkpt>
        <trkpt lat="29.569159" lon="103.41471"><ele>927</ele><time>2026-05-11T14:19:23.000Z</time></trkpt>
        <trkpt lat="29.569133" lon="103.414685"><ele>928</ele><time>2026-05-11T14:19:25.000Z</time></trkpt>
        <trkpt lat="29.569066" lon="103.414546"><ele>934</ele><time>2026-05-11T14:19:35.000Z</time></trkpt>
        <trkpt lat="29.569083" lon="103.414404"><ele>932</ele><time>2026-05-11T14:19:44.000Z</time></trkpt>
        <trkpt lat="29.569074" lon="103.414212"><ele>931</ele><time>2026-05-11T14:19:56.000Z</time></trkpt>
        <trkpt lat="29.569053" lon="103.414106"><ele>930</ele><time>2026-05-11T14:20:02.000Z</time></trkpt>
        <trkpt lat="29.569057" lon="103.414071"><ele>930</ele><time>2026-05-11T14:20:04.000Z</time></trkpt>
        <trkpt lat="29.569063" lon="103.414057"><ele>930</ele><time>2026-05-11T14:20:05.000Z</time></trkpt>
        <trkpt lat="29.56908" lon="103.414026"><ele>929</ele><time>2026-05-11T14:20:08.000Z</time></trkpt>
        <trkpt lat="29.569095" lon="103.414002"><ele>929</ele><time>2026-05-11T14:20:10.000Z</time></trkpt>
        <trkpt lat="29.569105" lon="103.413967"><ele>927</ele><time>2026-05-11T14:20:13.000Z</time></trkpt>
        <trkpt lat="29.569106" lon="103.413928"><ele>925</ele><time>2026-05-11T14:20:17.000Z</time></trkpt>
        <trkpt lat="29.569059" lon="103.413832"><ele>923</ele><time>2026-05-11T14:20:27.000Z</time></trkpt>
        <trkpt lat="29.569043" lon="103.413804"><ele>923</ele><time>2026-05-11T14:20:30.000Z</time></trkpt>
        <trkpt lat="29.568991" lon="103.413682"><ele>922</ele><time>2026-05-11T14:20:40.000Z</time></trkpt>
        <trkpt lat="29.56897" lon="103.413645"><ele>922</ele><time>2026-05-11T14:20:43.000Z</time></trkpt>
        <trkpt lat="29.568934" lon="103.413584"><ele>923</ele><time>2026-05-11T14:20:49.000Z</time></trkpt>
        <trkpt lat="29.568938" lon="103.413582"><ele>923</ele><time>2026-05-11T14:20:50.000Z</time></trkpt>
        <trkpt lat="29.568936" lon="103.413537"><ele>924</ele><time>2026-05-11T14:20:56.000Z</time></trkpt>
        <trkpt lat="29.568935" lon="103.41351"><ele>924</ele><time>2026-05-11T14:20:59.000Z</time></trkpt>
        <trkpt lat="29.568925" lon="103.413472"><ele>923</ele><time>2026-05-11T14:21:03.000Z</time></trkpt>
        <trkpt lat="29.568923" lon="103.413452"><ele>925</ele><time>2026-05-11T14:21:05.000Z</time></trkpt>
        <trkpt lat="29.568921" lon="103.413401"><ele>925</ele><time>2026-05-11T14:21:11.000Z</time></trkpt>
        <trkpt lat="29.568911" lon="103.413385"><ele>925</ele><time>2026-05-11T14:21:13.000Z</time></trkpt>
        <trkpt lat="29.568903" lon="103.413354"><ele>924</ele><time>2026-05-11T14:21:16.000Z</time></trkpt>
        <trkpt lat="29.568898" lon="103.41334"><ele>923</ele><time>2026-05-11T14:21:18.000Z</time></trkpt>
        <trkpt lat="29.568903" lon="103.413329"><ele>921</ele><time>2026-05-11T14:21:21.000Z</time></trkpt>
        <trkpt lat="29.568895" lon="103.413303"><ele>919</ele><time>2026-05-11T14:21:25.000Z</time></trkpt>
        <trkpt lat="29.568879" lon="103.413223"><ele>917</ele><time>2026-05-11T14:21:32.000Z</time></trkpt>
        <trkpt lat="29.568862" lon="103.413181"><ele>915</ele><time>2026-05-11T14:21:36.000Z</time></trkpt>
        <trkpt lat="29.56886" lon="103.413173"><ele>914</ele><time>2026-05-11T14:21:37.000Z</time></trkpt>
        <trkpt lat="29.568862" lon="103.413164"><ele>913</ele><time>2026-05-11T14:21:38.000Z</time></trkpt>
        <trkpt lat="29.568904" lon="103.413138"><ele>913</ele><time>2026-05-11T14:21:41.000Z</time></trkpt>
        <trkpt lat="29.568905" lon="103.413123"><ele>913</ele><time>2026-05-11T14:21:42.000Z</time></trkpt>
        <trkpt lat="29.568912" lon="103.413108"><ele>913</ele><time>2026-05-11T14:21:43.000Z</time></trkpt>
        <trkpt lat="29.568922" lon="103.413099"><ele>912</ele><time>2026-05-11T14:21:44.000Z</time></trkpt>
        <trkpt lat="29.568942" lon="103.413071"><ele>914</ele><time>2026-05-11T14:21:46.000Z</time></trkpt>
        <trkpt lat="29.568954" lon="103.413058"><ele>914</ele><time>2026-05-11T14:21:47.000Z</time></trkpt>
        <trkpt lat="29.568969" lon="103.413022"><ele>913</ele><time>2026-05-11T14:21:50.000Z</time></trkpt>
        <trkpt lat="29.568969" lon="103.413014"><ele>913</ele><time>2026-05-11T14:21:51.000Z</time></trkpt>
        <trkpt lat="29.56897" lon="103.412991"><ele>912</ele><time>2026-05-11T14:21:53.000Z</time></trkpt>
        <trkpt lat="29.568994" lon="103.412965"><ele>913</ele><time>2026-05-11T14:21:55.000Z</time></trkpt>
        <trkpt lat="29.569112" lon="103.412798"><ele>916</ele><time>2026-05-11T14:22:10.000Z</time></trkpt>
        <trkpt lat="29.56916" lon="103.412767"><ele>914</ele><time>2026-05-11T14:22:14.000Z</time></trkpt>
        <trkpt lat="29.569188" lon="103.412751"><ele>914</ele><time>2026-05-11T14:22:16.000Z</time></trkpt>
        <trkpt lat="29.569228" lon="103.412737"><ele>917</ele><time>2026-05-11T14:22:19.000Z</time></trkpt>
        <trkpt lat="29.569231" lon="103.412722"><ele>916</ele><time>2026-05-11T14:22:20.000Z</time></trkpt>
        <trkpt lat="29.569247" lon="103.412648"><ele>920</ele><time>2026-05-11T14:22:26.000Z</time></trkpt>
        <trkpt lat="29.569256" lon="103.412505"><ele>923</ele><time>2026-05-11T14:22:38.000Z</time></trkpt>
        <trkpt lat="29.569275" lon="103.412401"><ele>918</ele><time>2026-05-11T14:22:54.000Z</time></trkpt>
        <trkpt lat="29.569271" lon="103.41236"><ele>916</ele><time>2026-05-11T14:22:59.000Z</time></trkpt>
        <trkpt lat="29.569279" lon="103.412293"><ele>913</ele><time>2026-05-11T14:23:07.000Z</time></trkpt>
        <trkpt lat="29.569289" lon="103.412277"><ele>912</ele><time>2026-05-11T14:23:12.000Z</time></trkpt>
        <trkpt lat="29.56928" lon="103.412196"><ele>909</ele><time>2026-05-11T14:23:31.000Z</time></trkpt>
        <trkpt lat="29.569277" lon="103.412194"><ele>909</ele><time>2026-05-11T14:23:32.000Z</time></trkpt>
        <trkpt lat="29.569237" lon="103.412204"><ele>904</ele><time>2026-05-11T14:23:42.000Z</time></trkpt>
        <trkpt lat="29.569234" lon="103.412207"><ele>903</ele><time>2026-05-11T14:23:43.000Z</time></trkpt>
        <trkpt lat="29.569228" lon="103.412205"><ele>903</ele><time>2026-05-11T14:23:44.000Z</time></trkpt>
        <trkpt lat="29.569167" lon="103.412192"><ele>898</ele><time>2026-05-11T14:23:56.000Z</time></trkpt>
        <trkpt lat="29.568995" lon="103.41212"><ele>888</ele><time>2026-05-11T14:24:31.000Z</time></trkpt>
        <trkpt lat="29.568972" lon="103.412119"><ele>887</ele><time>2026-05-11T14:24:34.000Z</time></trkpt>
        <trkpt lat="29.568967" lon="103.412115"><ele>887</ele><time>2026-05-11T14:24:35.000Z</time></trkpt>
        <trkpt lat="29.568919" lon="103.412071"><ele>886</ele><time>2026-05-11T14:24:42.000Z</time></trkpt>
        <trkpt lat="29.568848" lon="103.412023"><ele>886</ele><time>2026-05-11T14:24:50.000Z</time></trkpt>
        <trkpt lat="29.568799" lon="103.411961"><ele>887</ele><time>2026-05-11T14:24:56.000Z</time></trkpt>
        <trkpt lat="29.56869" lon="103.411917"><ele>892</ele><time>2026-05-11T14:25:04.000Z</time></trkpt>
        <trkpt lat="29.568672" lon="103.411908"><ele>893</ele><time>2026-05-11T14:25:06.000Z</time></trkpt>
        <trkpt lat="29.568635" lon="103.411886"><ele>895</ele><time>2026-05-11T14:25:13.000Z</time></trkpt>
        <trkpt lat="29.568623" lon="103.411872"><ele>894</ele><time>2026-05-11T14:25:18.000Z</time></trkpt>
        <trkpt lat="29.56862" lon="103.411872"><ele>893</ele><time>2026-05-11T14:25:19.000Z</time></trkpt>
        <trkpt lat="29.568616" lon="103.411869"><ele>893</ele><time>2026-05-11T14:25:20.000Z</time></trkpt>
        <trkpt lat="29.568612" lon="103.411869"><ele>892</ele><time>2026-05-11T14:25:21.000Z</time></trkpt>
        <trkpt lat="29.568608" lon="103.411868"><ele>892</ele><time>2026-05-11T14:25:22.000Z</time></trkpt>
        <trkpt lat="29.568605" lon="103.411861"><ele>892</ele><time>2026-05-11T14:25:23.000Z</time></trkpt>
        <trkpt lat="29.568602" lon="103.411855"><ele>891</ele><time>2026-05-11T14:25:24.000Z</time></trkpt>
        <trkpt lat="29.568577" lon="103.411818"><ele>890</ele><time>2026-05-11T14:25:30.000Z</time></trkpt>
        <trkpt lat="29.568504" lon="103.411748"><ele>889</ele><time>2026-05-11T14:25:46.000Z</time></trkpt>
        <trkpt lat="29.5685" lon="103.411746"><ele>889</ele><time>2026-05-11T14:25:47.000Z</time></trkpt>
        <trkpt lat="29.568493" lon="103.411745"><ele>889</ele><time>2026-05-11T14:25:48.000Z</time></trkpt>
        <trkpt lat="29.568427" lon="103.411677"><ele>889</ele><time>2026-05-11T14:25:57.000Z</time></trkpt>
        <trkpt lat="29.56839" lon="103.41164"><ele>890</ele><time>2026-05-11T14:26:02.000Z</time></trkpt>
        <trkpt lat="29.568344" lon="103.411492"><ele>888</ele><time>2026-05-11T14:26:17.000Z</time></trkpt>
        <trkpt lat="29.568353" lon="103.411387"><ele>885</ele><time>2026-05-11T14:26:24.000Z</time></trkpt>
        <trkpt lat="29.568381" lon="103.411309"><ele>884</ele><time>2026-05-11T14:26:30.000Z</time></trkpt>
        <trkpt lat="29.568408" lon="103.411244"><ele>883</ele><time>2026-05-11T14:26:36.000Z</time></trkpt>
        <trkpt lat="29.568437" lon="103.411031"><ele>881</ele><time>2026-05-11T14:26:54.000Z</time></trkpt>
        <trkpt lat="29.56845" lon="103.410928"><ele>879</ele><time>2026-05-11T14:27:02.000Z</time></trkpt>
        <trkpt lat="29.568499" lon="103.410786"><ele>879</ele><time>2026-05-11T14:27:17.000Z</time></trkpt>
        <trkpt lat="29.568507" lon="103.410756"><ele>878</ele><time>2026-05-11T14:27:20.000Z</time></trkpt>
        <trkpt lat="29.568519" lon="103.410735"><ele>878</ele><time>2026-05-11T14:27:22.000Z</time></trkpt>
        <trkpt lat="29.568523" lon="103.410724"><ele>877</ele><time>2026-05-11T14:27:23.000Z</time></trkpt>
        <trkpt lat="29.568544" lon="103.41059"><ele>875</ele><time>2026-05-11T14:27:32.000Z</time></trkpt>
        <trkpt lat="29.568556" lon="103.4104"><ele>876</ele><time>2026-05-11T14:27:44.000Z</time></trkpt>
        <trkpt lat="29.568545" lon="103.410185"><ele>878</ele><time>2026-05-11T14:27:59.000Z</time></trkpt>
        <trkpt lat="29.56852" lon="103.410051"><ele>878</ele><time>2026-05-11T14:28:11.000Z</time></trkpt>
        <trkpt lat="29.56849" lon="103.410007"><ele>877</ele><time>2026-05-11T14:28:15.000Z</time></trkpt>
        <trkpt lat="29.5684" lon="103.40995"><ele>876</ele><time>2026-05-11T14:28:25.000Z</time></trkpt>
        <trkpt lat="29.568281" lon="103.409821"><ele>873</ele><time>2026-05-11T14:28:44.000Z</time></trkpt>
        <trkpt lat="29.568274" lon="103.409809"><ele>873</ele><time>2026-05-11T14:28:46.000Z</time></trkpt>
        <trkpt lat="29.568205" lon="103.409625"><ele>865</ele><time>2026-05-11T14:29:13.000Z</time></trkpt>
        <trkpt lat="29.568125" lon="103.409436"><ele>855</ele><time>2026-05-11T14:29:48.000Z</time></trkpt>
        <trkpt lat="29.568041" lon="103.409262"><ele>850</ele><time>2026-05-11T14:30:19.000Z</time></trkpt>
        <trkpt lat="29.568025" lon="103.40921"><ele>848</ele><time>2026-05-11T14:30:26.000Z</time></trkpt>
        <trkpt lat="29.56796" lon="103.409092"><ele>844</ele><time>2026-05-11T14:30:44.000Z</time></trkpt>
        <trkpt lat="29.567914" lon="103.409016"><ele>842</ele><time>2026-05-11T14:31:00.000Z</time></trkpt>
        <trkpt lat="29.567857" lon="103.408889"><ele>837</ele><time>2026-05-11T14:31:17.000Z</time></trkpt>
        <trkpt lat="29.567793" lon="103.408699"><ele>832</ele><time>2026-05-11T14:31:43.000Z</time></trkpt>
        <trkpt lat="29.567716" lon="103.408573"><ele>833</ele><time>2026-05-11T14:32:03.000Z</time></trkpt>
        <trkpt lat="29.567696" lon="103.408533"><ele>833</ele><time>2026-05-11T14:32:07.000Z</time></trkpt>
        <trkpt lat="29.567683" lon="103.408503"><ele>833</ele><time>2026-05-11T14:32:14.000Z</time></trkpt>
        <trkpt lat="29.567657" lon="103.408483"><ele>829</ele><time>2026-05-11T14:32:21.000Z</time></trkpt>
        <trkpt lat="29.56759" lon="103.4085"><ele>823</ele><time>2026-05-11T14:32:44.000Z</time></trkpt>
        <trkpt lat="29.567527" lon="103.408627"><ele>821</ele><time>2026-05-11T14:32:56.000Z</time></trkpt>
        <trkpt lat="29.567335" lon="103.408605"><ele>820</ele><time>2026-05-11T14:33:11.000Z</time></trkpt>
        <trkpt lat="29.567171" lon="103.408494"><ele>820</ele><time>2026-05-11T14:33:25.000Z</time></trkpt>
        <trkpt lat="29.56712" lon="103.408476"><ele>821</ele><time>2026-05-11T14:33:29.000Z</time></trkpt>
        <trkpt lat="29.566979" lon="103.408458"><ele>818</ele><time>2026-05-11T14:33:37.000Z</time></trkpt>
        <trkpt lat="29.566961" lon="103.408456"><ele>818</ele><time>2026-05-11T14:33:38.000Z</time></trkpt>
        <trkpt lat="29.566933" lon="103.408455"><ele>816</ele><time>2026-05-11T14:33:40.000Z</time></trkpt>
        <trkpt lat="29.566918" lon="103.408456"><ele>816</ele><time>2026-05-11T14:33:41.000Z</time></trkpt>
        <trkpt lat="29.566904" lon="103.408457"><ele>815</ele><time>2026-05-11T14:33:42.000Z</time></trkpt>
        <trkpt lat="29.56686" lon="103.408458"><ele>815</ele><time>2026-05-11T14:33:45.000Z</time></trkpt>
        <trkpt lat="29.566831" lon="103.408465"><ele>814</ele><time>2026-05-11T14:33:47.000Z</time></trkpt>
        <trkpt lat="29.566796" lon="103.408466"><ele>814</ele><time>2026-05-11T14:33:50.000Z</time></trkpt>
        <trkpt lat="29.566725" lon="103.408442"><ele>812</ele><time>2026-05-11T14:33:57.000Z</time></trkpt>
        <trkpt lat="29.566716" lon="103.408429"><ele>813</ele><time>2026-05-11T14:33:59.000Z</time></trkpt>
        <trkpt lat="29.5667" lon="103.408404"><ele>813</ele><time>2026-05-11T14:34:01.000Z</time></trkpt>
        <trkpt lat="29.566695" lon="103.408392"><ele>814</ele><time>2026-05-11T14:34:02.000Z</time></trkpt>
        <trkpt lat="29.566701" lon="103.408211"><ele>813</ele><time>2026-05-11T14:34:13.000Z</time></trkpt>
        <trkpt lat="29.566702" lon="103.408176"><ele>813</ele><time>2026-05-11T14:34:15.000Z</time></trkpt>
        <trkpt lat="29.566652" lon="103.407972"><ele>816</ele><time>2026-05-11T14:34:27.000Z</time></trkpt>
        <trkpt lat="29.566627" lon="103.407928"><ele>817</ele><time>2026-05-11T14:34:30.000Z</time></trkpt>
        <trkpt lat="29.566588" lon="103.407892"><ele>820</ele><time>2026-05-11T14:34:35.000Z</time></trkpt>
        <trkpt lat="29.566546" lon="103.407895"><ele>820</ele><time>2026-05-11T14:34:40.000Z</time></trkpt>
        <trkpt lat="29.566526" lon="103.407896"><ele>820</ele><time>2026-05-11T14:34:45.000Z</time></trkpt>
        <trkpt lat="29.56655" lon="103.407854"><ele>817</ele><time>2026-05-11T14:34:51.000Z</time></trkpt>
        <trkpt lat="29.566549" lon="103.407842"><ele>817</ele><time>2026-05-11T14:34:52.000Z</time></trkpt>
        <trkpt lat="29.566548" lon="103.407815"><ele>817</ele><time>2026-05-11T14:34:54.000Z</time></trkpt>
        <trkpt lat="29.566488" lon="103.407621"><ele>818</ele><time>2026-05-11T14:35:09.000Z</time></trkpt>
        <trkpt lat="29.566461" lon="103.40758"><ele>819</ele><time>2026-05-11T14:35:15.000Z</time></trkpt>
        <trkpt lat="29.566455" lon="103.407572"><ele>820</ele><time>2026-05-11T14:35:17.000Z</time></trkpt>
        <trkpt lat="29.566379" lon="103.407482"><ele>817</ele><time>2026-05-11T14:35:35.000Z</time></trkpt>
        <trkpt lat="29.566369" lon="103.407477"><ele>817</ele><time>2026-05-11T14:35:36.000Z</time></trkpt>
        <trkpt lat="29.566278" lon="103.407471"><ele>818</ele><time>2026-05-11T14:35:46.000Z</time></trkpt>
        <trkpt lat="29.566197" lon="103.407393"><ele>819</ele><time>2026-05-11T14:35:59.000Z</time></trkpt>
        <trkpt lat="29.566172" lon="103.407367"><ele>820</ele><time>2026-05-11T14:36:02.000Z</time></trkpt>
        <trkpt lat="29.566079" lon="103.407289"><ele>824</ele><time>2026-05-11T14:36:12.000Z</time></trkpt>
        <trkpt lat="29.565969" lon="103.407222"><ele>827</ele><time>2026-05-11T14:36:23.000Z</time></trkpt>
        <trkpt lat="29.565949" lon="103.407211"><ele>827</ele><time>2026-05-11T14:36:25.000Z</time></trkpt>
        <trkpt lat="29.565806" lon="103.407133"><ele>831</ele><time>2026-05-11T14:36:42.000Z</time></trkpt>
        <trkpt lat="29.565768" lon="103.407098"><ele>832</ele><time>2026-05-11T14:36:49.000Z</time></trkpt>
        <trkpt lat="29.565702" lon="103.407041"><ele>845</ele><time>2026-05-11T14:37:03.000Z</time></trkpt>
        <trkpt lat="29.565738" lon="103.407054"><ele>846</ele><time>2026-05-11T14:37:21.000Z</time></trkpt>
        <trkpt lat="29.565829" lon="103.407088"><ele>843</ele><time>2026-05-11T14:37:31.000Z</time></trkpt>
        <trkpt lat="29.565877" lon="103.407119"><ele>841</ele><time>2026-05-11T14:37:38.000Z</time></trkpt>
        <trkpt lat="29.565915" lon="103.407144"><ele>839</ele><time>2026-05-11T14:37:44.000Z</time></trkpt>
        <trkpt lat="29.565965" lon="103.407163"><ele>837</ele><time>2026-05-11T14:37:49.000Z</time></trkpt>
        <trkpt lat="29.566034" lon="103.407193"><ele>837</ele><time>2026-05-11T14:37:55.000Z</time></trkpt>
        <trkpt lat="29.566061" lon="103.407206"><ele>836</ele><time>2026-05-11T14:37:57.000Z</time></trkpt>
        <trkpt lat="29.566206" lon="103.407326"><ele>828</ele><time>2026-05-11T14:38:13.000Z</time></trkpt>
        <trkpt lat="29.566229" lon="103.40738"><ele>827</ele><time>2026-05-11T14:38:20.000Z</time></trkpt>
        <trkpt lat="29.566282" lon="103.407404"><ele>826</ele><time>2026-05-11T14:38:27.000Z</time></trkpt>
        <trkpt lat="29.566309" lon="103.407406"><ele>825</ele><time>2026-05-11T14:38:29.000Z</time></trkpt>
        <trkpt lat="29.566342" lon="103.407385"><ele>823</ele><time>2026-05-11T14:38:33.000Z</time></trkpt>
        <trkpt lat="29.566377" lon="103.407304"><ele>819</ele><time>2026-05-11T14:38:42.000Z</time></trkpt>
        <trkpt lat="29.566371" lon="103.40727"><ele>819</ele><time>2026-05-11T14:38:45.000Z</time></trkpt>
        <trkpt lat="29.56637" lon="103.407052"><ele>818</ele><time>2026-05-11T14:39:01.000Z</time></trkpt>
        <trkpt lat="29.56642" lon="103.406847"><ele>816</ele><time>2026-05-11T14:39:16.000Z</time></trkpt>
        <trkpt lat="29.566538" lon="103.406689"><ele>816</ele><time>2026-05-11T14:39:29.000Z</time></trkpt>
        <trkpt lat="29.566643" lon="103.40654"><ele>813</ele><time>2026-05-11T14:39:40.000Z</time></trkpt>
        <trkpt lat="29.566763" lon="103.406392"><ele>810</ele><time>2026-05-11T14:39:51.000Z</time></trkpt>
        <trkpt lat="29.566812" lon="103.406309"><ele>809</ele><time>2026-05-11T14:39:57.000Z</time></trkpt>
        <trkpt lat="29.566856" lon="103.406228"><ele>807</ele><time>2026-05-11T14:40:03.000Z</time></trkpt>
        <trkpt lat="29.566869" lon="103.406195"><ele>808</ele><time>2026-05-11T14:40:05.000Z</time></trkpt>
        <trkpt lat="29.566892" lon="103.406155"><ele>807</ele><time>2026-05-11T14:40:08.000Z</time></trkpt>
        <trkpt lat="29.566909" lon="103.406126"><ele>808</ele><time>2026-05-11T14:40:10.000Z</time></trkpt>
        <trkpt lat="29.56692" lon="103.406115"><ele>808</ele><time>2026-05-11T14:40:11.000Z</time></trkpt>
        <trkpt lat="29.566931" lon="103.406105"><ele>808</ele><time>2026-05-11T14:40:12.000Z</time></trkpt>
        <trkpt lat="29.566941" lon="103.406095"><ele>809</ele><time>2026-05-11T14:40:13.000Z</time></trkpt>
        <trkpt lat="29.566959" lon="103.406074"><ele>810</ele><time>2026-05-11T14:40:15.000Z</time></trkpt>
        <trkpt lat="29.566969" lon="103.406063"><ele>810</ele><time>2026-05-11T14:40:16.000Z</time></trkpt>
        <trkpt lat="29.567041" lon="103.405958"><ele>810</ele><time>2026-05-11T14:40:25.000Z</time></trkpt>
        <trkpt lat="29.567041" lon="103.405814"><ele>811</ele><time>2026-05-11T14:40:34.000Z</time></trkpt>
        <trkpt lat="29.566958" lon="103.405714"><ele>813</ele><time>2026-05-11T14:40:43.000Z</time></trkpt>
        <trkpt lat="29.566906" lon="103.405632"><ele>814</ele><time>2026-05-11T14:40:51.000Z</time></trkpt>
        <trkpt lat="29.566898" lon="103.405619"><ele>814</ele><time>2026-05-11T14:40:52.000Z</time></trkpt>
        <trkpt lat="29.566891" lon="103.405608"><ele>815</ele><time>2026-05-11T14:40:53.000Z</time></trkpt>
        <trkpt lat="29.566884" lon="103.405599"><ele>815</ele><time>2026-05-11T14:40:54.000Z</time></trkpt>
        <trkpt lat="29.566859" lon="103.405572"><ele>815</ele><time>2026-05-11T14:40:57.000Z</time></trkpt>
        <trkpt lat="29.566766" lon="103.405479"><ele>817</ele><time>2026-05-11T14:41:06.000Z</time></trkpt>
        <trkpt lat="29.566741" lon="103.405415"><ele>818</ele><time>2026-05-11T14:41:11.000Z</time></trkpt>
        <trkpt lat="29.566719" lon="103.405281"><ele>822</ele><time>2026-05-11T14:41:20.000Z</time></trkpt>
        <trkpt lat="29.566774" lon="103.40519"><ele>824</ele><time>2026-05-11T14:41:29.000Z</time></trkpt>
        <trkpt lat="29.566804" lon="103.405191"><ele>825</ele><time>2026-05-11T14:41:33.000Z</time></trkpt>
        <trkpt lat="29.566988" lon="103.405187"><ele>825</ele><time>2026-05-11T14:41:45.000Z</time></trkpt>
        <trkpt lat="29.567016" lon="103.40517"><ele>823</ele><time>2026-05-11T14:41:48.000Z</time></trkpt>
        <trkpt lat="29.567186" lon="103.405066"><ele>813</ele><time>2026-05-11T14:42:01.000Z</time></trkpt>
        <trkpt lat="29.567349" lon="103.405024"><ele>806</ele><time>2026-05-11T14:42:10.000Z</time></trkpt>
        <trkpt lat="29.567492" lon="103.40504"><ele>802</ele><time>2026-05-11T14:42:19.000Z</time></trkpt>
        <trkpt lat="29.567677" lon="103.405071"><ele>805</ele><time>2026-05-11T14:42:31.000Z</time></trkpt>
        <trkpt lat="29.56785" lon="103.405016"><ele>805</ele><time>2026-05-11T14:42:44.000Z</time></trkpt>
        <trkpt lat="29.567966" lon="103.404926"><ele>801</ele><time>2026-05-11T14:42:54.000Z</time></trkpt>
        <trkpt lat="29.568118" lon="103.404796"><ele>798</ele><time>2026-05-11T14:43:07.000Z</time></trkpt>
        <trkpt lat="29.568272" lon="103.404669"><ele>796</ele><time>2026-05-11T14:43:19.000Z</time></trkpt>
        <trkpt lat="29.568394" lon="103.4045"><ele>793</ele><time>2026-05-11T14:43:32.000Z</time></trkpt>
        <trkpt lat="29.568461" lon="103.404304"><ele>793</ele><time>2026-05-11T14:43:46.000Z</time></trkpt>
        <trkpt lat="29.56858" lon="103.404134"><ele>795</ele><time>2026-05-11T14:43:58.000Z</time></trkpt>
        <trkpt lat="29.568596" lon="103.404104"><ele>794</ele><time>2026-05-11T14:44:00.000Z</time></trkpt>
        <trkpt lat="29.568694" lon="103.403952"><ele>794</ele><time>2026-05-11T14:44:10.000Z</time></trkpt>
        <trkpt lat="29.568737" lon="103.403916"><ele>794</ele><time>2026-05-11T14:44:14.000Z</time></trkpt>
        <trkpt lat="29.568861" lon="103.403912"><ele>797</ele><time>2026-05-11T14:44:21.000Z</time></trkpt>
        <trkpt lat="29.568904" lon="103.403921"><ele>797</ele><time>2026-05-11T14:44:24.000Z</time></trkpt>
        <trkpt lat="29.568988" lon="103.403924"><ele>795</ele><time>2026-05-11T14:44:31.000Z</time></trkpt>
        <trkpt lat="29.569065" lon="103.403897"><ele>792</ele><time>2026-05-11T14:44:37.000Z</time></trkpt>
        <trkpt lat="29.569085" lon="103.403887"><ele>791</ele><time>2026-05-11T14:44:39.000Z</time></trkpt>
        <trkpt lat="29.569117" lon="103.403867"><ele>789</ele><time>2026-05-11T14:44:42.000Z</time></trkpt>
        <trkpt lat="29.569174" lon="103.403842"><ele>789</ele><time>2026-05-11T14:44:46.000Z</time></trkpt>
        <trkpt lat="29.569195" lon="103.403825"><ele>789</ele><time>2026-05-11T14:44:48.000Z</time></trkpt>
        <trkpt lat="29.569208" lon="103.403816"><ele>788</ele><time>2026-05-11T14:44:49.000Z</time></trkpt>
        <trkpt lat="29.569221" lon="103.403808"><ele>788</ele><time>2026-05-11T14:44:50.000Z</time></trkpt>
        <trkpt lat="29.569326" lon="103.403768"><ele>787</ele><time>2026-05-11T14:44:58.000Z</time></trkpt>
        <trkpt lat="29.569441" lon="103.403707"><ele>786</ele><time>2026-05-11T14:45:08.000Z</time></trkpt>
        <trkpt lat="29.569584" lon="103.403568"><ele>784</ele><time>2026-05-11T14:45:21.000Z</time></trkpt>
        <trkpt lat="29.56972" lon="103.403432"><ele>783</ele><time>2026-05-11T14:45:34.000Z</time></trkpt>
        <trkpt lat="29.569816" lon="103.403299"><ele>784</ele><time>2026-05-11T14:45:45.000Z</time></trkpt>
        <trkpt lat="29.569834" lon="103.403277"><ele>785</ele><time>2026-05-11T14:45:47.000Z</time></trkpt>
        <trkpt lat="29.569841" lon="103.403241"><ele>785</ele><time>2026-05-11T14:45:49.000Z</time></trkpt>
        <trkpt lat="29.569864" lon="103.403217"><ele>785</ele><time>2026-05-11T14:45:51.000Z</time></trkpt>
        <trkpt lat="29.569963" lon="103.403029"><ele>792</ele><time>2026-05-11T14:46:04.000Z</time></trkpt>
        <trkpt lat="29.570096" lon="103.402876"><ele>790</ele><time>2026-05-11T14:46:17.000Z</time></trkpt>
        <trkpt lat="29.57022" lon="103.402804"><ele>786</ele><time>2026-05-11T14:46:28.000Z</time></trkpt>
        <trkpt lat="29.57027" lon="103.402795"><ele>786</ele><time>2026-05-11T14:46:33.000Z</time></trkpt>
        <trkpt lat="29.570456" lon="103.402776"><ele>787</ele><time>2026-05-11T14:46:46.000Z</time></trkpt>
        <trkpt lat="29.570474" lon="103.402773"><ele>787</ele><time>2026-05-11T14:46:47.000Z</time></trkpt>
        <trkpt lat="29.570559" lon="103.402771"><ele>787</ele><time>2026-05-11T14:46:52.000Z</time></trkpt>
        <trkpt lat="29.570698" lon="103.40269"><ele>780</ele><time>2026-05-11T14:47:03.000Z</time></trkpt>
        <trkpt lat="29.570838" lon="103.402597"><ele>773</ele><time>2026-05-11T14:47:14.000Z</time></trkpt>
        <trkpt lat="29.570998" lon="103.402483"><ele>774</ele><time>2026-05-11T14:47:24.000Z</time></trkpt>
        <trkpt lat="29.571067" lon="103.4024"><ele>776</ele><time>2026-05-11T14:47:31.000Z</time></trkpt>
        <trkpt lat="29.571124" lon="103.402341"><ele>777</ele><time>2026-05-11T14:47:37.000Z</time></trkpt>
        <trkpt lat="29.571191" lon="103.402222"><ele>778</ele><time>2026-05-11T14:47:45.000Z</time></trkpt>
        <trkpt lat="29.571299" lon="103.402077"><ele>775</ele><time>2026-05-11T14:47:55.000Z</time></trkpt>
        <trkpt lat="29.571355" lon="103.402007"><ele>773</ele><time>2026-05-11T14:48:00.000Z</time></trkpt>
        <trkpt lat="29.571365" lon="103.401995"><ele>773</ele><time>2026-05-11T14:48:01.000Z</time></trkpt>
        <trkpt lat="29.571377" lon="103.401983"><ele>773</ele><time>2026-05-11T14:48:02.000Z</time></trkpt>
        <trkpt lat="29.571392" lon="103.40197"><ele>773</ele><time>2026-05-11T14:48:03.000Z</time></trkpt>
        <trkpt lat="29.571437" lon="103.40194"><ele>773</ele><time>2026-05-11T14:48:06.000Z</time></trkpt>
        <trkpt lat="29.571498" lon="103.4019"><ele>774</ele><time>2026-05-11T14:48:11.000Z</time></trkpt>
        <trkpt lat="29.571533" lon="103.401895"><ele>773</ele><time>2026-05-11T14:48:13.000Z</time></trkpt>
        <trkpt lat="29.571573" lon="103.401895"><ele>773</ele><time>2026-05-11T14:48:15.000Z</time></trkpt>
        <trkpt lat="29.571632" lon="103.401858"><ele>772</ele><time>2026-05-11T14:48:21.000Z</time></trkpt>
        <trkpt lat="29.57173" lon="103.401741"><ele>779</ele><time>2026-05-11T14:48:33.000Z</time></trkpt>
        <trkpt lat="29.571869" lon="103.401615"><ele>780</ele><time>2026-05-11T14:48:45.000Z</time></trkpt>
        <trkpt lat="29.57192" lon="103.401558"><ele>778</ele><time>2026-05-11T14:48:49.000Z</time></trkpt>
        <trkpt lat="29.571928" lon="103.401542"><ele>778</ele><time>2026-05-11T14:48:50.000Z</time></trkpt>
        <trkpt lat="29.571938" lon="103.401527"><ele>778</ele><time>2026-05-11T14:48:51.000Z</time></trkpt>
        <trkpt lat="29.571944" lon="103.401516"><ele>779</ele><time>2026-05-11T14:48:52.000Z</time></trkpt>
        <trkpt lat="29.571947" lon="103.401496"><ele>779</ele><time>2026-05-11T14:48:54.000Z</time></trkpt>
        <trkpt lat="29.571949" lon="103.401481"><ele>779</ele><time>2026-05-11T14:48:55.000Z</time></trkpt>
        <trkpt lat="29.571953" lon="103.401466"><ele>779</ele><time>2026-05-11T14:48:56.000Z</time></trkpt>
        <trkpt lat="29.571956" lon="103.401457"><ele>779</ele><time>2026-05-11T14:48:57.000Z</time></trkpt>
        <trkpt lat="29.571959" lon="103.401449"><ele>779</ele><time>2026-05-11T14:48:58.000Z</time></trkpt>
        <trkpt lat="29.57196" lon="103.401441"><ele>779</ele><time>2026-05-11T14:48:59.000Z</time></trkpt>
        <trkpt lat="29.571963" lon="103.401416"><ele>779</ele><time>2026-05-11T14:49:01.000Z</time></trkpt>
        <trkpt lat="29.571972" lon="103.401322"><ele>781</ele><time>2026-05-11T14:49:09.000Z</time></trkpt>
        <trkpt lat="29.571973" lon="103.401301"><ele>780</ele><time>2026-05-11T14:49:12.000Z</time></trkpt>
        <trkpt lat="29.57198" lon="103.401267"><ele>780</ele><time>2026-05-11T14:49:16.000Z</time></trkpt>
        <trkpt lat="29.571971" lon="103.401226"><ele>782</ele><time>2026-05-11T14:49:21.000Z</time></trkpt>
        <trkpt lat="29.571947" lon="103.401205"><ele>782</ele><time>2026-05-11T14:49:25.000Z</time></trkpt>
        <trkpt lat="29.571932" lon="103.401185"><ele>783</ele><time>2026-05-11T14:49:30.000Z</time></trkpt>
        <trkpt lat="29.571925" lon="103.401183"><ele>783</ele><time>2026-05-11T14:49:32.000Z</time></trkpt>
        <trkpt lat="29.571918" lon="103.401166"><ele>785</ele><time>2026-05-11T14:49:35.000Z</time></trkpt>
        <trkpt lat="29.57192" lon="103.401079"><ele>787</ele><time>2026-05-11T14:49:39.000Z</time></trkpt>
        <trkpt lat="29.571898" lon="103.401002"><ele>789</ele><time>2026-05-11T14:49:44.000Z</time></trkpt>
        <trkpt lat="29.571883" lon="103.400977"><ele>790</ele><time>2026-05-11T14:49:47.000Z</time></trkpt>
        <trkpt lat="29.571866" lon="103.400915"><ele>792</ele><time>2026-05-11T14:49:53.000Z</time></trkpt>
        <trkpt lat="29.571867" lon="103.400911"><ele>792</ele><time>2026-05-11T14:49:55.000Z</time></trkpt>
        <trkpt lat="29.571872" lon="103.400913"><ele>793</ele><time>2026-05-11T14:49:58.000Z</time></trkpt>
        <trkpt lat="29.571865" lon="103.400895"><ele>795</ele><time>2026-05-11T14:50:01.000Z</time></trkpt>
        <trkpt lat="29.571863" lon="103.400894"><ele>797</ele><time>2026-05-11T14:50:03.000Z</time></trkpt>
        <trkpt lat="29.571865" lon="103.400882"><ele>799</ele><time>2026-05-11T14:50:07.000Z</time></trkpt>
        <trkpt lat="29.571862" lon="103.400871"><ele>798</ele><time>2026-05-11T14:50:08.000Z</time></trkpt>
        <trkpt lat="29.571859" lon="103.400858"><ele>799</ele><time>2026-05-11T14:50:10.000Z</time></trkpt>
        <trkpt lat="29.571849" lon="103.400841"><ele>799</ele><time>2026-05-11T14:50:13.000Z</time></trkpt>
        <trkpt lat="29.571852" lon="103.400814"><ele>799</ele><time>2026-05-11T14:50:17.000Z</time></trkpt>
        <trkpt lat="29.571846" lon="103.400804"><ele>801</ele><time>2026-05-11T14:50:20.000Z</time></trkpt>
        <trkpt lat="29.57184" lon="103.400796"><ele>802</ele><time>2026-05-11T14:50:24.000Z</time></trkpt>
        <trkpt lat="29.571835" lon="103.400789"><ele>803</ele><time>2026-05-11T14:50:25.000Z</time></trkpt>
        <trkpt lat="29.571832" lon="103.400781"><ele>802</ele><time>2026-05-11T14:50:26.000Z</time></trkpt>
        <trkpt lat="29.57183" lon="103.400764"><ele>802</ele><time>2026-05-11T14:50:28.000Z</time></trkpt>
        <trkpt lat="29.571829" lon="103.40075"><ele>802</ele><time>2026-05-11T14:50:30.000Z</time></trkpt>
        <trkpt lat="29.57183" lon="103.400719"><ele>803</ele><time>2026-05-11T14:50:38.000Z</time></trkpt>
        <trkpt lat="29.571828" lon="103.400714"><ele>803</ele><time>2026-05-11T14:50:39.000Z</time></trkpt>
        <trkpt lat="29.571825" lon="103.400708"><ele>803</ele><time>2026-05-11T14:50:40.000Z</time></trkpt>
        <trkpt lat="29.571816" lon="103.400661"><ele>808</ele><time>2026-05-11T14:50:47.000Z</time></trkpt>
        <trkpt lat="29.571821" lon="103.400657"><ele>809</ele><time>2026-05-11T14:50:50.000Z</time></trkpt>
        <trkpt lat="29.571819" lon="103.400656"><ele>810</ele><time>2026-05-11T14:50:51.000Z</time></trkpt>
        <trkpt lat="29.571815" lon="103.400647"><ele>813</ele><time>2026-05-11T14:50:55.000Z</time></trkpt>
        <trkpt lat="29.571837" lon="103.400656"><ele>814</ele><time>2026-05-11T14:51:05.000Z</time></trkpt>
        <trkpt lat="29.571849" lon="103.400659"><ele>815</ele><time>2026-05-11T14:51:09.000Z</time></trkpt>
        <trkpt lat="29.571838" lon="103.400645"><ele>816</ele><time>2026-05-11T14:51:16.000Z</time></trkpt>
        <trkpt lat="29.571832" lon="103.400632"><ele>816</ele><time>2026-05-11T14:51:20.000Z</time></trkpt>
        <trkpt lat="29.571829" lon="103.400601"><ele>817</ele><time>2026-05-11T14:51:26.000Z</time></trkpt>
        <trkpt lat="29.571822" lon="103.400571"><ele>823</ele><time>2026-05-11T14:51:35.000Z</time></trkpt>
        <trkpt lat="29.571848" lon="103.400437"><ele>818</ele><time>2026-05-11T14:52:06.000Z</time></trkpt>
        <trkpt lat="29.571817" lon="103.400379"><ele>817</ele><time>2026-05-11T14:52:19.000Z</time></trkpt>
        <trkpt lat="29.571816" lon="103.40037"><ele>818</ele><time>2026-05-11T14:52:21.000Z</time></trkpt>
        <trkpt lat="29.571815" lon="103.400311"><ele>820</ele><time>2026-05-11T14:52:31.000Z</time></trkpt>
        <trkpt lat="29.571804" lon="103.400263"><ele>821</ele><time>2026-05-11T14:52:45.000Z</time></trkpt>
        <trkpt lat="29.571805" lon="103.400252"><ele>822</ele><time>2026-05-11T14:52:48.000Z</time></trkpt>
        <trkpt lat="29.5718" lon="103.400236"><ele>821</ele><time>2026-05-11T14:52:51.000Z</time></trkpt>
        <trkpt lat="29.571773" lon="103.400178"><ele>823</ele><time>2026-05-11T14:53:07.000Z</time></trkpt>
        <trkpt lat="29.571766" lon="103.400043"><ele>828</ele><time>2026-05-11T14:53:40.000Z</time></trkpt>
        <trkpt lat="29.571758" lon="103.399883"><ele>833</ele><time>2026-05-11T14:54:12.000Z</time></trkpt>
        <trkpt lat="29.571767" lon="103.399738"><ele>834</ele><time>2026-05-11T14:54:38.000Z</time></trkpt>
        <trkpt lat="29.571772" lon="103.399701"><ele>835</ele><time>2026-05-11T14:54:45.000Z</time></trkpt>
        <trkpt lat="29.571772" lon="103.399676"><ele>834</ele><time>2026-05-11T14:54:50.000Z</time></trkpt>
        <trkpt lat="29.57176" lon="103.399515"><ele>838</ele><time>2026-05-11T14:55:12.000Z</time></trkpt>
        <trkpt lat="29.571726" lon="103.399319"><ele>845</ele><time>2026-05-11T14:55:42.000Z</time></trkpt>
        <trkpt lat="29.571688" lon="103.399265"><ele>846</ele><time>2026-05-11T14:55:52.000Z</time></trkpt>
        <trkpt lat="29.571678" lon="103.399216"><ele>847</ele><time>2026-05-11T14:56:02.000Z</time></trkpt>
        <trkpt lat="29.571608" lon="103.399026"><ele>857</ele><time>2026-05-11T14:56:25.000Z</time></trkpt>
        <trkpt lat="29.571541" lon="103.398838"><ele>861</ele><time>2026-05-11T14:56:41.000Z</time></trkpt>
        <trkpt lat="29.571529" lon="103.398788"><ele>861</ele><time>2026-05-11T14:56:45.000Z</time></trkpt>
        <trkpt lat="29.571531" lon="103.39864"><ele>857</ele><time>2026-05-11T14:56:58.000Z</time></trkpt>
        <trkpt lat="29.571525" lon="103.398616"><ele>856</ele><time>2026-05-11T14:57:01.000Z</time></trkpt>
        <trkpt lat="29.571519" lon="103.398589"><ele>857</ele><time>2026-05-11T14:57:04.000Z</time></trkpt>
        <trkpt lat="29.571507" lon="103.398564"><ele>857</ele><time>2026-05-11T14:57:07.000Z</time></trkpt>
        <trkpt lat="29.571508" lon="103.398527"><ele>856</ele><time>2026-05-11T14:57:12.000Z</time></trkpt>
        <trkpt lat="29.571508" lon="103.398423"><ele>848</ele><time>2026-05-11T14:57:26.000Z</time></trkpt>
        <trkpt lat="29.5715" lon="103.398407"><ele>848</ele><time>2026-05-11T14:57:28.000Z</time></trkpt>
        <trkpt lat="29.571498" lon="103.398398"><ele>847</ele><time>2026-05-11T14:57:29.000Z</time></trkpt>
        <trkpt lat="29.571504" lon="103.398342"><ele>845</ele><time>2026-05-11T14:57:36.000Z</time></trkpt>
        <trkpt lat="29.571505" lon="103.398333"><ele>845</ele><time>2026-05-11T14:57:37.000Z</time></trkpt>
        <trkpt lat="29.571502" lon="103.398324"><ele>844</ele><time>2026-05-11T14:57:38.000Z</time></trkpt>
        <trkpt lat="29.571514" lon="103.398275"><ele>843</ele><time>2026-05-11T14:57:42.000Z</time></trkpt>
        <trkpt lat="29.571518" lon="103.398268"><ele>842</ele><time>2026-05-11T14:57:43.000Z</time></trkpt>
        <trkpt lat="29.571513" lon="103.398224"><ele>840</ele><time>2026-05-11T14:57:48.000Z</time></trkpt>
        <trkpt lat="29.571504" lon="103.398179"><ele>838</ele><time>2026-05-11T14:57:52.000Z</time></trkpt>
        <trkpt lat="29.571501" lon="103.398156"><ele>838</ele><time>2026-05-11T14:57:54.000Z</time></trkpt>
        <trkpt lat="29.571501" lon="103.398145"><ele>838</ele><time>2026-05-11T14:57:55.000Z</time></trkpt>
        <trkpt lat="29.571495" lon="103.398105"><ele>837</ele><time>2026-05-11T14:57:58.000Z</time></trkpt>
        <trkpt lat="29.571487" lon="103.39805"><ele>836</ele><time>2026-05-11T14:58:05.000Z</time></trkpt>
        <trkpt lat="29.571487" lon="103.398038"><ele>836</ele><time>2026-05-11T14:58:07.000Z</time></trkpt>
        <trkpt lat="29.571481" lon="103.398009"><ele>835</ele><time>2026-05-11T14:58:12.000Z</time></trkpt>
        <trkpt lat="29.571468" lon="103.397922"><ele>832</ele><time>2026-05-11T14:58:26.000Z</time></trkpt>
        <trkpt lat="29.571449" lon="103.39784"><ele>831</ele><time>2026-05-11T14:58:40.000Z</time></trkpt>
        <trkpt lat="29.571441" lon="103.3978"><ele>829</ele><time>2026-05-11T14:58:47.000Z</time></trkpt>
        <trkpt lat="29.5714" lon="103.397688"><ele>827</ele><time>2026-05-11T14:59:01.000Z</time></trkpt>
        <trkpt lat="29.571389" lon="103.397601"><ele>825</ele><time>2026-05-11T14:59:09.000Z</time></trkpt>
        <trkpt lat="29.571405" lon="103.39753"><ele>821</ele><time>2026-05-11T14:59:18.000Z</time></trkpt>
        <trkpt lat="29.57141" lon="103.397506"><ele>820</ele><time>2026-05-11T14:59:21.000Z</time></trkpt>
        <trkpt lat="29.57141" lon="103.397343"><ele>817</ele><time>2026-05-11T14:59:38.000Z</time></trkpt>
        <trkpt lat="29.571411" lon="103.397323"><ele>816</ele><time>2026-05-11T14:59:40.000Z</time></trkpt>
        <trkpt lat="29.571487" lon="103.397193"><ele>812</ele><time>2026-05-11T14:59:58.000Z</time></trkpt>
        <trkpt lat="29.571549" lon="103.39713"><ele>810</ele><time>2026-05-11T15:00:07.000Z</time></trkpt>
        <trkpt lat="29.57157" lon="103.397101"><ele>810</ele><time>2026-05-11T15:00:10.000Z</time></trkpt>
        <trkpt lat="29.571582" lon="103.397075"><ele>808</ele><time>2026-05-11T15:00:13.000Z</time></trkpt>
        <trkpt lat="29.571585" lon="103.397066"><ele>807</ele><time>2026-05-11T15:00:14.000Z</time></trkpt>
        <trkpt lat="29.571616" lon="103.397004"><ele>807</ele><time>2026-05-11T15:00:21.000Z</time></trkpt>
        <trkpt lat="29.571631" lon="103.396989"><ele>806</ele><time>2026-05-11T15:00:23.000Z</time></trkpt>
        <trkpt lat="29.571666" lon="103.396908"><ele>804</ele><time>2026-05-11T15:00:33.000Z</time></trkpt>
        <trkpt lat="29.571701" lon="103.39687"><ele>802</ele><time>2026-05-11T15:00:41.000Z</time></trkpt>
        <trkpt lat="29.571857" lon="103.396772"><ele>796</ele><time>2026-05-11T15:01:10.000Z</time></trkpt>
        <trkpt lat="29.572017" lon="103.396723"><ele>790</ele><time>2026-05-11T15:01:31.000Z</time></trkpt>
        <trkpt lat="29.572037" lon="103.396722"><ele>787</ele><time>2026-05-11T15:01:36.000Z</time></trkpt>
        <trkpt lat="29.572198" lon="103.396699"><ele>782</ele><time>2026-05-11T15:01:57.000Z</time></trkpt>
        <trkpt lat="29.572218" lon="103.396689"><ele>782</ele><time>2026-05-11T15:01:59.000Z</time></trkpt>
        <trkpt lat="29.572233" lon="103.396679"><ele>781</ele><time>2026-05-11T15:02:01.000Z</time></trkpt>
        <trkpt lat="29.572281" lon="103.396589"><ele>777</ele><time>2026-05-11T15:02:14.000Z</time></trkpt>
        <trkpt lat="29.572296" lon="103.396384"><ele>768</ele><time>2026-05-11T15:02:37.000Z</time></trkpt>
        <trkpt lat="29.572325" lon="103.396329"><ele>768</ele><time>2026-05-11T15:02:44.000Z</time></trkpt>
        <trkpt lat="29.572328" lon="103.39631"><ele>769</ele><time>2026-05-11T15:02:46.000Z</time></trkpt>
        <trkpt lat="29.572325" lon="103.396271"><ele>770</ele><time>2026-05-11T15:02:50.000Z</time></trkpt>
        <trkpt lat="29.572324" lon="103.396257"><ele>770</ele><time>2026-05-11T15:02:52.000Z</time></trkpt>
        <trkpt lat="29.572369" lon="103.396082"><ele>772</ele><time>2026-05-11T15:03:15.000Z</time></trkpt>
        <trkpt lat="29.572455" lon="103.395989"><ele>772</ele><time>2026-05-11T15:03:30.000Z</time></trkpt>
        <trkpt lat="29.57246" lon="103.395983"><ele>771</ele><time>2026-05-11T15:03:31.000Z</time></trkpt>
        <trkpt lat="29.572465" lon="103.395979"><ele>771</ele><time>2026-05-11T15:03:32.000Z</time></trkpt>
        <trkpt lat="29.572473" lon="103.395967"><ele>771</ele><time>2026-05-11T15:03:35.000Z</time></trkpt>
        <trkpt lat="29.57248" lon="103.395963"><ele>770</ele><time>2026-05-11T15:03:36.000Z</time></trkpt>
        <trkpt lat="29.572485" lon="103.395955"><ele>771</ele><time>2026-05-11T15:03:37.000Z</time></trkpt>
        <trkpt lat="29.572488" lon="103.395947"><ele>770</ele><time>2026-05-11T15:03:38.000Z</time></trkpt>
        <trkpt lat="29.572497" lon="103.395935"><ele>769</ele><time>2026-05-11T15:03:40.000Z</time></trkpt>
        <trkpt lat="29.5725" lon="103.39593"><ele>769</ele><time>2026-05-11T15:03:41.000Z</time></trkpt>
        <trkpt lat="29.572509" lon="103.395924"><ele>769</ele><time>2026-05-11T15:03:42.000Z</time></trkpt>
        <trkpt lat="29.572661" lon="103.395804"><ele>766</ele><time>2026-05-11T15:04:04.000Z</time></trkpt>
        <trkpt lat="29.572683" lon="103.395787"><ele>766</ele><time>2026-05-11T15:04:07.000Z</time></trkpt>
        <trkpt lat="29.572713" lon="103.395757"><ele>766</ele><time>2026-05-11T15:04:10.000Z</time></trkpt>
        <trkpt lat="29.57283" lon="103.395611"><ele>766</ele><time>2026-05-11T15:04:22.000Z</time></trkpt>
        <trkpt lat="29.572889" lon="103.395493"><ele>766</ele><time>2026-05-11T15:04:30.000Z</time></trkpt>
        <trkpt lat="29.572918" lon="103.395349"><ele>765</ele><time>2026-05-11T15:04:43.000Z</time></trkpt>
        <trkpt lat="29.572882" lon="103.395277"><ele>762</ele><time>2026-05-11T15:04:52.000Z</time></trkpt>
        <trkpt lat="29.572876" lon="103.395253"><ele>761</ele><time>2026-05-11T15:04:55.000Z</time></trkpt>
        <trkpt lat="29.57285" lon="103.395138"><ele>757</ele><time>2026-05-11T15:05:09.000Z</time></trkpt>
        <trkpt lat="29.572825" lon="103.394926"><ele>751</ele><time>2026-05-11T15:05:29.000Z</time></trkpt>
        <trkpt lat="29.572832" lon="103.394895"><ele>750</ele><time>2026-05-11T15:05:33.000Z</time></trkpt>
        <trkpt lat="29.572831" lon="103.394881"><ele>749</ele><time>2026-05-11T15:05:35.000Z</time></trkpt>
        <trkpt lat="29.572831" lon="103.394869"><ele>748</ele><time>2026-05-11T15:05:37.000Z</time></trkpt>
        <trkpt lat="29.572766" lon="103.394766"><ele>745</ele><time>2026-05-11T15:05:57.000Z</time></trkpt>
        <trkpt lat="29.572677" lon="103.394634"><ele>734</ele><time>2026-05-11T15:06:24.000Z</time></trkpt>
        <trkpt lat="29.572707" lon="103.394417"><ele>727</ele><time>2026-05-11T15:06:50.000Z</time></trkpt>
        <trkpt lat="29.572746" lon="103.394313"><ele>726</ele><time>2026-05-11T15:07:01.000Z</time></trkpt>
        <trkpt lat="29.572768" lon="103.394262"><ele>726</ele><time>2026-05-11T15:07:05.000Z</time></trkpt>
        <trkpt lat="29.572844" lon="103.394067"><ele>725</ele><time>2026-05-11T15:07:20.000Z</time></trkpt>
        <trkpt lat="29.572937" lon="103.393882"><ele>728</ele><time>2026-05-11T15:07:33.000Z</time></trkpt>
        <trkpt lat="29.573069" lon="103.393739"><ele>732</ele><time>2026-05-11T15:07:46.000Z</time></trkpt>
        <trkpt lat="29.573116" lon="103.393736"><ele>732</ele><time>2026-05-11T15:07:54.000Z</time></trkpt>
        <trkpt lat="29.573119" lon="103.393735"><ele>732</ele><time>2026-05-11T15:07:55.000Z</time></trkpt>
        <trkpt lat="29.573126" lon="103.393741"><ele>731</ele><time>2026-05-11T15:07:57.000Z</time></trkpt>
        <trkpt lat="29.573193" lon="103.393746"><ele>730</ele><time>2026-05-11T15:08:05.000Z</time></trkpt>
        <trkpt lat="29.573215" lon="103.393741"><ele>730</ele><time>2026-05-11T15:08:07.000Z</time></trkpt>
        <trkpt lat="29.573244" lon="103.393714"><ele>730</ele><time>2026-05-11T15:08:10.000Z</time></trkpt>
        <trkpt lat="29.573352" lon="103.393618"><ele>730</ele><time>2026-05-11T15:08:22.000Z</time></trkpt>
        <trkpt lat="29.573437" lon="103.393574"><ele>729</ele><time>2026-05-11T15:08:29.000Z</time></trkpt>
        <trkpt lat="29.573549" lon="103.39351"><ele>729</ele><time>2026-05-11T15:08:39.000Z</time></trkpt>
        <trkpt lat="29.573553" lon="103.393509"><ele>729</ele><time>2026-05-11T15:08:41.000Z</time></trkpt>
        <trkpt lat="29.573543" lon="103.393499"><ele>732</ele><time>2026-05-11T15:09:01.000Z</time></trkpt>
        <trkpt lat="29.573535" lon="103.393486"><ele>735</ele><time>2026-05-11T15:09:25.000Z</time></trkpt>
        <trkpt lat="29.573536" lon="103.393486"><ele>735</ele><time>2026-05-11T15:09:26.000Z</time></trkpt>
        <trkpt lat="29.573535" lon="103.393487"><ele>735</ele><time>2026-05-11T15:09:28.000Z</time></trkpt>
        <trkpt lat="29.573508" lon="103.393481"><ele>734</ele><time>2026-05-11T15:09:42.000Z</time></trkpt>
        <trkpt lat="29.573499" lon="103.393481"><ele>730</ele><time>2026-05-11T15:09:45.000Z</time></trkpt>
        <trkpt lat="29.573501" lon="103.393478"><ele>729</ele><time>2026-05-11T15:09:47.000Z</time></trkpt>
        <trkpt lat="29.573502" lon="103.39348"><ele>729</ele><time>2026-05-11T15:09:53.000Z</time></trkpt>
        <trkpt lat="29.5735" lon="103.393482"><ele>729</ele><time>2026-05-11T15:09:55.000Z</time></trkpt>
        <trkpt lat="29.573506" lon="103.393492"><ele>731</ele><time>2026-05-11T15:10:00.000Z</time></trkpt>
        <trkpt lat="29.573508" lon="103.393485"><ele>732</ele><time>2026-05-11T15:10:09.000Z</time></trkpt>
        <trkpt lat="29.573509" lon="103.393483"><ele>733</ele><time>2026-05-11T15:10:11.000Z</time></trkpt>
        <trkpt lat="29.573509" lon="103.393483"><ele>733</ele><time>2026-05-11T15:10:12.000Z</time></trkpt>
        <trkpt lat="29.573507" lon="103.393481"><ele>733</ele><time>2026-05-11T15:10:13.000Z</time></trkpt>
        <trkpt lat="29.573514" lon="103.393481"><ele>731</ele><time>2026-05-11T15:10:24.000Z</time></trkpt>
        <trkpt lat="29.573511" lon="103.393486"><ele>730</ele><time>2026-05-11T15:10:33.000Z</time></trkpt>
        <trkpt lat="29.573523" lon="103.393485"><ele>729</ele><time>2026-05-11T15:10:43.000Z</time></trkpt>
        <trkpt lat="29.573528" lon="103.393502"><ele>727</ele><time>2026-05-11T15:10:53.000Z</time></trkpt>
        <trkpt lat="29.573525" lon="103.393508"><ele>727</ele><time>2026-05-11T15:10:56.000Z</time></trkpt>
        <trkpt lat="29.57353" lon="103.393501"><ele>727</ele><time>2026-05-11T15:11:00.000Z</time></trkpt>
        <trkpt lat="29.573518" lon="103.393502"><ele>723</ele><time>2026-05-11T15:11:30.000Z</time></trkpt>
        <trkpt lat="29.573527" lon="103.3935"><ele>723</ele><time>2026-05-11T15:11:40.000Z</time></trkpt>
        <trkpt lat="29.573523" lon="103.393494"><ele>723</ele><time>2026-05-11T15:11:50.000Z</time></trkpt>
        <trkpt lat="29.573514" lon="103.393495"><ele>728</ele><time>2026-05-11T15:12:01.000Z</time></trkpt>
        <trkpt lat="29.573514" lon="103.393489"><ele>730</ele><time>2026-05-11T15:12:04.000Z</time></trkpt>
        <trkpt lat="29.573474" lon="103.393518"><ele>723</ele><time>2026-05-11T15:12:17.000Z</time></trkpt>
        <trkpt lat="29.573496" lon="103.393515"><ele>717</ele><time>2026-05-11T15:12:45.000Z</time></trkpt>
        <trkpt lat="29.573467" lon="103.393509"><ele>717</ele><time>2026-05-11T15:12:53.000Z</time></trkpt>
        <trkpt lat="29.573527" lon="103.393498"><ele>724</ele><time>2026-05-11T15:13:10.000Z</time></trkpt>
        <trkpt lat="29.57353" lon="103.393498"><ele>724</ele><time>2026-05-11T15:13:11.000Z</time></trkpt>
        <trkpt lat="29.573565" lon="103.393525"><ele>721</ele><time>2026-05-11T15:13:25.000Z</time></trkpt>
        <trkpt lat="29.573569" lon="103.393534"><ele>717</ele><time>2026-05-11T15:13:27.000Z</time></trkpt>
        <trkpt lat="29.573597" lon="103.393588"><ele>716</ele><time>2026-05-11T15:13:48.000Z</time></trkpt>
        <trkpt lat="29.573607" lon="103.393552"><ele>719</ele><time>2026-05-11T15:14:11.000Z</time></trkpt>
        <trkpt lat="29.573631" lon="103.393528"><ele>719</ele><time>2026-05-11T15:14:14.000Z</time></trkpt>
        <trkpt lat="29.573538" lon="103.39352"><ele>723</ele><time>2026-05-11T15:14:45.000Z</time></trkpt>
        <trkpt lat="29.573561" lon="103.39349"><ele>718</ele><time>2026-05-11T15:15:18.000Z</time></trkpt>
        <trkpt lat="29.573563" lon="103.393494"><ele>718</ele><time>2026-05-11T15:15:23.000Z</time></trkpt>
        <trkpt lat="29.57357" lon="103.393502"><ele>721</ele><time>2026-05-11T15:15:45.000Z</time></trkpt>
        <trkpt lat="29.573569" lon="103.393503"><ele>722</ele><time>2026-05-11T15:15:46.000Z</time></trkpt>
        <trkpt lat="29.573562" lon="103.393502"><ele>726</ele><time>2026-05-11T15:15:51.000Z</time></trkpt>
        <trkpt lat="29.573559" lon="103.393499"><ele>727</ele><time>2026-05-11T15:15:52.000Z</time></trkpt>
        <trkpt lat="29.573557" lon="103.393498"><ele>728</ele><time>2026-05-11T15:15:53.000Z</time></trkpt>
        <trkpt lat="29.573554" lon="103.393492"><ele>729</ele><time>2026-05-11T15:15:59.000Z</time></trkpt>
        <trkpt lat="29.573554" lon="103.393492"><ele>730</ele><time>2026-05-11T15:16:01.000Z</time></trkpt>
        <trkpt lat="29.57356" lon="103.393491"><ele>732</ele><time>2026-05-11T15:16:06.000Z</time></trkpt>
        <trkpt lat="29.573559" lon="103.393488"><ele>732</ele><time>2026-05-11T15:16:12.000Z</time></trkpt>
        <trkpt lat="29.573568" lon="103.39348"><ele>733</ele><time>2026-05-11T15:16:18.000Z</time></trkpt>
        <trkpt lat="29.573568" lon="103.39348"><ele>733</ele><time>2026-05-11T15:16:22.000Z</time></trkpt>
        <trkpt lat="29.573578" lon="103.393464"><ele>731</ele><time>2026-05-11T15:16:41.000Z</time></trkpt>
        <trkpt lat="29.573598" lon="103.393453"><ele>730</ele><time>2026-05-11T15:16:46.000Z</time></trkpt>
        <trkpt lat="29.573599" lon="103.393453"><ele>730</ele><time>2026-05-11T15:16:47.000Z</time></trkpt>
        <trkpt lat="29.573589" lon="103.393483"><ele>729</ele><time>2026-05-11T15:17:03.000Z</time></trkpt>
        <trkpt lat="29.573564" lon="103.393524"><ele>731</ele><time>2026-05-11T15:17:28.000Z</time></trkpt>
        <trkpt lat="29.573579" lon="103.393523"><ele>725</ele><time>2026-05-11T15:17:37.000Z</time></trkpt>
        <trkpt lat="29.573528" lon="103.393543"><ele>724</ele><time>2026-05-11T15:18:27.000Z</time></trkpt>
        <trkpt lat="29.573531" lon="103.393542"><ele>725</ele><time>2026-05-11T15:18:28.000Z</time></trkpt>
        <trkpt lat="29.573532" lon="103.393542"><ele>725</ele><time>2026-05-11T15:18:29.000Z</time></trkpt>
        <trkpt lat="29.573542" lon="103.393523"><ele>726</ele><time>2026-05-11T15:18:36.000Z</time></trkpt>
        <trkpt lat="29.573542" lon="103.393525"><ele>726</ele><time>2026-05-11T15:18:40.000Z</time></trkpt>
        <trkpt lat="29.573528" lon="103.393523"><ele>713</ele><time>2026-05-11T15:19:33.000Z</time></trkpt>
        <trkpt lat="29.573516" lon="103.393543"><ele>710</ele><time>2026-05-11T15:19:38.000Z</time></trkpt>
        <trkpt lat="29.573527" lon="103.393553"><ele>711</ele><time>2026-05-11T15:19:43.000Z</time></trkpt>
        <trkpt lat="29.573538" lon="103.39356"><ele>710</ele><time>2026-05-11T15:19:46.000Z</time></trkpt>
        <trkpt lat="29.573547" lon="103.393556"><ele>709</ele><time>2026-05-11T15:19:48.000Z</time></trkpt>
        <trkpt lat="29.573566" lon="103.393551"><ele>707</ele><time>2026-05-11T15:19:51.000Z</time></trkpt>
        <trkpt lat="29.573592" lon="103.393531"><ele>706</ele><time>2026-05-11T15:19:56.000Z</time></trkpt>
        <trkpt lat="29.573586" lon="103.393484"><ele>712</ele><time>2026-05-11T15:20:15.000Z</time></trkpt>
        <trkpt lat="29.573581" lon="103.393484"><ele>711</ele><time>2026-05-11T15:20:18.000Z</time></trkpt>
        <trkpt lat="29.573579" lon="103.393483"><ele>711</ele><time>2026-05-11T15:20:20.000Z</time></trkpt>
        <trkpt lat="29.573555" lon="103.39348"><ele>703</ele><time>2026-05-11T15:21:20.000Z</time></trkpt>
        <trkpt lat="29.573555" lon="103.393476"><ele>702</ele><time>2026-05-11T15:21:24.000Z</time></trkpt>
        <trkpt lat="29.573558" lon="103.39348"><ele>703</ele><time>2026-05-11T15:21:30.000Z</time></trkpt>
        <trkpt lat="29.573567" lon="103.393477"><ele>704</ele><time>2026-05-11T15:21:35.000Z</time></trkpt>
        <trkpt lat="29.573569" lon="103.393474"><ele>705</ele><time>2026-05-11T15:21:36.000Z</time></trkpt>
        <trkpt lat="29.573573" lon="103.393471"><ele>705</ele><time>2026-05-11T15:21:37.000Z</time></trkpt>
        <trkpt lat="29.573575" lon="103.393468"><ele>706</ele><time>2026-05-11T15:21:38.000Z</time></trkpt>
        <trkpt lat="29.573609" lon="103.393417"><ele>711</ele><time>2026-05-11T15:21:45.000Z</time></trkpt>
        <trkpt lat="29.573637" lon="103.39339"><ele>714</ele><time>2026-05-11T15:21:49.000Z</time></trkpt>
        <trkpt lat="29.573678" lon="103.393373"><ele>715</ele><time>2026-05-11T15:21:55.000Z</time></trkpt>
        <trkpt lat="29.57369" lon="103.393372"><ele>715</ele><time>2026-05-11T15:21:56.000Z</time></trkpt>
        <trkpt lat="29.573705" lon="103.393372"><ele>715</ele><time>2026-05-11T15:21:58.000Z</time></trkpt>
        <trkpt lat="29.573773" lon="103.39336"><ele>714</ele><time>2026-05-11T15:22:05.000Z</time></trkpt>
        <trkpt lat="29.57379" lon="103.393351"><ele>715</ele><time>2026-05-11T15:22:07.000Z</time></trkpt>
        <trkpt lat="29.573812" lon="103.393341"><ele>715</ele><time>2026-05-11T15:22:10.000Z</time></trkpt>
        <trkpt lat="29.573826" lon="103.393331"><ele>716</ele><time>2026-05-11T15:22:12.000Z</time></trkpt>
        <trkpt lat="29.573837" lon="103.393315"><ele>716</ele><time>2026-05-11T15:22:13.000Z</time></trkpt>
        <trkpt lat="29.573845" lon="103.393306"><ele>717</ele><time>2026-05-11T15:22:14.000Z</time></trkpt>
        <trkpt lat="29.573862" lon="103.393293"><ele>717</ele><time>2026-05-11T15:22:16.000Z</time></trkpt>
        <trkpt lat="29.573877" lon="103.393276"><ele>718</ele><time>2026-05-11T15:22:18.000Z</time></trkpt>
        <trkpt lat="29.573946" lon="103.393225"><ele>723</ele><time>2026-05-11T15:22:29.000Z</time></trkpt>
        <trkpt lat="29.573971" lon="103.393197"><ele>722</ele><time>2026-05-11T15:22:35.000Z</time></trkpt>
        <trkpt lat="29.573996" lon="103.39316"><ele>722</ele><time>2026-05-11T15:22:42.000Z</time></trkpt>
        <trkpt lat="29.574015" lon="103.392995"><ele>714</ele><time>2026-05-11T15:23:06.000Z</time></trkpt>
        <trkpt lat="29.574009" lon="103.392984"><ele>713</ele><time>2026-05-11T15:23:08.000Z</time></trkpt>
        <trkpt lat="29.573996" lon="103.392969"><ele>712</ele><time>2026-05-11T15:23:10.000Z</time></trkpt>
        <trkpt lat="29.574076" lon="103.392776"><ele>712</ele><time>2026-05-11T15:23:38.000Z</time></trkpt>
        <trkpt lat="29.574073" lon="103.392737"><ele>710</ele><time>2026-05-11T15:23:43.000Z</time></trkpt>
        <trkpt lat="29.574069" lon="103.392722"><ele>708</ele><time>2026-05-11T15:23:45.000Z</time></trkpt>
        <trkpt lat="29.57405" lon="103.39268"><ele>703</ele><time>2026-05-11T15:23:52.000Z</time></trkpt>
        <trkpt lat="29.574019" lon="103.392611"><ele>696</ele><time>2026-05-11T15:24:01.000Z</time></trkpt>
        <trkpt lat="29.574015" lon="103.392593"><ele>695</ele><time>2026-05-11T15:24:03.000Z</time></trkpt>
        <trkpt lat="29.574011" lon="103.392583"><ele>695</ele><time>2026-05-11T15:24:05.000Z</time></trkpt>
        <trkpt lat="29.57397" lon="103.392512"><ele>691</ele><time>2026-05-11T15:24:13.000Z</time></trkpt>
        <trkpt lat="29.57397" lon="103.392469"><ele>688</ele><time>2026-05-11T15:24:19.000Z</time></trkpt>
        <trkpt lat="29.57405" lon="103.39248"><ele>688</ele><time>2026-05-11T15:24:30.000Z</time></trkpt>
        <trkpt lat="29.574053" lon="103.39248"><ele>688</ele><time>2026-05-11T15:24:31.000Z</time></trkpt>
        <trkpt lat="29.57407" lon="103.392478"><ele>687</ele><time>2026-05-11T15:24:34.000Z</time></trkpt>
        <trkpt lat="29.574085" lon="103.392472"><ele>687</ele><time>2026-05-11T15:24:37.000Z</time></trkpt>
        <trkpt lat="29.574108" lon="103.392455"><ele>688</ele><time>2026-05-11T15:24:43.000Z</time></trkpt>
        <trkpt lat="29.574112" lon="103.392446"><ele>689</ele><time>2026-05-11T15:24:46.000Z</time></trkpt>
        <trkpt lat="29.574107" lon="103.392448"><ele>690</ele><time>2026-05-11T15:25:08.000Z</time></trkpt>
        <trkpt lat="29.574111" lon="103.392441"><ele>690</ele><time>2026-05-11T15:25:15.000Z</time></trkpt>
        <trkpt lat="29.57411" lon="103.39244"><ele>690</ele><time>2026-05-11T15:25:16.000Z</time></trkpt>
        <trkpt lat="29.574111" lon="103.392417"><ele>690</ele><time>2026-05-11T15:25:22.000Z</time></trkpt>
        <trkpt lat="29.574107" lon="103.392408"><ele>690</ele><time>2026-05-11T15:25:23.000Z</time></trkpt>
        <trkpt lat="29.574107" lon="103.392403"><ele>690</ele><time>2026-05-11T15:25:24.000Z</time></trkpt>
        <trkpt lat="29.574106" lon="103.392399"><ele>690</ele><time>2026-05-11T15:25:25.000Z</time></trkpt>
        <trkpt lat="29.5741" lon="103.392364"><ele>688</ele><time>2026-05-11T15:25:52.000Z</time></trkpt>
        <trkpt lat="29.574055" lon="103.392369"><ele>682</ele><time>2026-05-11T15:26:04.000Z</time></trkpt>
        <trkpt lat="29.574086" lon="103.39236"><ele>678</ele><time>2026-05-11T15:26:10.000Z</time></trkpt>
        <trkpt lat="29.574257" lon="103.392206"><ele>672</ele><time>2026-05-11T15:26:45.000Z</time></trkpt>
        <trkpt lat="29.574253" lon="103.392206"><ele>673</ele><time>2026-05-11T15:26:51.000Z</time></trkpt>
        <trkpt lat="29.574256" lon="103.392202"><ele>674</ele><time>2026-05-11T15:26:54.000Z</time></trkpt>
        <trkpt lat="29.574247" lon="103.392205"><ele>676</ele><time>2026-05-11T15:26:55.000Z</time></trkpt>
        <trkpt lat="29.574272" lon="103.392158"><ele>682</ele><time>2026-05-11T15:27:36.000Z</time></trkpt>
        <trkpt lat="29.574305" lon="103.392138"><ele>693</ele><time>2026-05-11T15:28:03.000Z</time></trkpt>
        <trkpt lat="29.574311" lon="103.392125"><ele>696</ele><time>2026-05-11T15:28:07.000Z</time></trkpt>
        <trkpt lat="29.574318" lon="103.392122"><ele>697</ele><time>2026-05-11T15:28:09.000Z</time></trkpt>
        <trkpt lat="29.574216" lon="103.392186"><ele>692</ele><time>2026-05-11T15:28:37.000Z</time></trkpt>
        <trkpt lat="29.574207" lon="103.392183"><ele>692</ele><time>2026-05-11T15:28:38.000Z</time></trkpt>
        <trkpt lat="29.574177" lon="103.392168"><ele>690</ele><time>2026-05-11T15:28:41.000Z</time></trkpt>
        <trkpt lat="29.574169" lon="103.392161"><ele>690</ele><time>2026-05-11T15:28:42.000Z</time></trkpt>
        <trkpt lat="29.574151" lon="103.392132"><ele>694</ele><time>2026-05-11T15:28:45.000Z</time></trkpt>
        <trkpt lat="29.574151" lon="103.392113"><ele>696</ele><time>2026-05-11T15:28:49.000Z</time></trkpt>
        <trkpt lat="29.574133" lon="103.392109"><ele>697</ele><time>2026-05-11T15:28:55.000Z</time></trkpt>
        <trkpt lat="29.574114" lon="103.392095"><ele>701</ele><time>2026-05-11T15:29:00.000Z</time></trkpt>
        <trkpt lat="29.574107" lon="103.39209"><ele>701</ele><time>2026-05-11T15:29:01.000Z</time></trkpt>
        <trkpt lat="29.573937" lon="103.392093"><ele>702</ele><time>2026-05-11T15:29:37.000Z</time></trkpt>
        <trkpt lat="29.573921" lon="103.392097"><ele>702</ele><time>2026-05-11T15:29:41.000Z</time></trkpt>
        <trkpt lat="29.573845" lon="103.392095"><ele>702</ele><time>2026-05-11T15:29:50.000Z</time></trkpt>
        <trkpt lat="29.573741" lon="103.392092"><ele>704</ele><time>2026-05-11T15:29:57.000Z</time></trkpt>
        <trkpt lat="29.573729" lon="103.392089"><ele>705</ele><time>2026-05-11T15:29:58.000Z</time></trkpt>
        <trkpt lat="29.573714" lon="103.392088"><ele>705</ele><time>2026-05-11T15:29:59.000Z</time></trkpt>
        <trkpt lat="29.573679" lon="103.392082"><ele>706</ele><time>2026-05-11T15:30:02.000Z</time></trkpt>
        <trkpt lat="29.573558" lon="103.39199"><ele>711</ele><time>2026-05-11T15:30:18.000Z</time></trkpt>
        <trkpt lat="29.573542" lon="103.392005"><ele>720</ele><time>2026-05-11T15:30:21.000Z</time></trkpt>
        <trkpt lat="29.573505" lon="103.392021"><ele>736</ele><time>2026-05-11T15:30:33.000Z</time></trkpt>
        <trkpt lat="29.573506" lon="103.392024"><ele>743</ele><time>2026-05-11T15:30:40.000Z</time></trkpt>
        <trkpt lat="29.573491" lon="103.391983"><ele>746</ele><time>2026-05-11T15:30:47.000Z</time></trkpt>
        <trkpt lat="29.573503" lon="103.391975"><ele>750</ele><time>2026-05-11T15:30:53.000Z</time></trkpt>
        <trkpt lat="29.573514" lon="103.391971"><ele>750</ele><time>2026-05-11T15:31:00.000Z</time></trkpt>
        <trkpt lat="29.573595" lon="103.391979"><ele>727</ele><time>2026-05-11T15:31:39.000Z</time></trkpt>
        <trkpt lat="29.57362" lon="103.391987"><ele>735</ele><time>2026-05-11T15:31:45.000Z</time></trkpt>
        <trkpt lat="29.57362" lon="103.391979"><ele>735</ele><time>2026-05-11T15:31:52.000Z</time></trkpt>
        <trkpt lat="29.573618" lon="103.391982"><ele>735</ele><time>2026-05-11T15:31:53.000Z</time></trkpt>
        <trkpt lat="29.573605" lon="103.391976"><ele>735</ele><time>2026-05-11T15:32:01.000Z</time></trkpt>
        <trkpt lat="29.573582" lon="103.392005"><ele>729</ele><time>2026-05-11T15:32:07.000Z</time></trkpt>
        <trkpt lat="29.573508" lon="103.392008"><ele>728</ele><time>2026-05-11T15:32:25.000Z</time></trkpt>
        <trkpt lat="29.5735" lon="103.39199"><ele>730</ele><time>2026-05-11T15:32:29.000Z</time></trkpt>
        <trkpt lat="29.573497" lon="103.391975"><ele>732</ele><time>2026-05-11T15:32:32.000Z</time></trkpt>
        <trkpt lat="29.57346" lon="103.391935"><ele>744</ele><time>2026-05-11T15:32:44.000Z</time></trkpt>
        <trkpt lat="29.573425" lon="103.391928"><ele>758</ele><time>2026-05-11T15:33:11.000Z</time></trkpt>
        <trkpt lat="29.573423" lon="103.39191"><ele>755</ele><time>2026-05-11T15:33:14.000Z</time></trkpt>
        <trkpt lat="29.573416" lon="103.39191"><ele>754</ele><time>2026-05-11T15:33:15.000Z</time></trkpt>
        <trkpt lat="29.573375" lon="103.391873"><ele>746</ele><time>2026-05-11T15:33:22.000Z</time></trkpt>
        <trkpt lat="29.573363" lon="103.391859"><ele>742</ele><time>2026-05-11T15:33:25.000Z</time></trkpt>
        <trkpt lat="29.573335" lon="103.391849"><ele>739</ele><time>2026-05-11T15:33:29.000Z</time></trkpt>
        <trkpt lat="29.573304" lon="103.391853"><ele>738</ele><time>2026-05-11T15:33:33.000Z</time></trkpt>
        <trkpt lat="29.573294" lon="103.391844"><ele>738</ele><time>2026-05-11T15:33:36.000Z</time></trkpt>
        <trkpt lat="29.573279" lon="103.391843"><ele>738</ele><time>2026-05-11T15:33:38.000Z</time></trkpt>
        <trkpt lat="29.573272" lon="103.391837"><ele>736</ele><time>2026-05-11T15:33:40.000Z</time></trkpt>
        <trkpt lat="29.573267" lon="103.391834"><ele>736</ele><time>2026-05-11T15:33:42.000Z</time></trkpt>
        <trkpt lat="29.573256" lon="103.391826"><ele>735</ele><time>2026-05-11T15:33:44.000Z</time></trkpt>
        <trkpt lat="29.573247" lon="103.391822"><ele>734</ele><time>2026-05-11T15:33:45.000Z</time></trkpt>
        <trkpt lat="29.573239" lon="103.39182"><ele>734</ele><time>2026-05-11T15:33:47.000Z</time></trkpt>
        <trkpt lat="29.573208" lon="103.391823"><ele>731</ele><time>2026-05-11T15:33:51.000Z</time></trkpt>
        <trkpt lat="29.573187" lon="103.391838"><ele>732</ele><time>2026-05-11T15:33:53.000Z</time></trkpt>
        <trkpt lat="29.573183" lon="103.391832"><ele>733</ele><time>2026-05-11T15:33:56.000Z</time></trkpt>
        <trkpt lat="29.573153" lon="103.391821"><ele>730</ele><time>2026-05-11T15:34:00.000Z</time></trkpt>
        <trkpt lat="29.573137" lon="103.391819"><ele>732</ele><time>2026-05-11T15:34:02.000Z</time></trkpt>
        <trkpt lat="29.573105" lon="103.391812"><ele>732</ele><time>2026-05-11T15:34:05.000Z</time></trkpt>
        <trkpt lat="29.573017" lon="103.391845"><ele>744</ele><time>2026-05-11T15:34:17.000Z</time></trkpt>
        <trkpt lat="29.573002" lon="103.391861"><ele>743</ele><time>2026-05-11T15:34:19.000Z</time></trkpt>
        <trkpt lat="29.57299" lon="103.39187"><ele>746</ele><time>2026-05-11T15:34:22.000Z</time></trkpt>
        <trkpt lat="29.572959" lon="103.391866"><ele>747</ele><time>2026-05-11T15:34:25.000Z</time></trkpt>
        <trkpt lat="29.572938" lon="103.391867"><ele>743</ele><time>2026-05-11T15:34:27.000Z</time></trkpt>
        <trkpt lat="29.572924" lon="103.39187"><ele>745</ele><time>2026-05-11T15:34:28.000Z</time></trkpt>
        <trkpt lat="29.572867" lon="103.391869"><ele>747</ele><time>2026-05-11T15:34:32.000Z</time></trkpt>
        <trkpt lat="29.5728" lon="103.391892"><ele>760</ele><time>2026-05-11T15:34:39.000Z</time></trkpt>
        <trkpt lat="29.572789" lon="103.391903"><ele>764</ele><time>2026-05-11T15:34:41.000Z</time></trkpt>
        <trkpt lat="29.572784" lon="103.391905"><ele>766</ele><time>2026-05-11T15:34:42.000Z</time></trkpt>
        <trkpt lat="29.57266" lon="103.391898"><ele>757</ele><time>2026-05-11T15:34:54.000Z</time></trkpt>
        <trkpt lat="29.572651" lon="103.391893"><ele>758</ele><time>2026-05-11T15:34:56.000Z</time></trkpt>
        <trkpt lat="29.572614" lon="103.391894"><ele>757</ele><time>2026-05-11T15:35:02.000Z</time></trkpt>
        <trkpt lat="29.5726" lon="103.391898"><ele>755</ele><time>2026-05-11T15:35:04.000Z</time></trkpt>
        <trkpt lat="29.572578" lon="103.391887"><ele>752</ele><time>2026-05-11T15:35:07.000Z</time></trkpt>
        <trkpt lat="29.572556" lon="103.391883"><ele>746</ele><time>2026-05-11T15:35:11.000Z</time></trkpt>
        <trkpt lat="29.572518" lon="103.391871"><ele>740</ele><time>2026-05-11T15:35:15.000Z</time></trkpt>
        <trkpt lat="29.572499" lon="103.391864"><ele>740</ele><time>2026-05-11T15:35:17.000Z</time></trkpt>
        <trkpt lat="29.572443" lon="103.391838"><ele>737</ele><time>2026-05-11T15:35:24.000Z</time></trkpt>
        <trkpt lat="29.572423" lon="103.391853"><ele>739</ele><time>2026-05-11T15:35:27.000Z</time></trkpt>
        <trkpt lat="29.572405" lon="103.391858"><ele>739</ele><time>2026-05-11T15:35:29.000Z</time></trkpt>
        <trkpt lat="29.572399" lon="103.391858"><ele>740</ele><time>2026-05-11T15:35:30.000Z</time></trkpt>
        <trkpt lat="29.57239" lon="103.391857"><ele>741</ele><time>2026-05-11T15:35:31.000Z</time></trkpt>
        <trkpt lat="29.572363" lon="103.391815"><ele>749</ele><time>2026-05-11T15:35:38.000Z</time></trkpt>
        <trkpt lat="29.572325" lon="103.391796"><ele>748</ele><time>2026-05-11T15:35:42.000Z</time></trkpt>
        <trkpt lat="29.572274" lon="103.391734"><ele>744</ele><time>2026-05-11T15:35:50.000Z</time></trkpt>
        <trkpt lat="29.572237" lon="103.391713"><ele>740</ele><time>2026-05-11T15:35:53.000Z</time></trkpt>
        <trkpt lat="29.57217" lon="103.391677"><ele>728</ele><time>2026-05-11T15:35:58.000Z</time></trkpt>
        <trkpt lat="29.572117" lon="103.391659"><ele>722</ele><time>2026-05-11T15:36:03.000Z</time></trkpt>
        <trkpt lat="29.572049" lon="103.391647"><ele>724</ele><time>2026-05-11T15:36:12.000Z</time></trkpt>
        <trkpt lat="29.572035" lon="103.391645"><ele>724</ele><time>2026-05-11T15:36:14.000Z</time></trkpt>
        <trkpt lat="29.572015" lon="103.39163"><ele>724</ele><time>2026-05-11T15:36:16.000Z</time></trkpt>
        <trkpt lat="29.57198" lon="103.391613"><ele>721</ele><time>2026-05-11T15:36:19.000Z</time></trkpt>
        <trkpt lat="29.571851" lon="103.391629"><ele>719</ele><time>2026-05-11T15:36:31.000Z</time></trkpt>
        <trkpt lat="29.571812" lon="103.391628"><ele>715</ele><time>2026-05-11T15:36:36.000Z</time></trkpt>
        <trkpt lat="29.571778" lon="103.391645"><ele>710</ele><time>2026-05-11T15:36:39.000Z</time></trkpt>
        <trkpt lat="29.571752" lon="103.391648"><ele>706</ele><time>2026-05-11T15:36:43.000Z</time></trkpt>
        <trkpt lat="29.571743" lon="103.391636"><ele>706</ele><time>2026-05-11T15:36:45.000Z</time></trkpt>
        <trkpt lat="29.57163" lon="103.391617"><ele>694</ele><time>2026-05-11T15:36:53.000Z</time></trkpt>
        <trkpt lat="29.571605" lon="103.39161"><ele>692</ele><time>2026-05-11T15:36:57.000Z</time></trkpt>
        <trkpt lat="29.571577" lon="103.391603"><ele>691</ele><time>2026-05-11T15:37:00.000Z</time></trkpt>
        <trkpt lat="29.571551" lon="103.391607"><ele>689</ele><time>2026-05-11T15:37:02.000Z</time></trkpt>
        <trkpt lat="29.571477" lon="103.391646"><ele>687</ele><time>2026-05-11T15:37:09.000Z</time></trkpt>
        <trkpt lat="29.571393" lon="103.391647"><ele>685</ele><time>2026-05-11T15:37:15.000Z</time></trkpt>
        <trkpt lat="29.571378" lon="103.391654"><ele>684</ele><time>2026-05-11T15:37:16.000Z</time></trkpt>
        <trkpt lat="29.571343" lon="103.391666"><ele>685</ele><time>2026-05-11T15:37:21.000Z</time></trkpt>
        <trkpt lat="29.57134" lon="103.391664"><ele>687</ele><time>2026-05-11T15:37:23.000Z</time></trkpt>
        <trkpt lat="29.571299" lon="103.391708"><ele>710</ele><time>2026-05-11T15:37:33.000Z</time></trkpt>
        <trkpt lat="29.571321" lon="103.391679"><ele>713</ele><time>2026-05-11T15:37:46.000Z</time></trkpt>
        <trkpt lat="29.571323" lon="103.391676"><ele>713</ele><time>2026-05-11T15:37:47.000Z</time></trkpt>
        <trkpt lat="29.571244" lon="103.391656"><ele>691</ele><time>2026-05-11T15:38:06.000Z</time></trkpt>
        <trkpt lat="29.571236" lon="103.391656"><ele>688</ele><time>2026-05-11T15:38:08.000Z</time></trkpt>
        <trkpt lat="29.571229" lon="103.391659"><ele>687</ele><time>2026-05-11T15:38:09.000Z</time></trkpt>
        <trkpt lat="29.571205" lon="103.391687"><ele>690</ele><time>2026-05-11T15:38:12.000Z</time></trkpt>
        <trkpt lat="29.571165" lon="103.391727"><ele>699</ele><time>2026-05-11T15:38:16.000Z</time></trkpt>
        <trkpt lat="29.571145" lon="103.391734"><ele>700</ele><time>2026-05-11T15:38:19.000Z</time></trkpt>
        <trkpt lat="29.571145" lon="103.391729"><ele>702</ele><time>2026-05-11T15:38:21.000Z</time></trkpt>
        <trkpt lat="29.57112" lon="103.391727"><ele>700</ele><time>2026-05-11T15:38:24.000Z</time></trkpt>
        <trkpt lat="29.571102" lon="103.391714"><ele>701</ele><time>2026-05-11T15:38:28.000Z</time></trkpt>
        <trkpt lat="29.571085" lon="103.391707"><ele>701</ele><time>2026-05-11T15:38:31.000Z</time></trkpt>
        <trkpt lat="29.571041" lon="103.3917"><ele>697</ele><time>2026-05-11T15:38:36.000Z</time></trkpt>
        <trkpt lat="29.571017" lon="103.391682"><ele>697</ele><time>2026-05-11T15:38:40.000Z</time></trkpt>
        <trkpt lat="29.570987" lon="103.391684"><ele>695</ele><time>2026-05-11T15:38:42.000Z</time></trkpt>
        <trkpt lat="29.570964" lon="103.391678"><ele>695</ele><time>2026-05-11T15:38:44.000Z</time></trkpt>
        <trkpt lat="29.570815" lon="103.391569"><ele>694</ele><time>2026-05-11T15:39:00.000Z</time></trkpt>
        <trkpt lat="29.570805" lon="103.391559"><ele>697</ele><time>2026-05-11T15:39:03.000Z</time></trkpt>
        <trkpt lat="29.570791" lon="103.391548"><ele>698</ele><time>2026-05-11T15:39:05.000Z</time></trkpt>
        <trkpt lat="29.570759" lon="103.391532"><ele>696</ele><time>2026-05-11T15:39:08.000Z</time></trkpt>
        <trkpt lat="29.570735" lon="103.391499"><ele>697</ele><time>2026-05-11T15:39:11.000Z</time></trkpt>
        <trkpt lat="29.57072" lon="103.391478"><ele>698</ele><time>2026-05-11T15:39:13.000Z</time></trkpt>
        <trkpt lat="29.570669" lon="103.391498"><ele>705</ele><time>2026-05-11T15:39:18.000Z</time></trkpt>
        <trkpt lat="29.570659" lon="103.39149"><ele>708</ele><time>2026-05-11T15:39:20.000Z</time></trkpt>
        <trkpt lat="29.570635" lon="103.391501"><ele>710</ele><time>2026-05-11T15:39:22.000Z</time></trkpt>
        <trkpt lat="29.570582" lon="103.39148"><ele>721</ele><time>2026-05-11T15:39:31.000Z</time></trkpt>
        <trkpt lat="29.570573" lon="103.391465"><ele>720</ele><time>2026-05-11T15:39:33.000Z</time></trkpt>
        <trkpt lat="29.570556" lon="103.391452"><ele>719</ele><time>2026-05-11T15:39:35.000Z</time></trkpt>
        <trkpt lat="29.570553" lon="103.391415"><ele>720</ele><time>2026-05-11T15:39:39.000Z</time></trkpt>
        <trkpt lat="29.57054" lon="103.391391"><ele>718</ele><time>2026-05-11T15:39:42.000Z</time></trkpt>
        <trkpt lat="29.570456" lon="103.39134"><ele>710</ele><time>2026-05-11T15:39:53.000Z</time></trkpt>
        <trkpt lat="29.570409" lon="103.391335"><ele>714</ele><time>2026-05-11T15:39:57.000Z</time></trkpt>
        <trkpt lat="29.570385" lon="103.391355"><ele>714</ele><time>2026-05-11T15:39:59.000Z</time></trkpt>
        <trkpt lat="29.570342" lon="103.391391"><ele>715</ele><time>2026-05-11T15:40:02.000Z</time></trkpt>
        <trkpt lat="29.570309" lon="103.391362"><ele>722</ele><time>2026-05-11T15:40:10.000Z</time></trkpt>
        <trkpt lat="29.570302" lon="103.391348"><ele>723</ele><time>2026-05-11T15:40:12.000Z</time></trkpt>
        <trkpt lat="29.57029" lon="103.391338"><ele>723</ele><time>2026-05-11T15:40:15.000Z</time></trkpt>
        <trkpt lat="29.570283" lon="103.39131"><ele>722</ele><time>2026-05-11T15:40:19.000Z</time></trkpt>
        <trkpt lat="29.570269" lon="103.391312"><ele>722</ele><time>2026-05-11T15:40:21.000Z</time></trkpt>
        <trkpt lat="29.570257" lon="103.391317"><ele>722</ele><time>2026-05-11T15:40:23.000Z</time></trkpt>
        <trkpt lat="29.570252" lon="103.39131"><ele>721</ele><time>2026-05-11T15:40:25.000Z</time></trkpt>
        <trkpt lat="29.570253" lon="103.391305"><ele>723</ele><time>2026-05-11T15:40:27.000Z</time></trkpt>
        <trkpt lat="29.570237" lon="103.391314"><ele>723</ele><time>2026-05-11T15:40:31.000Z</time></trkpt>
        <trkpt lat="29.570239" lon="103.391291"><ele>723</ele><time>2026-05-11T15:40:33.000Z</time></trkpt>
        <trkpt lat="29.57023" lon="103.391294"><ele>724</ele><time>2026-05-11T15:40:35.000Z</time></trkpt>
        <trkpt lat="29.570212" lon="103.391297"><ele>723</ele><time>2026-05-11T15:40:37.000Z</time></trkpt>
        <trkpt lat="29.570202" lon="103.391295"><ele>723</ele><time>2026-05-11T15:40:40.000Z</time></trkpt>
        <trkpt lat="29.570198" lon="103.39129"><ele>723</ele><time>2026-05-11T15:40:44.000Z</time></trkpt>
        <trkpt lat="29.570203" lon="103.391278"><ele>723</ele><time>2026-05-11T15:40:46.000Z</time></trkpt>
        <trkpt lat="29.570196" lon="103.39126"><ele>722</ele><time>2026-05-11T15:40:49.000Z</time></trkpt>
        <trkpt lat="29.570195" lon="103.391248"><ele>724</ele><time>2026-05-11T15:40:51.000Z</time></trkpt>
        <trkpt lat="29.570191" lon="103.391253"><ele>724</ele><time>2026-05-11T15:40:52.000Z</time></trkpt>
        <trkpt lat="29.570201" lon="103.391236"><ele>726</ele><time>2026-05-11T15:40:54.000Z</time></trkpt>
        <trkpt lat="29.570176" lon="103.391249"><ele>727</ele><time>2026-05-11T15:41:00.000Z</time></trkpt>
        <trkpt lat="29.570176" lon="103.391221"><ele>728</ele><time>2026-05-11T15:41:06.000Z</time></trkpt>
        <trkpt lat="29.570152" lon="103.391229"><ele>727</ele><time>2026-05-11T15:41:09.000Z</time></trkpt>
        <trkpt lat="29.570128" lon="103.391256"><ele>727</ele><time>2026-05-11T15:41:11.000Z</time></trkpt>
        <trkpt lat="29.570096" lon="103.391267"><ele>727</ele><time>2026-05-11T15:41:14.000Z</time></trkpt>
        <trkpt lat="29.570074" lon="103.391271"><ele>726</ele><time>2026-05-11T15:41:16.000Z</time></trkpt>
        <trkpt lat="29.570043" lon="103.391276"><ele>726</ele><time>2026-05-11T15:41:19.000Z</time></trkpt>
        <trkpt lat="29.570021" lon="103.391203"><ele>725</ele><time>2026-05-11T15:41:26.000Z</time></trkpt>
        <trkpt lat="29.570031" lon="103.391133"><ele>725</ele><time>2026-05-11T15:41:30.000Z</time></trkpt>
        <trkpt lat="29.57004" lon="103.391053"><ele>726</ele><time>2026-05-11T15:41:35.000Z</time></trkpt>
        <trkpt lat="29.570048" lon="103.39103"><ele>727</ele><time>2026-05-11T15:41:37.000Z</time></trkpt>
        <trkpt lat="29.570042" lon="103.391007"><ele>727</ele><time>2026-05-11T15:41:39.000Z</time></trkpt>
        <trkpt lat="29.570029" lon="103.390988"><ele>726</ele><time>2026-05-11T15:41:42.000Z</time></trkpt>
        <trkpt lat="29.57002" lon="103.390976"><ele>726</ele><time>2026-05-11T15:41:45.000Z</time></trkpt>
        <trkpt lat="29.569998" lon="103.390955"><ele>723</ele><time>2026-05-11T15:41:49.000Z</time></trkpt>
        <trkpt lat="29.569975" lon="103.390965"><ele>731</ele><time>2026-05-11T15:41:56.000Z</time></trkpt>
        <trkpt lat="29.569964" lon="103.390972"><ele>738</ele><time>2026-05-11T15:42:00.000Z</time></trkpt>
        <trkpt lat="29.569936" lon="103.390995"><ele>746</ele><time>2026-05-11T15:42:06.000Z</time></trkpt>
        <trkpt lat="29.569925" lon="103.390999"><ele>747</ele><time>2026-05-11T15:42:08.000Z</time></trkpt>
        <trkpt lat="29.569913" lon="103.39099"><ele>745</ele><time>2026-05-11T15:42:10.000Z</time></trkpt>
        <trkpt lat="29.569895" lon="103.390981"><ele>743</ele><time>2026-05-11T15:42:12.000Z</time></trkpt>
        <trkpt lat="29.569884" lon="103.390975"><ele>742</ele><time>2026-05-11T15:42:14.000Z</time></trkpt>
        <trkpt lat="29.569853" lon="103.390976"><ele>742</ele><time>2026-05-11T15:42:18.000Z</time></trkpt>
        <trkpt lat="29.569844" lon="103.390983"><ele>742</ele><time>2026-05-11T15:42:19.000Z</time></trkpt>
        <trkpt lat="29.569829" lon="103.390978"><ele>742</ele><time>2026-05-11T15:42:22.000Z</time></trkpt>
        <trkpt lat="29.569809" lon="103.390974"><ele>741</ele><time>2026-05-11T15:42:24.000Z</time></trkpt>
        <trkpt lat="29.569776" lon="103.390976"><ele>741</ele><time>2026-05-11T15:42:27.000Z</time></trkpt>
        <trkpt lat="29.569748" lon="103.390969"><ele>745</ele><time>2026-05-11T15:42:31.000Z</time></trkpt>
        <trkpt lat="29.569736" lon="103.390971"><ele>745</ele><time>2026-05-11T15:42:34.000Z</time></trkpt>
        <trkpt lat="29.569724" lon="103.390972"><ele>748</ele><time>2026-05-11T15:42:36.000Z</time></trkpt>
        <trkpt lat="29.569671" lon="103.390964"><ele>749</ele><time>2026-05-11T15:42:43.000Z</time></trkpt>
        <trkpt lat="29.569664" lon="103.390966"><ele>751</ele><time>2026-05-11T15:42:44.000Z</time></trkpt>
        <trkpt lat="29.569652" lon="103.39097"><ele>750</ele><time>2026-05-11T15:42:45.000Z</time></trkpt>
        <trkpt lat="29.569643" lon="103.390967"><ele>749</ele><time>2026-05-11T15:42:46.000Z</time></trkpt>
        <trkpt lat="29.569628" lon="103.390948"><ele>749</ele><time>2026-05-11T15:42:48.000Z</time></trkpt>
        <trkpt lat="29.569617" lon="103.390955"><ele>752</ele><time>2026-05-11T15:42:49.000Z</time></trkpt>
        <trkpt lat="29.569611" lon="103.390961"><ele>753</ele><time>2026-05-11T15:42:50.000Z</time></trkpt>
        <trkpt lat="29.569601" lon="103.390963"><ele>752</ele><time>2026-05-11T15:42:51.000Z</time></trkpt>
        <trkpt lat="29.569567" lon="103.390992"><ele>756</ele><time>2026-05-11T15:42:55.000Z</time></trkpt>
        <trkpt lat="29.569554" lon="103.390994"><ele>757</ele><time>2026-05-11T15:42:56.000Z</time></trkpt>
        <trkpt lat="29.569544" lon="103.390992"><ele>757</ele><time>2026-05-11T15:42:57.000Z</time></trkpt>
        <trkpt lat="29.569492" lon="103.390998"><ele>758</ele><time>2026-05-11T15:43:00.000Z</time></trkpt>
        <trkpt lat="29.569443" lon="103.391022"><ele>750</ele><time>2026-05-11T15:43:03.000Z</time></trkpt>
        <trkpt lat="29.569428" lon="103.391022"><ele>745</ele><time>2026-05-11T15:43:05.000Z</time></trkpt>
        <trkpt lat="29.56939" lon="103.391032"><ele>739</ele><time>2026-05-11T15:43:10.000Z</time></trkpt>
        <trkpt lat="29.569385" lon="103.391034"><ele>737</ele><time>2026-05-11T15:43:12.000Z</time></trkpt>
        <trkpt lat="29.569383" lon="103.391032"><ele>735</ele><time>2026-05-11T15:43:19.000Z</time></trkpt>
        <trkpt lat="29.569345" lon="103.391018"><ele>726</ele><time>2026-05-11T15:43:53.000Z</time></trkpt>
        <trkpt lat="29.569237" lon="103.390972"><ele>733</ele><time>2026-05-11T15:44:04.000Z</time></trkpt>
        <trkpt lat="29.569221" lon="103.390928"><ele>733</ele><time>2026-05-11T15:44:09.000Z</time></trkpt>
        <trkpt lat="29.569204" lon="103.390915"><ele>732</ele><time>2026-05-11T15:44:11.000Z</time></trkpt>
        <trkpt lat="29.569176" lon="103.390923"><ele>730</ele><time>2026-05-11T15:44:17.000Z</time></trkpt>
        <trkpt lat="29.569196" lon="103.390892"><ele>718</ele><time>2026-05-11T15:44:23.000Z</time></trkpt>
        <trkpt lat="29.569173" lon="103.390955"><ele>710</ele><time>2026-05-11T15:44:39.000Z</time></trkpt>
        <trkpt lat="29.569166" lon="103.390957"><ele>711</ele><time>2026-05-11T15:44:40.000Z</time></trkpt>
        <trkpt lat="29.569154" lon="103.390957"><ele>710</ele><time>2026-05-11T15:44:41.000Z</time></trkpt>
        <trkpt lat="29.569134" lon="103.390985"><ele>708</ele><time>2026-05-11T15:44:48.000Z</time></trkpt>
        <trkpt lat="29.56912" lon="103.390998"><ele>706</ele><time>2026-05-11T15:44:54.000Z</time></trkpt>
        <trkpt lat="29.569119" lon="103.391053"><ele>715</ele><time>2026-05-11T15:45:03.000Z</time></trkpt>
        <trkpt lat="29.569169" lon="103.391105"><ele>722</ele><time>2026-05-11T15:45:08.000Z</time></trkpt>
        <trkpt lat="29.569176" lon="103.391124"><ele>728</ele><time>2026-05-11T15:45:10.000Z</time></trkpt>
        <trkpt lat="29.569167" lon="103.391177"><ele>739</ele><time>2026-05-11T15:45:19.000Z</time></trkpt>
        <trkpt lat="29.56918" lon="103.391191"><ele>741</ele><time>2026-05-11T15:45:21.000Z</time></trkpt>
        <trkpt lat="29.56906" lon="103.391302"><ele>758</ele><time>2026-05-11T15:45:40.000Z</time></trkpt>
        <trkpt lat="29.568881" lon="103.391323"><ele>762</ele><time>2026-05-11T15:45:52.000Z</time></trkpt>
        <trkpt lat="29.568829" lon="103.391273"><ele>762</ele><time>2026-05-11T15:45:55.000Z</time></trkpt>
        <trkpt lat="29.56864" lon="103.391251"><ele>756</ele><time>2026-05-11T15:46:03.000Z</time></trkpt>
        <trkpt lat="29.568626" lon="103.391263"><ele>755</ele><time>2026-05-11T15:46:04.000Z</time></trkpt>
        <trkpt lat="29.568433" lon="103.39107"><ele>738</ele><time>2026-05-11T15:46:15.000Z</time></trkpt>
        <trkpt lat="29.56841" lon="103.391059"><ele>734</ele><time>2026-05-11T15:46:17.000Z</time></trkpt>
        <trkpt lat="29.568325" lon="103.391048"><ele>727</ele><time>2026-05-11T15:46:24.000Z</time></trkpt>
        <trkpt lat="29.568301" lon="103.391053"><ele>728</ele><time>2026-05-11T15:46:26.000Z</time></trkpt>
        <trkpt lat="29.568263" lon="103.391066"><ele>724</ele><time>2026-05-11T15:46:28.000Z</time></trkpt>
        <trkpt lat="29.568238" lon="103.391079"><ele>722</ele><time>2026-05-11T15:46:29.000Z</time></trkpt>
        <trkpt lat="29.568212" lon="103.391091"><ele>721</ele><time>2026-05-11T15:46:30.000Z</time></trkpt>
        <trkpt lat="29.568136" lon="103.391128"><ele>720</ele><time>2026-05-11T15:46:34.000Z</time></trkpt>
        <trkpt lat="29.568137" lon="103.391122"><ele>721</ele><time>2026-05-11T15:46:35.000Z</time></trkpt>
        <trkpt lat="29.568131" lon="103.391124"><ele>722</ele><time>2026-05-11T15:46:36.000Z</time></trkpt>
        <trkpt lat="29.568132" lon="103.391122"><ele>717</ele><time>2026-05-11T15:46:37.000Z</time></trkpt>
        <trkpt lat="29.56815" lon="103.391109"><ele>702</ele><time>2026-05-11T15:46:38.000Z</time></trkpt>
        <trkpt lat="29.568156" lon="103.391106"><ele>694</ele><time>2026-05-11T15:46:39.000Z</time></trkpt>
        <trkpt lat="29.568167" lon="103.391083"><ele>683</ele><time>2026-05-11T15:46:41.000Z</time></trkpt>
        <trkpt lat="29.568071" lon="103.391063"><ele>643</ele><time>2026-05-11T15:47:11.000Z</time></trkpt>
        <trkpt lat="29.568071" lon="103.391072"><ele>641</ele><time>2026-05-11T15:47:13.000Z</time></trkpt>
        <trkpt lat="29.568067" lon="103.391073"><ele>639</ele><time>2026-05-11T15:47:15.000Z</time></trkpt>
        <trkpt lat="29.568031" lon="103.391081"><ele>630</ele><time>2026-05-11T15:47:27.000Z</time></trkpt>
        <trkpt lat="29.568027" lon="103.39109"><ele>628</ele><time>2026-05-11T15:47:29.000Z</time></trkpt>
        <trkpt lat="29.568148" lon="103.391115"><ele>649</ele><time>2026-05-11T15:47:52.000Z</time></trkpt>
        <trkpt lat="29.568148" lon="103.391127"><ele>649</ele><time>2026-05-11T15:47:54.000Z</time></trkpt>
        <trkpt lat="29.55606" lon="103.385557"><ele>874</ele><time>2026-05-11T16:28:03.000Z</time></trkpt>
        <trkpt lat="29.556123" lon="103.385529"><ele>880</ele><time>2026-05-11T16:28:07.000Z</time></trkpt>
        <trkpt lat="29.556129" lon="103.385518"><ele>878</ele><time>2026-05-11T16:28:09.000Z</time></trkpt>
        <trkpt lat="29.556147" lon="103.385479"><ele>881</ele><time>2026-05-11T16:28:15.000Z</time></trkpt>
        <trkpt lat="29.556146" lon="103.385455"><ele>884</ele><time>2026-05-11T16:28:21.000Z</time></trkpt>
        <trkpt lat="29.556115" lon="103.385445"><ele>889</ele><time>2026-05-11T16:28:31.000Z</time></trkpt>
        <trkpt lat="29.5561" lon="103.385453"><ele>888</ele><time>2026-05-11T16:28:33.000Z</time></trkpt>
        <trkpt lat="29.5561" lon="103.38546"><ele>888</ele><time>2026-05-11T16:28:34.000Z</time></trkpt>
        <trkpt lat="29.556097" lon="103.385467"><ele>889</ele><time>2026-05-11T16:28:35.000Z</time></trkpt>
        <trkpt lat="29.556087" lon="103.38548"><ele>889</ele><time>2026-05-11T16:28:37.000Z</time></trkpt>
        <trkpt lat="29.556068" lon="103.385508"><ele>889</ele><time>2026-05-11T16:28:41.000Z</time></trkpt>
        <trkpt lat="29.555974" lon="103.385607"><ele>888</ele><time>2026-05-11T16:29:01.000Z</time></trkpt>
        <trkpt lat="29.555937" lon="103.38554"><ele>887</ele><time>2026-05-11T16:29:16.000Z</time></trkpt>
        <trkpt lat="29.555941" lon="103.38552"><ele>887</ele><time>2026-05-11T16:29:19.000Z</time></trkpt>
        <trkpt lat="29.555919" lon="103.385517"><ele>887</ele><time>2026-05-11T16:29:28.000Z</time></trkpt>
        <trkpt lat="29.555907" lon="103.385515"><ele>888</ele><time>2026-05-11T16:29:33.000Z</time></trkpt>
        <trkpt lat="29.555837" lon="103.385563"><ele>891</ele><time>2026-05-11T16:29:53.000Z</time></trkpt>
        <trkpt lat="29.555732" lon="103.385454"><ele>898</ele><time>2026-05-11T16:30:37.000Z</time></trkpt>
        <trkpt lat="29.555708" lon="103.385441"><ele>899</ele><time>2026-05-11T16:30:48.000Z</time></trkpt>
        <trkpt lat="29.555639" lon="103.38535"><ele>901</ele><time>2026-05-11T16:31:27.000Z</time></trkpt>
        <trkpt lat="29.55566" lon="103.38518"><ele>901</ele><time>2026-05-11T16:31:56.000Z</time></trkpt>
        <trkpt lat="29.555662" lon="103.385118"><ele>901</ele><time>2026-05-11T16:32:06.000Z</time></trkpt>
        <trkpt lat="29.555652" lon="103.385093"><ele>902</ele><time>2026-05-11T16:32:12.000Z</time></trkpt>
        <trkpt lat="29.55556" lon="103.385055"><ele>903</ele><time>2026-05-11T16:32:59.000Z</time></trkpt>
        <trkpt lat="29.555461" lon="103.385013"><ele>905</ele><time>2026-05-11T16:33:33.000Z</time></trkpt>
        <trkpt lat="29.555289" lon="103.384983"><ele>931</ele><time>2026-05-11T16:34:07.000Z</time></trkpt>
        <trkpt lat="29.555212" lon="103.384973"><ele>943</ele><time>2026-05-11T16:34:30.000Z</time></trkpt>
        <trkpt lat="29.555175" lon="103.384968"><ele>952</ele><time>2026-05-11T16:34:54.000Z</time></trkpt>
        <trkpt lat="29.555075" lon="103.384979"><ele>955</ele><time>2026-05-11T16:35:12.000Z</time></trkpt>
        <trkpt lat="29.555042" lon="103.384974"><ele>955</ele><time>2026-05-11T16:35:16.000Z</time></trkpt>
        <trkpt lat="29.55495" lon="103.384936"><ele>955</ele><time>2026-05-11T16:35:32.000Z</time></trkpt>
        <trkpt lat="29.554826" lon="103.384795"><ele>952</ele><time>2026-05-11T16:36:03.000Z</time></trkpt>
        <trkpt lat="29.554682" lon="103.384672"><ele>958</ele><time>2026-05-11T16:36:30.000Z</time></trkpt>
        <trkpt lat="29.554655" lon="103.384605"><ele>960</ele><time>2026-05-11T16:36:47.000Z</time></trkpt>
        <trkpt lat="29.554655" lon="103.384606"><ele>961</ele><time>2026-05-11T16:36:50.000Z</time></trkpt>
        <trkpt lat="29.554643" lon="103.38453"><ele>960</ele><time>2026-05-11T16:37:09.000Z</time></trkpt>
        <trkpt lat="29.554646" lon="103.384534"><ele>960</ele><time>2026-05-11T16:37:11.000Z</time></trkpt>
        <trkpt lat="29.55466" lon="103.384545"><ele>959</ele><time>2026-05-11T16:37:16.000Z</time></trkpt>
        <trkpt lat="29.554669" lon="103.384553"><ele>958</ele><time>2026-05-11T16:37:24.000Z</time></trkpt>
        <trkpt lat="29.55467" lon="103.38455"><ele>957</ele><time>2026-05-11T16:37:27.000Z</time></trkpt>
        <trkpt lat="29.554665" lon="103.384534"><ele>957</ele><time>2026-05-11T16:37:47.000Z</time></trkpt>
        <trkpt lat="29.554634" lon="103.38454"><ele>960</ele><time>2026-05-11T16:38:22.000Z</time></trkpt>
        <trkpt lat="29.554633" lon="103.384541"><ele>961</ele><time>2026-05-11T16:38:24.000Z</time></trkpt>
        <trkpt lat="29.554643" lon="103.384521"><ele>963</ele><time>2026-05-11T16:38:35.000Z</time></trkpt>
        <trkpt lat="29.554649" lon="103.384527"><ele>965</ele><time>2026-05-11T16:38:40.000Z</time></trkpt>
        <trkpt lat="29.554666" lon="103.384539"><ele>966</ele><time>2026-05-11T16:38:57.000Z</time></trkpt>
        <trkpt lat="29.554657" lon="103.384568"><ele>968</ele><time>2026-05-11T16:39:06.000Z</time></trkpt>
        <trkpt lat="29.554654" lon="103.384564"><ele>968</ele><time>2026-05-11T16:39:10.000Z</time></trkpt>
        <trkpt lat="29.554654" lon="103.384561"><ele>967</ele><time>2026-05-11T16:39:14.000Z</time></trkpt>
        <trkpt lat="29.554662" lon="103.384546"><ele>962</ele><time>2026-05-11T16:39:26.000Z</time></trkpt>
        <trkpt lat="29.554662" lon="103.384542"><ele>961</ele><time>2026-05-11T16:39:29.000Z</time></trkpt>
        <trkpt lat="29.554664" lon="103.384533"><ele>959</ele><time>2026-05-11T16:39:40.000Z</time></trkpt>
        <trkpt lat="29.554659" lon="103.384524"><ele>957</ele><time>2026-05-11T16:39:47.000Z</time></trkpt>
        <trkpt lat="29.554651" lon="103.384517"><ele>956</ele><time>2026-05-11T16:39:50.000Z</time></trkpt>
        <trkpt lat="29.554652" lon="103.384514"><ele>956</ele><time>2026-05-11T16:39:52.000Z</time></trkpt>
        <trkpt lat="29.554655" lon="103.384491"><ele>955</ele><time>2026-05-11T16:39:54.000Z</time></trkpt>
        <trkpt lat="29.554673" lon="103.384477"><ele>954</ele><time>2026-05-11T16:40:02.000Z</time></trkpt>
        <trkpt lat="29.554698" lon="103.384456"><ele>954</ele><time>2026-05-11T16:40:11.000Z</time></trkpt>
        <trkpt lat="29.554707" lon="103.384442"><ele>954</ele><time>2026-05-11T16:40:13.000Z</time></trkpt>
        <trkpt lat="29.554717" lon="103.38444"><ele>955</ele><time>2026-05-11T16:40:15.000Z</time></trkpt>
        <trkpt lat="29.554719" lon="103.384439"><ele>955</ele><time>2026-05-11T16:40:16.000Z</time></trkpt>
        <trkpt lat="29.554726" lon="103.38444"><ele>955</ele><time>2026-05-11T16:40:17.000Z</time></trkpt>
        <trkpt lat="29.554751" lon="103.384452"><ele>956</ele><time>2026-05-11T16:40:22.000Z</time></trkpt>
        <trkpt lat="29.554753" lon="103.384453"><ele>957</ele><time>2026-05-11T16:40:23.000Z</time></trkpt>
        <trkpt lat="29.554763" lon="103.384452"><ele>957</ele><time>2026-05-11T16:40:25.000Z</time></trkpt>
        <trkpt lat="29.55478" lon="103.384443"><ele>958</ele><time>2026-05-11T16:40:28.000Z</time></trkpt>
        <trkpt lat="29.554791" lon="103.384438"><ele>959</ele><time>2026-05-11T16:40:31.000Z</time></trkpt>
        <trkpt lat="29.554793" lon="103.384433"><ele>959</ele><time>2026-05-11T16:40:32.000Z</time></trkpt>
        <trkpt lat="29.554796" lon="103.384429"><ele>959</ele><time>2026-05-11T16:40:33.000Z</time></trkpt>
        <trkpt lat="29.554802" lon="103.384428"><ele>959</ele><time>2026-05-11T16:40:35.000Z</time></trkpt>
        <trkpt lat="29.554813" lon="103.384418"><ele>961</ele><time>2026-05-11T16:40:40.000Z</time></trkpt>
        <trkpt lat="29.554883" lon="103.384336"><ele>979</ele><time>2026-05-11T16:41:10.000Z</time></trkpt>
        <trkpt lat="29.55488" lon="103.384332"><ele>980</ele><time>2026-05-11T16:41:18.000Z</time></trkpt>
        <trkpt lat="29.554853" lon="103.384406"><ele>980</ele><time>2026-05-11T16:41:32.000Z</time></trkpt>
        <trkpt lat="29.554854" lon="103.384408"><ele>979</ele><time>2026-05-11T16:41:33.000Z</time></trkpt>
        <trkpt lat="29.554849" lon="103.384419"><ele>980</ele><time>2026-05-11T16:41:35.000Z</time></trkpt>
        <trkpt lat="29.554844" lon="103.384433"><ele>980</ele><time>2026-05-11T16:41:38.000Z</time></trkpt>
        <trkpt lat="29.55484" lon="103.384442"><ele>981</ele><time>2026-05-11T16:41:40.000Z</time></trkpt>
        <trkpt lat="29.554823" lon="103.384464"><ele>982</ele><time>2026-05-11T16:41:46.000Z</time></trkpt>
        <trkpt lat="29.554805" lon="103.384473"><ele>983</ele><time>2026-05-11T16:41:50.000Z</time></trkpt>
        <trkpt lat="29.554787" lon="103.384496"><ele>983</ele><time>2026-05-11T16:41:54.000Z</time></trkpt>
        <trkpt lat="29.554762" lon="103.384509"><ele>983</ele><time>2026-05-11T16:42:01.000Z</time></trkpt>
        <trkpt lat="29.554716" lon="103.384501"><ele>983</ele><time>2026-05-11T16:42:17.000Z</time></trkpt>
        <trkpt lat="29.554687" lon="103.384505"><ele>982</ele><time>2026-05-11T16:42:24.000Z</time></trkpt>
        <trkpt lat="29.55468" lon="103.384499"><ele>981</ele><time>2026-05-11T16:42:29.000Z</time></trkpt>
        <trkpt lat="29.554665" lon="103.384502"><ele>981</ele><time>2026-05-11T16:42:33.000Z</time></trkpt>
        <trkpt lat="29.554629" lon="103.384518"><ele>980</ele><time>2026-05-11T16:42:41.000Z</time></trkpt>
        <trkpt lat="29.554624" lon="103.38454"><ele>977</ele><time>2026-05-11T16:42:49.000Z</time></trkpt>
        <trkpt lat="29.554623" lon="103.384545"><ele>976</ele><time>2026-05-11T16:42:50.000Z</time></trkpt>
        <trkpt lat="29.554624" lon="103.384546"><ele>976</ele><time>2026-05-11T16:42:52.000Z</time></trkpt>
        <trkpt lat="29.554623" lon="103.384546"><ele>976</ele><time>2026-05-11T16:42:53.000Z</time></trkpt>
        <trkpt lat="29.55463" lon="103.384544"><ele>975</ele><time>2026-05-11T16:42:55.000Z</time></trkpt>
        <trkpt lat="29.554653" lon="103.38452"><ele>973</ele><time>2026-05-11T16:43:04.000Z</time></trkpt>
        <trkpt lat="29.554722" lon="103.384453"><ele>973</ele><time>2026-05-11T16:43:20.000Z</time></trkpt>
        <trkpt lat="29.554779" lon="103.384418"><ele>974</ele><time>2026-05-11T16:43:32.000Z</time></trkpt>
        <trkpt lat="29.554821" lon="103.384399"><ele>977</ele><time>2026-05-11T16:43:42.000Z</time></trkpt>
        <trkpt lat="29.554832" lon="103.384406"><ele>977</ele><time>2026-05-11T16:43:45.000Z</time></trkpt>
        <trkpt lat="29.554838" lon="103.384415"><ele>977</ele><time>2026-05-11T16:43:48.000Z</time></trkpt>
        <trkpt lat="29.554833" lon="103.384437"><ele>978</ele><time>2026-05-11T16:44:02.000Z</time></trkpt>
        <trkpt lat="29.554853" lon="103.384463"><ele>976</ele><time>2026-05-11T16:44:18.000Z</time></trkpt>
        <trkpt lat="29.554854" lon="103.384463"><ele>976</ele><time>2026-05-11T16:44:19.000Z</time></trkpt>
        <trkpt lat="29.554853" lon="103.384463"><ele>976</ele><time>2026-05-11T16:44:20.000Z</time></trkpt>
        <trkpt lat="29.554847" lon="103.384464"><ele>976</ele><time>2026-05-11T16:44:22.000Z</time></trkpt>
        <trkpt lat="29.554844" lon="103.38446"><ele>977</ele><time>2026-05-11T16:44:34.000Z</time></trkpt>
        <trkpt lat="29.554838" lon="103.38445"><ele>977</ele><time>2026-05-11T16:44:40.000Z</time></trkpt>
        <trkpt lat="29.554857" lon="103.384421"><ele>977</ele><time>2026-05-11T16:44:48.000Z</time></trkpt>
        <trkpt lat="29.55495" lon="103.384327"><ele>975</ele><time>2026-05-11T16:45:08.000Z</time></trkpt>
        <trkpt lat="29.554997" lon="103.384295"><ele>980</ele><time>2026-05-11T16:45:16.000Z</time></trkpt>
        <trkpt lat="29.555037" lon="103.384262"><ele>986</ele><time>2026-05-11T16:45:31.000Z</time></trkpt>
        <trkpt lat="29.555086" lon="103.384216"><ele>991</ele><time>2026-05-11T16:45:44.000Z</time></trkpt>
        <trkpt lat="29.555078" lon="103.384216"><ele>994</ele><time>2026-05-11T16:45:52.000Z</time></trkpt>
        <trkpt lat="29.554987" lon="103.384123"><ele>991</ele><time>2026-05-11T16:46:30.000Z</time></trkpt>
        <trkpt lat="29.554973" lon="103.38411"><ele>991</ele><time>2026-05-11T16:46:34.000Z</time></trkpt>
        <trkpt lat="29.554968" lon="103.384084"><ele>991</ele><time>2026-05-11T16:46:39.000Z</time></trkpt>
        <trkpt lat="29.554973" lon="103.383968"><ele>988</ele><time>2026-05-11T16:46:50.000Z</time></trkpt>
        <trkpt lat="29.554975" lon="103.383935"><ele>989</ele><time>2026-05-11T16:46:53.000Z</time></trkpt>
        <trkpt lat="29.55499" lon="103.383809"><ele>987</ele><time>2026-05-11T16:47:04.000Z</time></trkpt>
        <trkpt lat="29.555081" lon="103.383699"><ele>989</ele><time>2026-05-11T16:47:19.000Z</time></trkpt>
        <trkpt lat="29.555077" lon="103.383625"><ele>986</ele><time>2026-05-11T16:47:26.000Z</time></trkpt>
        <trkpt lat="29.555038" lon="103.383522"><ele>983</ele><time>2026-05-11T16:47:33.000Z</time></trkpt>
        <trkpt lat="29.555019" lon="103.383497"><ele>982</ele><time>2026-05-11T16:47:35.000Z</time></trkpt>
        <trkpt lat="29.55501" lon="103.383487"><ele>981</ele><time>2026-05-11T16:47:36.000Z</time></trkpt>
        <trkpt lat="29.554918" lon="103.383424"><ele>979</ele><time>2026-05-11T16:47:45.000Z</time></trkpt>
        <trkpt lat="29.554755" lon="103.383328"><ele>979</ele><time>2026-05-11T16:48:01.000Z</time></trkpt>
        <trkpt lat="29.554624" lon="103.383323"><ele>976</ele><time>2026-05-11T16:48:12.000Z</time></trkpt>
        <trkpt lat="29.554508" lon="103.383135"><ele>981</ele><time>2026-05-11T16:48:26.000Z</time></trkpt>
        <trkpt lat="29.554498" lon="103.38308"><ele>985</ele><time>2026-05-11T16:48:29.000Z</time></trkpt>
        <trkpt lat="29.554493" lon="103.383066"><ele>987</ele><time>2026-05-11T16:48:30.000Z</time></trkpt>
        <trkpt lat="29.554468" lon="103.383037"><ele>992</ele><time>2026-05-11T16:48:35.000Z</time></trkpt>
        <trkpt lat="29.554457" lon="103.383035"><ele>994</ele><time>2026-05-11T16:48:38.000Z</time></trkpt>
        <trkpt lat="29.554457" lon="103.383032"><ele>995</ele><time>2026-05-11T16:48:39.000Z</time></trkpt>
        <trkpt lat="29.554456" lon="103.383014"><ele>996</ele><time>2026-05-11T16:48:43.000Z</time></trkpt>
        <trkpt lat="29.55445" lon="103.383008"><ele>997</ele><time>2026-05-11T16:48:45.000Z</time></trkpt>
        <trkpt lat="29.554445" lon="103.382997"><ele>998</ele><time>2026-05-11T16:48:49.000Z</time></trkpt>
        <trkpt lat="29.554465" lon="103.382968"><ele>997</ele><time>2026-05-11T16:48:53.000Z</time></trkpt>
        <trkpt lat="29.554435" lon="103.382933"><ele>1002</ele><time>2026-05-11T16:48:58.000Z</time></trkpt>
        <trkpt lat="29.554421" lon="103.382928"><ele>1004</ele><time>2026-05-11T16:49:00.000Z</time></trkpt>
        <trkpt lat="29.554425" lon="103.382922"><ele>1005</ele><time>2026-05-11T16:49:01.000Z</time></trkpt>
        <trkpt lat="29.554428" lon="103.382904"><ele>1009</ele><time>2026-05-11T16:49:05.000Z</time></trkpt>
        <trkpt lat="29.554427" lon="103.382889"><ele>1011</ele><time>2026-05-11T16:49:09.000Z</time></trkpt>
        <trkpt lat="29.554403" lon="103.382777"><ele>1012</ele><time>2026-05-11T16:49:36.000Z</time></trkpt>
        <trkpt lat="29.554401" lon="103.382726"><ele>1009</ele><time>2026-05-11T16:49:48.000Z</time></trkpt>
        <trkpt lat="29.554399" lon="103.382714"><ele>1009</ele><time>2026-05-11T16:49:51.000Z</time></trkpt>
        <trkpt lat="29.554341" lon="103.382555"><ele>1019</ele><time>2026-05-11T16:50:35.000Z</time></trkpt>
        <trkpt lat="29.554243" lon="103.38239"><ele>1024</ele><time>2026-05-11T16:51:07.000Z</time></trkpt>
        <trkpt lat="29.554242" lon="103.38235"><ele>1024</ele><time>2026-05-11T16:51:11.000Z</time></trkpt>
        <trkpt lat="29.554246" lon="103.382295"><ele>1023</ele><time>2026-05-11T16:51:17.000Z</time></trkpt>
        <trkpt lat="29.554232" lon="103.382281"><ele>1023</ele><time>2026-05-11T16:51:19.000Z</time></trkpt>
        <trkpt lat="29.554229" lon="103.38227"><ele>1022</ele><time>2026-05-11T16:51:20.000Z</time></trkpt>
        <trkpt lat="29.554234" lon="103.38226"><ele>1022</ele><time>2026-05-11T16:51:21.000Z</time></trkpt>
        <trkpt lat="29.554212" lon="103.382069"><ele>1020</ele><time>2026-05-11T16:51:41.000Z</time></trkpt>
        <trkpt lat="29.554207" lon="103.382062"><ele>1020</ele><time>2026-05-11T16:51:42.000Z</time></trkpt>
        <trkpt lat="29.554191" lon="103.381981"><ele>1020</ele><time>2026-05-11T16:51:49.000Z</time></trkpt>
        <trkpt lat="29.554176" lon="103.381961"><ele>1020</ele><time>2026-05-11T16:51:51.000Z</time></trkpt>
        <trkpt lat="29.554146" lon="103.381844"><ele>1024</ele><time>2026-05-11T16:52:02.000Z</time></trkpt>
        <trkpt lat="29.554132" lon="103.381825"><ele>1026</ele><time>2026-05-11T16:52:05.000Z</time></trkpt>
        <trkpt lat="29.554136" lon="103.381811"><ele>1027</ele><time>2026-05-11T16:52:08.000Z</time></trkpt>
        <trkpt lat="29.554142" lon="103.381802"><ele>1027</ele><time>2026-05-11T16:52:10.000Z</time></trkpt>
        <trkpt lat="29.554165" lon="103.381731"><ele>1032</ele><time>2026-05-11T16:52:22.000Z</time></trkpt>
        <trkpt lat="29.554122" lon="103.381652"><ele>1033</ele><time>2026-05-11T16:52:31.000Z</time></trkpt>
        <trkpt lat="29.554092" lon="103.381559"><ele>1035</ele><time>2026-05-11T16:52:42.000Z</time></trkpt>
        <trkpt lat="29.554082" lon="103.38154"><ele>1035</ele><time>2026-05-11T16:52:45.000Z</time></trkpt>
        <trkpt lat="29.554091" lon="103.381519"><ele>1036</ele><time>2026-05-11T16:52:47.000Z</time></trkpt>
        <trkpt lat="29.554096" lon="103.381456"><ele>1034</ele><time>2026-05-11T16:52:53.000Z</time></trkpt>
        <trkpt lat="29.554098" lon="103.381437"><ele>1034</ele><time>2026-05-11T16:52:55.000Z</time></trkpt>
        <trkpt lat="29.55408" lon="103.381412"><ele>1035</ele><time>2026-05-11T16:52:58.000Z</time></trkpt>
        <trkpt lat="29.554068" lon="103.381381"><ele>1034</ele><time>2026-05-11T16:53:01.000Z</time></trkpt>
        <trkpt lat="29.554048" lon="103.381256"><ele>1033</ele><time>2026-05-11T16:53:11.000Z</time></trkpt>
        <trkpt lat="29.554037" lon="103.381231"><ele>1033</ele><time>2026-05-11T16:53:13.000Z</time></trkpt>
        <trkpt lat="29.554036" lon="103.381189"><ele>1032</ele><time>2026-05-11T16:53:17.000Z</time></trkpt>
        <trkpt lat="29.55402" lon="103.381133"><ele>1033</ele><time>2026-05-11T16:53:23.000Z</time></trkpt>
        <trkpt lat="29.553986" lon="103.381056"><ele>1035</ele><time>2026-05-11T16:53:34.000Z</time></trkpt>
        <trkpt lat="29.553996" lon="103.381013"><ele>1037</ele><time>2026-05-11T16:53:38.000Z</time></trkpt>
        <trkpt lat="29.554013" lon="103.380952"><ele>1038</ele><time>2026-05-11T16:53:43.000Z</time></trkpt>
        <trkpt lat="29.554012" lon="103.380842"><ele>1042</ele><time>2026-05-11T16:53:52.000Z</time></trkpt>
        <trkpt lat="29.554007" lon="103.380806"><ele>1044</ele><time>2026-05-11T16:53:56.000Z</time></trkpt>
        <trkpt lat="29.55403" lon="103.380772"><ele>1044</ele><time>2026-05-11T16:53:59.000Z</time></trkpt>
        <trkpt lat="29.554046" lon="103.380742"><ele>1046</ele><time>2026-05-11T16:54:03.000Z</time></trkpt>
        <trkpt lat="29.554058" lon="103.380715"><ele>1047</ele><time>2026-05-11T16:54:07.000Z</time></trkpt>
        <trkpt lat="29.554063" lon="103.380567"><ele>1045</ele><time>2026-05-11T16:54:25.000Z</time></trkpt>
        <trkpt lat="29.554062" lon="103.380534"><ele>1045</ele><time>2026-05-11T16:54:28.000Z</time></trkpt>
        <trkpt lat="29.554055" lon="103.380415"><ele>1044</ele><time>2026-05-11T16:54:38.000Z</time></trkpt>
        <trkpt lat="29.554069" lon="103.380379"><ele>1044</ele><time>2026-05-11T16:54:41.000Z</time></trkpt>
        <trkpt lat="29.554074" lon="103.380297"><ele>1041</ele><time>2026-05-11T16:54:48.000Z</time></trkpt>
        <trkpt lat="29.554087" lon="103.380269"><ele>1041</ele><time>2026-05-11T16:54:50.000Z</time></trkpt>
        <trkpt lat="29.554091" lon="103.380243"><ele>1042</ele><time>2026-05-11T16:54:53.000Z</time></trkpt>
        <trkpt lat="29.554105" lon="103.380222"><ele>1043</ele><time>2026-05-11T16:54:55.000Z</time></trkpt>
        <trkpt lat="29.554109" lon="103.380197"><ele>1043</ele><time>2026-05-11T16:54:58.000Z</time></trkpt>
        <trkpt lat="29.554111" lon="103.380177"><ele>1042</ele><time>2026-05-11T16:55:00.000Z</time></trkpt>
        <trkpt lat="29.554087" lon="103.380128"><ele>1041</ele><time>2026-05-11T16:55:05.000Z</time></trkpt>
        <trkpt lat="29.554074" lon="103.380099"><ele>1041</ele><time>2026-05-11T16:55:08.000Z</time></trkpt>
        <trkpt lat="29.554069" lon="103.380086"><ele>1041</ele><time>2026-05-11T16:55:10.000Z</time></trkpt>
        <trkpt lat="29.554044" lon="103.380074"><ele>1041</ele><time>2026-05-11T16:55:13.000Z</time></trkpt>
        <trkpt lat="29.554032" lon="103.380039"><ele>1041</ele><time>2026-05-11T16:55:17.000Z</time></trkpt>
        <trkpt lat="29.553985" lon="103.379902"><ele>1049</ele><time>2026-05-11T16:55:38.000Z</time></trkpt>
        <trkpt lat="29.553974" lon="103.379852"><ele>1053</ele><time>2026-05-11T16:55:45.000Z</time></trkpt>
        <trkpt lat="29.553964" lon="103.379816"><ele>1054</ele><time>2026-05-11T16:55:51.000Z</time></trkpt>
        <trkpt lat="29.553934" lon="103.379755"><ele>1056</ele><time>2026-05-11T16:56:04.000Z</time></trkpt>
        <trkpt lat="29.553939" lon="103.379744"><ele>1057</ele><time>2026-05-11T16:56:06.000Z</time></trkpt>
        <trkpt lat="29.553954" lon="103.379681"><ele>1060</ele><time>2026-05-11T16:56:19.000Z</time></trkpt>
        <trkpt lat="29.553897" lon="103.379492"><ele>1061</ele><time>2026-05-11T16:56:50.000Z</time></trkpt>
        <trkpt lat="29.553902" lon="103.379425"><ele>1062</ele><time>2026-05-11T16:56:59.000Z</time></trkpt>
        <trkpt lat="29.553909" lon="103.379415"><ele>1063</ele><time>2026-05-11T16:57:01.000Z</time></trkpt>
        <trkpt lat="29.553882" lon="103.379339"><ele>1069</ele><time>2026-05-11T16:57:13.000Z</time></trkpt>
        <trkpt lat="29.553845" lon="103.379251"><ele>1072</ele><time>2026-05-11T16:57:27.000Z</time></trkpt>
        <trkpt lat="29.553833" lon="103.379192"><ele>1072</ele><time>2026-05-11T16:57:34.000Z</time></trkpt>
        <trkpt lat="29.553828" lon="103.379176"><ele>1072</ele><time>2026-05-11T16:57:36.000Z</time></trkpt>
        <trkpt lat="29.553827" lon="103.379134"><ele>1072</ele><time>2026-05-11T16:57:41.000Z</time></trkpt>
        <trkpt lat="29.553808" lon="103.379025"><ele>1076</ele><time>2026-05-11T16:57:53.000Z</time></trkpt>
        <trkpt lat="29.553813" lon="103.378993"><ele>1076</ele><time>2026-05-11T16:57:56.000Z</time></trkpt>
        <trkpt lat="29.553814" lon="103.378975"><ele>1075</ele><time>2026-05-11T16:57:58.000Z</time></trkpt>
        <trkpt lat="29.55384" lon="103.37891"><ele>1076</ele><time>2026-05-11T16:58:04.000Z</time></trkpt>
        <trkpt lat="29.553858" lon="103.378812"><ele>1074</ele><time>2026-05-11T16:58:12.000Z</time></trkpt>
        <trkpt lat="29.553857" lon="103.378797"><ele>1073</ele><time>2026-05-11T16:58:13.000Z</time></trkpt>
        <trkpt lat="29.553874" lon="103.378706"><ele>1073</ele><time>2026-05-11T16:58:22.000Z</time></trkpt>
        <trkpt lat="29.553877" lon="103.378684"><ele>1073</ele><time>2026-05-11T16:58:25.000Z</time></trkpt>
        <trkpt lat="29.553843" lon="103.378647"><ele>1074</ele><time>2026-05-11T16:58:32.000Z</time></trkpt>
        <trkpt lat="29.553827" lon="103.378633"><ele>1075</ele><time>2026-05-11T16:58:35.000Z</time></trkpt>
        <trkpt lat="29.553816" lon="103.378616"><ele>1076</ele><time>2026-05-11T16:58:38.000Z</time></trkpt>
        <trkpt lat="29.553807" lon="103.378602"><ele>1076</ele><time>2026-05-11T16:58:40.000Z</time></trkpt>
        <trkpt lat="29.5538" lon="103.378596"><ele>1077</ele><time>2026-05-11T16:58:41.000Z</time></trkpt>
        <trkpt lat="29.553794" lon="103.378577"><ele>1076</ele><time>2026-05-11T16:58:43.000Z</time></trkpt>
        <trkpt lat="29.553781" lon="103.378547"><ele>1078</ele><time>2026-05-11T16:58:47.000Z</time></trkpt>
        <trkpt lat="29.553784" lon="103.378536"><ele>1079</ele><time>2026-05-11T16:58:49.000Z</time></trkpt>
        <trkpt lat="29.553782" lon="103.378515"><ele>1079</ele><time>2026-05-11T16:58:52.000Z</time></trkpt>
        <trkpt lat="29.553781" lon="103.378511"><ele>1080</ele><time>2026-05-11T16:58:53.000Z</time></trkpt>
        <trkpt lat="29.553784" lon="103.378501"><ele>1080</ele><time>2026-05-11T16:58:55.000Z</time></trkpt>
        <trkpt lat="29.553777" lon="103.378475"><ele>1082</ele><time>2026-05-11T16:58:59.000Z</time></trkpt>
        <trkpt lat="29.553779" lon="103.378458"><ele>1084</ele><time>2026-05-11T16:59:03.000Z</time></trkpt>
        <trkpt lat="29.553782" lon="103.378445"><ele>1085</ele><time>2026-05-11T16:59:07.000Z</time></trkpt>
        <trkpt lat="29.553781" lon="103.378438"><ele>1085</ele><time>2026-05-11T16:59:09.000Z</time></trkpt>
        <trkpt lat="29.553782" lon="103.378434"><ele>1085</ele><time>2026-05-11T16:59:10.000Z</time></trkpt>
        <trkpt lat="29.553783" lon="103.37843"><ele>1085</ele><time>2026-05-11T16:59:11.000Z</time></trkpt>
        <trkpt lat="29.553781" lon="103.37842"><ele>1085</ele><time>2026-05-11T16:59:13.000Z</time></trkpt>
        <trkpt lat="29.553781" lon="103.378411"><ele>1085</ele><time>2026-05-11T16:59:14.000Z</time></trkpt>
        <trkpt lat="29.553775" lon="103.378399"><ele>1084</ele><time>2026-05-11T16:59:16.000Z</time></trkpt>
        <trkpt lat="29.55377" lon="103.378393"><ele>1085</ele><time>2026-05-11T16:59:17.000Z</time></trkpt>
        <trkpt lat="29.553767" lon="103.378386"><ele>1084</ele><time>2026-05-11T16:59:18.000Z</time></trkpt>
        <trkpt lat="29.553755" lon="103.378381"><ele>1084</ele><time>2026-05-11T16:59:20.000Z</time></trkpt>
        <trkpt lat="29.553744" lon="103.378374"><ele>1084</ele><time>2026-05-11T16:59:22.000Z</time></trkpt>
        <trkpt lat="29.553738" lon="103.378369"><ele>1084</ele><time>2026-05-11T16:59:23.000Z</time></trkpt>
        <trkpt lat="29.553732" lon="103.378366"><ele>1084</ele><time>2026-05-11T16:59:24.000Z</time></trkpt>
        <trkpt lat="29.553729" lon="103.378359"><ele>1084</ele><time>2026-05-11T16:59:25.000Z</time></trkpt>
        <trkpt lat="29.553716" lon="103.378331"><ele>1084</ele><time>2026-05-11T16:59:29.000Z</time></trkpt>
        <trkpt lat="29.553719" lon="103.378326"><ele>1083</ele><time>2026-05-11T16:59:30.000Z</time></trkpt>
        <trkpt lat="29.553701" lon="103.378305"><ele>1081</ele><time>2026-05-11T16:59:35.000Z</time></trkpt>
        <trkpt lat="29.553694" lon="103.378282"><ele>1082</ele><time>2026-05-11T16:59:38.000Z</time></trkpt>
        <trkpt lat="29.553691" lon="103.378267"><ele>1084</ele><time>2026-05-11T16:59:40.000Z</time></trkpt>
        <trkpt lat="29.553685" lon="103.378253"><ele>1084</ele><time>2026-05-11T16:59:42.000Z</time></trkpt>
        <trkpt lat="29.553669" lon="103.378226"><ele>1085</ele><time>2026-05-11T16:59:45.000Z</time></trkpt>
        <trkpt lat="29.553663" lon="103.378223"><ele>1084</ele><time>2026-05-11T16:59:46.000Z</time></trkpt>
        <trkpt lat="29.553659" lon="103.378219"><ele>1085</ele><time>2026-05-11T16:59:47.000Z</time></trkpt>
        <trkpt lat="29.553655" lon="103.378171"><ele>1087</ele><time>2026-05-11T17:00:00.000Z</time></trkpt>
        <trkpt lat="29.553658" lon="103.378168"><ele>1088</ele><time>2026-05-11T17:00:02.000Z</time></trkpt>
        <trkpt lat="29.553665" lon="103.378165"><ele>1089</ele><time>2026-05-11T17:00:04.000Z</time></trkpt>
        <trkpt lat="29.553668" lon="103.378163"><ele>1089</ele><time>2026-05-11T17:00:05.000Z</time></trkpt>
        <trkpt lat="29.553669" lon="103.378159"><ele>1089</ele><time>2026-05-11T17:00:06.000Z</time></trkpt>
        <trkpt lat="29.553669" lon="103.378148"><ele>1090</ele><time>2026-05-11T17:00:08.000Z</time></trkpt>
        <trkpt lat="29.553664" lon="103.378138"><ele>1089</ele><time>2026-05-11T17:00:10.000Z</time></trkpt>
        <trkpt lat="29.553632" lon="103.378136"><ele>1092</ele><time>2026-05-11T17:00:17.000Z</time></trkpt>
        <trkpt lat="29.553609" lon="103.378098"><ele>1093</ele><time>2026-05-11T17:00:28.000Z</time></trkpt>
        <trkpt lat="29.553603" lon="103.378084"><ele>1091</ele><time>2026-05-11T17:00:30.000Z</time></trkpt>
        <trkpt lat="29.553533" lon="103.37804"><ele>1085</ele><time>2026-05-11T17:00:49.000Z</time></trkpt>
        <trkpt lat="29.553511" lon="103.378032"><ele>1087</ele><time>2026-05-11T17:00:57.000Z</time></trkpt>
        <trkpt lat="29.553508" lon="103.378032"><ele>1088</ele><time>2026-05-11T17:01:00.000Z</time></trkpt>
        <trkpt lat="29.553502" lon="103.378016"><ele>1090</ele><time>2026-05-11T17:01:03.000Z</time></trkpt>
        <trkpt lat="29.553487" lon="103.377917"><ele>1100</ele><time>2026-05-11T17:01:27.000Z</time></trkpt>
        <trkpt lat="29.553482" lon="103.377913"><ele>1100</ele><time>2026-05-11T17:01:31.000Z</time></trkpt>
        <trkpt lat="29.553475" lon="103.377903"><ele>1101</ele><time>2026-05-11T17:01:34.000Z</time></trkpt>
        <trkpt lat="29.55347" lon="103.377897"><ele>1102</ele><time>2026-05-11T17:01:36.000Z</time></trkpt>
        <trkpt lat="29.553436" lon="103.377865"><ele>1107</ele><time>2026-05-11T17:01:48.000Z</time></trkpt>
        <trkpt lat="29.553434" lon="103.377813"><ele>1105</ele><time>2026-05-11T17:02:09.000Z</time></trkpt>
        <trkpt lat="29.553301" lon="103.377732"><ele>1112</ele><time>2026-05-11T17:03:07.000Z</time></trkpt>
        <trkpt lat="29.553254" lon="103.377614"><ele>1113</ele><time>2026-05-11T17:04:02.000Z</time></trkpt>
        <trkpt lat="29.553251" lon="103.377614"><ele>1113</ele><time>2026-05-11T17:04:04.000Z</time></trkpt>
        <trkpt lat="29.553252" lon="103.377601"><ele>1115</ele><time>2026-05-11T17:04:12.000Z</time></trkpt>
        <trkpt lat="29.553237" lon="103.377616"><ele>1117</ele><time>2026-05-11T17:04:23.000Z</time></trkpt>
        <trkpt lat="29.553232" lon="103.377588"><ele>1120</ele><time>2026-05-11T17:04:39.000Z</time></trkpt>
        <trkpt lat="29.55321" lon="103.377533"><ele>1120</ele><time>2026-05-11T17:04:52.000Z</time></trkpt>
        <trkpt lat="29.55312" lon="103.377502"><ele>1126</ele><time>2026-05-11T17:05:11.000Z</time></trkpt>
        <trkpt lat="29.553078" lon="103.377476"><ele>1127</ele><time>2026-05-11T17:05:19.000Z</time></trkpt>
        <trkpt lat="29.553057" lon="103.377467"><ele>1127</ele><time>2026-05-11T17:05:24.000Z</time></trkpt>
        <trkpt lat="29.55305" lon="103.377462"><ele>1127</ele><time>2026-05-11T17:05:26.000Z</time></trkpt>
        <trkpt lat="29.553038" lon="103.377462"><ele>1127</ele><time>2026-05-11T17:05:28.000Z</time></trkpt>
        <trkpt lat="29.553006" lon="103.377454"><ele>1128</ele><time>2026-05-11T17:05:34.000Z</time></trkpt>
        <trkpt lat="29.553025" lon="103.37739"><ele>1129</ele><time>2026-05-11T17:05:47.000Z</time></trkpt>
        <trkpt lat="29.553023" lon="103.377367"><ele>1129</ele><time>2026-05-11T17:05:51.000Z</time></trkpt>
        <trkpt lat="29.553024" lon="103.377361"><ele>1129</ele><time>2026-05-11T17:05:52.000Z</time></trkpt>
        <trkpt lat="29.55299" lon="103.377337"><ele>1133</ele><time>2026-05-11T17:06:05.000Z</time></trkpt>
        <trkpt lat="29.552942" lon="103.377299"><ele>1134</ele><time>2026-05-11T17:06:16.000Z</time></trkpt>
        <trkpt lat="29.552878" lon="103.377272"><ele>1139</ele><time>2026-05-11T17:06:31.000Z</time></trkpt>
        <trkpt lat="29.552789" lon="103.37725"><ele>1143</ele><time>2026-05-11T17:06:58.000Z</time></trkpt>
        <trkpt lat="29.552736" lon="103.37715"><ele>1153</ele><time>2026-05-11T17:07:31.000Z</time></trkpt>
        <trkpt lat="29.552715" lon="103.377127"><ele>1154</ele><time>2026-05-11T17:07:38.000Z</time></trkpt>
        <trkpt lat="29.552663" lon="103.377108"><ele>1155</ele><time>2026-05-11T17:07:49.000Z</time></trkpt>
        <trkpt lat="29.552585" lon="103.377125"><ele>1159</ele><time>2026-05-11T17:08:17.000Z</time></trkpt>
        <trkpt lat="29.552567" lon="103.377124"><ele>1160</ele><time>2026-05-11T17:08:25.000Z</time></trkpt>
        <trkpt lat="29.552559" lon="103.377124"><ele>1161</ele><time>2026-05-11T17:08:27.000Z</time></trkpt>
        <trkpt lat="29.552556" lon="103.377123"><ele>1162</ele><time>2026-05-11T17:08:30.000Z</time></trkpt>
        <trkpt lat="29.552449" lon="103.377073"><ele>1168</ele><time>2026-05-11T17:08:55.000Z</time></trkpt>
        <trkpt lat="29.552422" lon="103.377057"><ele>1165</ele><time>2026-05-11T17:09:11.000Z</time></trkpt>
        <trkpt lat="29.552398" lon="103.377065"><ele>1165</ele><time>2026-05-11T17:09:22.000Z</time></trkpt>
        <trkpt lat="29.552366" lon="103.377034"><ele>1164</ele><time>2026-05-11T17:09:28.000Z</time></trkpt>
        <trkpt lat="29.552328" lon="103.377025"><ele>1163</ele><time>2026-05-11T17:09:44.000Z</time></trkpt>
        <trkpt lat="29.552289" lon="103.377024"><ele>1164</ele><time>2026-05-11T17:10:00.000Z</time></trkpt>
        <trkpt lat="29.55215" lon="103.376888"><ele>1174</ele><time>2026-05-11T17:10:36.000Z</time></trkpt>
        <trkpt lat="29.552062" lon="103.376878"><ele>1184</ele><time>2026-05-11T17:11:02.000Z</time></trkpt>
        <trkpt lat="29.552023" lon="103.376799"><ele>1197</ele><time>2026-05-11T17:11:47.000Z</time></trkpt>
        <trkpt lat="29.552053" lon="103.376789"><ele>1194</ele><time>2026-05-11T17:12:04.000Z</time></trkpt>
        <trkpt lat="29.552042" lon="103.376787"><ele>1194</ele><time>2026-05-11T17:12:12.000Z</time></trkpt>
        <trkpt lat="29.552066" lon="103.376799"><ele>1193</ele><time>2026-05-11T17:12:17.000Z</time></trkpt>
        <trkpt lat="29.552076" lon="103.376802"><ele>1194</ele><time>2026-05-11T17:12:28.000Z</time></trkpt>
        <trkpt lat="29.552074" lon="103.376824"><ele>1195</ele><time>2026-05-11T17:12:36.000Z</time></trkpt>
        <trkpt lat="29.552086" lon="103.376893"><ele>1196</ele><time>2026-05-11T17:13:07.000Z</time></trkpt>
        <trkpt lat="29.552036" lon="103.376885"><ele>1196</ele><time>2026-05-11T17:13:22.000Z</time></trkpt>
        <trkpt lat="29.552025" lon="103.376836"><ele>1196</ele><time>2026-05-11T17:13:35.000Z</time></trkpt>
        <trkpt lat="29.552019" lon="103.376801"><ele>1195</ele><time>2026-05-11T17:13:45.000Z</time></trkpt>
        <trkpt lat="29.552022" lon="103.376801"><ele>1195</ele><time>2026-05-11T17:13:49.000Z</time></trkpt>
        <trkpt lat="29.551978" lon="103.376795"><ele>1195</ele><time>2026-05-11T17:13:58.000Z</time></trkpt>
        <trkpt lat="29.551956" lon="103.376826"><ele>1192</ele><time>2026-05-11T17:14:01.000Z</time></trkpt>
        <trkpt lat="29.551942" lon="103.376848"><ele>1169</ele><time>2026-05-11T17:14:47.000Z</time></trkpt>
        <trkpt lat="29.5518" lon="103.376826"><ele>1161</ele><time>2026-05-11T17:15:27.000Z</time></trkpt>
        <trkpt lat="29.551782" lon="103.376863"><ele>1163</ele><time>2026-05-11T17:15:30.000Z</time></trkpt>
        <trkpt lat="29.551772" lon="103.376867"><ele>1162</ele><time>2026-05-11T17:15:31.000Z</time></trkpt>
        <trkpt lat="29.551764" lon="103.376878"><ele>1163</ele><time>2026-05-11T17:15:34.000Z</time></trkpt>
        <trkpt lat="29.551761" lon="103.376885"><ele>1164</ele><time>2026-05-11T17:15:35.000Z</time></trkpt>
        <trkpt lat="29.551743" lon="103.376874"><ele>1165</ele><time>2026-05-11T17:15:40.000Z</time></trkpt>
        <trkpt lat="29.551738" lon="103.376874"><ele>1165</ele><time>2026-05-11T17:15:42.000Z</time></trkpt>
        <trkpt lat="29.551733" lon="103.376873"><ele>1164</ele><time>2026-05-11T17:15:43.000Z</time></trkpt>
        <trkpt lat="29.551728" lon="103.376871"><ele>1164</ele><time>2026-05-11T17:15:44.000Z</time></trkpt>
        <trkpt lat="29.551758" lon="103.376819"><ele>1162</ele><time>2026-05-11T17:16:00.000Z</time></trkpt>
        <trkpt lat="29.551775" lon="103.376809"><ele>1161</ele><time>2026-05-11T17:16:04.000Z</time></trkpt>
        <trkpt lat="29.551771" lon="103.376795"><ele>1160</ele><time>2026-05-11T17:16:06.000Z</time></trkpt>
        <trkpt lat="29.551764" lon="103.3768"><ele>1160</ele><time>2026-05-11T17:16:10.000Z</time></trkpt>
        <trkpt lat="29.551822" lon="103.37678"><ele>1161</ele><time>2026-05-11T17:16:13.000Z</time></trkpt>
        <trkpt lat="29.551843" lon="103.376776"><ele>1161</ele><time>2026-05-11T17:16:16.000Z</time></trkpt>
        <trkpt lat="29.551847" lon="103.376776"><ele>1160</ele><time>2026-05-11T17:16:20.000Z</time></trkpt>
        <trkpt lat="29.551862" lon="103.376772"><ele>1162</ele><time>2026-05-11T17:16:22.000Z</time></trkpt>
        <trkpt lat="29.551905" lon="103.376805"><ele>1166</ele><time>2026-05-11T17:16:30.000Z</time></trkpt>
        <trkpt lat="29.551901" lon="103.376815"><ele>1166</ele><time>2026-05-11T17:16:34.000Z</time></trkpt>
        <trkpt lat="29.551822" lon="103.376812"><ele>1176</ele><time>2026-05-11T17:16:38.000Z</time></trkpt>
        <trkpt lat="29.551876" lon="103.376752"><ele>1183</ele><time>2026-05-11T17:16:40.000Z</time></trkpt>
        <trkpt lat="29.55189" lon="103.376727"><ele>1185</ele><time>2026-05-11T17:16:42.000Z</time></trkpt>
        <trkpt lat="29.551876" lon="103.376703"><ele>1186</ele><time>2026-05-11T17:16:45.000Z</time></trkpt>
        <trkpt lat="29.551869" lon="103.376685"><ele>1188</ele><time>2026-05-11T17:16:47.000Z</time></trkpt>
        <trkpt lat="29.551852" lon="103.376668"><ele>1189</ele><time>2026-05-11T17:16:49.000Z</time></trkpt>
        <trkpt lat="29.551837" lon="103.376649"><ele>1190</ele><time>2026-05-11T17:16:52.000Z</time></trkpt>
        <trkpt lat="29.551781" lon="103.376551"><ele>1196</ele><time>2026-05-11T17:17:22.000Z</time></trkpt>
        <trkpt lat="29.551757" lon="103.376429"><ele>1204</ele><time>2026-05-11T17:17:58.000Z</time></trkpt>
        <trkpt lat="29.551751" lon="103.376417"><ele>1205</ele><time>2026-05-11T17:18:01.000Z</time></trkpt>
        <trkpt lat="29.551739" lon="103.376369"><ele>1201</ele><time>2026-05-11T17:18:11.000Z</time></trkpt>
        <trkpt lat="29.551735" lon="103.376368"><ele>1199</ele><time>2026-05-11T17:18:19.000Z</time></trkpt>
        <trkpt lat="29.551726" lon="103.376381"><ele>1196</ele><time>2026-05-11T17:18:26.000Z</time></trkpt>
        <trkpt lat="29.55171" lon="103.37637"><ele>1196</ele><time>2026-05-11T17:18:30.000Z</time></trkpt>
        <trkpt lat="29.551703" lon="103.376356"><ele>1196</ele><time>2026-05-11T17:18:34.000Z</time></trkpt>
        <trkpt lat="29.551679" lon="103.376342"><ele>1196</ele><time>2026-05-11T17:18:46.000Z</time></trkpt>
        <trkpt lat="29.551701" lon="103.376214"><ele>1206</ele><time>2026-05-11T17:19:17.000Z</time></trkpt>
        <trkpt lat="29.551706" lon="103.376203"><ele>1207</ele><time>2026-05-11T17:19:19.000Z</time></trkpt>
        <trkpt lat="29.551702" lon="103.376181"><ele>1208</ele><time>2026-05-11T17:19:23.000Z</time></trkpt>
        <trkpt lat="29.551707" lon="103.376174"><ele>1209</ele><time>2026-05-11T17:19:25.000Z</time></trkpt>
        <trkpt lat="29.551706" lon="103.376149"><ele>1211</ele><time>2026-05-11T17:19:29.000Z</time></trkpt>
        <trkpt lat="29.551703" lon="103.376141"><ele>1211</ele><time>2026-05-11T17:19:30.000Z</time></trkpt>
        <trkpt lat="29.5517" lon="103.376136"><ele>1211</ele><time>2026-05-11T17:19:31.000Z</time></trkpt>
        <trkpt lat="29.551703" lon="103.376106"><ele>1211</ele><time>2026-05-11T17:19:35.000Z</time></trkpt>
        <trkpt lat="29.551697" lon="103.376087"><ele>1211</ele><time>2026-05-11T17:19:40.000Z</time></trkpt>
        <trkpt lat="29.551703" lon="103.376081"><ele>1212</ele><time>2026-05-11T17:19:43.000Z</time></trkpt>
        <trkpt lat="29.551683" lon="103.376031"><ele>1217</ele><time>2026-05-11T17:20:01.000Z</time></trkpt>
        <trkpt lat="29.55168" lon="103.375976"><ele>1219</ele><time>2026-05-11T17:20:12.000Z</time></trkpt>
        <trkpt lat="29.551694" lon="103.375914"><ele>1219</ele><time>2026-05-11T17:20:21.000Z</time></trkpt>
        <trkpt lat="29.551714" lon="103.375887"><ele>1221</ele><time>2026-05-11T17:20:25.000Z</time></trkpt>
        <trkpt lat="29.551715" lon="103.375875"><ele>1221</ele><time>2026-05-11T17:20:27.000Z</time></trkpt>
        <trkpt lat="29.551711" lon="103.375866"><ele>1222</ele><time>2026-05-11T17:20:28.000Z</time></trkpt>
        <trkpt lat="29.551702" lon="103.375821"><ele>1224</ele><time>2026-05-11T17:20:35.000Z</time></trkpt>
        <trkpt lat="29.55161" lon="103.375637"><ele>1230</ele><time>2026-05-11T17:20:56.000Z</time></trkpt>
        <trkpt lat="29.551554" lon="103.375563"><ele>1232</ele><time>2026-05-11T17:21:07.000Z</time></trkpt>
        <trkpt lat="29.5515" lon="103.37552"><ele>1231</ele><time>2026-05-11T17:21:14.000Z</time></trkpt>
        <trkpt lat="29.551439" lon="103.375478"><ele>1227</ele><time>2026-05-11T17:21:23.000Z</time></trkpt>
        <trkpt lat="29.551381" lon="103.375415"><ele>1224</ele><time>2026-05-11T17:21:32.000Z</time></trkpt>
        <trkpt lat="29.551351" lon="103.37539"><ele>1224</ele><time>2026-05-11T17:21:36.000Z</time></trkpt>
        <trkpt lat="29.551315" lon="103.375366"><ele>1223</ele><time>2026-05-11T17:21:45.000Z</time></trkpt>
        <trkpt lat="29.551249" lon="103.375332"><ele>1230</ele><time>2026-05-11T17:21:59.000Z</time></trkpt>
        <trkpt lat="29.55124" lon="103.375322"><ele>1230</ele><time>2026-05-11T17:22:01.000Z</time></trkpt>
        <trkpt lat="29.551215" lon="103.375308"><ele>1232</ele><time>2026-05-11T17:22:08.000Z</time></trkpt>
        <trkpt lat="29.551208" lon="103.3753"><ele>1232</ele><time>2026-05-11T17:22:10.000Z</time></trkpt>
        <trkpt lat="29.5512" lon="103.375297"><ele>1232</ele><time>2026-05-11T17:22:11.000Z</time></trkpt>
        <trkpt lat="29.551193" lon="103.375292"><ele>1233</ele><time>2026-05-11T17:22:12.000Z</time></trkpt>
        <trkpt lat="29.551186" lon="103.375286"><ele>1233</ele><time>2026-05-11T17:22:13.000Z</time></trkpt>
        <trkpt lat="29.551182" lon="103.375281"><ele>1233</ele><time>2026-05-11T17:22:14.000Z</time></trkpt>
        <trkpt lat="29.551165" lon="103.375268"><ele>1233</ele><time>2026-05-11T17:22:18.000Z</time></trkpt>
        <trkpt lat="29.551132" lon="103.375262"><ele>1235</ele><time>2026-05-11T17:22:24.000Z</time></trkpt>
        <trkpt lat="29.551096" lon="103.375261"><ele>1235</ele><time>2026-05-11T17:22:31.000Z</time></trkpt>
        <trkpt lat="29.550913" lon="103.375232"><ele>1244</ele><time>2026-05-11T17:23:03.000Z</time></trkpt>
        <trkpt lat="29.550891" lon="103.375229"><ele>1245</ele><time>2026-05-11T17:23:06.000Z</time></trkpt>
        <trkpt lat="29.550755" lon="103.375149"><ele>1245</ele><time>2026-05-11T17:23:24.000Z</time></trkpt>
        <trkpt lat="29.550694" lon="103.375118"><ele>1244</ele><time>2026-05-11T17:23:33.000Z</time></trkpt>
        <trkpt lat="29.550582" lon="103.375068"><ele>1246</ele><time>2026-05-11T17:23:46.000Z</time></trkpt>
        <trkpt lat="29.5505" lon="103.375053"><ele>1247</ele><time>2026-05-11T17:23:56.000Z</time></trkpt>
        <trkpt lat="29.550425" lon="103.375035"><ele>1247</ele><time>2026-05-11T17:24:04.000Z</time></trkpt>
        <trkpt lat="29.550308" lon="103.374947"><ele>1244</ele><time>2026-05-11T17:24:19.000Z</time></trkpt>
        <trkpt lat="29.550278" lon="103.37495"><ele>1243</ele><time>2026-05-11T17:24:22.000Z</time></trkpt>
        <trkpt lat="29.550253" lon="103.37495"><ele>1242</ele><time>2026-05-11T17:24:26.000Z</time></trkpt>
        <trkpt lat="29.550237" lon="103.374949"><ele>1242</ele><time>2026-05-11T17:24:28.000Z</time></trkpt>
        <trkpt lat="29.550233" lon="103.374948"><ele>1242</ele><time>2026-05-11T17:24:29.000Z</time></trkpt>
        <trkpt lat="29.550221" lon="103.374955"><ele>1242</ele><time>2026-05-11T17:24:31.000Z</time></trkpt>
        <trkpt lat="29.550175" lon="103.374958"><ele>1241</ele><time>2026-05-11T17:24:38.000Z</time></trkpt>
        <trkpt lat="29.550165" lon="103.374944"><ele>1241</ele><time>2026-05-11T17:24:41.000Z</time></trkpt>
        <trkpt lat="29.550124" lon="103.37491"><ele>1242</ele><time>2026-05-11T17:24:48.000Z</time></trkpt>
        <trkpt lat="29.550094" lon="103.374882"><ele>1244</ele><time>2026-05-11T17:24:53.000Z</time></trkpt>
        <trkpt lat="29.550005" lon="103.37482"><ele>1249</ele><time>2026-05-11T17:25:04.000Z</time></trkpt>
        <trkpt lat="29.549988" lon="103.37481"><ele>1250</ele><time>2026-05-11T17:25:06.000Z</time></trkpt>
        <trkpt lat="29.549983" lon="103.3748"><ele>1251</ele><time>2026-05-11T17:25:07.000Z</time></trkpt>
        <trkpt lat="29.549976" lon="103.374794"><ele>1251</ele><time>2026-05-11T17:25:08.000Z</time></trkpt>
        <trkpt lat="29.549926" lon="103.374757"><ele>1254</ele><time>2026-05-11T17:25:16.000Z</time></trkpt>
        <trkpt lat="29.54992" lon="103.374746"><ele>1254</ele><time>2026-05-11T17:25:17.000Z</time></trkpt>
        <trkpt lat="29.549929" lon="103.374667"><ele>1256</ele><time>2026-05-11T17:25:24.000Z</time></trkpt>
        <trkpt lat="29.549947" lon="103.37462"><ele>1258</ele><time>2026-05-11T17:25:28.000Z</time></trkpt>
        <trkpt lat="29.54997" lon="103.374576"><ele>1259</ele><time>2026-05-11T17:25:33.000Z</time></trkpt>
        <trkpt lat="29.549999" lon="103.374557"><ele>1260</ele><time>2026-05-11T17:25:36.000Z</time></trkpt>
        <trkpt lat="29.550028" lon="103.374538"><ele>1260</ele><time>2026-05-11T17:25:41.000Z</time></trkpt>
        <trkpt lat="29.55005" lon="103.374525"><ele>1261</ele><time>2026-05-11T17:25:44.000Z</time></trkpt>
        <trkpt lat="29.550076" lon="103.374523"><ele>1262</ele><time>2026-05-11T17:25:48.000Z</time></trkpt>
        <trkpt lat="29.550084" lon="103.374525"><ele>1262</ele><time>2026-05-11T17:25:50.000Z</time></trkpt>
        <trkpt lat="29.550095" lon="103.374525"><ele>1263</ele><time>2026-05-11T17:25:53.000Z</time></trkpt>
        <trkpt lat="29.550102" lon="103.374522"><ele>1264</ele><time>2026-05-11T17:25:56.000Z</time></trkpt>
        <trkpt lat="29.550106" lon="103.374518"><ele>1264</ele><time>2026-05-11T17:25:57.000Z</time></trkpt>
        <trkpt lat="29.550098" lon="103.374507"><ele>1265</ele><time>2026-05-11T17:25:59.000Z</time></trkpt>
        <trkpt lat="29.550096" lon="103.374569"><ele>1269</ele><time>2026-05-11T17:26:13.000Z</time></trkpt>
        <trkpt lat="29.550096" lon="103.374567"><ele>1270</ele><time>2026-05-11T17:26:14.000Z</time></trkpt>
        <trkpt lat="29.550096" lon="103.374569"><ele>1270</ele><time>2026-05-11T17:26:15.000Z</time></trkpt>
        <trkpt lat="29.550101" lon="103.374567"><ele>1271</ele><time>2026-05-11T17:26:16.000Z</time></trkpt>
        <trkpt lat="29.550103" lon="103.374567"><ele>1272</ele><time>2026-05-11T17:26:17.000Z</time></trkpt>
        <trkpt lat="29.550111" lon="103.374565"><ele>1272</ele><time>2026-05-11T17:26:18.000Z</time></trkpt>
        <trkpt lat="29.550126" lon="103.374557"><ele>1273</ele><time>2026-05-11T17:26:20.000Z</time></trkpt>
        <trkpt lat="29.55013" lon="103.374546"><ele>1274</ele><time>2026-05-11T17:26:22.000Z</time></trkpt>
        <trkpt lat="29.550136" lon="103.374539"><ele>1275</ele><time>2026-05-11T17:26:24.000Z</time></trkpt>
        <trkpt lat="29.550139" lon="103.374534"><ele>1276</ele><time>2026-05-11T17:26:25.000Z</time></trkpt>
        <trkpt lat="29.550145" lon="103.374527"><ele>1277</ele><time>2026-05-11T17:26:26.000Z</time></trkpt>
        <trkpt lat="29.550152" lon="103.374518"><ele>1277</ele><time>2026-05-11T17:26:27.000Z</time></trkpt>
        <trkpt lat="29.550158" lon="103.374516"><ele>1278</ele><time>2026-05-11T17:26:28.000Z</time></trkpt>
        <trkpt lat="29.550166" lon="103.374512"><ele>1278</ele><time>2026-05-11T17:26:29.000Z</time></trkpt>
        <trkpt lat="29.550174" lon="103.374508"><ele>1279</ele><time>2026-05-11T17:26:30.000Z</time></trkpt>
        <trkpt lat="29.550181" lon="103.374502"><ele>1279</ele><time>2026-05-11T17:26:31.000Z</time></trkpt>
        <trkpt lat="29.550205" lon="103.374489"><ele>1280</ele><time>2026-05-11T17:26:34.000Z</time></trkpt>
        <trkpt lat="29.550283" lon="103.37445"><ele>1282</ele><time>2026-05-11T17:26:41.000Z</time></trkpt>
        <trkpt lat="29.550325" lon="103.374422"><ele>1283</ele><time>2026-05-11T17:26:45.000Z</time></trkpt>
        <trkpt lat="29.550349" lon="103.374407"><ele>1284</ele><time>2026-05-11T17:26:48.000Z</time></trkpt>
        <trkpt lat="29.55036" lon="103.374388"><ele>1286</ele><time>2026-05-11T17:26:51.000Z</time></trkpt>
        <trkpt lat="29.55037" lon="103.37438"><ele>1286</ele><time>2026-05-11T17:26:52.000Z</time></trkpt>
        <trkpt lat="29.550378" lon="103.374365"><ele>1287</ele><time>2026-05-11T17:26:54.000Z</time></trkpt>
        <trkpt lat="29.550382" lon="103.374358"><ele>1287</ele><time>2026-05-11T17:26:55.000Z</time></trkpt>
        <trkpt lat="29.550394" lon="103.374349"><ele>1287</ele><time>2026-05-11T17:26:57.000Z</time></trkpt>
        <trkpt lat="29.550444" lon="103.37432"><ele>1289</ele><time>2026-05-11T17:27:04.000Z</time></trkpt>
        <trkpt lat="29.550476" lon="103.374287"><ele>1289</ele><time>2026-05-11T17:27:08.000Z</time></trkpt>
        <trkpt lat="29.550614" lon="103.374149"><ele>1286</ele><time>2026-05-11T17:27:24.000Z</time></trkpt>
        <trkpt lat="29.550621" lon="103.374147"><ele>1286</ele><time>2026-05-11T17:27:25.000Z</time></trkpt>
        <trkpt lat="29.550633" lon="103.374138"><ele>1286</ele><time>2026-05-11T17:27:29.000Z</time></trkpt>
        <trkpt lat="29.550639" lon="103.374115"><ele>1286</ele><time>2026-05-11T17:27:32.000Z</time></trkpt>
        <trkpt lat="29.550651" lon="103.374112"><ele>1285</ele><time>2026-05-11T17:27:34.000Z</time></trkpt>
        <trkpt lat="29.550686" lon="103.374128"><ele>1286</ele><time>2026-05-11T17:27:38.000Z</time></trkpt>
        <trkpt lat="29.550779" lon="103.374115"><ele>1285</ele><time>2026-05-11T17:27:51.000Z</time></trkpt>
        <trkpt lat="29.550808" lon="103.374109"><ele>1282</ele><time>2026-05-11T17:27:53.000Z</time></trkpt>
        <trkpt lat="29.550789" lon="103.374048"><ele>1274</ele><time>2026-05-11T17:27:57.000Z</time></trkpt>
        <trkpt lat="29.550786" lon="103.374035"><ele>1273</ele><time>2026-05-11T17:27:58.000Z</time></trkpt>
        <trkpt lat="29.550773" lon="103.373973"><ele>1268</ele><time>2026-05-11T17:28:03.000Z</time></trkpt>
        <trkpt lat="29.550797" lon="103.373901"><ele>1265</ele><time>2026-05-11T17:28:09.000Z</time></trkpt>
        <trkpt lat="29.550808" lon="103.373879"><ele>1261</ele><time>2026-05-11T17:28:12.000Z</time></trkpt>
        <trkpt lat="29.550813" lon="103.373872"><ele>1261</ele><time>2026-05-11T17:28:14.000Z</time></trkpt>
        <trkpt lat="29.550828" lon="103.373867"><ele>1261</ele><time>2026-05-11T17:28:16.000Z</time></trkpt>
        <trkpt lat="29.550845" lon="103.373851"><ele>1261</ele><time>2026-05-11T17:28:18.000Z</time></trkpt>
        <trkpt lat="29.550863" lon="103.373812"><ele>1262</ele><time>2026-05-11T17:28:21.000Z</time></trkpt>
        <trkpt lat="29.550903" lon="103.373794"><ele>1267</ele><time>2026-05-11T17:28:25.000Z</time></trkpt>
        <trkpt lat="29.550928" lon="103.373791"><ele>1269</ele><time>2026-05-11T17:28:28.000Z</time></trkpt>
        <trkpt lat="29.550943" lon="103.373793"><ele>1270</ele><time>2026-05-11T17:28:29.000Z</time></trkpt>
        <trkpt lat="29.55095" lon="103.373792"><ele>1270</ele><time>2026-05-11T17:28:30.000Z</time></trkpt>
        <trkpt lat="29.55096" lon="103.373795"><ele>1272</ele><time>2026-05-11T17:28:32.000Z</time></trkpt>
        <trkpt lat="29.550978" lon="103.373802"><ele>1273</ele><time>2026-05-11T17:28:34.000Z</time></trkpt>
        <trkpt lat="29.550997" lon="103.373844"><ele>1275</ele><time>2026-05-11T17:28:36.000Z</time></trkpt>
        <trkpt lat="29.551069" lon="103.373854"><ele>1273</ele><time>2026-05-11T17:28:41.000Z</time></trkpt>
        <trkpt lat="29.551093" lon="103.373829"><ele>1269</ele><time>2026-05-11T17:28:43.000Z</time></trkpt>
        <trkpt lat="29.551098" lon="103.373808"><ele>1267</ele><time>2026-05-11T17:28:45.000Z</time></trkpt>
        <trkpt lat="29.55113" lon="103.373796"><ele>1266</ele><time>2026-05-11T17:28:47.000Z</time></trkpt>
        <trkpt lat="29.551174" lon="103.373772"><ele>1264</ele><time>2026-05-11T17:28:51.000Z</time></trkpt>
        <trkpt lat="29.551143" lon="103.373682"><ele>1249</ele><time>2026-05-11T17:28:54.000Z</time></trkpt>
        <trkpt lat="29.551152" lon="103.373673"><ele>1247</ele><time>2026-05-11T17:28:55.000Z</time></trkpt>
        <trkpt lat="29.551152" lon="103.373657"><ele>1246</ele><time>2026-05-11T17:28:56.000Z</time></trkpt>
        <trkpt lat="29.551157" lon="103.373646"><ele>1245</ele><time>2026-05-11T17:28:57.000Z</time></trkpt>
        <trkpt lat="29.551149" lon="103.373622"><ele>1245</ele><time>2026-05-11T17:28:59.000Z</time></trkpt>
        <trkpt lat="29.551124" lon="103.373605"><ele>1245</ele><time>2026-05-11T17:29:03.000Z</time></trkpt>
        <trkpt lat="29.55111" lon="103.373592"><ele>1245</ele><time>2026-05-11T17:29:05.000Z</time></trkpt>
        <trkpt lat="29.551131" lon="103.373533"><ele>1242</ele><time>2026-05-11T17:29:10.000Z</time></trkpt>
        <trkpt lat="29.551301" lon="103.373382"><ele>1242</ele><time>2026-05-11T17:29:18.000Z</time></trkpt>
        <trkpt lat="29.551329" lon="103.373308"><ele>1243</ele><time>2026-05-11T17:29:23.000Z</time></trkpt>
        <trkpt lat="29.551322" lon="103.373287"><ele>1243</ele><time>2026-05-11T17:29:25.000Z</time></trkpt>
        <trkpt lat="29.55131" lon="103.373274"><ele>1243</ele><time>2026-05-11T17:29:26.000Z</time></trkpt>
        <trkpt lat="29.55123" lon="103.373168"><ele>1246</ele><time>2026-05-11T17:29:34.000Z</time></trkpt>
        <trkpt lat="29.551142" lon="103.372986"><ele>1246</ele><time>2026-05-11T17:29:49.000Z</time></trkpt>
        <trkpt lat="29.551123" lon="103.372953"><ele>1248</ele><time>2026-05-11T17:29:53.000Z</time></trkpt>
        <trkpt lat="29.551084" lon="103.372953"><ele>1252</ele><time>2026-05-11T17:29:59.000Z</time></trkpt>
        <trkpt lat="29.551074" lon="103.372957"><ele>1253</ele><time>2026-05-11T17:30:00.000Z</time></trkpt>
        <trkpt lat="29.550981" lon="103.372958"><ele>1251</ele><time>2026-05-11T17:30:09.000Z</time></trkpt>
        <trkpt lat="29.550923" lon="103.372942"><ele>1252</ele><time>2026-05-11T17:30:14.000Z</time></trkpt>
        <trkpt lat="29.550753" lon="103.372973"><ele>1252</ele><time>2026-05-11T17:30:29.000Z</time></trkpt>
        <trkpt lat="29.55072" lon="103.372992"><ele>1253</ele><time>2026-05-11T17:30:33.000Z</time></trkpt>
        <trkpt lat="29.550635" lon="103.373025"><ele>1254</ele><time>2026-05-11T17:30:40.000Z</time></trkpt>
        <trkpt lat="29.550487" lon="103.373074"><ele>1254</ele><time>2026-05-11T17:30:51.000Z</time></trkpt>
        <trkpt lat="29.55046" lon="103.373135"><ele>1256</ele><time>2026-05-11T17:30:59.000Z</time></trkpt>
        <trkpt lat="29.55046" lon="103.373114"><ele>1256</ele><time>2026-05-11T17:31:01.000Z</time></trkpt>
        <trkpt lat="29.550419" lon="103.373089"><ele>1257</ele><time>2026-05-11T17:31:04.000Z</time></trkpt>
        <trkpt lat="29.550369" lon="103.373071"><ele>1256</ele><time>2026-05-11T17:31:05.000Z</time></trkpt>
        <trkpt lat="29.550309" lon="103.373022"><ele>1252</ele><time>2026-05-11T17:31:07.000Z</time></trkpt>
        <trkpt lat="29.550169" lon="103.372914"><ele>1251</ele><time>2026-05-11T17:31:22.000Z</time></trkpt>
        <trkpt lat="29.550192" lon="103.372962"><ele>1249</ele><time>2026-05-11T17:31:27.000Z</time></trkpt>
        <trkpt lat="29.550258" lon="103.373022"><ele>1249</ele><time>2026-05-11T17:31:31.000Z</time></trkpt>
        <trkpt lat="29.550431" lon="103.373036"><ele>1255</ele><time>2026-05-11T17:31:37.000Z</time></trkpt>
        <trkpt lat="29.550638" lon="103.372965"><ele>1293</ele><time>2026-05-11T17:31:47.000Z</time></trkpt>
        <trkpt lat="29.550691" lon="103.372932"><ele>1303</ele><time>2026-05-11T17:31:51.000Z</time></trkpt>
        <trkpt lat="29.550762" lon="103.37294"><ele>1304</ele><time>2026-05-11T17:31:55.000Z</time></trkpt>
        <trkpt lat="29.550832" lon="103.372891"><ele>1308</ele><time>2026-05-11T17:32:02.000Z</time></trkpt>
        <trkpt lat="29.550852" lon="103.372872"><ele>1310</ele><time>2026-05-11T17:32:04.000Z</time></trkpt>
        <trkpt lat="29.550865" lon="103.372852"><ele>1313</ele><time>2026-05-11T17:32:06.000Z</time></trkpt>
        <trkpt lat="29.550913" lon="103.372781"><ele>1311</ele><time>2026-05-11T17:32:12.000Z</time></trkpt>
        <trkpt lat="29.550875" lon="103.372713"><ele>1301</ele><time>2026-05-11T17:32:14.000Z</time></trkpt>
        <trkpt lat="29.550872" lon="103.372473"><ele>1287</ele><time>2026-05-11T17:32:27.000Z</time></trkpt>
        <trkpt lat="29.550918" lon="103.372286"><ele>1285</ele><time>2026-05-11T17:32:38.000Z</time></trkpt>
        <trkpt lat="29.55091" lon="103.37227"><ele>1284</ele><time>2026-05-11T17:32:39.000Z</time></trkpt>
        <trkpt lat="29.550901" lon="103.372257"><ele>1282</ele><time>2026-05-11T17:32:40.000Z</time></trkpt>
        <trkpt lat="29.550893" lon="103.372245"><ele>1281</ele><time>2026-05-11T17:32:41.000Z</time></trkpt>
        <trkpt lat="29.550892" lon="103.372233"><ele>1281</ele><time>2026-05-11T17:32:42.000Z</time></trkpt>
        <trkpt lat="29.550885" lon="103.372212"><ele>1280</ele><time>2026-05-11T17:32:43.000Z</time></trkpt>
        <trkpt lat="29.550877" lon="103.372191"><ele>1278</ele><time>2026-05-11T17:32:44.000Z</time></trkpt>
        <trkpt lat="29.550877" lon="103.372168"><ele>1277</ele><time>2026-05-11T17:32:45.000Z</time></trkpt>
        <trkpt lat="29.550798" lon="103.372085"><ele>1265</ele><time>2026-05-11T17:32:48.000Z</time></trkpt>
        <trkpt lat="29.550771" lon="103.372059"><ele>1261</ele><time>2026-05-11T17:32:50.000Z</time></trkpt>
        <trkpt lat="29.55075" lon="103.372044"><ele>1258</ele><time>2026-05-11T17:32:52.000Z</time></trkpt>
        <trkpt lat="29.550734" lon="103.372043"><ele>1257</ele><time>2026-05-11T17:32:53.000Z</time></trkpt>
        <trkpt lat="29.550721" lon="103.372034"><ele>1256</ele><time>2026-05-11T17:32:54.000Z</time></trkpt>
        <trkpt lat="29.550712" lon="103.372029"><ele>1256</ele><time>2026-05-11T17:32:55.000Z</time></trkpt>
        <trkpt lat="29.550704" lon="103.372023"><ele>1255</ele><time>2026-05-11T17:32:56.000Z</time></trkpt>
        <trkpt lat="29.550693" lon="103.372022"><ele>1254</ele><time>2026-05-11T17:32:57.000Z</time></trkpt>
        <trkpt lat="29.550665" lon="103.372017"><ele>1252</ele><time>2026-05-11T17:32:59.000Z</time></trkpt>
        <trkpt lat="29.550618" lon="103.371989"><ele>1249</ele><time>2026-05-11T17:33:04.000Z</time></trkpt>
        <trkpt lat="29.550507" lon="103.371831"><ele>1244</ele><time>2026-05-11T17:33:18.000Z</time></trkpt>
        <trkpt lat="29.550498" lon="103.371817"><ele>1244</ele><time>2026-05-11T17:33:19.000Z</time></trkpt>
        <trkpt lat="29.55041" lon="103.3717"><ele>1243</ele><time>2026-05-11T17:33:29.000Z</time></trkpt>
        <trkpt lat="29.550402" lon="103.371684"><ele>1242</ele><time>2026-05-11T17:33:31.000Z</time></trkpt>
        <trkpt lat="29.550396" lon="103.37166"><ele>1242</ele><time>2026-05-11T17:33:34.000Z</time></trkpt>
        <trkpt lat="29.550393" lon="103.371635"><ele>1241</ele><time>2026-05-11T17:33:37.000Z</time></trkpt>
        <trkpt lat="29.550385" lon="103.371615"><ele>1239</ele><time>2026-05-11T17:33:40.000Z</time></trkpt>
        <trkpt lat="29.550374" lon="103.37161"><ele>1239</ele><time>2026-05-11T17:33:42.000Z</time></trkpt>
        <trkpt lat="29.550348" lon="103.371608"><ele>1239</ele><time>2026-05-11T17:33:45.000Z</time></trkpt>
        <trkpt lat="29.550303" lon="103.371577"><ele>1237</ele><time>2026-05-11T17:33:51.000Z</time></trkpt>
        <trkpt lat="29.550302" lon="103.371571"><ele>1237</ele><time>2026-05-11T17:33:52.000Z</time></trkpt>
        <trkpt lat="29.550272" lon="103.371545"><ele>1235</ele><time>2026-05-11T17:33:55.000Z</time></trkpt>
        <trkpt lat="29.550261" lon="103.371504"><ele>1234</ele><time>2026-05-11T17:33:58.000Z</time></trkpt>
        <trkpt lat="29.550277" lon="103.371417"><ele>1236</ele><time>2026-05-11T17:34:05.000Z</time></trkpt>
        <trkpt lat="29.550298" lon="103.371372"><ele>1236</ele><time>2026-05-11T17:34:09.000Z</time></trkpt>
        <trkpt lat="29.550307" lon="103.371286"><ele>1240</ele><time>2026-05-11T17:34:15.000Z</time></trkpt>
        <trkpt lat="29.550344" lon="103.371189"><ele>1243</ele><time>2026-05-11T17:34:24.000Z</time></trkpt>
        <trkpt lat="29.550356" lon="103.37117"><ele>1242</ele><time>2026-05-11T17:34:26.000Z</time></trkpt>
        <trkpt lat="29.550376" lon="103.371138"><ele>1245</ele><time>2026-05-11T17:34:29.000Z</time></trkpt>
        <trkpt lat="29.550394" lon="103.371113"><ele>1248</ele><time>2026-05-11T17:34:32.000Z</time></trkpt>
        <trkpt lat="29.550409" lon="103.371084"><ele>1250</ele><time>2026-05-11T17:34:35.000Z</time></trkpt>
        <trkpt lat="29.550426" lon="103.371069"><ele>1251</ele><time>2026-05-11T17:34:37.000Z</time></trkpt>
        <trkpt lat="29.550446" lon="103.370971"><ele>1254</ele><time>2026-05-11T17:34:46.000Z</time></trkpt>
        <trkpt lat="29.550464" lon="103.37099"><ele>1251</ele><time>2026-05-11T17:34:56.000Z</time></trkpt>
        <trkpt lat="29.550571" lon="103.371043"><ele>1257</ele><time>2026-05-11T17:35:03.000Z</time></trkpt>
        <trkpt lat="29.550601" lon="103.371061"><ele>1265</ele><time>2026-05-11T17:35:12.000Z</time></trkpt>
        <trkpt lat="29.550579" lon="103.371059"><ele>1268</ele><time>2026-05-11T17:35:15.000Z</time></trkpt>
        <trkpt lat="29.550576" lon="103.371041"><ele>1270</ele><time>2026-05-11T17:35:19.000Z</time></trkpt>
        <trkpt lat="29.550581" lon="103.371037"><ele>1270</ele><time>2026-05-11T17:35:21.000Z</time></trkpt>
        <trkpt lat="29.550589" lon="103.371034"><ele>1270</ele><time>2026-05-11T17:35:23.000Z</time></trkpt>
        <trkpt lat="29.550583" lon="103.371038"><ele>1271</ele><time>2026-05-11T17:35:31.000Z</time></trkpt>
        <trkpt lat="29.550561" lon="103.371002"><ele>1268</ele><time>2026-05-11T17:35:34.000Z</time></trkpt>
        <trkpt lat="29.550542" lon="103.370987"><ele>1266</ele><time>2026-05-11T17:35:36.000Z</time></trkpt>
        <trkpt lat="29.550496" lon="103.370945"><ele>1262</ele><time>2026-05-11T17:35:39.000Z</time></trkpt>
        <trkpt lat="29.550485" lon="103.370925"><ele>1259</ele><time>2026-05-11T17:35:40.000Z</time></trkpt>
        <trkpt lat="29.550466" lon="103.370901"><ele>1256</ele><time>2026-05-11T17:35:41.000Z</time></trkpt>
        <trkpt lat="29.550467" lon="103.370894"><ele>1256</ele><time>2026-05-11T17:35:42.000Z</time></trkpt>
        <trkpt lat="29.550489" lon="103.370867"><ele>1255</ele><time>2026-05-11T17:35:45.000Z</time></trkpt>
        <trkpt lat="29.550493" lon="103.370853"><ele>1255</ele><time>2026-05-11T17:35:47.000Z</time></trkpt>
        <trkpt lat="29.550483" lon="103.370786"><ele>1258</ele><time>2026-05-11T17:35:56.000Z</time></trkpt>
        <trkpt lat="29.550489" lon="103.37079"><ele>1259</ele><time>2026-05-11T17:35:57.000Z</time></trkpt>
        <trkpt lat="29.550485" lon="103.370782"><ele>1257</ele><time>2026-05-11T17:36:01.000Z</time></trkpt>
        <trkpt lat="29.550496" lon="103.370774"><ele>1260</ele><time>2026-05-11T17:36:05.000Z</time></trkpt>
        <trkpt lat="29.550496" lon="103.370765"><ele>1260</ele><time>2026-05-11T17:36:06.000Z</time></trkpt>
        <trkpt lat="29.550493" lon="103.370752"><ele>1260</ele><time>2026-05-11T17:36:07.000Z</time></trkpt>
        <trkpt lat="29.550494" lon="103.370739"><ele>1260</ele><time>2026-05-11T17:36:10.000Z</time></trkpt>
        <trkpt lat="29.550497" lon="103.370735"><ele>1260</ele><time>2026-05-11T17:36:11.000Z</time></trkpt>
        <trkpt lat="29.550497" lon="103.370734"><ele>1260</ele><time>2026-05-11T17:36:12.000Z</time></trkpt>
        <trkpt lat="29.550498" lon="103.370723"><ele>1260</ele><time>2026-05-11T17:36:14.000Z</time></trkpt>
        <trkpt lat="29.55048" lon="103.370691"><ele>1255</ele><time>2026-05-11T17:36:17.000Z</time></trkpt>
        <trkpt lat="29.550465" lon="103.370665"><ele>1252</ele><time>2026-05-11T17:36:19.000Z</time></trkpt>
        <trkpt lat="29.550458" lon="103.370655"><ele>1252</ele><time>2026-05-11T17:36:21.000Z</time></trkpt>
        <trkpt lat="29.550455" lon="103.370636"><ele>1250</ele><time>2026-05-11T17:36:24.000Z</time></trkpt>
        <trkpt lat="29.550463" lon="103.370638"><ele>1246</ele><time>2026-05-11T17:36:28.000Z</time></trkpt>
        <trkpt lat="29.550431" lon="103.370577"><ele>1239</ele><time>2026-05-11T17:36:34.000Z</time></trkpt>
        <trkpt lat="29.550414" lon="103.370539"><ele>1237</ele><time>2026-05-11T17:36:38.000Z</time></trkpt>
        <trkpt lat="29.55034" lon="103.370388"><ele>1223</ele><time>2026-05-11T17:37:12.000Z</time></trkpt>
        <trkpt lat="29.550344" lon="103.370398"><ele>1226</ele><time>2026-05-11T17:37:21.000Z</time></trkpt>
        <trkpt lat="29.550311" lon="103.370356"><ele>1237</ele><time>2026-05-11T17:37:32.000Z</time></trkpt>
        <trkpt lat="29.550301" lon="103.370355"><ele>1239</ele><time>2026-05-11T17:37:34.000Z</time></trkpt>
        <trkpt lat="29.550274" lon="103.370316"><ele>1252</ele><time>2026-05-11T17:37:56.000Z</time></trkpt>
        <trkpt lat="29.550277" lon="103.370303"><ele>1254</ele><time>2026-05-11T17:37:58.000Z</time></trkpt>
        <trkpt lat="29.550278" lon="103.370296"><ele>1255</ele><time>2026-05-11T17:38:00.000Z</time></trkpt>
        <trkpt lat="29.550297" lon="103.370134"><ele>1251</ele><time>2026-05-11T17:38:18.000Z</time></trkpt>
        <trkpt lat="29.550303" lon="103.370066"><ele>1249</ele><time>2026-05-11T17:38:25.000Z</time></trkpt>
        <trkpt lat="29.550296" lon="103.370066"><ele>1249</ele><time>2026-05-11T17:38:26.000Z</time></trkpt>
        <trkpt lat="29.550286" lon="103.370056"><ele>1248</ele><time>2026-05-11T17:38:28.000Z</time></trkpt>
        <trkpt lat="29.550272" lon="103.370029"><ele>1248</ele><time>2026-05-11T17:38:32.000Z</time></trkpt>
        <trkpt lat="29.550269" lon="103.370014"><ele>1248</ele><time>2026-05-11T17:38:33.000Z</time></trkpt>
        <trkpt lat="29.550269" lon="103.369969"><ele>1248</ele><time>2026-05-11T17:38:37.000Z</time></trkpt>
        <trkpt lat="29.550227" lon="103.369963"><ele>1252</ele><time>2026-05-11T17:38:40.000Z</time></trkpt>
        <trkpt lat="29.550216" lon="103.369949"><ele>1253</ele><time>2026-05-11T17:38:42.000Z</time></trkpt>
        <trkpt lat="29.55021" lon="103.369921"><ele>1254</ele><time>2026-05-11T17:38:50.000Z</time></trkpt>
        <trkpt lat="29.550212" lon="103.369883"><ele>1252</ele><time>2026-05-11T17:38:55.000Z</time></trkpt>
        <trkpt lat="29.550085" lon="103.369779"><ele>1258</ele><time>2026-05-11T17:39:29.000Z</time></trkpt>
        <trkpt lat="29.550069" lon="103.369769"><ele>1257</ele><time>2026-05-11T17:39:32.000Z</time></trkpt>
        <trkpt lat="29.550052" lon="103.369767"><ele>1259</ele><time>2026-05-11T17:39:39.000Z</time></trkpt>
        <trkpt lat="29.550051" lon="103.369749"><ele>1264</ele><time>2026-05-11T17:39:47.000Z</time></trkpt>
        <trkpt lat="29.550039" lon="103.369754"><ele>1265</ele><time>2026-05-11T17:39:48.000Z</time></trkpt>
        <trkpt lat="29.550059" lon="103.369727"><ele>1266</ele><time>2026-05-11T17:39:52.000Z</time></trkpt>
        <trkpt lat="29.55006" lon="103.369725"><ele>1268</ele><time>2026-05-11T17:39:56.000Z</time></trkpt>
        <trkpt lat="29.550066" lon="103.369717"><ele>1268</ele><time>2026-05-11T17:39:58.000Z</time></trkpt>
        <trkpt lat="29.550084" lon="103.369703"><ele>1268</ele><time>2026-05-11T17:40:02.000Z</time></trkpt>
        <trkpt lat="29.550088" lon="103.369699"><ele>1268</ele><time>2026-05-11T17:40:03.000Z</time></trkpt>
        <trkpt lat="29.550087" lon="103.369697"><ele>1268</ele><time>2026-05-11T17:40:04.000Z</time></trkpt>
        <trkpt lat="29.550098" lon="103.369682"><ele>1268</ele><time>2026-05-11T17:40:07.000Z</time></trkpt>
        <trkpt lat="29.550106" lon="103.369673"><ele>1267</ele><time>2026-05-11T17:40:09.000Z</time></trkpt>
        <trkpt lat="29.550114" lon="103.369661"><ele>1266</ele><time>2026-05-11T17:40:13.000Z</time></trkpt>
        <trkpt lat="29.550138" lon="103.369633"><ele>1264</ele><time>2026-05-11T17:40:16.000Z</time></trkpt>
        <trkpt lat="29.550143" lon="103.36962"><ele>1264</ele><time>2026-05-11T17:40:18.000Z</time></trkpt>
        <trkpt lat="29.550148" lon="103.369612"><ele>1265</ele><time>2026-05-11T17:40:20.000Z</time></trkpt>
        <trkpt lat="29.550145" lon="103.369612"><ele>1265</ele><time>2026-05-11T17:40:22.000Z</time></trkpt>
        <trkpt lat="29.550138" lon="103.369615"><ele>1266</ele><time>2026-05-11T17:40:25.000Z</time></trkpt>
        <trkpt lat="29.550156" lon="103.369609"><ele>1266</ele><time>2026-05-11T17:40:27.000Z</time></trkpt>
        <trkpt lat="29.55016" lon="103.36961"><ele>1266</ele><time>2026-05-11T17:40:29.000Z</time></trkpt>
        <trkpt lat="29.550061" lon="103.369504"><ele>1267</ele><time>2026-05-11T17:41:17.000Z</time></trkpt>
        <trkpt lat="29.550059" lon="103.369467"><ele>1267</ele><time>2026-05-11T17:41:21.000Z</time></trkpt>
        <trkpt lat="29.550047" lon="103.369462"><ele>1268</ele><time>2026-05-11T17:41:24.000Z</time></trkpt>
        <trkpt lat="29.55004" lon="103.369439"><ele>1269</ele><time>2026-05-11T17:41:28.000Z</time></trkpt>
        <trkpt lat="29.550005" lon="103.369307"><ele>1268</ele><time>2026-05-11T17:41:42.000Z</time></trkpt>
        <trkpt lat="29.55" lon="103.3693"><ele>1268</ele><time>2026-05-11T17:41:43.000Z</time></trkpt>
        <trkpt lat="29.54999" lon="103.369286"><ele>1268</ele><time>2026-05-11T17:41:45.000Z</time></trkpt>
        <trkpt lat="29.549983" lon="103.369201"><ele>1265</ele><time>2026-05-11T17:41:53.000Z</time></trkpt>
        <trkpt lat="29.549963" lon="103.369088"><ele>1265</ele><time>2026-05-11T17:42:07.000Z</time></trkpt>
        <trkpt lat="29.549945" lon="103.369081"><ele>1266</ele><time>2026-05-11T17:42:12.000Z</time></trkpt>
        <trkpt lat="29.549966" lon="103.368951"><ele>1277</ele><time>2026-05-11T17:42:39.000Z</time></trkpt>
        <trkpt lat="29.549973" lon="103.368944"><ele>1281</ele><time>2026-05-11T17:42:46.000Z</time></trkpt>
        <trkpt lat="29.549954" lon="103.368947"><ele>1284</ele><time>2026-05-11T17:42:49.000Z</time></trkpt>
        <trkpt lat="29.549945" lon="103.368947"><ele>1284</ele><time>2026-05-11T17:42:51.000Z</time></trkpt>
        <trkpt lat="29.549936" lon="103.368958"><ele>1286</ele><time>2026-05-11T17:42:53.000Z</time></trkpt>
        <trkpt lat="29.549937" lon="103.368962"><ele>1286</ele><time>2026-05-11T17:42:54.000Z</time></trkpt>
        <trkpt lat="29.54997" lon="103.368956"><ele>1300</ele><time>2026-05-11T17:43:16.000Z</time></trkpt>
        <trkpt lat="29.550027" lon="103.368878"><ele>1307</ele><time>2026-05-11T17:43:44.000Z</time></trkpt>
        <trkpt lat="29.550016" lon="103.368854"><ele>1304</ele><time>2026-05-11T17:43:47.000Z</time></trkpt>
        <trkpt lat="29.549992" lon="103.368841"><ele>1301</ele><time>2026-05-11T17:43:50.000Z</time></trkpt>
        <trkpt lat="29.549951" lon="103.368868"><ele>1300</ele><time>2026-05-11T17:43:55.000Z</time></trkpt>
        <trkpt lat="29.549945" lon="103.368879"><ele>1299</ele><time>2026-05-11T17:43:58.000Z</time></trkpt>
        <trkpt lat="29.549932" lon="103.368903"><ele>1299</ele><time>2026-05-11T17:44:01.000Z</time></trkpt>
        <trkpt lat="29.549916" lon="103.368913"><ele>1299</ele><time>2026-05-11T17:44:07.000Z</time></trkpt>
        <trkpt lat="29.549889" lon="103.368903"><ele>1296</ele><time>2026-05-11T17:44:10.000Z</time></trkpt>
        <trkpt lat="29.549826" lon="103.368787"><ele>1295</ele><time>2026-05-11T17:44:37.000Z</time></trkpt>
        <trkpt lat="29.54974" lon="103.368732"><ele>1294</ele><time>2026-05-11T17:44:56.000Z</time></trkpt>
        <trkpt lat="29.549707" lon="103.368671"><ele>1294</ele><time>2026-05-11T17:45:03.000Z</time></trkpt>
        <trkpt lat="29.549688" lon="103.368599"><ele>1302</ele><time>2026-05-11T17:45:38.000Z</time></trkpt>
        <trkpt lat="29.549662" lon="103.368582"><ele>1305</ele><time>2026-05-11T17:45:44.000Z</time></trkpt>
        <trkpt lat="29.549693" lon="103.368572"><ele>1314</ele><time>2026-05-11T17:45:56.000Z</time></trkpt>
        <trkpt lat="29.549712" lon="103.368577"><ele>1314</ele><time>2026-05-11T17:45:58.000Z</time></trkpt>
        <trkpt lat="29.54973" lon="103.368578"><ele>1314</ele><time>2026-05-11T17:46:02.000Z</time></trkpt>
        <trkpt lat="29.549732" lon="103.368577"><ele>1314</ele><time>2026-05-11T17:46:04.000Z</time></trkpt>
        <trkpt lat="29.549724" lon="103.368582"><ele>1316</ele><time>2026-05-11T17:46:07.000Z</time></trkpt>
        <trkpt lat="29.549728" lon="103.368589"><ele>1320</ele><time>2026-05-11T17:46:10.000Z</time></trkpt>
        <trkpt lat="29.549725" lon="103.36859"><ele>1322</ele><time>2026-05-11T17:46:12.000Z</time></trkpt>
        <trkpt lat="29.549725" lon="103.368581"><ele>1324</ele><time>2026-05-11T17:46:15.000Z</time></trkpt>
        <trkpt lat="29.549735" lon="103.368579"><ele>1326</ele><time>2026-05-11T17:46:20.000Z</time></trkpt>
        <trkpt lat="29.549765" lon="103.368602"><ele>1327</ele><time>2026-05-11T17:46:27.000Z</time></trkpt>
        <trkpt lat="29.549768" lon="103.368605"><ele>1326</ele><time>2026-05-11T17:46:28.000Z</time></trkpt>
        <trkpt lat="29.549758" lon="103.368605"><ele>1328</ele><time>2026-05-11T17:46:31.000Z</time></trkpt>
        <trkpt lat="29.549742" lon="103.368565"><ele>1327</ele><time>2026-05-11T17:46:38.000Z</time></trkpt>
        <trkpt lat="29.549714" lon="103.3685"><ele>1318</ele><time>2026-05-11T17:46:55.000Z</time></trkpt>
        <trkpt lat="29.549727" lon="103.368453"><ele>1313</ele><time>2026-05-11T17:47:08.000Z</time></trkpt>
        <trkpt lat="29.549727" lon="103.368454"><ele>1312</ele><time>2026-05-11T17:47:10.000Z</time></trkpt>
        <trkpt lat="29.549684" lon="103.368471"><ele>1327</ele><time>2026-05-11T17:47:44.000Z</time></trkpt>
        <trkpt lat="29.549698" lon="103.368529"><ele>1335</ele><time>2026-05-11T17:47:51.000Z</time></trkpt>
        <trkpt lat="29.549713" lon="103.36851"><ele>1339</ele><time>2026-05-11T17:47:54.000Z</time></trkpt>
        <trkpt lat="29.549717" lon="103.368494"><ele>1342</ele><time>2026-05-11T17:47:58.000Z</time></trkpt>
        <trkpt lat="29.549747" lon="103.368458"><ele>1343</ele><time>2026-05-11T17:48:03.000Z</time></trkpt>
        <trkpt lat="29.549774" lon="103.368426"><ele>1345</ele><time>2026-05-11T17:48:08.000Z</time></trkpt>
        <trkpt lat="29.549818" lon="103.368401"><ele>1346</ele><time>2026-05-11T17:48:13.000Z</time></trkpt>
        <trkpt lat="29.549802" lon="103.368402"><ele>1347</ele><time>2026-05-11T17:48:15.000Z</time></trkpt>
        <trkpt lat="29.549781" lon="103.368433"><ele>1354</ele><time>2026-05-11T17:48:19.000Z</time></trkpt>
        <trkpt lat="29.549775" lon="103.368435"><ele>1356</ele><time>2026-05-11T17:48:21.000Z</time></trkpt>
        <trkpt lat="29.549765" lon="103.368441"><ele>1358</ele><time>2026-05-11T17:48:24.000Z</time></trkpt>
        <trkpt lat="29.549889" lon="103.368428"><ele>1346</ele><time>2026-05-11T17:48:46.000Z</time></trkpt>
        <trkpt lat="29.549864" lon="103.368414"><ele>1355</ele><time>2026-05-11T17:49:18.000Z</time></trkpt>
        <trkpt lat="29.549897" lon="103.368393"><ele>1354</ele><time>2026-05-11T17:49:24.000Z</time></trkpt>
        <trkpt lat="29.549916" lon="103.368291"><ele>1352</ele><time>2026-05-11T17:49:57.000Z</time></trkpt>
        <trkpt lat="29.549917" lon="103.368281"><ele>1352</ele><time>2026-05-11T17:49:59.000Z</time></trkpt>
        <trkpt lat="29.549915" lon="103.368268"><ele>1352</ele><time>2026-05-11T17:50:01.000Z</time></trkpt>
        <trkpt lat="29.549877" lon="103.368176"><ele>1350</ele><time>2026-05-11T17:50:46.000Z</time></trkpt>
        <trkpt lat="29.549918" lon="103.368151"><ele>1351</ele><time>2026-05-11T17:51:01.000Z</time></trkpt>
        <trkpt lat="29.549916" lon="103.368124"><ele>1351</ele><time>2026-05-11T17:51:07.000Z</time></trkpt>
        <trkpt lat="29.549971" lon="103.36799"><ele>1366</ele><time>2026-05-11T17:51:42.000Z</time></trkpt>
        <trkpt lat="29.549866" lon="103.368049"><ele>1365</ele><time>2026-05-11T17:52:04.000Z</time></trkpt>
        <trkpt lat="29.549815" lon="103.367881"><ele>1360</ele><time>2026-05-11T17:52:37.000Z</time></trkpt>
        <trkpt lat="29.549889" lon="103.367804"><ele>1373</ele><time>2026-05-11T17:53:27.000Z</time></trkpt>
        <trkpt lat="29.54991" lon="103.367813"><ele>1374</ele><time>2026-05-11T17:53:31.000Z</time></trkpt>
        <trkpt lat="29.549926" lon="103.367803"><ele>1374</ele><time>2026-05-11T17:53:35.000Z</time></trkpt>
        <trkpt lat="29.549961" lon="103.367805"><ele>1376</ele><time>2026-05-11T17:53:49.000Z</time></trkpt>
        <trkpt lat="29.549991" lon="103.367803"><ele>1385</ele><time>2026-05-11T17:54:02.000Z</time></trkpt>
        <trkpt lat="29.549983" lon="103.367787"><ele>1384</ele><time>2026-05-11T17:54:07.000Z</time></trkpt>
        <trkpt lat="29.550002" lon="103.367725"><ele>1387</ele><time>2026-05-11T17:54:49.000Z</time></trkpt>
        <trkpt lat="29.550116" lon="103.367617"><ele>1400</ele><time>2026-05-11T17:55:33.000Z</time></trkpt>
        <trkpt lat="29.550165" lon="103.367565"><ele>1404</ele><time>2026-05-11T17:55:44.000Z</time></trkpt>
        <trkpt lat="29.5502" lon="103.367522"><ele>1403</ele><time>2026-05-11T17:55:55.000Z</time></trkpt>
        <trkpt lat="29.550202" lon="103.367544"><ele>1411</ele><time>2026-05-11T17:56:10.000Z</time></trkpt>
        <trkpt lat="29.55022" lon="103.367563"><ele>1408</ele><time>2026-05-11T17:56:21.000Z</time></trkpt>
        <trkpt lat="29.550224" lon="103.367562"><ele>1405</ele><time>2026-05-11T17:56:26.000Z</time></trkpt>
        <trkpt lat="29.550148" lon="103.367553"><ele>1397</ele><time>2026-05-11T17:56:48.000Z</time></trkpt>
        <trkpt lat="29.550168" lon="103.367542"><ele>1401</ele><time>2026-05-11T17:56:57.000Z</time></trkpt>
        <trkpt lat="29.550201" lon="103.367643"><ele>1415</ele><time>2026-05-11T17:57:20.000Z</time></trkpt>
        <trkpt lat="29.550185" lon="103.367677"><ele>1410</ele><time>2026-05-11T17:57:33.000Z</time></trkpt>
        <trkpt lat="29.550177" lon="103.367677"><ele>1408</ele><time>2026-05-11T17:57:38.000Z</time></trkpt>
        <trkpt lat="29.550165" lon="103.367689"><ele>1412</ele><time>2026-05-11T17:58:12.000Z</time></trkpt>
        <trkpt lat="29.550243" lon="103.367588"><ele>1393</ele><time>2026-05-11T17:58:31.000Z</time></trkpt>
        <trkpt lat="29.550184" lon="103.367611"><ele>1388</ele><time>2026-05-11T17:58:43.000Z</time></trkpt>
        <trkpt lat="29.550172" lon="103.367612"><ele>1385</ele><time>2026-05-11T17:58:46.000Z</time></trkpt>
        <trkpt lat="29.550147" lon="103.367605"><ele>1385</ele><time>2026-05-11T17:59:03.000Z</time></trkpt>
        <trkpt lat="29.550181" lon="103.367523"><ele>1389</ele><time>2026-05-11T17:59:21.000Z</time></trkpt>
        <trkpt lat="29.550192" lon="103.367497"><ele>1387</ele><time>2026-05-11T17:59:25.000Z</time></trkpt>
        <trkpt lat="29.550153" lon="103.367548"><ele>1399</ele><time>2026-05-11T17:59:50.000Z</time></trkpt>
        <trkpt lat="29.550154" lon="103.367561"><ele>1399</ele><time>2026-05-11T17:59:57.000Z</time></trkpt>
        <trkpt lat="29.550165" lon="103.367526"><ele>1397</ele><time>2026-05-11T18:00:03.000Z</time></trkpt>
        <trkpt lat="29.550167" lon="103.367516"><ele>1397</ele><time>2026-05-11T18:00:04.000Z</time></trkpt>
        <trkpt lat="29.550173" lon="103.367504"><ele>1399</ele><time>2026-05-11T18:00:06.000Z</time></trkpt>
        <trkpt lat="29.550167" lon="103.367503"><ele>1401</ele><time>2026-05-11T18:00:09.000Z</time></trkpt>
        <trkpt lat="29.550174" lon="103.367477"><ele>1403</ele><time>2026-05-11T18:00:16.000Z</time></trkpt>
        <trkpt lat="29.550181" lon="103.367427"><ele>1407</ele><time>2026-05-11T18:00:26.000Z</time></trkpt>
        <trkpt lat="29.550195" lon="103.367412"><ele>1411</ele><time>2026-05-11T18:00:32.000Z</time></trkpt>
        <trkpt lat="29.550197" lon="103.367418"><ele>1411</ele><time>2026-05-11T18:00:33.000Z</time></trkpt>
        <trkpt lat="29.550198" lon="103.367419"><ele>1411</ele><time>2026-05-11T18:00:34.000Z</time></trkpt>
        <trkpt lat="29.550219" lon="103.367386"><ele>1412</ele><time>2026-05-11T18:00:38.000Z</time></trkpt>
        <trkpt lat="29.550217" lon="103.367381"><ele>1412</ele><time>2026-05-11T18:00:39.000Z</time></trkpt>
        <trkpt lat="29.550216" lon="103.367373"><ele>1412</ele><time>2026-05-11T18:00:41.000Z</time></trkpt>
        <trkpt lat="29.550219" lon="103.367367"><ele>1413</ele><time>2026-05-11T18:00:44.000Z</time></trkpt>
        <trkpt lat="29.550225" lon="103.367351"><ele>1413</ele><time>2026-05-11T18:00:46.000Z</time></trkpt>
        <trkpt lat="29.550233" lon="103.367338"><ele>1413</ele><time>2026-05-11T18:00:51.000Z</time></trkpt>
        <trkpt lat="29.550236" lon="103.367337"><ele>1412</ele><time>2026-05-11T18:00:53.000Z</time></trkpt>
        <trkpt lat="29.55025" lon="103.367326"><ele>1411</ele><time>2026-05-11T18:00:58.000Z</time></trkpt>
        <trkpt lat="29.550258" lon="103.367317"><ele>1410</ele><time>2026-05-11T18:01:00.000Z</time></trkpt>
        <trkpt lat="29.550217" lon="103.367303"><ele>1409</ele><time>2026-05-11T18:01:13.000Z</time></trkpt>
        <trkpt lat="29.550213" lon="103.367297"><ele>1409</ele><time>2026-05-11T18:01:16.000Z</time></trkpt>
        <trkpt lat="29.55017" lon="103.367341"><ele>1412</ele><time>2026-05-11T18:01:28.000Z</time></trkpt>
        <trkpt lat="29.550169" lon="103.36734"><ele>1412</ele><time>2026-05-11T18:01:29.000Z</time></trkpt>
        <trkpt lat="29.550151" lon="103.367359"><ele>1415</ele><time>2026-05-11T18:01:34.000Z</time></trkpt>
        <trkpt lat="29.550136" lon="103.367369"><ele>1416</ele><time>2026-05-11T18:01:36.000Z</time></trkpt>
        <trkpt lat="29.550129" lon="103.367377"><ele>1418</ele><time>2026-05-11T18:01:38.000Z</time></trkpt>
        <trkpt lat="29.550122" lon="103.367377"><ele>1419</ele><time>2026-05-11T18:01:41.000Z</time></trkpt>
        <trkpt lat="29.550121" lon="103.36737"><ele>1420</ele><time>2026-05-11T18:01:43.000Z</time></trkpt>
        <trkpt lat="29.550112" lon="103.36737"><ele>1420</ele><time>2026-05-11T18:01:45.000Z</time></trkpt>
        <trkpt lat="29.550101" lon="103.367359"><ele>1421</ele><time>2026-05-11T18:01:48.000Z</time></trkpt>
        <trkpt lat="29.550129" lon="103.367183"><ele>1422</ele><time>2026-05-11T18:02:23.000Z</time></trkpt>
        <trkpt lat="29.550138" lon="103.367165"><ele>1422</ele><time>2026-05-11T18:02:27.000Z</time></trkpt>
        <trkpt lat="29.550151" lon="103.367148"><ele>1424</ele><time>2026-05-11T18:02:33.000Z</time></trkpt>
        <trkpt lat="29.550151" lon="103.367142"><ele>1425</ele><time>2026-05-11T18:02:36.000Z</time></trkpt>
        <trkpt lat="29.550159" lon="103.367124"><ele>1426</ele><time>2026-05-11T18:02:39.000Z</time></trkpt>
        <trkpt lat="29.550154" lon="103.367098"><ele>1429</ele><time>2026-05-11T18:02:45.000Z</time></trkpt>
        <trkpt lat="29.550154" lon="103.36708"><ele>1431</ele><time>2026-05-11T18:02:48.000Z</time></trkpt>
        <trkpt lat="29.550223" lon="103.366979"><ele>1445</ele><time>2026-05-11T18:03:08.000Z</time></trkpt>
        <trkpt lat="29.550199" lon="103.366924"><ele>1466</ele><time>2026-05-11T18:03:26.000Z</time></trkpt>
        <trkpt lat="29.550197" lon="103.366913"><ele>1472</ele><time>2026-05-11T18:03:34.000Z</time></trkpt>
        <trkpt lat="29.550198" lon="103.366916"><ele>1474</ele><time>2026-05-11T18:03:40.000Z</time></trkpt>
        <trkpt lat="29.550218" lon="103.366916"><ele>1473</ele><time>2026-05-11T18:03:45.000Z</time></trkpt>
        <trkpt lat="29.550231" lon="103.366906"><ele>1472</ele><time>2026-05-11T18:03:48.000Z</time></trkpt>
        <trkpt lat="29.550253" lon="103.366887"><ele>1469</ele><time>2026-05-11T18:03:51.000Z</time></trkpt>
        <trkpt lat="29.550233" lon="103.366925"><ele>1464</ele><time>2026-05-11T18:04:01.000Z</time></trkpt>
        <trkpt lat="29.55022" lon="103.366915"><ele>1463</ele><time>2026-05-11T18:04:05.000Z</time></trkpt>
        <trkpt lat="29.550211" lon="103.366914"><ele>1462</ele><time>2026-05-11T18:04:07.000Z</time></trkpt>
        <trkpt lat="29.550208" lon="103.366906"><ele>1462</ele><time>2026-05-11T18:04:09.000Z</time></trkpt>
        <trkpt lat="29.550186" lon="103.366875"><ele>1461</ele><time>2026-05-11T18:04:15.000Z</time></trkpt>
        <trkpt lat="29.550181" lon="103.366879"><ele>1461</ele><time>2026-05-11T18:04:19.000Z</time></trkpt>
        <trkpt lat="29.550181" lon="103.366877"><ele>1461</ele><time>2026-05-11T18:04:23.000Z</time></trkpt>
        <trkpt lat="29.55017" lon="103.366874"><ele>1459</ele><time>2026-05-11T18:04:28.000Z</time></trkpt>
        <trkpt lat="29.550165" lon="103.366846"><ele>1455</ele><time>2026-05-11T18:04:33.000Z</time></trkpt>
        <trkpt lat="29.550163" lon="103.366822"><ele>1454</ele><time>2026-05-11T18:04:35.000Z</time></trkpt>
        <trkpt lat="29.55015" lon="103.36681"><ele>1454</ele><time>2026-05-11T18:04:38.000Z</time></trkpt>
        <trkpt lat="29.550138" lon="103.36681"><ele>1456</ele><time>2026-05-11T18:04:41.000Z</time></trkpt>
        <trkpt lat="29.550103" lon="103.366737"><ele>1451</ele><time>2026-05-11T18:04:54.000Z</time></trkpt>
        <trkpt lat="29.550093" lon="103.366732"><ele>1450</ele><time>2026-05-11T18:04:56.000Z</time></trkpt>
        <trkpt lat="29.550095" lon="103.366709"><ele>1447</ele><time>2026-05-11T18:05:00.000Z</time></trkpt>
        <trkpt lat="29.550058" lon="103.366679"><ele>1444</ele><time>2026-05-11T18:05:14.000Z</time></trkpt>
        <trkpt lat="29.549972" lon="103.366567"><ele>1447</ele><time>2026-05-11T18:05:50.000Z</time></trkpt>
        <trkpt lat="29.549887" lon="103.366524"><ele>1446</ele><time>2026-05-11T18:06:11.000Z</time></trkpt>
        <trkpt lat="29.549831" lon="103.366569"><ele>1454</ele><time>2026-05-11T18:06:29.000Z</time></trkpt>
        <trkpt lat="29.549718" lon="103.366597"><ele>1457</ele><time>2026-05-11T18:06:55.000Z</time></trkpt>
        <trkpt lat="29.549679" lon="103.366554"><ele>1465</ele><time>2026-05-11T18:07:17.000Z</time></trkpt>
        <trkpt lat="29.549609" lon="103.366502"><ele>1468</ele><time>2026-05-11T18:07:51.000Z</time></trkpt>
        <trkpt lat="29.549608" lon="103.3665"><ele>1468</ele><time>2026-05-11T18:07:52.000Z</time></trkpt>
        <trkpt lat="29.549591" lon="103.366499"><ele>1469</ele><time>2026-05-11T18:08:02.000Z</time></trkpt>
        <trkpt lat="29.54947" lon="103.366469"><ele>1480</ele><time>2026-05-11T18:08:48.000Z</time></trkpt>
        <trkpt lat="29.549459" lon="103.366463"><ele>1480</ele><time>2026-05-11T18:08:52.000Z</time></trkpt>
        <trkpt lat="29.549453" lon="103.366431"><ele>1482</ele><time>2026-05-11T18:08:58.000Z</time></trkpt>
        <trkpt lat="29.549448" lon="103.366427"><ele>1482</ele><time>2026-05-11T18:09:00.000Z</time></trkpt>
        <trkpt lat="29.549454" lon="103.366323"><ele>1490</ele><time>2026-05-11T18:09:27.000Z</time></trkpt>
        <trkpt lat="29.549449" lon="103.366314"><ele>1492</ele><time>2026-05-11T18:09:30.000Z</time></trkpt>
        <trkpt lat="29.549386" lon="103.366286"><ele>1493</ele><time>2026-05-11T18:09:49.000Z</time></trkpt>
        <trkpt lat="29.549382" lon="103.366312"><ele>1493</ele><time>2026-05-11T18:09:55.000Z</time></trkpt>
        <trkpt lat="29.549378" lon="103.366324"><ele>1494</ele><time>2026-05-11T18:10:03.000Z</time></trkpt>
        <trkpt lat="29.562793" lon="103.350749"><ele>1830</ele><time>2026-05-11T20:14:06.000Z</time></trkpt>
        <trkpt lat="29.562794" lon="103.350754"><ele>1829</ele><time>2026-05-11T20:14:07.000Z</time></trkpt>
        <trkpt lat="29.562786" lon="103.350777"><ele>1834</ele><time>2026-05-11T20:14:34.000Z</time></trkpt>
        <trkpt lat="29.562786" lon="103.350775"><ele>1833</ele><time>2026-05-11T20:14:41.000Z</time></trkpt>
        <trkpt lat="29.562788" lon="103.350772"><ele>1833</ele><time>2026-05-11T20:14:47.000Z</time></trkpt>
        <trkpt lat="29.562911" lon="103.350814"><ele>1832</ele><time>2026-05-11T20:15:21.000Z</time></trkpt>
        <trkpt lat="29.562911" lon="103.35082"><ele>1832</ele><time>2026-05-11T20:15:23.000Z</time></trkpt>
        <trkpt lat="29.562887" lon="103.350807"><ele>1832</ele><time>2026-05-11T20:15:38.000Z</time></trkpt>
        <trkpt lat="29.562886" lon="103.350801"><ele>1832</ele><time>2026-05-11T20:15:44.000Z</time></trkpt>
        <trkpt lat="29.562864" lon="103.350778"><ele>1832</ele><time>2026-05-11T20:15:57.000Z</time></trkpt>
        <trkpt lat="29.562818" lon="103.350814"><ele>1832</ele><time>2026-05-11T20:16:15.000Z</time></trkpt>
        <trkpt lat="29.56282" lon="103.350819"><ele>1832</ele><time>2026-05-11T20:16:16.000Z</time></trkpt>
        <trkpt lat="29.562848" lon="103.350845"><ele>1832</ele><time>2026-05-11T20:16:24.000Z</time></trkpt>
        <trkpt lat="29.562746" lon="103.350859"><ele>1832</ele><time>2026-05-11T20:16:43.000Z</time></trkpt>
        <trkpt lat="29.562734" lon="103.350862"><ele>1832</ele><time>2026-05-11T20:16:47.000Z</time></trkpt>
        <trkpt lat="29.56285" lon="103.350868"><ele>1832</ele><time>2026-05-11T20:17:06.000Z</time></trkpt>
        <trkpt lat="29.563047" lon="103.35086"><ele>1832</ele><time>2026-05-11T20:17:18.000Z</time></trkpt>
        <trkpt lat="29.563071" lon="103.35089"><ele>1832</ele><time>2026-05-11T20:17:41.000Z</time></trkpt>
        <trkpt lat="29.562927" lon="103.35082"><ele>1832</ele><time>2026-05-11T20:17:52.000Z</time></trkpt>
        <trkpt lat="29.562834" lon="103.350892"><ele>1832</ele><time>2026-05-11T20:18:01.000Z</time></trkpt>
        <trkpt lat="29.562879" lon="103.350872"><ele>1832</ele><time>2026-05-11T20:18:10.000Z</time></trkpt>
        <trkpt lat="29.562879" lon="103.350875"><ele>1832</ele><time>2026-05-11T20:18:13.000Z</time></trkpt>
        <trkpt lat="29.562898" lon="103.350854"><ele>1832</ele><time>2026-05-11T20:18:19.000Z</time></trkpt>
        <trkpt lat="29.562899" lon="103.350827"><ele>1832</ele><time>2026-05-11T20:18:29.000Z</time></trkpt>
        <trkpt lat="29.562897" lon="103.350824"><ele>1832</ele><time>2026-05-11T20:18:32.000Z</time></trkpt>
        <trkpt lat="29.562852" lon="103.350823"><ele>1832</ele><time>2026-05-11T20:18:37.000Z</time></trkpt>
        <trkpt lat="29.562836" lon="103.350784"><ele>1832</ele><time>2026-05-11T20:19:40.000Z</time></trkpt>
        <trkpt lat="29.562839" lon="103.350779"><ele>1832</ele><time>2026-05-11T20:19:44.000Z</time></trkpt>
        <trkpt lat="29.562829" lon="103.350787"><ele>1832</ele><time>2026-05-11T20:19:57.000Z</time></trkpt>
        <trkpt lat="29.562826" lon="103.350766"><ele>1831</ele><time>2026-05-11T20:20:18.000Z</time></trkpt>
        <trkpt lat="29.562834" lon="103.350767"><ele>1831</ele><time>2026-05-11T20:20:22.000Z</time></trkpt>
        <trkpt lat="29.562844" lon="103.350757"><ele>1831</ele><time>2026-05-11T20:20:25.000Z</time></trkpt>
        <trkpt lat="29.562857" lon="103.350748"><ele>1831</ele><time>2026-05-11T20:20:28.000Z</time></trkpt>
        <trkpt lat="29.562861" lon="103.350745"><ele>1831</ele><time>2026-05-11T20:20:29.000Z</time></trkpt>
        <trkpt lat="29.562861" lon="103.350745"><ele>1831</ele><time>2026-05-11T20:20:30.000Z</time></trkpt>
        <trkpt lat="29.562862" lon="103.350737"><ele>1831</ele><time>2026-05-11T20:20:46.000Z</time></trkpt>
        <trkpt lat="29.562865" lon="103.350739"><ele>1831</ele><time>2026-05-11T20:20:52.000Z</time></trkpt>
        <trkpt lat="29.562846" lon="103.350735"><ele>1831</ele><time>2026-05-11T20:20:53.000Z</time></trkpt>
        <trkpt lat="29.562841" lon="103.350737"><ele>1831</ele><time>2026-05-11T20:20:55.000Z</time></trkpt>
        <trkpt lat="29.562868" lon="103.350715"><ele>1832</ele><time>2026-05-11T20:20:58.000Z</time></trkpt>
        <trkpt lat="29.562882" lon="103.3507"><ele>1832</ele><time>2026-05-11T20:21:00.000Z</time></trkpt>
        <trkpt lat="29.562901" lon="103.350704"><ele>1832</ele><time>2026-05-11T20:21:04.000Z</time></trkpt>
        <trkpt lat="29.562901" lon="103.350704"><ele>1833</ele><time>2026-05-11T20:21:05.000Z</time></trkpt>
        <trkpt lat="29.562899" lon="103.350704"><ele>1833</ele><time>2026-05-11T20:21:06.000Z</time></trkpt>
        <trkpt lat="29.562897" lon="103.350704"><ele>1833</ele><time>2026-05-11T20:21:07.000Z</time></trkpt>
        <trkpt lat="29.562897" lon="103.350707"><ele>1833</ele><time>2026-05-11T20:21:08.000Z</time></trkpt>
        <trkpt lat="29.562897" lon="103.350707"><ele>1833</ele><time>2026-05-11T20:21:09.000Z</time></trkpt>
        <trkpt lat="29.562894" lon="103.350711"><ele>1832</ele><time>2026-05-11T20:21:10.000Z</time></trkpt>
        <trkpt lat="29.562894" lon="103.350711"><ele>1832</ele><time>2026-05-11T20:21:11.000Z</time></trkpt>
        <trkpt lat="29.562891" lon="103.350717"><ele>1832</ele><time>2026-05-11T20:21:12.000Z</time></trkpt>
        <trkpt lat="29.562881" lon="103.350722"><ele>1831</ele><time>2026-05-11T20:21:17.000Z</time></trkpt>
        <trkpt lat="29.562883" lon="103.350719"><ele>1829</ele><time>2026-05-11T20:21:18.000Z</time></trkpt>
        <trkpt lat="29.562862" lon="103.350733"><ele>1825</ele><time>2026-05-11T20:21:27.000Z</time></trkpt>
        <trkpt lat="29.56284" lon="103.350752"><ele>1826</ele><time>2026-05-11T20:21:40.000Z</time></trkpt>
        <trkpt lat="29.562786" lon="103.350737"><ele>1833</ele><time>2026-05-11T20:21:50.000Z</time></trkpt>
        <trkpt lat="29.562783" lon="103.350732"><ele>1834</ele><time>2026-05-11T20:21:56.000Z</time></trkpt>
        <trkpt lat="29.562777" lon="103.350777"><ele>1835</ele><time>2026-05-11T20:22:06.000Z</time></trkpt>
        <trkpt lat="29.562781" lon="103.35078"><ele>1836</ele><time>2026-05-11T20:22:31.000Z</time></trkpt>
        <trkpt lat="29.562784" lon="103.350793"><ele>1836</ele><time>2026-05-11T20:22:55.000Z</time></trkpt>
        <trkpt lat="29.562781" lon="103.350791"><ele>1836</ele><time>2026-05-11T20:23:05.000Z</time></trkpt>
        <trkpt lat="29.562773" lon="103.350795"><ele>1835</ele><time>2026-05-11T20:23:15.000Z</time></trkpt>
        <trkpt lat="29.562776" lon="103.350787"><ele>1836</ele><time>2026-05-11T20:23:19.000Z</time></trkpt>
        <trkpt lat="29.562771" lon="103.350777"><ele>1835</ele><time>2026-05-11T20:23:35.000Z</time></trkpt>
        <trkpt lat="29.562771" lon="103.350777"><ele>1835</ele><time>2026-05-11T20:23:36.000Z</time></trkpt>
        <trkpt lat="29.56277" lon="103.350778"><ele>1835</ele><time>2026-05-11T20:23:39.000Z</time></trkpt>
        <trkpt lat="29.562769" lon="103.350775"><ele>1835</ele><time>2026-05-11T20:23:46.000Z</time></trkpt>
        <trkpt lat="29.562771" lon="103.350772"><ele>1835</ele><time>2026-05-11T20:23:50.000Z</time></trkpt>
        <trkpt lat="29.56277" lon="103.35077"><ele>1835</ele><time>2026-05-11T20:23:53.000Z</time></trkpt>
        <trkpt lat="29.56277" lon="103.35077"><ele>1835</ele><time>2026-05-11T20:23:54.000Z</time></trkpt>
        <trkpt lat="29.562767" lon="103.35077"><ele>1835</ele><time>2026-05-11T20:23:59.000Z</time></trkpt>
        <trkpt lat="29.562762" lon="103.350757"><ele>1837</ele><time>2026-05-11T20:24:19.000Z</time></trkpt>
        <trkpt lat="29.562762" lon="103.350759"><ele>1837</ele><time>2026-05-11T20:24:23.000Z</time></trkpt>
        <trkpt lat="29.562764" lon="103.350761"><ele>1837</ele><time>2026-05-11T20:24:27.000Z</time></trkpt>
        <trkpt lat="29.562772" lon="103.350762"><ele>1836</ele><time>2026-05-11T20:24:32.000Z</time></trkpt>
        <trkpt lat="29.562781" lon="103.350766"><ele>1833</ele><time>2026-05-11T20:25:06.000Z</time></trkpt>
        <trkpt lat="29.562786" lon="103.35077"><ele>1834</ele><time>2026-05-11T20:25:35.000Z</time></trkpt>
        <trkpt lat="29.56279" lon="103.350772"><ele>1834</ele><time>2026-05-11T20:25:56.000Z</time></trkpt>
        <trkpt lat="29.562786" lon="103.350768"><ele>1831</ele><time>2026-05-11T20:26:26.000Z</time></trkpt>
        <trkpt lat="29.562786" lon="103.350769"><ele>1831</ele><time>2026-05-11T20:26:30.000Z</time></trkpt>
        <trkpt lat="29.562785" lon="103.350766"><ele>1832</ele><time>2026-05-11T20:26:31.000Z</time></trkpt>
        <trkpt lat="29.562786" lon="103.350764"><ele>1832</ele><time>2026-05-11T20:26:39.000Z</time></trkpt>
        <trkpt lat="29.562786" lon="103.350764"><ele>1832</ele><time>2026-05-11T20:26:40.000Z</time></trkpt>
        <trkpt lat="29.562785" lon="103.350763"><ele>1832</ele><time>2026-05-11T20:26:41.000Z</time></trkpt>
        <trkpt lat="29.562785" lon="103.350763"><ele>1832</ele><time>2026-05-11T20:26:42.000Z</time></trkpt>
        <trkpt lat="29.562786" lon="103.350764"><ele>1832</ele><time>2026-05-11T20:26:46.000Z</time></trkpt>
        <trkpt lat="29.562786" lon="103.350764"><ele>1832</ele><time>2026-05-11T20:26:47.000Z</time></trkpt>
        <trkpt lat="29.562787" lon="103.350764"><ele>1832</ele><time>2026-05-11T20:26:48.000Z</time></trkpt>
        <trkpt lat="29.562787" lon="103.350764"><ele>1832</ele><time>2026-05-11T20:26:49.000Z</time></trkpt>
        <trkpt lat="29.562788" lon="103.350765"><ele>1832</ele><time>2026-05-11T20:27:14.000Z</time></trkpt>
        <trkpt lat="29.562788" lon="103.350765"><ele>1832</ele><time>2026-05-11T20:27:21.000Z</time></trkpt>
        <trkpt lat="29.562793" lon="103.350754"><ele>1832</ele><time>2026-05-11T20:27:53.000Z</time></trkpt>
        <trkpt lat="29.562796" lon="103.35075"><ele>1832</ele><time>2026-05-11T20:28:02.000Z</time></trkpt>
        <trkpt lat="29.562807" lon="103.350758"><ele>1832</ele><time>2026-05-11T20:28:19.000Z</time></trkpt>
        <trkpt lat="29.562807" lon="103.350757"><ele>1832</ele><time>2026-05-11T20:28:22.000Z</time></trkpt>
        <trkpt lat="29.562762" lon="103.350743"><ele>1832</ele><time>2026-05-11T20:28:36.000Z</time></trkpt>
        <trkpt lat="29.562756" lon="103.350741"><ele>1833</ele><time>2026-05-11T20:28:41.000Z</time></trkpt>
        <trkpt lat="29.562753" lon="103.350742"><ele>1834</ele><time>2026-05-11T20:28:47.000Z</time></trkpt>
        <trkpt lat="29.562757" lon="103.350755"><ele>1835</ele><time>2026-05-11T20:29:00.000Z</time></trkpt>
        <trkpt lat="29.562758" lon="103.350754"><ele>1835</ele><time>2026-05-11T20:29:02.000Z</time></trkpt>
        <trkpt lat="29.562756" lon="103.350753"><ele>1835</ele><time>2026-05-11T20:29:03.000Z</time></trkpt>
        <trkpt lat="29.562752" lon="103.350755"><ele>1835</ele><time>2026-05-11T20:29:10.000Z</time></trkpt>
        <trkpt lat="29.562746" lon="103.350754"><ele>1835</ele><time>2026-05-11T20:29:12.000Z</time></trkpt>
        <trkpt lat="29.562775" lon="103.350745"><ele>1834</ele><time>2026-05-11T20:29:41.000Z</time></trkpt>
        <trkpt lat="29.562801" lon="103.350762"><ele>1826</ele><time>2026-05-11T20:30:11.000Z</time></trkpt>
        <trkpt lat="29.562803" lon="103.350764"><ele>1826</ele><time>2026-05-11T20:30:13.000Z</time></trkpt>
        <trkpt lat="29.562805" lon="103.350762"><ele>1826</ele><time>2026-05-11T20:30:17.000Z</time></trkpt>
        <trkpt lat="29.562806" lon="103.350762"><ele>1826</ele><time>2026-05-11T20:30:18.000Z</time></trkpt>
        <trkpt lat="29.562806" lon="103.350761"><ele>1826</ele><time>2026-05-11T20:30:19.000Z</time></trkpt>
        <trkpt lat="29.562806" lon="103.350761"><ele>1826</ele><time>2026-05-11T20:30:20.000Z</time></trkpt>
        <trkpt lat="29.562807" lon="103.350757"><ele>1826</ele><time>2026-05-11T20:30:21.000Z</time></trkpt>
        <trkpt lat="29.562807" lon="103.350757"><ele>1826</ele><time>2026-05-11T20:30:22.000Z</time></trkpt>
        <trkpt lat="29.562811" lon="103.350757"><ele>1826</ele><time>2026-05-11T20:30:28.000Z</time></trkpt>
        <trkpt lat="29.562811" lon="103.350758"><ele>1826</ele><time>2026-05-11T20:30:31.000Z</time></trkpt>
        <trkpt lat="29.562811" lon="103.350756"><ele>1826</ele><time>2026-05-11T20:30:34.000Z</time></trkpt>
        <trkpt lat="29.562811" lon="103.350756"><ele>1826</ele><time>2026-05-11T20:30:36.000Z</time></trkpt>
        <trkpt lat="29.562811" lon="103.350753"><ele>1826</ele><time>2026-05-11T20:30:42.000Z</time></trkpt>
        <trkpt lat="29.562811" lon="103.350754"><ele>1826</ele><time>2026-05-11T20:30:46.000Z</time></trkpt>
        <trkpt lat="29.562811" lon="103.350754"><ele>1826</ele><time>2026-05-11T20:30:47.000Z</time></trkpt>
        <trkpt lat="29.562811" lon="103.350754"><ele>1826</ele><time>2026-05-11T20:30:48.000Z</time></trkpt>
        <trkpt lat="29.562811" lon="103.350746"><ele>1826</ele><time>2026-05-11T20:30:57.000Z</time></trkpt>
        <trkpt lat="29.56281" lon="103.350749"><ele>1826</ele><time>2026-05-11T20:31:04.000Z</time></trkpt>
        <trkpt lat="29.56281" lon="103.350749"><ele>1826</ele><time>2026-05-11T20:31:05.000Z</time></trkpt>
        <trkpt lat="29.56281" lon="103.350749"><ele>1826</ele><time>2026-05-11T20:31:06.000Z</time></trkpt>
        <trkpt lat="29.562809" lon="103.350749"><ele>1826</ele><time>2026-05-11T20:31:15.000Z</time></trkpt>
        <trkpt lat="29.56281" lon="103.350749"><ele>1826</ele><time>2026-05-11T20:31:17.000Z</time></trkpt>
        <trkpt lat="29.56281" lon="103.350745"><ele>1825</ele><time>2026-05-11T20:31:45.000Z</time></trkpt>
        <trkpt lat="29.562808" lon="103.350754"><ele>1827</ele><time>2026-05-11T20:32:07.000Z</time></trkpt>
        <trkpt lat="29.562799" lon="103.350753"><ele>1831</ele><time>2026-05-11T20:32:47.000Z</time></trkpt>
        <trkpt lat="29.562796" lon="103.350755"><ele>1831</ele><time>2026-05-11T20:33:11.000Z</time></trkpt>
        <trkpt lat="29.562792" lon="103.350755"><ele>1831</ele><time>2026-05-11T20:33:19.000Z</time></trkpt>
        <trkpt lat="29.562793" lon="103.350755"><ele>1832</ele><time>2026-05-11T20:33:24.000Z</time></trkpt>
        <trkpt lat="29.562791" lon="103.350754"><ele>1832</ele><time>2026-05-11T20:33:27.000Z</time></trkpt>
        <trkpt lat="29.562792" lon="103.350753"><ele>1832</ele><time>2026-05-11T20:33:36.000Z</time></trkpt>
        <trkpt lat="29.562792" lon="103.350752"><ele>1831</ele><time>2026-05-11T20:33:37.000Z</time></trkpt>
        <trkpt lat="29.562792" lon="103.350752"><ele>1831</ele><time>2026-05-11T20:33:38.000Z</time></trkpt>
        <trkpt lat="29.56279" lon="103.35075"><ele>1831</ele><time>2026-05-11T20:33:43.000Z</time></trkpt>
        <trkpt lat="29.56279" lon="103.35075"><ele>1831</ele><time>2026-05-11T20:33:44.000Z</time></trkpt>
        <trkpt lat="29.56279" lon="103.35075"><ele>1831</ele><time>2026-05-11T20:33:45.000Z</time></trkpt>
        <trkpt lat="29.56279" lon="103.35075"><ele>1831</ele><time>2026-05-11T20:33:46.000Z</time></trkpt>
        <trkpt lat="29.56279" lon="103.35075"><ele>1831</ele><time>2026-05-11T20:33:47.000Z</time></trkpt>
        <trkpt lat="29.56279" lon="103.350752"><ele>1831</ele><time>2026-05-11T20:33:52.000Z</time></trkpt>
        <trkpt lat="29.56279" lon="103.350751"><ele>1831</ele><time>2026-05-11T20:33:53.000Z</time></trkpt>
        <trkpt lat="29.56279" lon="103.350751"><ele>1831</ele><time>2026-05-11T20:33:54.000Z</time></trkpt>
        <trkpt lat="29.562789" lon="103.350753"><ele>1831</ele><time>2026-05-11T20:33:55.000Z</time></trkpt>
        <trkpt lat="29.562789" lon="103.350753"><ele>1831</ele><time>2026-05-11T20:33:56.000Z</time></trkpt>
        <trkpt lat="29.562789" lon="103.350754"><ele>1830</ele><time>2026-05-11T20:34:10.000Z</time></trkpt>
        <trkpt lat="29.562789" lon="103.350754"><ele>1830</ele><time>2026-05-11T20:34:13.000Z</time></trkpt>
        <trkpt lat="29.562789" lon="103.350754"><ele>1830</ele><time>2026-05-11T20:34:16.000Z</time></trkpt>
        <trkpt lat="29.562789" lon="103.350753"><ele>1830</ele><time>2026-05-11T20:34:17.000Z</time></trkpt>
        <trkpt lat="29.562789" lon="103.350752"><ele>1830</ele><time>2026-05-11T20:34:18.000Z</time></trkpt>
        <trkpt lat="29.562789" lon="103.350752"><ele>1830</ele><time>2026-05-11T20:34:19.000Z</time></trkpt>
        <trkpt lat="29.562788" lon="103.350752"><ele>1830</ele><time>2026-05-11T20:35:00.000Z</time></trkpt>
        <trkpt lat="29.562794" lon="103.350753"><ele>1825</ele><time>2026-05-11T20:35:42.000Z</time></trkpt>
        <trkpt lat="29.562793" lon="103.350754"><ele>1825</ele><time>2026-05-11T20:35:59.000Z</time></trkpt>
        <trkpt lat="29.562801" lon="103.350756"><ele>1824</ele><time>2026-05-11T20:37:14.000Z</time></trkpt>
        <trkpt lat="29.562798" lon="103.350755"><ele>1824</ele><time>2026-05-11T20:37:31.000Z</time></trkpt>
        <trkpt lat="29.562795" lon="103.350743"><ele>1826</ele><time>2026-05-11T20:37:48.000Z</time></trkpt>
        <trkpt lat="29.562796" lon="103.350744"><ele>1826</ele><time>2026-05-11T20:37:51.000Z</time></trkpt>
        <trkpt lat="29.562796" lon="103.350744"><ele>1826</ele><time>2026-05-11T20:37:58.000Z</time></trkpt>
        <trkpt lat="29.562796" lon="103.350744"><ele>1826</ele><time>2026-05-11T20:38:00.000Z</time></trkpt>
        <trkpt lat="29.562797" lon="103.350746"><ele>1826</ele><time>2026-05-11T20:38:25.000Z</time></trkpt>
        <trkpt lat="29.5628" lon="103.350747"><ele>1826</ele><time>2026-05-11T20:38:38.000Z</time></trkpt>
        <trkpt lat="29.562803" lon="103.350749"><ele>1826</ele><time>2026-05-11T20:38:49.000Z</time></trkpt>
        <trkpt lat="29.562801" lon="103.350744"><ele>1826</ele><time>2026-05-11T20:38:53.000Z</time></trkpt>
        <trkpt lat="29.562799" lon="103.350742"><ele>1826</ele><time>2026-05-11T20:38:56.000Z</time></trkpt>
        <trkpt lat="29.562799" lon="103.350741"><ele>1826</ele><time>2026-05-11T20:38:57.000Z</time></trkpt>
        <trkpt lat="29.562797" lon="103.350741"><ele>1826</ele><time>2026-05-11T20:39:01.000Z</time></trkpt>
        <trkpt lat="29.562796" lon="103.350741"><ele>1826</ele><time>2026-05-11T20:39:03.000Z</time></trkpt>
        <trkpt lat="29.562795" lon="103.350743"><ele>1827</ele><time>2026-05-11T20:39:04.000Z</time></trkpt>
        <trkpt lat="29.562795" lon="103.350743"><ele>1827</ele><time>2026-05-11T20:39:05.000Z</time></trkpt>
        <trkpt lat="29.562795" lon="103.350742"><ele>1827</ele><time>2026-05-11T20:39:10.000Z</time></trkpt>
        <trkpt lat="29.562795" lon="103.350744"><ele>1827</ele><time>2026-05-11T20:39:12.000Z</time></trkpt>
        <trkpt lat="29.562794" lon="103.350746"><ele>1827</ele><time>2026-05-11T20:39:37.000Z</time></trkpt>
        <trkpt lat="29.562793" lon="103.350745"><ele>1827</ele><time>2026-05-11T20:39:46.000Z</time></trkpt>
        <trkpt lat="29.562782" lon="103.350743"><ele>1827</ele><time>2026-05-11T20:40:01.000Z</time></trkpt>
        <trkpt lat="29.562793" lon="103.350752"><ele>1825</ele><time>2026-05-11T20:40:09.000Z</time></trkpt>
        <trkpt lat="29.562807" lon="103.35076"><ele>1823</ele><time>2026-05-11T20:40:15.000Z</time></trkpt>
        <trkpt lat="29.562824" lon="103.350754"><ele>1822</ele><time>2026-05-11T20:40:21.000Z</time></trkpt>
        <trkpt lat="29.562823" lon="103.350753"><ele>1820</ele><time>2026-05-11T20:40:25.000Z</time></trkpt>
        <trkpt lat="29.562785" lon="103.350792"><ele>1827</ele><time>2026-05-11T20:40:47.000Z</time></trkpt>
        <trkpt lat="29.562784" lon="103.350793"><ele>1827</ele><time>2026-05-11T20:41:01.000Z</time></trkpt>
        <trkpt lat="29.562795" lon="103.350771"><ele>1828</ele><time>2026-05-11T20:41:57.000Z</time></trkpt>
        <trkpt lat="29.562802" lon="103.350776"><ele>1827</ele><time>2026-05-11T20:42:03.000Z</time></trkpt>
        <trkpt lat="29.562795" lon="103.350771"><ele>1827</ele><time>2026-05-11T20:42:16.000Z</time></trkpt>
        <trkpt lat="29.562795" lon="103.350768"><ele>1827</ele><time>2026-05-11T20:42:25.000Z</time></trkpt>
        <trkpt lat="29.562796" lon="103.350766"><ele>1827</ele><time>2026-05-11T20:42:28.000Z</time></trkpt>
        <trkpt lat="29.562789" lon="103.350759"><ele>1827</ele><time>2026-05-11T20:42:37.000Z</time></trkpt>
        <trkpt lat="29.562787" lon="103.350754"><ele>1828</ele><time>2026-05-11T20:42:41.000Z</time></trkpt>
        <trkpt lat="29.562788" lon="103.350752"><ele>1828</ele><time>2026-05-11T20:42:51.000Z</time></trkpt>
        <trkpt lat="29.562792" lon="103.350755"><ele>1827</ele><time>2026-05-11T20:43:12.000Z</time></trkpt>
        <trkpt lat="29.562792" lon="103.350754"><ele>1827</ele><time>2026-05-11T20:43:17.000Z</time></trkpt>
        <trkpt lat="29.562793" lon="103.350756"><ele>1827</ele><time>2026-05-11T20:43:22.000Z</time></trkpt>
        <trkpt lat="29.562795" lon="103.35076"><ele>1827</ele><time>2026-05-11T20:43:52.000Z</time></trkpt>
        <trkpt lat="29.562804" lon="103.350761"><ele>1827</ele><time>2026-05-11T20:44:06.000Z</time></trkpt>
        <trkpt lat="29.562798" lon="103.350753"><ele>1827</ele><time>2026-05-11T20:44:14.000Z</time></trkpt>
        <trkpt lat="29.562804" lon="103.350758"><ele>1827</ele><time>2026-05-11T20:44:18.000Z</time></trkpt>
        <trkpt lat="29.562815" lon="103.350755"><ele>1826</ele><time>2026-05-11T20:44:27.000Z</time></trkpt>
        <trkpt lat="29.562817" lon="103.350756"><ele>1826</ele><time>2026-05-11T20:44:28.000Z</time></trkpt>
        <trkpt lat="29.562817" lon="103.350756"><ele>1826</ele><time>2026-05-11T20:44:29.000Z</time></trkpt>
        <trkpt lat="29.562813" lon="103.350743"><ele>1825</ele><time>2026-05-11T20:45:20.000Z</time></trkpt>
        <trkpt lat="29.562812" lon="103.350742"><ele>1825</ele><time>2026-05-11T20:45:30.000Z</time></trkpt>
        <trkpt lat="29.562818" lon="103.350742"><ele>1823</ele><time>2026-05-11T20:46:22.000Z</time></trkpt>
        <trkpt lat="29.562816" lon="103.350742"><ele>1822</ele><time>2026-05-11T20:46:35.000Z</time></trkpt>
        <trkpt lat="29.562814" lon="103.350742"><ele>1823</ele><time>2026-05-11T20:46:47.000Z</time></trkpt>
        <trkpt lat="29.562813" lon="103.350744"><ele>1823</ele><time>2026-05-11T20:46:48.000Z</time></trkpt>
        <trkpt lat="29.562813" lon="103.350744"><ele>1823</ele><time>2026-05-11T20:46:49.000Z</time></trkpt>
        <trkpt lat="29.562812" lon="103.350744"><ele>1823</ele><time>2026-05-11T20:46:55.000Z</time></trkpt>
        <trkpt lat="29.562809" lon="103.35074"><ele>1822</ele><time>2026-05-11T20:47:03.000Z</time></trkpt>
        <trkpt lat="29.562809" lon="103.350739"><ele>1822</ele><time>2026-05-11T20:47:09.000Z</time></trkpt>
        <trkpt lat="29.562808" lon="103.350739"><ele>1821</ele><time>2026-05-11T20:47:11.000Z</time></trkpt>
        <trkpt lat="29.562806" lon="103.35074"><ele>1821</ele><time>2026-05-11T20:47:23.000Z</time></trkpt>
        <trkpt lat="29.562801" lon="103.350737"><ele>1822</ele><time>2026-05-11T20:47:31.000Z</time></trkpt>
        <trkpt lat="29.562804" lon="103.350729"><ele>1822</ele><time>2026-05-11T20:47:40.000Z</time></trkpt>
        <trkpt lat="29.562803" lon="103.350727"><ele>1822</ele><time>2026-05-11T20:47:41.000Z</time></trkpt>
        <trkpt lat="29.5628" lon="103.350725"><ele>1821</ele><time>2026-05-11T20:47:47.000Z</time></trkpt>
        <trkpt lat="29.562797" lon="103.350728"><ele>1821</ele><time>2026-05-11T20:47:59.000Z</time></trkpt>
        <trkpt lat="29.5628" lon="103.350715"><ele>1819</ele><time>2026-05-11T20:48:09.000Z</time></trkpt>
        <trkpt lat="29.56282" lon="103.350685"><ele>1817</ele><time>2026-05-11T20:48:28.000Z</time></trkpt>
        <trkpt lat="29.562795" lon="103.350647"><ele>1815</ele><time>2026-05-11T20:48:45.000Z</time></trkpt>
        <trkpt lat="29.562785" lon="103.350742"><ele>1807</ele><time>2026-05-11T20:51:09.000Z</time></trkpt>
        <trkpt lat="29.562795" lon="103.350742"><ele>1807</ele><time>2026-05-11T20:51:21.000Z</time></trkpt>
        <trkpt lat="29.562795" lon="103.35074"><ele>1808</ele><time>2026-05-11T20:51:23.000Z</time></trkpt>
        <trkpt lat="29.562796" lon="103.350739"><ele>1808</ele><time>2026-05-11T20:51:24.000Z</time></trkpt>
        <trkpt lat="29.562796" lon="103.350739"><ele>1808</ele><time>2026-05-11T20:51:25.000Z</time></trkpt>
        <trkpt lat="29.562796" lon="103.35074"><ele>1808</ele><time>2026-05-11T20:51:26.000Z</time></trkpt>
        <trkpt lat="29.562796" lon="103.35074"><ele>1808</ele><time>2026-05-11T20:51:27.000Z</time></trkpt>
        <trkpt lat="29.562797" lon="103.350739"><ele>1808</ele><time>2026-05-11T20:51:30.000Z</time></trkpt>
        <trkpt lat="29.562797" lon="103.350739"><ele>1808</ele><time>2026-05-11T20:51:31.000Z</time></trkpt>
        <trkpt lat="29.562797" lon="103.350739"><ele>1808</ele><time>2026-05-11T20:51:32.000Z</time></trkpt>
        <trkpt lat="29.562797" lon="103.350739"><ele>1808</ele><time>2026-05-11T20:51:33.000Z</time></trkpt>
        <trkpt lat="29.562797" lon="103.35074"><ele>1808</ele><time>2026-05-11T20:51:37.000Z</time></trkpt>
        <trkpt lat="29.562797" lon="103.35074"><ele>1809</ele><time>2026-05-11T20:51:39.000Z</time></trkpt>
        <trkpt lat="29.562797" lon="103.350741"><ele>1809</ele><time>2026-05-11T20:51:40.000Z</time></trkpt>
        <trkpt lat="29.562797" lon="103.350739"><ele>1810</ele><time>2026-05-11T20:51:47.000Z</time></trkpt>
        <trkpt lat="29.5628" lon="103.350741"><ele>1812</ele><time>2026-05-11T20:51:55.000Z</time></trkpt>
        <trkpt lat="29.5628" lon="103.350741"><ele>1812</ele><time>2026-05-11T20:51:56.000Z</time></trkpt>
        <trkpt lat="29.5628" lon="103.350741"><ele>1812</ele><time>2026-05-11T20:51:57.000Z</time></trkpt>
        <trkpt lat="29.5628" lon="103.350741"><ele>1812</ele><time>2026-05-11T20:51:59.000Z</time></trkpt>
        <trkpt lat="29.5628" lon="103.350741"><ele>1812</ele><time>2026-05-11T20:52:00.000Z</time></trkpt>
        <trkpt lat="29.5628" lon="103.350741"><ele>1812</ele><time>2026-05-11T20:52:01.000Z</time></trkpt>
        <trkpt lat="29.562799" lon="103.350741"><ele>1812</ele><time>2026-05-11T20:52:02.000Z</time></trkpt>
        <trkpt lat="29.562799" lon="103.350741"><ele>1812</ele><time>2026-05-11T20:52:03.000Z</time></trkpt>
        <trkpt lat="29.5628" lon="103.350743"><ele>1813</ele><time>2026-05-11T20:52:04.000Z</time></trkpt>
        <trkpt lat="29.562801" lon="103.350742"><ele>1814</ele><time>2026-05-11T20:52:31.000Z</time></trkpt>
        <trkpt lat="29.562802" lon="103.35075"><ele>1814</ele><time>2026-05-11T20:52:47.000Z</time></trkpt>
        <trkpt lat="29.562801" lon="103.350749"><ele>1814</ele><time>2026-05-11T20:52:51.000Z</time></trkpt>
        <trkpt lat="29.562801" lon="103.350748"><ele>1814</ele><time>2026-05-11T20:52:57.000Z</time></trkpt>
        <trkpt lat="29.562802" lon="103.350746"><ele>1814</ele><time>2026-05-11T20:53:01.000Z</time></trkpt>
        <trkpt lat="29.562805" lon="103.350749"><ele>1816</ele><time>2026-05-11T20:53:08.000Z</time></trkpt>
        <trkpt lat="29.562805" lon="103.35075"><ele>1817</ele><time>2026-05-11T20:53:12.000Z</time></trkpt>
        <trkpt lat="29.562811" lon="103.350751"><ele>1820</ele><time>2026-05-11T20:53:40.000Z</time></trkpt>
        <trkpt lat="29.562812" lon="103.350753"><ele>1820</ele><time>2026-05-11T20:53:52.000Z</time></trkpt>
        <trkpt lat="29.562812" lon="103.350753"><ele>1821</ele><time>2026-05-11T20:54:01.000Z</time></trkpt>
        <trkpt lat="29.562812" lon="103.350753"><ele>1821</ele><time>2026-05-11T20:54:02.000Z</time></trkpt>
        <trkpt lat="29.562813" lon="103.350752"><ele>1820</ele><time>2026-05-11T20:54:12.000Z</time></trkpt>
        <trkpt lat="29.562815" lon="103.350755"><ele>1821</ele><time>2026-05-11T20:54:25.000Z</time></trkpt>
        <trkpt lat="29.562814" lon="103.350754"><ele>1821</ele><time>2026-05-11T20:54:30.000Z</time></trkpt>
        <trkpt lat="29.562816" lon="103.350756"><ele>1821</ele><time>2026-05-11T20:54:45.000Z</time></trkpt>
        <trkpt lat="29.562807" lon="103.350757"><ele>1822</ele><time>2026-05-11T20:56:06.000Z</time></trkpt>
        <trkpt lat="29.562807" lon="103.350753"><ele>1822</ele><time>2026-05-11T20:56:23.000Z</time></trkpt>
        <trkpt lat="29.562806" lon="103.350755"><ele>1822</ele><time>2026-05-11T20:56:31.000Z</time></trkpt>
        <trkpt lat="29.562809" lon="103.350753"><ele>1823</ele><time>2026-05-11T20:56:41.000Z</time></trkpt>
        <trkpt lat="29.562808" lon="103.350752"><ele>1823</ele><time>2026-05-11T20:56:43.000Z</time></trkpt>
        <trkpt lat="29.56281" lon="103.350752"><ele>1823</ele><time>2026-05-11T20:56:44.000Z</time></trkpt>
        <trkpt lat="29.56281" lon="103.350752"><ele>1823</ele><time>2026-05-11T20:56:45.000Z</time></trkpt>
        <trkpt lat="29.562811" lon="103.350751"><ele>1823</ele><time>2026-05-11T20:56:49.000Z</time></trkpt>
        <trkpt lat="29.562811" lon="103.350751"><ele>1823</ele><time>2026-05-11T20:56:51.000Z</time></trkpt>
        <trkpt lat="29.562811" lon="103.350748"><ele>1823</ele><time>2026-05-11T20:57:01.000Z</time></trkpt>
        <trkpt lat="29.562811" lon="103.350749"><ele>1823</ele><time>2026-05-11T20:57:04.000Z</time></trkpt>
        <trkpt lat="29.562811" lon="103.350749"><ele>1823</ele><time>2026-05-11T20:57:07.000Z</time></trkpt>
        <trkpt lat="29.562814" lon="103.350747"><ele>1823</ele><time>2026-05-11T20:57:57.000Z</time></trkpt>
        <trkpt lat="29.562813" lon="103.350747"><ele>1823</ele><time>2026-05-11T20:58:09.000Z</time></trkpt>
        <trkpt lat="29.562813" lon="103.350747"><ele>1823</ele><time>2026-05-11T20:58:14.000Z</time></trkpt>
        <trkpt lat="29.562813" lon="103.350749"><ele>1823</ele><time>2026-05-11T20:58:32.000Z</time></trkpt>
        <trkpt lat="29.562814" lon="103.350748"><ele>1823</ele><time>2026-05-11T20:58:34.000Z</time></trkpt>
        <trkpt lat="29.562814" lon="103.350744"><ele>1824</ele><time>2026-05-11T20:58:54.000Z</time></trkpt>
        <trkpt lat="29.562816" lon="103.350745"><ele>1824</ele><time>2026-05-11T20:59:09.000Z</time></trkpt>
        <trkpt lat="29.562829" lon="103.350738"><ele>1826</ele><time>2026-05-11T20:59:31.000Z</time></trkpt>
        <trkpt lat="29.562828" lon="103.350738"><ele>1826</ele><time>2026-05-11T20:59:46.000Z</time></trkpt>
        <trkpt lat="29.562829" lon="103.350738"><ele>1826</ele><time>2026-05-11T20:59:47.000Z</time></trkpt>
        <trkpt lat="29.562829" lon="103.350738"><ele>1826</ele><time>2026-05-11T20:59:48.000Z</time></trkpt>
        <trkpt lat="29.562829" lon="103.350738"><ele>1826</ele><time>2026-05-11T20:59:49.000Z</time></trkpt>
        <trkpt lat="29.562829" lon="103.350738"><ele>1826</ele><time>2026-05-11T20:59:50.000Z</time></trkpt>
        <trkpt lat="29.562829" lon="103.350736"><ele>1826</ele><time>2026-05-11T20:59:51.000Z</time></trkpt>
        <trkpt lat="29.562829" lon="103.350736"><ele>1826</ele><time>2026-05-11T20:59:52.000Z</time></trkpt>
        <trkpt lat="29.562829" lon="103.350737"><ele>1826</ele><time>2026-05-11T20:59:53.000Z</time></trkpt>
        <trkpt lat="29.562829" lon="103.350738"><ele>1826</ele><time>2026-05-11T20:59:55.000Z</time></trkpt>
        <trkpt lat="29.56284" lon="103.350755"><ele>1827</ele><time>2026-05-11T21:00:02.000Z</time></trkpt>
        <trkpt lat="29.562845" lon="103.350761"><ele>1828</ele><time>2026-05-11T21:00:06.000Z</time></trkpt>
        <trkpt lat="29.562848" lon="103.350772"><ele>1827</ele><time>2026-05-11T21:00:09.000Z</time></trkpt>
        <trkpt lat="29.562843" lon="103.350784"><ele>1828</ele><time>2026-05-11T21:00:12.000Z</time></trkpt>
        <trkpt lat="29.56284" lon="103.350771"><ele>1828</ele><time>2026-05-11T21:00:15.000Z</time></trkpt>
        <trkpt lat="29.562835" lon="103.350767"><ele>1828</ele><time>2026-05-11T21:00:16.000Z</time></trkpt>
        <trkpt lat="29.562835" lon="103.350767"><ele>1828</ele><time>2026-05-11T21:00:17.000Z</time></trkpt>
        <trkpt lat="29.562829" lon="103.350764"><ele>1828</ele><time>2026-05-11T21:00:18.000Z</time></trkpt>
        <trkpt lat="29.562829" lon="103.350764"><ele>1828</ele><time>2026-05-11T21:00:19.000Z</time></trkpt>
        <trkpt lat="29.562828" lon="103.350767"><ele>1829</ele><time>2026-05-11T21:00:20.000Z</time></trkpt>
        <trkpt lat="29.562828" lon="103.350771"><ele>1829</ele><time>2026-05-11T21:00:22.000Z</time></trkpt>
        <trkpt lat="29.562821" lon="103.350783"><ele>1830</ele><time>2026-05-11T21:00:29.000Z</time></trkpt>
        <trkpt lat="29.562817" lon="103.350782"><ele>1830</ele><time>2026-05-11T21:00:31.000Z</time></trkpt>
        <trkpt lat="29.562808" lon="103.350783"><ele>1831</ele><time>2026-05-11T21:00:41.000Z</time></trkpt>
        <trkpt lat="29.562806" lon="103.35078"><ele>1831</ele><time>2026-05-11T21:00:44.000Z</time></trkpt>
        <trkpt lat="29.562805" lon="103.350779"><ele>1831</ele><time>2026-05-11T21:00:47.000Z</time></trkpt>
        <trkpt lat="29.562804" lon="103.35078"><ele>1832</ele><time>2026-05-11T21:00:49.000Z</time></trkpt>
        <trkpt lat="29.562816" lon="103.350805"><ele>1832</ele><time>2026-05-11T21:01:00.000Z</time></trkpt>
        <trkpt lat="29.562813" lon="103.350794"><ele>1832</ele><time>2026-05-11T21:01:06.000Z</time></trkpt>
        <trkpt lat="29.562809" lon="103.350794"><ele>1833</ele><time>2026-05-11T21:01:11.000Z</time></trkpt>
        <trkpt lat="29.562826" lon="103.350814"><ele>1834</ele><time>2026-05-11T21:01:19.000Z</time></trkpt>
        <trkpt lat="29.562818" lon="103.350806"><ele>1833</ele><time>2026-05-11T21:01:24.000Z</time></trkpt>
        <trkpt lat="29.562792" lon="103.350789"><ele>1834</ele><time>2026-05-11T21:01:38.000Z</time></trkpt>
        <trkpt lat="29.562791" lon="103.350787"><ele>1834</ele><time>2026-05-11T21:01:39.000Z</time></trkpt>
        <trkpt lat="29.562796" lon="103.350782"><ele>1833</ele><time>2026-05-11T21:01:44.000Z</time></trkpt>
        <trkpt lat="29.562796" lon="103.350779"><ele>1833</ele><time>2026-05-11T21:01:45.000Z</time></trkpt>
        <trkpt lat="29.562796" lon="103.350779"><ele>1833</ele><time>2026-05-11T21:01:46.000Z</time></trkpt>
        <trkpt lat="29.562796" lon="103.350759"><ele>1833</ele><time>2026-05-11T21:01:52.000Z</time></trkpt>
        <trkpt lat="29.562804" lon="103.350755"><ele>1833</ele><time>2026-05-11T21:01:54.000Z</time></trkpt>
        <trkpt lat="29.562808" lon="103.350752"><ele>1832</ele><time>2026-05-11T21:01:57.000Z</time></trkpt>
        <trkpt lat="29.562809" lon="103.350752"><ele>1832</ele><time>2026-05-11T21:01:58.000Z</time></trkpt>
        <trkpt lat="29.562812" lon="103.350753"><ele>1832</ele><time>2026-05-11T21:01:59.000Z</time></trkpt>
        <trkpt lat="29.562812" lon="103.350753"><ele>1832</ele><time>2026-05-11T21:02:00.000Z</time></trkpt>
        <trkpt lat="29.562813" lon="103.350755"><ele>1832</ele><time>2026-05-11T21:02:01.000Z</time></trkpt>
        <trkpt lat="29.562813" lon="103.350755"><ele>1832</ele><time>2026-05-11T21:02:02.000Z</time></trkpt>
        <trkpt lat="29.562812" lon="103.350757"><ele>1831</ele><time>2026-05-11T21:02:03.000Z</time></trkpt>
        <trkpt lat="29.562814" lon="103.350761"><ele>1832</ele><time>2026-05-11T21:02:05.000Z</time></trkpt>
        <trkpt lat="29.562814" lon="103.350754"><ele>1833</ele><time>2026-05-11T21:02:19.000Z</time></trkpt>
        <trkpt lat="29.562821" lon="103.350742"><ele>1833</ele><time>2026-05-11T21:02:22.000Z</time></trkpt>
        <trkpt lat="29.562823" lon="103.35074"><ele>1833</ele><time>2026-05-11T21:02:23.000Z</time></trkpt>
        <trkpt lat="29.56284" lon="103.350739"><ele>1830</ele><time>2026-05-11T21:02:28.000Z</time></trkpt>
        <trkpt lat="29.562801" lon="103.350617"><ele>1827</ele><time>2026-05-11T21:02:48.000Z</time></trkpt>
        <trkpt lat="29.562788" lon="103.350579"><ele>1825</ele><time>2026-05-11T21:02:52.000Z</time></trkpt>
        <trkpt lat="29.562791" lon="103.350572"><ele>1825</ele><time>2026-05-11T21:02:53.000Z</time></trkpt>
        <trkpt lat="29.562789" lon="103.350556"><ele>1824</ele><time>2026-05-11T21:02:54.000Z</time></trkpt>
        <trkpt lat="29.562789" lon="103.350556"><ele>1824</ele><time>2026-05-11T21:02:55.000Z</time></trkpt>
        <trkpt lat="29.562781" lon="103.350537"><ele>1822</ele><time>2026-05-11T21:02:56.000Z</time></trkpt>
        <trkpt lat="29.562772" lon="103.350507"><ele>1821</ele><time>2026-05-11T21:02:59.000Z</time></trkpt>
        <trkpt lat="29.562768" lon="103.350484"><ele>1819</ele><time>2026-05-11T21:03:00.000Z</time></trkpt>
        <trkpt lat="29.562768" lon="103.350484"><ele>1819</ele><time>2026-05-11T21:03:01.000Z</time></trkpt>
        <trkpt lat="29.562767" lon="103.350475"><ele>1818</ele><time>2026-05-11T21:03:02.000Z</time></trkpt>
        <trkpt lat="29.562773" lon="103.350457"><ele>1817</ele><time>2026-05-11T21:03:03.000Z</time></trkpt>
        <trkpt lat="29.562773" lon="103.350457"><ele>1817</ele><time>2026-05-11T21:03:04.000Z</time></trkpt>
        <trkpt lat="29.56278" lon="103.35043"><ele>1815</ele><time>2026-05-11T21:03:07.000Z</time></trkpt>
        <trkpt lat="29.56278" lon="103.350419"><ele>1815</ele><time>2026-05-11T21:03:08.000Z</time></trkpt>
        <trkpt lat="29.562777" lon="103.350398"><ele>1813</ele><time>2026-05-11T21:03:09.000Z</time></trkpt>
        <trkpt lat="29.562777" lon="103.350398"><ele>1813</ele><time>2026-05-11T21:03:10.000Z</time></trkpt>
        <trkpt lat="29.562775" lon="103.350375"><ele>1812</ele><time>2026-05-11T21:03:11.000Z</time></trkpt>
        <trkpt lat="29.562782" lon="103.350257"><ele>1811</ele><time>2026-05-11T21:03:21.000Z</time></trkpt>
        <trkpt lat="29.562781" lon="103.350242"><ele>1811</ele><time>2026-05-11T21:03:22.000Z</time></trkpt>
        <trkpt lat="29.562781" lon="103.350228"><ele>1811</ele><time>2026-05-11T21:03:23.000Z</time></trkpt>
        <trkpt lat="29.562788" lon="103.350205"><ele>1811</ele><time>2026-05-11T21:03:24.000Z</time></trkpt>
        <trkpt lat="29.562789" lon="103.350193"><ele>1812</ele><time>2026-05-11T21:03:25.000Z</time></trkpt>
        <trkpt lat="29.562804" lon="103.349984"><ele>1809</ele><time>2026-05-11T21:03:41.000Z</time></trkpt>
        <trkpt lat="29.562812" lon="103.349963"><ele>1809</ele><time>2026-05-11T21:03:43.000Z</time></trkpt>
        <trkpt lat="29.56282" lon="103.349912"><ele>1808</ele><time>2026-05-11T21:03:47.000Z</time></trkpt>
        <trkpt lat="29.562824" lon="103.349848"><ele>1807</ele><time>2026-05-11T21:03:51.000Z</time></trkpt>
        <trkpt lat="29.562836" lon="103.349791"><ele>1807</ele><time>2026-05-11T21:03:55.000Z</time></trkpt>
        <trkpt lat="29.562865" lon="103.349678"><ele>1807</ele><time>2026-05-11T21:04:03.000Z</time></trkpt>
        <trkpt lat="29.562983" lon="103.349498"><ele>1809</ele><time>2026-05-11T21:04:19.000Z</time></trkpt>
        <trkpt lat="29.56308" lon="103.349346"><ele>1814</ele><time>2026-05-11T21:04:33.000Z</time></trkpt>
        <trkpt lat="29.563159" lon="103.349146"><ele>1813</ele><time>2026-05-11T21:04:48.000Z</time></trkpt>
        <trkpt lat="29.563144" lon="103.348968"><ele>1811</ele><time>2026-05-11T21:05:03.000Z</time></trkpt>
        <trkpt lat="29.563179" lon="103.348889"><ele>1814</ele><time>2026-05-11T21:05:12.000Z</time></trkpt>
        <trkpt lat="29.563182" lon="103.348879"><ele>1814</ele><time>2026-05-11T21:05:13.000Z</time></trkpt>
        <trkpt lat="29.563175" lon="103.348814"><ele>1813</ele><time>2026-05-11T21:05:19.000Z</time></trkpt>
        <trkpt lat="29.563146" lon="103.348745"><ele>1813</ele><time>2026-05-11T21:05:25.000Z</time></trkpt>
        <trkpt lat="29.563142" lon="103.348734"><ele>1813</ele><time>2026-05-11T21:05:26.000Z</time></trkpt>
        <trkpt lat="29.56314" lon="103.348723"><ele>1813</ele><time>2026-05-11T21:05:27.000Z</time></trkpt>
        <trkpt lat="29.563158" lon="103.348581"><ele>1815</ele><time>2026-05-11T21:05:38.000Z</time></trkpt>
        <trkpt lat="29.56318" lon="103.348359"><ele>1817</ele><time>2026-05-11T21:05:54.000Z</time></trkpt>
        <trkpt lat="29.563216" lon="103.348294"><ele>1818</ele><time>2026-05-11T21:05:59.000Z</time></trkpt>
        <trkpt lat="29.563361" lon="103.348145"><ele>1823</ele><time>2026-05-11T21:06:14.000Z</time></trkpt>
        <trkpt lat="29.563443" lon="103.347949"><ele>1822</ele><time>2026-05-11T21:06:31.000Z</time></trkpt>
        <trkpt lat="29.5635" lon="103.347855"><ele>1821</ele><time>2026-05-11T21:06:43.000Z</time></trkpt>
        <trkpt lat="29.563508" lon="103.347849"><ele>1821</ele><time>2026-05-11T21:06:44.000Z</time></trkpt>
        <trkpt lat="29.563525" lon="103.347808"><ele>1821</ele><time>2026-05-11T21:06:49.000Z</time></trkpt>
        <trkpt lat="29.563533" lon="103.347781"><ele>1820</ele><time>2026-05-11T21:06:52.000Z</time></trkpt>
        <trkpt lat="29.563539" lon="103.347613"><ele>1820</ele><time>2026-05-11T21:07:11.000Z</time></trkpt>
        <trkpt lat="29.563551" lon="103.34754"><ele>1819</ele><time>2026-05-11T21:07:21.000Z</time></trkpt>
        <trkpt lat="29.56355" lon="103.347513"><ele>1819</ele><time>2026-05-11T21:07:24.000Z</time></trkpt>
        <trkpt lat="29.563527" lon="103.347463"><ele>1818</ele><time>2026-05-11T21:07:29.000Z</time></trkpt>
        <trkpt lat="29.563425" lon="103.347279"><ele>1814</ele><time>2026-05-11T21:07:47.000Z</time></trkpt>
        <trkpt lat="29.563299" lon="103.347155"><ele>1813</ele><time>2026-05-11T21:08:00.000Z</time></trkpt>
        <trkpt lat="29.563194" lon="103.347086"><ele>1817</ele><time>2026-05-11T21:08:11.000Z</time></trkpt>
        <trkpt lat="29.563189" lon="103.34708"><ele>1817</ele><time>2026-05-11T21:08:14.000Z</time></trkpt>
        <trkpt lat="29.563188" lon="103.347077"><ele>1817</ele><time>2026-05-11T21:08:16.000Z</time></trkpt>
        <trkpt lat="29.563186" lon="103.347008"><ele>1820</ele><time>2026-05-11T21:08:36.000Z</time></trkpt>
        <trkpt lat="29.563179" lon="103.346997"><ele>1820</ele><time>2026-05-11T21:08:37.000Z</time></trkpt>
        <trkpt lat="29.563048" lon="103.34685"><ele>1818</ele><time>2026-05-11T21:08:56.000Z</time></trkpt>
        <trkpt lat="29.563021" lon="103.346802"><ele>1817</ele><time>2026-05-11T21:09:04.000Z</time></trkpt>
        <trkpt lat="29.563007" lon="103.346796"><ele>1817</ele><time>2026-05-11T21:09:07.000Z</time></trkpt>
        <trkpt lat="29.562978" lon="103.346757"><ele>1816</ele><time>2026-05-11T21:09:12.000Z</time></trkpt>
        <trkpt lat="29.562842" lon="103.346626"><ele>1812</ele><time>2026-05-11T21:09:28.000Z</time></trkpt>
        <trkpt lat="29.562717" lon="103.34648"><ele>1813</ele><time>2026-05-11T21:09:44.000Z</time></trkpt>
        <trkpt lat="29.562554" lon="103.346393"><ele>1808</ele><time>2026-05-11T21:09:58.000Z</time></trkpt>
        <trkpt lat="29.562402" lon="103.346262"><ele>1807</ele><time>2026-05-11T21:10:14.000Z</time></trkpt>
        <trkpt lat="29.562309" lon="103.346167"><ele>1804</ele><time>2026-05-11T21:10:24.000Z</time></trkpt>
        <trkpt lat="29.562293" lon="103.34614"><ele>1804</ele><time>2026-05-11T21:10:27.000Z</time></trkpt>
        <trkpt lat="29.562288" lon="103.346132"><ele>1804</ele><time>2026-05-11T21:10:28.000Z</time></trkpt>
        <trkpt lat="29.56223" lon="103.345932"><ele>1807</ele><time>2026-05-11T21:10:43.000Z</time></trkpt>
        <trkpt lat="29.562088" lon="103.345777"><ele>1804</ele><time>2026-05-11T21:10:58.000Z</time></trkpt>
        <trkpt lat="29.561957" lon="103.345636"><ele>1806</ele><time>2026-05-11T21:11:11.000Z</time></trkpt>
        <trkpt lat="29.561937" lon="103.345631"><ele>1805</ele><time>2026-05-11T21:11:13.000Z</time></trkpt>
        <trkpt lat="29.561755" lon="103.345614"><ele>1809</ele><time>2026-05-11T21:11:30.000Z</time></trkpt>
        <trkpt lat="29.561716" lon="103.345631"><ele>1808</ele><time>2026-05-11T21:11:35.000Z</time></trkpt>
        <trkpt lat="29.561708" lon="103.345633"><ele>1809</ele><time>2026-05-11T21:11:36.000Z</time></trkpt>
        <trkpt lat="29.561695" lon="103.345631"><ele>1809</ele><time>2026-05-11T21:11:38.000Z</time></trkpt>
        <trkpt lat="29.561661" lon="103.345601"><ele>1811</ele><time>2026-05-11T21:11:41.000Z</time></trkpt>
        <trkpt lat="29.561578" lon="103.345543"><ele>1813</ele><time>2026-05-11T21:11:48.000Z</time></trkpt>
        <trkpt lat="29.561551" lon="103.345516"><ele>1811</ele><time>2026-05-11T21:11:52.000Z</time></trkpt>
        <trkpt lat="29.561541" lon="103.345507"><ele>1810</ele><time>2026-05-11T21:11:54.000Z</time></trkpt>
        <trkpt lat="29.561533" lon="103.3455"><ele>1810</ele><time>2026-05-11T21:11:55.000Z</time></trkpt>
        <trkpt lat="29.561523" lon="103.34549"><ele>1809</ele><time>2026-05-11T21:11:56.000Z</time></trkpt>
        <trkpt lat="29.561413" lon="103.345326"><ele>1805</ele><time>2026-05-11T21:12:11.000Z</time></trkpt>
        <trkpt lat="29.561407" lon="103.34531"><ele>1805</ele><time>2026-05-11T21:12:14.000Z</time></trkpt>
        <trkpt lat="29.561401" lon="103.345306"><ele>1805</ele><time>2026-05-11T21:12:16.000Z</time></trkpt>
        <trkpt lat="29.561262" lon="103.345186"><ele>1812</ele><time>2026-05-11T21:12:47.000Z</time></trkpt>
        <trkpt lat="29.561238" lon="103.345171"><ele>1813</ele><time>2026-05-11T21:12:52.000Z</time></trkpt>
        <trkpt lat="29.561215" lon="103.345115"><ele>1814</ele><time>2026-05-11T21:13:09.000Z</time></trkpt>
        <trkpt lat="29.561211" lon="103.345109"><ele>1815</ele><time>2026-05-11T21:13:12.000Z</time></trkpt>
        <trkpt lat="29.561206" lon="103.345098"><ele>1816</ele><time>2026-05-11T21:13:18.000Z</time></trkpt>
        <trkpt lat="29.561194" lon="103.34509"><ele>1817</ele><time>2026-05-11T21:13:22.000Z</time></trkpt>
        <trkpt lat="29.561187" lon="103.345083"><ele>1817</ele><time>2026-05-11T21:13:24.000Z</time></trkpt>
        <trkpt lat="29.56119" lon="103.345063"><ele>1819</ele><time>2026-05-11T21:13:33.000Z</time></trkpt>
        <trkpt lat="29.56106" lon="103.345021"><ele>1827</ele><time>2026-05-11T21:14:37.000Z</time></trkpt>
        <trkpt lat="29.561054" lon="103.345011"><ele>1827</ele><time>2026-05-11T21:14:40.000Z</time></trkpt>
        <trkpt lat="29.561038" lon="103.344994"><ele>1827</ele><time>2026-05-11T21:14:46.000Z</time></trkpt>
        <trkpt lat="29.561019" lon="103.344967"><ele>1829</ele><time>2026-05-11T21:15:00.000Z</time></trkpt>
        <trkpt lat="29.560983" lon="103.345013"><ele>1841</ele><time>2026-05-11T21:15:29.000Z</time></trkpt>
        <trkpt lat="29.560975" lon="103.345019"><ele>1841</ele><time>2026-05-11T21:15:34.000Z</time></trkpt>
        <trkpt lat="29.560975" lon="103.345018"><ele>1841</ele><time>2026-05-11T21:15:35.000Z</time></trkpt>
        <trkpt lat="29.560968" lon="103.345037"><ele>1841</ele><time>2026-05-11T21:15:42.000Z</time></trkpt>
        <trkpt lat="29.560936" lon="103.345062"><ele>1845</ele><time>2026-05-11T21:15:57.000Z</time></trkpt>
        <trkpt lat="29.560926" lon="103.345072"><ele>1846</ele><time>2026-05-11T21:16:03.000Z</time></trkpt>
        <trkpt lat="29.5609" lon="103.34508"><ele>1848</ele><time>2026-05-11T21:16:13.000Z</time></trkpt>
        <trkpt lat="29.560862" lon="103.34503"><ele>1850</ele><time>2026-05-11T21:16:30.000Z</time></trkpt>
        <trkpt lat="29.560837" lon="103.345001"><ele>1852</ele><time>2026-05-11T21:16:41.000Z</time></trkpt>
        <trkpt lat="29.56084" lon="103.344977"><ele>1852</ele><time>2026-05-11T21:16:47.000Z</time></trkpt>
        <trkpt lat="29.560801" lon="103.344872"><ele>1854</ele><time>2026-05-11T21:17:36.000Z</time></trkpt>
        <trkpt lat="29.560743" lon="103.344878"><ele>1864</ele><time>2026-05-11T21:18:11.000Z</time></trkpt>
        <trkpt lat="29.5607" lon="103.344841"><ele>1869</ele><time>2026-05-11T21:18:32.000Z</time></trkpt>
        <trkpt lat="29.560705" lon="103.344804"><ele>1870</ele><time>2026-05-11T21:18:41.000Z</time></trkpt>
        <trkpt lat="29.560712" lon="103.34479"><ele>1871</ele><time>2026-05-11T21:18:45.000Z</time></trkpt>
        <trkpt lat="29.560711" lon="103.344718"><ele>1875</ele><time>2026-05-11T21:19:09.000Z</time></trkpt>
        <trkpt lat="29.560644" lon="103.344696"><ele>1877</ele><time>2026-05-11T21:19:42.000Z</time></trkpt>
        <trkpt lat="29.560648" lon="103.344695"><ele>1877</ele><time>2026-05-11T21:19:45.000Z</time></trkpt>
        <trkpt lat="29.560637" lon="103.3447"><ele>1877</ele><time>2026-05-11T21:19:56.000Z</time></trkpt>
        <trkpt lat="29.560627" lon="103.344674"><ele>1878</ele><time>2026-05-11T21:20:09.000Z</time></trkpt>
        <trkpt lat="29.560622" lon="103.34467"><ele>1879</ele><time>2026-05-11T21:20:11.000Z</time></trkpt>
        <trkpt lat="29.560524" lon="103.34464"><ele>1887</ele><time>2026-05-11T21:20:56.000Z</time></trkpt>
        <trkpt lat="29.560459" lon="103.344592"><ele>1883</ele><time>2026-05-11T21:21:18.000Z</time></trkpt>
        <trkpt lat="29.560451" lon="103.344573"><ele>1882</ele><time>2026-05-11T21:21:29.000Z</time></trkpt>
        <trkpt lat="29.560426" lon="103.344557"><ele>1889</ele><time>2026-05-11T21:21:44.000Z</time></trkpt>
        <trkpt lat="29.560417" lon="103.344549"><ele>1889</ele><time>2026-05-11T21:21:48.000Z</time></trkpt>
        <trkpt lat="29.560386" lon="103.344503"><ele>1890</ele><time>2026-05-11T21:22:05.000Z</time></trkpt>
        <trkpt lat="29.56024" lon="103.344408"><ele>1894</ele><time>2026-05-11T21:23:14.000Z</time></trkpt>
        <trkpt lat="29.560193" lon="103.344371"><ele>1904</ele><time>2026-05-11T21:23:47.000Z</time></trkpt>
        <trkpt lat="29.56017" lon="103.344345"><ele>1908</ele><time>2026-05-11T21:24:04.000Z</time></trkpt>
        <trkpt lat="29.560177" lon="103.344243"><ele>1918</ele><time>2026-05-11T21:24:39.000Z</time></trkpt>
        <trkpt lat="29.560183" lon="103.34423"><ele>1918</ele><time>2026-05-11T21:24:42.000Z</time></trkpt>
        <trkpt lat="29.560189" lon="103.344226"><ele>1918</ele><time>2026-05-11T21:24:44.000Z</time></trkpt>
        <trkpt lat="29.560164" lon="103.344218"><ele>1918</ele><time>2026-05-11T21:24:54.000Z</time></trkpt>
        <trkpt lat="29.560152" lon="103.344212"><ele>1919</ele><time>2026-05-11T21:24:59.000Z</time></trkpt>
        <trkpt lat="29.560069" lon="103.344182"><ele>1919</ele><time>2026-05-11T21:25:23.000Z</time></trkpt>
        <trkpt lat="29.560043" lon="103.344189"><ele>1922</ele><time>2026-05-11T21:25:34.000Z</time></trkpt>
        <trkpt lat="29.560033" lon="103.34418"><ele>1922</ele><time>2026-05-11T21:25:37.000Z</time></trkpt>
        <trkpt lat="29.560042" lon="103.344141"><ele>1922</ele><time>2026-05-11T21:25:45.000Z</time></trkpt>
        <trkpt lat="29.560095" lon="103.344061"><ele>1930</ele><time>2026-05-11T21:26:25.000Z</time></trkpt>
        <trkpt lat="29.560098" lon="103.34406"><ele>1930</ele><time>2026-05-11T21:26:28.000Z</time></trkpt>
        <trkpt lat="29.560075" lon="103.343952"><ele>1936</ele><time>2026-05-11T21:27:19.000Z</time></trkpt>
        <trkpt lat="29.560097" lon="103.343959"><ele>1941</ele><time>2026-05-11T21:27:33.000Z</time></trkpt>
        <trkpt lat="29.560108" lon="103.343957"><ele>1942</ele><time>2026-05-11T21:27:36.000Z</time></trkpt>
        <trkpt lat="29.560115" lon="103.343869"><ele>1945</ele><time>2026-05-11T21:28:14.000Z</time></trkpt>
        <trkpt lat="29.560071" lon="103.343849"><ele>1946</ele><time>2026-05-11T21:28:28.000Z</time></trkpt>
        <trkpt lat="29.559937" lon="103.343769"><ele>1953</ele><time>2026-05-11T21:29:17.000Z</time></trkpt>
        <trkpt lat="29.559873" lon="103.343714"><ele>1958</ele><time>2026-05-11T21:29:52.000Z</time></trkpt>
        <trkpt lat="29.559845" lon="103.343693"><ele>1958</ele><time>2026-05-11T21:30:10.000Z</time></trkpt>
        <trkpt lat="29.559802" lon="103.343681"><ele>1959</ele><time>2026-05-11T21:30:25.000Z</time></trkpt>
        <trkpt lat="29.559692" lon="103.343522"><ele>1970</ele><time>2026-05-11T21:31:32.000Z</time></trkpt>
        <trkpt lat="29.559682" lon="103.3435"><ele>1970</ele><time>2026-05-11T21:31:41.000Z</time></trkpt>
        <trkpt lat="29.559646" lon="103.343527"><ele>1974</ele><time>2026-05-11T21:32:05.000Z</time></trkpt>
        <trkpt lat="29.55963" lon="103.343554"><ele>1976</ele><time>2026-05-11T21:32:15.000Z</time></trkpt>
        <trkpt lat="29.559562" lon="103.343556"><ele>1981</ele><time>2026-05-11T21:32:52.000Z</time></trkpt>
        <trkpt lat="29.559478" lon="103.343558"><ele>1988</ele><time>2026-05-11T21:34:02.000Z</time></trkpt>
        <trkpt lat="29.559374" lon="103.343613"><ele>1992</ele><time>2026-05-11T21:34:43.000Z</time></trkpt>
        <trkpt lat="29.559366" lon="103.34361"><ele>1992</ele><time>2026-05-11T21:34:46.000Z</time></trkpt>
        <trkpt lat="29.559355" lon="103.343607"><ele>1993</ele><time>2026-05-11T21:34:50.000Z</time></trkpt>
        <trkpt lat="29.559352" lon="103.343604"><ele>1993</ele><time>2026-05-11T21:34:51.000Z</time></trkpt>
        <trkpt lat="29.559325" lon="103.343559"><ele>2000</ele><time>2026-05-11T21:35:24.000Z</time></trkpt>
        <trkpt lat="29.559326" lon="103.343556"><ele>2003</ele><time>2026-05-11T21:35:56.000Z</time></trkpt>
        <trkpt lat="29.559326" lon="103.343555"><ele>2003</ele><time>2026-05-11T21:35:59.000Z</time></trkpt>
        <trkpt lat="29.559323" lon="103.343559"><ele>2004</ele><time>2026-05-11T21:36:10.000Z</time></trkpt>
        <trkpt lat="29.559325" lon="103.343555"><ele>2005</ele><time>2026-05-11T21:36:13.000Z</time></trkpt>
        <trkpt lat="29.559324" lon="103.343556"><ele>2005</ele><time>2026-05-11T21:36:14.000Z</time></trkpt>
        <trkpt lat="29.559319" lon="103.343552"><ele>2004</ele><time>2026-05-11T21:36:35.000Z</time></trkpt>
        <trkpt lat="29.559325" lon="103.343561"><ele>1993</ele><time>2026-05-11T21:37:06.000Z</time></trkpt>
        <trkpt lat="29.559327" lon="103.343562"><ele>1993</ele><time>2026-05-11T21:37:07.000Z</time></trkpt>
        <trkpt lat="29.559329" lon="103.343563"><ele>1993</ele><time>2026-05-11T21:37:08.000Z</time></trkpt>
        <trkpt lat="29.559333" lon="103.343554"><ele>1993</ele><time>2026-05-11T21:37:11.000Z</time></trkpt>
        <trkpt lat="29.55934" lon="103.343541"><ele>1994</ele><time>2026-05-11T21:37:14.000Z</time></trkpt>
        <trkpt lat="29.559338" lon="103.343545"><ele>1995</ele><time>2026-05-11T21:37:17.000Z</time></trkpt>
        <trkpt lat="29.559328" lon="103.34355"><ele>1995</ele><time>2026-05-11T21:37:23.000Z</time></trkpt>
        <trkpt lat="29.559296" lon="103.343535"><ele>1997</ele><time>2026-05-11T21:37:43.000Z</time></trkpt>
        <trkpt lat="29.559293" lon="103.343535"><ele>1997</ele><time>2026-05-11T21:37:45.000Z</time></trkpt>
        <trkpt lat="29.559276" lon="103.343597"><ele>2005</ele><time>2026-05-11T21:37:57.000Z</time></trkpt>
        <trkpt lat="29.559272" lon="103.343608"><ele>2005</ele><time>2026-05-11T21:38:00.000Z</time></trkpt>
        <trkpt lat="29.559262" lon="103.343616"><ele>2005</ele><time>2026-05-11T21:38:07.000Z</time></trkpt>
        <trkpt lat="29.559248" lon="103.343638"><ele>2007</ele><time>2026-05-11T21:38:20.000Z</time></trkpt>
        <trkpt lat="29.559247" lon="103.34365"><ele>2008</ele><time>2026-05-11T21:38:25.000Z</time></trkpt>
        <trkpt lat="29.559247" lon="103.343663"><ele>2008</ele><time>2026-05-11T21:38:28.000Z</time></trkpt>
        <trkpt lat="29.559247" lon="103.343663"><ele>2009</ele><time>2026-05-11T21:38:30.000Z</time></trkpt>
        <trkpt lat="29.55927" lon="103.34368"><ele>2010</ele><time>2026-05-11T21:38:39.000Z</time></trkpt>
        <trkpt lat="29.559253" lon="103.343696"><ele>2009</ele><time>2026-05-11T21:38:49.000Z</time></trkpt>
        <trkpt lat="29.559237" lon="103.343722"><ele>2006</ele><time>2026-05-11T21:39:08.000Z</time></trkpt>
        <trkpt lat="29.559217" lon="103.343741"><ele>2003</ele><time>2026-05-11T21:39:15.000Z</time></trkpt>
        <trkpt lat="29.5592" lon="103.343756"><ele>2002</ele><time>2026-05-11T21:39:27.000Z</time></trkpt>
        <trkpt lat="29.559184" lon="103.343779"><ele>2005</ele><time>2026-05-11T21:39:41.000Z</time></trkpt>
        <trkpt lat="29.559168" lon="103.343745"><ele>2005</ele><time>2026-05-11T21:39:57.000Z</time></trkpt>
        <trkpt lat="29.559135" lon="103.343704"><ele>2012</ele><time>2026-05-11T21:40:23.000Z</time></trkpt>
        <trkpt lat="29.559133" lon="103.343702"><ele>2012</ele><time>2026-05-11T21:40:29.000Z</time></trkpt>
        <trkpt lat="29.559107" lon="103.343675"><ele>2013</ele><time>2026-05-11T21:40:41.000Z</time></trkpt>
        <trkpt lat="29.559069" lon="103.343674"><ele>2015</ele><time>2026-05-11T21:40:55.000Z</time></trkpt>
        <trkpt lat="29.559063" lon="103.343674"><ele>2016</ele><time>2026-05-11T21:41:00.000Z</time></trkpt>
        <trkpt lat="29.559028" lon="103.343676"><ele>2018</ele><time>2026-05-11T21:41:14.000Z</time></trkpt>
        <trkpt lat="29.558983" lon="103.343647"><ele>2024</ele><time>2026-05-11T21:41:40.000Z</time></trkpt>
        <trkpt lat="29.558963" lon="103.343672"><ele>2026</ele><time>2026-05-11T21:41:56.000Z</time></trkpt>
        <trkpt lat="29.558911" lon="103.343725"><ele>2034</ele><time>2026-05-11T21:42:38.000Z</time></trkpt>
        <trkpt lat="29.558896" lon="103.343804"><ele>2036</ele><time>2026-05-11T21:42:51.000Z</time></trkpt>
        <trkpt lat="29.558905" lon="103.343859"><ele>2036</ele><time>2026-05-11T21:42:57.000Z</time></trkpt>
        <trkpt lat="29.558902" lon="103.343896"><ele>2037</ele><time>2026-05-11T21:43:01.000Z</time></trkpt>
        <trkpt lat="29.558901" lon="103.343916"><ele>2037</ele><time>2026-05-11T21:43:03.000Z</time></trkpt>
        <trkpt lat="29.558901" lon="103.343932"><ele>2038</ele><time>2026-05-11T21:43:05.000Z</time></trkpt>
        <trkpt lat="29.558897" lon="103.343954"><ele>2038</ele><time>2026-05-11T21:43:07.000Z</time></trkpt>
        <trkpt lat="29.558906" lon="103.343988"><ele>2038</ele><time>2026-05-11T21:43:11.000Z</time></trkpt>
        <trkpt lat="29.558911" lon="103.344014"><ele>2037</ele><time>2026-05-11T21:43:14.000Z</time></trkpt>
        <trkpt lat="29.558915" lon="103.344044"><ele>2037</ele><time>2026-05-11T21:43:17.000Z</time></trkpt>
        <trkpt lat="29.55893" lon="103.344095"><ele>2038</ele><time>2026-05-11T21:43:25.000Z</time></trkpt>
        <trkpt lat="29.558937" lon="103.344106"><ele>2038</ele><time>2026-05-11T21:43:28.000Z</time></trkpt>
        <trkpt lat="29.55886" lon="103.344063"><ele>2039</ele><time>2026-05-11T21:43:53.000Z</time></trkpt>
        <trkpt lat="29.558859" lon="103.344103"><ele>2039</ele><time>2026-05-11T21:44:08.000Z</time></trkpt>
        <trkpt lat="29.558849" lon="103.344154"><ele>2039</ele><time>2026-05-11T21:44:18.000Z</time></trkpt>
        <trkpt lat="29.558859" lon="103.344257"><ele>2043</ele><time>2026-05-11T21:44:51.000Z</time></trkpt>
        <trkpt lat="29.558785" lon="103.3443"><ele>2051</ele><time>2026-05-11T21:45:30.000Z</time></trkpt>
        <trkpt lat="29.558804" lon="103.344252"><ele>2053</ele><time>2026-05-11T21:45:36.000Z</time></trkpt>
        <trkpt lat="29.558802" lon="103.344227"><ele>2053</ele><time>2026-05-11T21:45:43.000Z</time></trkpt>
        <trkpt lat="29.558798" lon="103.344223"><ele>2052</ele><time>2026-05-11T21:45:54.000Z</time></trkpt>
        <trkpt lat="29.558786" lon="103.344215"><ele>2051</ele><time>2026-05-11T21:46:22.000Z</time></trkpt>
        <trkpt lat="29.55878" lon="103.344212"><ele>2051</ele><time>2026-05-11T21:46:24.000Z</time></trkpt>
        <trkpt lat="29.558766" lon="103.344211"><ele>2053</ele><time>2026-05-11T21:46:40.000Z</time></trkpt>
        <trkpt lat="29.558762" lon="103.344214"><ele>2053</ele><time>2026-05-11T21:47:08.000Z</time></trkpt>
        <trkpt lat="29.558762" lon="103.344214"><ele>2053</ele><time>2026-05-11T21:47:09.000Z</time></trkpt>
        <trkpt lat="29.558716" lon="103.344211"><ele>2055</ele><time>2026-05-11T21:47:26.000Z</time></trkpt>
        <trkpt lat="29.558705" lon="103.344207"><ele>2055</ele><time>2026-05-11T21:47:28.000Z</time></trkpt>
        <trkpt lat="29.558646" lon="103.344176"><ele>2056</ele><time>2026-05-11T21:47:42.000Z</time></trkpt>
        <trkpt lat="29.558586" lon="103.344144"><ele>2057</ele><time>2026-05-11T21:47:55.000Z</time></trkpt>
        <trkpt lat="29.558578" lon="103.344136"><ele>2057</ele><time>2026-05-11T21:47:58.000Z</time></trkpt>
        <trkpt lat="29.558572" lon="103.344132"><ele>2056</ele><time>2026-05-11T21:48:00.000Z</time></trkpt>
        <trkpt lat="29.558568" lon="103.344131"><ele>2057</ele><time>2026-05-11T21:48:01.000Z</time></trkpt>
        <trkpt lat="29.558564" lon="103.344131"><ele>2056</ele><time>2026-05-11T21:48:02.000Z</time></trkpt>
        <trkpt lat="29.558544" lon="103.344128"><ele>2058</ele><time>2026-05-11T21:48:08.000Z</time></trkpt>
        <trkpt lat="29.558542" lon="103.344129"><ele>2058</ele><time>2026-05-11T21:48:09.000Z</time></trkpt>
        <trkpt lat="29.558532" lon="103.344127"><ele>2060</ele><time>2026-05-11T21:48:14.000Z</time></trkpt>
        <trkpt lat="29.558515" lon="103.344122"><ele>2061</ele><time>2026-05-11T21:48:18.000Z</time></trkpt>
        <trkpt lat="29.558501" lon="103.344123"><ele>2061</ele><time>2026-05-11T21:48:23.000Z</time></trkpt>
        <trkpt lat="29.558484" lon="103.344123"><ele>2061</ele><time>2026-05-11T21:48:28.000Z</time></trkpt>
        <trkpt lat="29.558471" lon="103.344115"><ele>2062</ele><time>2026-05-11T21:48:36.000Z</time></trkpt>
        <trkpt lat="29.558468" lon="103.344084"><ele>2062</ele><time>2026-05-11T21:48:44.000Z</time></trkpt>
        <trkpt lat="29.55848" lon="103.344049"><ele>2062</ele><time>2026-05-11T21:48:48.000Z</time></trkpt>
        <trkpt lat="29.558485" lon="103.344029"><ele>2063</ele><time>2026-05-11T21:48:50.000Z</time></trkpt>
        <trkpt lat="29.558495" lon="103.343994"><ele>2064</ele><time>2026-05-11T21:48:54.000Z</time></trkpt>
        <trkpt lat="29.558499" lon="103.343976"><ele>2064</ele><time>2026-05-11T21:48:58.000Z</time></trkpt>
        <trkpt lat="29.558499" lon="103.343973"><ele>2064</ele><time>2026-05-11T21:49:12.000Z</time></trkpt>
        <trkpt lat="29.558497" lon="103.343981"><ele>2064</ele><time>2026-05-11T21:49:14.000Z</time></trkpt>
        <trkpt lat="29.558483" lon="103.344029"><ele>2065</ele><time>2026-05-11T21:49:20.000Z</time></trkpt>
        <trkpt lat="29.558473" lon="103.344049"><ele>2064</ele><time>2026-05-11T21:49:22.000Z</time></trkpt>
        <trkpt lat="29.558456" lon="103.344079"><ele>2064</ele><time>2026-05-11T21:49:27.000Z</time></trkpt>
        <trkpt lat="29.558455" lon="103.344083"><ele>2064</ele><time>2026-05-11T21:49:28.000Z</time></trkpt>
        <trkpt lat="29.558445" lon="103.344101"><ele>2063</ele><time>2026-05-11T21:49:33.000Z</time></trkpt>
        <trkpt lat="29.558437" lon="103.344097"><ele>2063</ele><time>2026-05-11T21:49:37.000Z</time></trkpt>
        <trkpt lat="29.558427" lon="103.344092"><ele>2065</ele><time>2026-05-11T21:49:43.000Z</time></trkpt>
        <trkpt lat="29.558365" lon="103.344086"><ele>2065</ele><time>2026-05-11T21:49:53.000Z</time></trkpt>
        <trkpt lat="29.558356" lon="103.344085"><ele>2065</ele><time>2026-05-11T21:49:54.000Z</time></trkpt>
        <trkpt lat="29.558347" lon="103.344084"><ele>2065</ele><time>2026-05-11T21:49:55.000Z</time></trkpt>
        <trkpt lat="29.558293" lon="103.344074"><ele>2067</ele><time>2026-05-11T21:50:07.000Z</time></trkpt>
        <trkpt lat="29.558289" lon="103.344073"><ele>2067</ele><time>2026-05-11T21:50:08.000Z</time></trkpt>
        <trkpt lat="29.558284" lon="103.344072"><ele>2067</ele><time>2026-05-11T21:50:09.000Z</time></trkpt>
        <trkpt lat="29.55828" lon="103.344072"><ele>2067</ele><time>2026-05-11T21:50:10.000Z</time></trkpt>
        <trkpt lat="29.558275" lon="103.344071"><ele>2067</ele><time>2026-05-11T21:50:11.000Z</time></trkpt>
        <trkpt lat="29.558267" lon="103.344068"><ele>2067</ele><time>2026-05-11T21:50:13.000Z</time></trkpt>
        <trkpt lat="29.558262" lon="103.344067"><ele>2067</ele><time>2026-05-11T21:50:14.000Z</time></trkpt>
        <trkpt lat="29.558254" lon="103.344066"><ele>2067</ele><time>2026-05-11T21:50:16.000Z</time></trkpt>
        <trkpt lat="29.558242" lon="103.344063"><ele>2068</ele><time>2026-05-11T21:50:20.000Z</time></trkpt>
        <trkpt lat="29.558239" lon="103.344063"><ele>2068</ele><time>2026-05-11T21:50:21.000Z</time></trkpt>
        <trkpt lat="29.558197" lon="103.344067"><ele>2066</ele><time>2026-05-11T21:50:25.000Z</time></trkpt>
        <trkpt lat="29.558187" lon="103.344052"><ele>2066</ele><time>2026-05-11T21:50:26.000Z</time></trkpt>
        <trkpt lat="29.558156" lon="103.34403"><ele>2065</ele><time>2026-05-11T21:50:27.000Z</time></trkpt>
        <trkpt lat="29.558108" lon="103.344008"><ele>2065</ele><time>2026-05-11T21:50:29.000Z</time></trkpt>
        <trkpt lat="29.558071" lon="103.343986"><ele>2065</ele><time>2026-05-11T21:50:36.000Z</time></trkpt>
        <trkpt lat="29.558054" lon="103.34398"><ele>2065</ele><time>2026-05-11T21:50:39.000Z</time></trkpt>
        <trkpt lat="29.55803" lon="103.343977"><ele>2065</ele><time>2026-05-11T21:50:42.000Z</time></trkpt>
        <trkpt lat="29.558014" lon="103.343979"><ele>2065</ele><time>2026-05-11T21:50:44.000Z</time></trkpt>
        <trkpt lat="29.557982" lon="103.343978"><ele>2065</ele><time>2026-05-11T21:50:47.000Z</time></trkpt>
        <trkpt lat="29.557957" lon="103.343971"><ele>2065</ele><time>2026-05-11T21:50:49.000Z</time></trkpt>
        <trkpt lat="29.557945" lon="103.343968"><ele>2065</ele><time>2026-05-11T21:50:50.000Z</time></trkpt>
        <trkpt lat="29.557932" lon="103.343968"><ele>2065</ele><time>2026-05-11T21:50:52.000Z</time></trkpt>
        <trkpt lat="29.557932" lon="103.343941"><ele>2066</ele><time>2026-05-11T21:50:57.000Z</time></trkpt>
        <trkpt lat="29.557936" lon="103.343903"><ele>2066</ele><time>2026-05-11T21:51:05.000Z</time></trkpt>
        <trkpt lat="29.557865" lon="103.343952"><ele>2068</ele><time>2026-05-11T21:51:15.000Z</time></trkpt>
        <trkpt lat="29.557807" lon="103.343989"><ele>2069</ele><time>2026-05-11T21:51:31.000Z</time></trkpt>
        <trkpt lat="29.557789" lon="103.344001"><ele>2070</ele><time>2026-05-11T21:51:35.000Z</time></trkpt>
        <trkpt lat="29.557673" lon="103.343963"><ele>2068</ele><time>2026-05-11T21:51:43.000Z</time></trkpt>
        <trkpt lat="29.557665" lon="103.343959"><ele>2070</ele><time>2026-05-11T21:51:44.000Z</time></trkpt>
        <trkpt lat="29.557624" lon="103.344018"><ele>2072</ele><time>2026-05-11T21:51:49.000Z</time></trkpt>
        <trkpt lat="29.557628" lon="103.344018"><ele>2072</ele><time>2026-05-11T21:51:52.000Z</time></trkpt>
        <trkpt lat="29.557618" lon="103.344019"><ele>2070</ele><time>2026-05-11T21:51:57.000Z</time></trkpt>
        <trkpt lat="29.557602" lon="103.343964"><ele>2070</ele><time>2026-05-11T21:52:23.000Z</time></trkpt>
        <trkpt lat="29.557557" lon="103.343835"><ele>2066</ele><time>2026-05-11T21:52:39.000Z</time></trkpt>
        <trkpt lat="29.557545" lon="103.343809"><ele>2066</ele><time>2026-05-11T21:52:41.000Z</time></trkpt>
        <trkpt lat="29.557542" lon="103.343786"><ele>2065</ele><time>2026-05-11T21:52:43.000Z</time></trkpt>
        <trkpt lat="29.557541" lon="103.343736"><ele>2065</ele><time>2026-05-11T21:52:48.000Z</time></trkpt>
        <trkpt lat="29.557546" lon="103.343674"><ele>2066</ele><time>2026-05-11T21:52:55.000Z</time></trkpt>
        <trkpt lat="29.557547" lon="103.343668"><ele>2067</ele><time>2026-05-11T21:52:57.000Z</time></trkpt>
        <trkpt lat="29.557468" lon="103.343693"><ele>2068</ele><time>2026-05-11T21:53:11.000Z</time></trkpt>
        <trkpt lat="29.557451" lon="103.343686"><ele>2068</ele><time>2026-05-11T21:53:14.000Z</time></trkpt>
        <trkpt lat="29.557441" lon="103.34367"><ele>2067</ele><time>2026-05-11T21:53:18.000Z</time></trkpt>
        <trkpt lat="29.557316" lon="103.343655"><ele>2067</ele><time>2026-05-11T21:53:33.000Z</time></trkpt>
        <trkpt lat="29.557307" lon="103.343635"><ele>2066</ele><time>2026-05-11T21:53:41.000Z</time></trkpt>
        <trkpt lat="29.557296" lon="103.343634"><ele>2066</ele><time>2026-05-11T21:53:57.000Z</time></trkpt>
        <trkpt lat="29.557267" lon="103.343628"><ele>2065</ele><time>2026-05-11T21:54:10.000Z</time></trkpt>
        <trkpt lat="29.55726" lon="103.343624"><ele>2065</ele><time>2026-05-11T21:54:15.000Z</time></trkpt>
        <trkpt lat="29.557249" lon="103.343614"><ele>2066</ele><time>2026-05-11T21:54:21.000Z</time></trkpt>
        <trkpt lat="29.557238" lon="103.343598"><ele>2065</ele><time>2026-05-11T21:54:32.000Z</time></trkpt>
        <trkpt lat="29.557211" lon="103.34359"><ele>2066</ele><time>2026-05-11T21:54:47.000Z</time></trkpt>
        <trkpt lat="29.557182" lon="103.343587"><ele>2067</ele><time>2026-05-11T21:54:57.000Z</time></trkpt>
        <trkpt lat="29.557122" lon="103.343597"><ele>2071</ele><time>2026-05-11T21:55:23.000Z</time></trkpt>
        <trkpt lat="29.557074" lon="103.343643"><ele>2082</ele><time>2026-05-11T21:55:45.000Z</time></trkpt>
        <trkpt lat="29.55707" lon="103.343646"><ele>2083</ele><time>2026-05-11T21:55:47.000Z</time></trkpt>
        <trkpt lat="29.55704" lon="103.343654"><ele>2087</ele><time>2026-05-11T21:55:58.000Z</time></trkpt>
        <trkpt lat="29.557035" lon="103.343655"><ele>2087</ele><time>2026-05-11T21:56:03.000Z</time></trkpt>
        <trkpt lat="29.557024" lon="103.343652"><ele>2090</ele><time>2026-05-11T21:56:10.000Z</time></trkpt>
        <trkpt lat="29.557022" lon="103.343653"><ele>2090</ele><time>2026-05-11T21:56:11.000Z</time></trkpt>
        <trkpt lat="29.557018" lon="103.343655"><ele>2090</ele><time>2026-05-11T21:56:12.000Z</time></trkpt>
        <trkpt lat="29.557015" lon="103.343657"><ele>2090</ele><time>2026-05-11T21:56:13.000Z</time></trkpt>
        <trkpt lat="29.557012" lon="103.343659"><ele>2090</ele><time>2026-05-11T21:56:14.000Z</time></trkpt>
        <trkpt lat="29.556987" lon="103.343665"><ele>2089</ele><time>2026-05-11T21:56:18.000Z</time></trkpt>
        <trkpt lat="29.556887" lon="103.34374"><ele>2093</ele><time>2026-05-11T21:56:38.000Z</time></trkpt>
        <trkpt lat="29.556878" lon="103.343748"><ele>2094</ele><time>2026-05-11T21:56:41.000Z</time></trkpt>
        <trkpt lat="29.556876" lon="103.34375"><ele>2094</ele><time>2026-05-11T21:56:42.000Z</time></trkpt>
        <trkpt lat="29.556862" lon="103.343754"><ele>2094</ele><time>2026-05-11T21:56:45.000Z</time></trkpt>
        <trkpt lat="29.55686" lon="103.34375"><ele>2094</ele><time>2026-05-11T21:56:47.000Z</time></trkpt>
        <trkpt lat="29.556856" lon="103.343749"><ele>2094</ele><time>2026-05-11T21:56:48.000Z</time></trkpt>
        <trkpt lat="29.556824" lon="103.343753"><ele>2094</ele><time>2026-05-11T21:56:52.000Z</time></trkpt>
        <trkpt lat="29.556803" lon="103.343743"><ele>2095</ele><time>2026-05-11T21:56:56.000Z</time></trkpt>
        <trkpt lat="29.556693" lon="103.343725"><ele>2096</ele><time>2026-05-11T21:57:37.000Z</time></trkpt>
        <trkpt lat="29.556622" lon="103.343783"><ele>2102</ele><time>2026-05-11T21:58:04.000Z</time></trkpt>
        <trkpt lat="29.556617" lon="103.343792"><ele>2107</ele><time>2026-05-11T21:58:10.000Z</time></trkpt>
        <trkpt lat="29.556566" lon="103.343965"><ele>2120</ele><time>2026-05-11T21:59:21.000Z</time></trkpt>
        <trkpt lat="29.556521" lon="103.344047"><ele>2121</ele><time>2026-05-11T21:59:50.000Z</time></trkpt>
        <trkpt lat="29.556449" lon="103.344138"><ele>2128</ele><time>2026-05-11T22:00:33.000Z</time></trkpt>
        <trkpt lat="29.556439" lon="103.344156"><ele>2128</ele><time>2026-05-11T22:00:37.000Z</time></trkpt>
        <trkpt lat="29.55642" lon="103.344174"><ele>2128</ele><time>2026-05-11T22:00:41.000Z</time></trkpt>
        <trkpt lat="29.556274" lon="103.344274"><ele>2132</ele><time>2026-05-11T22:01:27.000Z</time></trkpt>
        <trkpt lat="29.556278" lon="103.344309"><ele>2133</ele><time>2026-05-11T22:01:35.000Z</time></trkpt>
        <trkpt lat="29.55614" lon="103.344445"><ele>2139</ele><time>2026-05-11T22:02:15.000Z</time></trkpt>
        <trkpt lat="29.556098" lon="103.344529"><ele>2142</ele><time>2026-05-11T22:02:34.000Z</time></trkpt>
        <trkpt lat="29.556021" lon="103.344612"><ele>2149</ele><time>2026-05-11T22:03:06.000Z</time></trkpt>
        <trkpt lat="29.555953" lon="103.344788"><ele>2160</ele><time>2026-05-11T22:04:04.000Z</time></trkpt>
        <trkpt lat="29.5559" lon="103.344899"><ele>2159</ele><time>2026-05-11T22:04:25.000Z</time></trkpt>
        <trkpt lat="29.555892" lon="103.344912"><ele>2158</ele><time>2026-05-11T22:04:28.000Z</time></trkpt>
        <trkpt lat="29.555851" lon="103.344923"><ele>2156</ele><time>2026-05-11T22:04:37.000Z</time></trkpt>
        <trkpt lat="29.555821" lon="103.344936"><ele>2156</ele><time>2026-05-11T22:04:42.000Z</time></trkpt>
        <trkpt lat="29.55579" lon="103.344953"><ele>2158</ele><time>2026-05-11T22:04:46.000Z</time></trkpt>
        <trkpt lat="29.555724" lon="103.344969"><ele>2167</ele><time>2026-05-11T22:05:10.000Z</time></trkpt>
        <trkpt lat="29.555679" lon="103.344954"><ele>2169</ele><time>2026-05-11T22:05:25.000Z</time></trkpt>
        <trkpt lat="29.555592" lon="103.344902"><ele>2169</ele><time>2026-05-11T22:05:47.000Z</time></trkpt>
        <trkpt lat="29.555567" lon="103.344985"><ele>2176</ele><time>2026-05-11T22:06:14.000Z</time></trkpt>
        <trkpt lat="29.555529" lon="103.345057"><ele>2185</ele><time>2026-05-11T22:06:43.000Z</time></trkpt>
        <trkpt lat="29.55551" lon="103.345073"><ele>2186</ele><time>2026-05-11T22:06:56.000Z</time></trkpt>
        <trkpt lat="29.555406" lon="103.345106"><ele>2186</ele><time>2026-05-11T22:07:38.000Z</time></trkpt>
        <trkpt lat="29.555389" lon="103.345084"><ele>2188</ele><time>2026-05-11T22:07:47.000Z</time></trkpt>
        <trkpt lat="29.555384" lon="103.345087"><ele>2188</ele><time>2026-05-11T22:07:48.000Z</time></trkpt>
        <trkpt lat="29.555362" lon="103.345058"><ele>2189</ele><time>2026-05-11T22:07:54.000Z</time></trkpt>
        <trkpt lat="29.555308" lon="103.344971"><ele>2191</ele><time>2026-05-11T22:08:10.000Z</time></trkpt>
        <trkpt lat="29.555186" lon="103.345086"><ele>2196</ele><time>2026-05-11T22:08:47.000Z</time></trkpt>
        <trkpt lat="29.555148" lon="103.345105"><ele>2196</ele><time>2026-05-11T22:08:54.000Z</time></trkpt>
        <trkpt lat="29.555104" lon="103.345125"><ele>2198</ele><time>2026-05-11T22:09:04.000Z</time></trkpt>
        <trkpt lat="29.55499" lon="103.345157"><ele>2201</ele><time>2026-05-11T22:09:21.000Z</time></trkpt>
        <trkpt lat="29.554823" lon="103.345232"><ele>2204</ele><time>2026-05-11T22:09:48.000Z</time></trkpt>
        <trkpt lat="29.554818" lon="103.345238"><ele>2205</ele><time>2026-05-11T22:09:51.000Z</time></trkpt>
        <trkpt lat="29.55481" lon="103.345248"><ele>2206</ele><time>2026-05-11T22:09:58.000Z</time></trkpt>
        <trkpt lat="29.554795" lon="103.345267"><ele>2208</ele><time>2026-05-11T22:10:06.000Z</time></trkpt>
        <trkpt lat="29.554775" lon="103.345285"><ele>2209</ele><time>2026-05-11T22:10:14.000Z</time></trkpt>
        <trkpt lat="29.554629" lon="103.345343"><ele>2222</ele><time>2026-05-11T22:11:17.000Z</time></trkpt>
        <trkpt lat="29.554506" lon="103.345394"><ele>2223</ele><time>2026-05-11T22:11:50.000Z</time></trkpt>
        <trkpt lat="29.554497" lon="103.345396"><ele>2223</ele><time>2026-05-11T22:11:54.000Z</time></trkpt>
        <trkpt lat="29.554452" lon="103.345394"><ele>2226</ele><time>2026-05-11T22:12:20.000Z</time></trkpt>
        <trkpt lat="29.554458" lon="103.345371"><ele>2231</ele><time>2026-05-11T22:12:33.000Z</time></trkpt>
        <trkpt lat="29.55446" lon="103.345365"><ele>2232</ele><time>2026-05-11T22:12:43.000Z</time></trkpt>
        <trkpt lat="29.554458" lon="103.345366"><ele>2232</ele><time>2026-05-11T22:12:50.000Z</time></trkpt>
        <trkpt lat="29.554409" lon="103.345382"><ele>2233</ele><time>2026-05-11T22:12:59.000Z</time></trkpt>
        <trkpt lat="29.554402" lon="103.345388"><ele>2234</ele><time>2026-05-11T22:13:00.000Z</time></trkpt>
        <trkpt lat="29.554396" lon="103.345389"><ele>2234</ele><time>2026-05-11T22:13:01.000Z</time></trkpt>
        <trkpt lat="29.55438" lon="103.345398"><ele>2234</ele><time>2026-05-11T22:13:04.000Z</time></trkpt>
        <trkpt lat="29.554322" lon="103.345426"><ele>2235</ele><time>2026-05-11T22:13:17.000Z</time></trkpt>
        <trkpt lat="29.554276" lon="103.345446"><ele>2235</ele><time>2026-05-11T22:13:24.000Z</time></trkpt>
        <trkpt lat="29.554255" lon="103.345459"><ele>2236</ele><time>2026-05-11T22:13:30.000Z</time></trkpt>
        <trkpt lat="29.554249" lon="103.345462"><ele>2236</ele><time>2026-05-11T22:13:31.000Z</time></trkpt>
        <trkpt lat="29.554225" lon="103.345456"><ele>2237</ele><time>2026-05-11T22:13:36.000Z</time></trkpt>
        <trkpt lat="29.554222" lon="103.345456"><ele>2237</ele><time>2026-05-11T22:13:37.000Z</time></trkpt>
        <trkpt lat="29.554193" lon="103.345451"><ele>2237</ele><time>2026-05-11T22:13:42.000Z</time></trkpt>
        <trkpt lat="29.554197" lon="103.345443"><ele>2238</ele><time>2026-05-11T22:13:44.000Z</time></trkpt>
        <trkpt lat="29.554198" lon="103.345444"><ele>2239</ele><time>2026-05-11T22:13:46.000Z</time></trkpt>
        <trkpt lat="29.554195" lon="103.34544"><ele>2240</ele><time>2026-05-11T22:13:48.000Z</time></trkpt>
        <trkpt lat="29.554189" lon="103.345449"><ele>2241</ele><time>2026-05-11T22:13:53.000Z</time></trkpt>
        <trkpt lat="29.554192" lon="103.345447"><ele>2242</ele><time>2026-05-11T22:13:55.000Z</time></trkpt>
        <trkpt lat="29.554195" lon="103.345436"><ele>2243</ele><time>2026-05-11T22:13:57.000Z</time></trkpt>
        <trkpt lat="29.55419" lon="103.345436"><ele>2244</ele><time>2026-05-11T22:13:58.000Z</time></trkpt>
        <trkpt lat="29.554187" lon="103.345433"><ele>2244</ele><time>2026-05-11T22:13:59.000Z</time></trkpt>
        <trkpt lat="29.554176" lon="103.345435"><ele>2245</ele><time>2026-05-11T22:14:02.000Z</time></trkpt>
        <trkpt lat="29.55417" lon="103.345432"><ele>2246</ele><time>2026-05-11T22:14:05.000Z</time></trkpt>
        <trkpt lat="29.554168" lon="103.345429"><ele>2246</ele><time>2026-05-11T22:14:06.000Z</time></trkpt>
        <trkpt lat="29.554167" lon="103.34543"><ele>2246</ele><time>2026-05-11T22:14:07.000Z</time></trkpt>
        <trkpt lat="29.554164" lon="103.345429"><ele>2247</ele><time>2026-05-11T22:14:17.000Z</time></trkpt>
        <trkpt lat="29.554168" lon="103.345429"><ele>2248</ele><time>2026-05-11T22:14:20.000Z</time></trkpt>
        <trkpt lat="29.554149" lon="103.345447"><ele>2248</ele><time>2026-05-11T22:14:26.000Z</time></trkpt>
        <trkpt lat="29.554136" lon="103.345452"><ele>2248</ele><time>2026-05-11T22:14:29.000Z</time></trkpt>
        <trkpt lat="29.554131" lon="103.345451"><ele>2248</ele><time>2026-05-11T22:14:31.000Z</time></trkpt>
        <trkpt lat="29.554129" lon="103.345448"><ele>2248</ele><time>2026-05-11T22:14:32.000Z</time></trkpt>
        <trkpt lat="29.554126" lon="103.345447"><ele>2249</ele><time>2026-05-11T22:14:33.000Z</time></trkpt>
        <trkpt lat="29.554121" lon="103.345447"><ele>2249</ele><time>2026-05-11T22:14:34.000Z</time></trkpt>
        <trkpt lat="29.553932" lon="103.345415"><ele>2253</ele><time>2026-05-11T22:15:05.000Z</time></trkpt>
        <trkpt lat="29.55389" lon="103.345402"><ele>2252</ele><time>2026-05-11T22:15:11.000Z</time></trkpt>
        <trkpt lat="29.55374" lon="103.34532"><ele>2256</ele><time>2026-05-11T22:15:52.000Z</time></trkpt>
        <trkpt lat="29.553565" lon="103.345336"><ele>2263</ele><time>2026-05-11T22:16:27.000Z</time></trkpt>
        <trkpt lat="29.553506" lon="103.345344"><ele>2262</ele><time>2026-05-11T22:16:34.000Z</time></trkpt>
        <trkpt lat="29.55347" lon="103.345333"><ele>2262</ele><time>2026-05-11T22:16:43.000Z</time></trkpt>
        <trkpt lat="29.553432" lon="103.345338"><ele>2263</ele><time>2026-05-11T22:16:50.000Z</time></trkpt>
        <trkpt lat="29.553399" lon="103.345333"><ele>2266</ele><time>2026-05-11T22:17:02.000Z</time></trkpt>
        <trkpt lat="29.553383" lon="103.345337"><ele>2267</ele><time>2026-05-11T22:17:08.000Z</time></trkpt>
        <trkpt lat="29.553196" lon="103.345369"><ele>2268</ele><time>2026-05-11T22:17:33.000Z</time></trkpt>
        <trkpt lat="29.553101" lon="103.345365"><ele>2268</ele><time>2026-05-11T22:17:45.000Z</time></trkpt>
        <trkpt lat="29.553075" lon="103.345373"><ele>2268</ele><time>2026-05-11T22:17:49.000Z</time></trkpt>
        <trkpt lat="29.553052" lon="103.345376"><ele>2268</ele><time>2026-05-11T22:17:52.000Z</time></trkpt>
        <trkpt lat="29.553041" lon="103.345384"><ele>2269</ele><time>2026-05-11T22:17:54.000Z</time></trkpt>
        <trkpt lat="29.552865" lon="103.345396"><ele>2273</ele><time>2026-05-11T22:18:14.000Z</time></trkpt>
        <trkpt lat="29.552675" lon="103.345395"><ele>2276</ele><time>2026-05-11T22:18:30.000Z</time></trkpt>
        <trkpt lat="29.552601" lon="103.345418"><ele>2279</ele><time>2026-05-11T22:18:40.000Z</time></trkpt>
        <trkpt lat="29.552593" lon="103.345415"><ele>2279</ele><time>2026-05-11T22:18:42.000Z</time></trkpt>
        <trkpt lat="29.552584" lon="103.345413"><ele>2279</ele><time>2026-05-11T22:18:44.000Z</time></trkpt>
        <trkpt lat="29.552569" lon="103.345407"><ele>2279</ele><time>2026-05-11T22:18:46.000Z</time></trkpt>
        <trkpt lat="29.552551" lon="103.345405"><ele>2280</ele><time>2026-05-11T22:18:49.000Z</time></trkpt>
        <trkpt lat="29.552499" lon="103.345403"><ele>2282</ele><time>2026-05-11T22:18:55.000Z</time></trkpt>
        <trkpt lat="29.552486" lon="103.345398"><ele>2282</ele><time>2026-05-11T22:18:57.000Z</time></trkpt>
        <trkpt lat="29.552433" lon="103.345312"><ele>2283</ele><time>2026-05-11T22:19:09.000Z</time></trkpt>
        <trkpt lat="29.552417" lon="103.345256"><ele>2280</ele><time>2026-05-11T22:19:18.000Z</time></trkpt>
        <trkpt lat="29.552384" lon="103.345232"><ele>2278</ele><time>2026-05-11T22:19:27.000Z</time></trkpt>
        <trkpt lat="29.552382" lon="103.345225"><ele>2278</ele><time>2026-05-11T22:19:28.000Z</time></trkpt>
        <trkpt lat="29.552376" lon="103.345214"><ele>2278</ele><time>2026-05-11T22:19:31.000Z</time></trkpt>
        <trkpt lat="29.552358" lon="103.345188"><ele>2278</ele><time>2026-05-11T22:19:36.000Z</time></trkpt>
        <trkpt lat="29.552344" lon="103.345172"><ele>2278</ele><time>2026-05-11T22:19:39.000Z</time></trkpt>
        <trkpt lat="29.552183" lon="103.345071"><ele>2276</ele><time>2026-05-11T22:20:03.000Z</time></trkpt>
        <trkpt lat="29.552167" lon="103.345056"><ele>2276</ele><time>2026-05-11T22:20:06.000Z</time></trkpt>
        <trkpt lat="29.552126" lon="103.345047"><ele>2275</ele><time>2026-05-11T22:20:10.000Z</time></trkpt>
        <trkpt lat="29.552107" lon="103.345036"><ele>2275</ele><time>2026-05-11T22:20:12.000Z</time></trkpt>
        <trkpt lat="29.552037" lon="103.344957"><ele>2278</ele><time>2026-05-11T22:20:24.000Z</time></trkpt>
        <trkpt lat="29.551984" lon="103.344884"><ele>2276</ele><time>2026-05-11T22:20:33.000Z</time></trkpt>
        <trkpt lat="29.551931" lon="103.344828"><ele>2275</ele><time>2026-05-11T22:20:40.000Z</time></trkpt>
        <trkpt lat="29.551806" lon="103.344671"><ele>2273</ele><time>2026-05-11T22:20:59.000Z</time></trkpt>
        <trkpt lat="29.551775" lon="103.344622"><ele>2273</ele><time>2026-05-11T22:21:04.000Z</time></trkpt>
        <trkpt lat="29.551689" lon="103.344434"><ele>2271</ele><time>2026-05-11T22:21:25.000Z</time></trkpt>
        <trkpt lat="29.551684" lon="103.344412"><ele>2272</ele><time>2026-05-11T22:21:27.000Z</time></trkpt>
        <trkpt lat="29.551676" lon="103.344405"><ele>2271</ele><time>2026-05-11T22:21:29.000Z</time></trkpt>
        <trkpt lat="29.551664" lon="103.344354"><ele>2271</ele><time>2026-05-11T22:21:35.000Z</time></trkpt>
        <trkpt lat="29.55165" lon="103.344313"><ele>2272</ele><time>2026-05-11T22:21:41.000Z</time></trkpt>
        <trkpt lat="29.551577" lon="103.344265"><ele>2268</ele><time>2026-05-11T22:21:53.000Z</time></trkpt>
        <trkpt lat="29.551405" lon="103.344199"><ele>2265</ele><time>2026-05-11T22:22:17.000Z</time></trkpt>
        <trkpt lat="29.551336" lon="103.344187"><ele>2263</ele><time>2026-05-11T22:22:24.000Z</time></trkpt>
        <trkpt lat="29.551249" lon="103.34419"><ele>2263</ele><time>2026-05-11T22:22:32.000Z</time></trkpt>
        <trkpt lat="29.551238" lon="103.34419"><ele>2263</ele><time>2026-05-11T22:22:33.000Z</time></trkpt>
        <trkpt lat="29.55108" lon="103.344141"><ele>2263</ele><time>2026-05-11T22:22:49.000Z</time></trkpt>
        <trkpt lat="29.551006" lon="103.34413"><ele>2262</ele><time>2026-05-11T22:22:56.000Z</time></trkpt>
        <trkpt lat="29.55095" lon="103.344128"><ele>2262</ele><time>2026-05-11T22:23:01.000Z</time></trkpt>
        <trkpt lat="29.550846" lon="103.344072"><ele>2262</ele><time>2026-05-11T22:23:12.000Z</time></trkpt>
        <trkpt lat="29.550799" lon="103.344034"><ele>2263</ele><time>2026-05-11T22:23:18.000Z</time></trkpt>
        <trkpt lat="29.550729" lon="103.343944"><ele>2266</ele><time>2026-05-11T22:23:31.000Z</time></trkpt>
        <trkpt lat="29.550715" lon="103.343933"><ele>2266</ele><time>2026-05-11T22:23:33.000Z</time></trkpt>
        <trkpt lat="29.550594" lon="103.343826"><ele>2268</ele><time>2026-05-11T22:23:53.000Z</time></trkpt>
        <trkpt lat="29.550496" lon="103.343716"><ele>2268</ele><time>2026-05-11T22:24:05.000Z</time></trkpt>
        <trkpt lat="29.550373" lon="103.343595"><ele>2272</ele><time>2026-05-11T22:24:24.000Z</time></trkpt>
        <trkpt lat="29.550346" lon="103.34355"><ele>2272</ele><time>2026-05-11T22:24:29.000Z</time></trkpt>
        <trkpt lat="29.550333" lon="103.343525"><ele>2273</ele><time>2026-05-11T22:24:31.000Z</time></trkpt>
        <trkpt lat="29.550226" lon="103.343353"><ele>2274</ele><time>2026-05-11T22:24:44.000Z</time></trkpt>
        <trkpt lat="29.550134" lon="103.34321"><ele>2273</ele><time>2026-05-11T22:24:58.000Z</time></trkpt>
        <trkpt lat="29.550086" lon="103.343155"><ele>2273</ele><time>2026-05-11T22:25:06.000Z</time></trkpt>
        <trkpt lat="29.550066" lon="103.343119"><ele>2271</ele><time>2026-05-11T22:25:11.000Z</time></trkpt>
        <trkpt lat="29.549982" lon="103.343011"><ele>2272</ele><time>2026-05-11T22:25:22.000Z</time></trkpt>
        <trkpt lat="29.549926" lon="103.342813"><ele>2275</ele><time>2026-05-11T22:25:40.000Z</time></trkpt>
        <trkpt lat="29.549878" lon="103.342754"><ele>2274</ele><time>2026-05-11T22:25:46.000Z</time></trkpt>
        <trkpt lat="29.549866" lon="103.342731"><ele>2273</ele><time>2026-05-11T22:25:48.000Z</time></trkpt>
        <trkpt lat="29.549805" lon="103.342667"><ele>2272</ele><time>2026-05-11T22:25:57.000Z</time></trkpt>
        <trkpt lat="29.549786" lon="103.342654"><ele>2272</ele><time>2026-05-11T22:25:59.000Z</time></trkpt>
        <trkpt lat="29.549664" lon="103.342502"><ele>2272</ele><time>2026-05-11T22:26:16.000Z</time></trkpt>
        <trkpt lat="29.549625" lon="103.342467"><ele>2272</ele><time>2026-05-11T22:26:20.000Z</time></trkpt>
        <trkpt lat="29.549556" lon="103.342392"><ele>2272</ele><time>2026-05-11T22:26:30.000Z</time></trkpt>
        <trkpt lat="29.549542" lon="103.342373"><ele>2272</ele><time>2026-05-11T22:26:32.000Z</time></trkpt>
        <trkpt lat="29.549496" lon="103.34232"><ele>2275</ele><time>2026-05-11T22:26:38.000Z</time></trkpt>
        <trkpt lat="29.549407" lon="103.342168"><ele>2280</ele><time>2026-05-11T22:26:54.000Z</time></trkpt>
        <trkpt lat="29.549397" lon="103.342147"><ele>2280</ele><time>2026-05-11T22:26:57.000Z</time></trkpt>
        <trkpt lat="29.549386" lon="103.342119"><ele>2278</ele><time>2026-05-11T22:27:00.000Z</time></trkpt>
        <trkpt lat="29.549367" lon="103.34199"><ele>2278</ele><time>2026-05-11T22:27:12.000Z</time></trkpt>
        <trkpt lat="29.549365" lon="103.341981"><ele>2278</ele><time>2026-05-11T22:27:13.000Z</time></trkpt>
        <trkpt lat="29.549357" lon="103.341888"><ele>2277</ele><time>2026-05-11T22:27:22.000Z</time></trkpt>
        <trkpt lat="29.549345" lon="103.341832"><ele>2276</ele><time>2026-05-11T22:27:25.000Z</time></trkpt>
        <trkpt lat="29.54933" lon="103.341759"><ele>2277</ele><time>2026-05-11T22:27:32.000Z</time></trkpt>
        <trkpt lat="29.549301" lon="103.341723"><ele>2276</ele><time>2026-05-11T22:27:37.000Z</time></trkpt>
        <trkpt lat="29.54929" lon="103.341703"><ele>2276</ele><time>2026-05-11T22:27:39.000Z</time></trkpt>
        <trkpt lat="29.549273" lon="103.341586"><ele>2277</ele><time>2026-05-11T22:27:52.000Z</time></trkpt>
        <trkpt lat="29.549276" lon="103.34156"><ele>2277</ele><time>2026-05-11T22:27:54.000Z</time></trkpt>
        <trkpt lat="29.549274" lon="103.341543"><ele>2277</ele><time>2026-05-11T22:27:56.000Z</time></trkpt>
        <trkpt lat="29.549273" lon="103.34151"><ele>2278</ele><time>2026-05-11T22:28:00.000Z</time></trkpt>
        <trkpt lat="29.549259" lon="103.341478"><ele>2277</ele><time>2026-05-11T22:28:06.000Z</time></trkpt>
        <trkpt lat="29.549256" lon="103.341464"><ele>2276</ele><time>2026-05-11T22:28:09.000Z</time></trkpt>
        <trkpt lat="29.549252" lon="103.341433"><ele>2277</ele><time>2026-05-11T22:28:16.000Z</time></trkpt>
        <trkpt lat="29.549213" lon="103.341401"><ele>2278</ele><time>2026-05-11T22:28:30.000Z</time></trkpt>
        <trkpt lat="29.549206" lon="103.341388"><ele>2277</ele><time>2026-05-11T22:28:33.000Z</time></trkpt>
        <trkpt lat="29.549185" lon="103.341381"><ele>2278</ele><time>2026-05-11T22:28:43.000Z</time></trkpt>
        <trkpt lat="29.549184" lon="103.341381"><ele>2278</ele><time>2026-05-11T22:28:44.000Z</time></trkpt>
        <trkpt lat="29.549162" lon="103.341373"><ele>2279</ele><time>2026-05-11T22:28:49.000Z</time></trkpt>
        <trkpt lat="29.549137" lon="103.341346"><ele>2278</ele><time>2026-05-11T22:28:55.000Z</time></trkpt>
        <trkpt lat="29.549133" lon="103.341336"><ele>2278</ele><time>2026-05-11T22:28:57.000Z</time></trkpt>
        <trkpt lat="29.549133" lon="103.341324"><ele>2278</ele><time>2026-05-11T22:28:59.000Z</time></trkpt>
        <trkpt lat="29.549128" lon="103.341297"><ele>2278</ele><time>2026-05-11T22:29:03.000Z</time></trkpt>
        <trkpt lat="29.549127" lon="103.341292"><ele>2278</ele><time>2026-05-11T22:29:04.000Z</time></trkpt>
        <trkpt lat="29.548984" lon="103.34123"><ele>2281</ele><time>2026-05-11T22:29:27.000Z</time></trkpt>
        <trkpt lat="29.54895" lon="103.341221"><ele>2281</ele><time>2026-05-11T22:29:33.000Z</time></trkpt>
        <trkpt lat="29.548893" lon="103.3412"><ele>2290</ele><time>2026-05-11T22:29:49.000Z</time></trkpt>
        <trkpt lat="29.548863" lon="103.341197"><ele>2292</ele><time>2026-05-11T22:29:56.000Z</time></trkpt>
        <trkpt lat="29.548826" lon="103.341188"><ele>2299</ele><time>2026-05-11T22:30:13.000Z</time></trkpt>
        <trkpt lat="29.548829" lon="103.341186"><ele>2301</ele><time>2026-05-11T22:30:15.000Z</time></trkpt>
        <trkpt lat="29.54879" lon="103.341184"><ele>2303</ele><time>2026-05-11T22:30:24.000Z</time></trkpt>
        <trkpt lat="29.548617" lon="103.341231"><ele>2307</ele><time>2026-05-11T22:31:03.000Z</time></trkpt>
        <trkpt lat="29.548582" lon="103.341253"><ele>2312</ele><time>2026-05-11T22:31:19.000Z</time></trkpt>
        <trkpt lat="29.548558" lon="103.341285"><ele>2316</ele><time>2026-05-11T22:31:33.000Z</time></trkpt>
        <trkpt lat="29.548549" lon="103.341287"><ele>2316</ele><time>2026-05-11T22:31:35.000Z</time></trkpt>
        <trkpt lat="29.548514" lon="103.341287"><ele>2316</ele><time>2026-05-11T22:31:47.000Z</time></trkpt>
        <trkpt lat="29.548484" lon="103.341297"><ele>2316</ele><time>2026-05-11T22:31:52.000Z</time></trkpt>
        <trkpt lat="29.548454" lon="103.341271"><ele>2317</ele><time>2026-05-11T22:32:04.000Z</time></trkpt>
        <trkpt lat="29.548308" lon="103.341227"><ele>2314</ele><time>2026-05-11T22:32:34.000Z</time></trkpt>
        <trkpt lat="29.548163" lon="103.341208"><ele>2324</ele><time>2026-05-11T22:33:07.000Z</time></trkpt>
        <trkpt lat="29.54809" lon="103.3412"><ele>2331</ele><time>2026-05-11T22:33:20.000Z</time></trkpt>
        <trkpt lat="29.547988" lon="103.341206"><ele>2337</ele><time>2026-05-11T22:33:32.000Z</time></trkpt>
        <trkpt lat="29.547977" lon="103.341206"><ele>2339</ele><time>2026-05-11T22:33:35.000Z</time></trkpt>
        <trkpt lat="29.547954" lon="103.341197"><ele>2338</ele><time>2026-05-11T22:33:39.000Z</time></trkpt>
        <trkpt lat="29.54793" lon="103.341194"><ele>2337</ele><time>2026-05-11T22:33:41.000Z</time></trkpt>
        <trkpt lat="29.547909" lon="103.34118"><ele>2338</ele><time>2026-05-11T22:33:45.000Z</time></trkpt>
        <trkpt lat="29.547906" lon="103.341166"><ele>2341</ele><time>2026-05-11T22:33:48.000Z</time></trkpt>
        <trkpt lat="29.547885" lon="103.341164"><ele>2341</ele><time>2026-05-11T22:33:50.000Z</time></trkpt>
        <trkpt lat="29.547888" lon="103.341157"><ele>2342</ele><time>2026-05-11T22:33:52.000Z</time></trkpt>
        <trkpt lat="29.547876" lon="103.341155"><ele>2340</ele><time>2026-05-11T22:33:55.000Z</time></trkpt>
        <trkpt lat="29.547845" lon="103.341142"><ele>2338</ele><time>2026-05-11T22:34:00.000Z</time></trkpt>
        <trkpt lat="29.547838" lon="103.341127"><ele>2336</ele><time>2026-05-11T22:34:02.000Z</time></trkpt>
        <trkpt lat="29.54777" lon="103.341114"><ele>2332</ele><time>2026-05-11T22:34:08.000Z</time></trkpt>
        <trkpt lat="29.547689" lon="103.3411"><ele>2330</ele><time>2026-05-11T22:34:16.000Z</time></trkpt>
        <trkpt lat="29.547654" lon="103.341087"><ele>2329</ele><time>2026-05-11T22:34:21.000Z</time></trkpt>
        <trkpt lat="29.54764" lon="103.341084"><ele>2329</ele><time>2026-05-11T22:34:23.000Z</time></trkpt>
        <trkpt lat="29.547626" lon="103.341087"><ele>2329</ele><time>2026-05-11T22:34:26.000Z</time></trkpt>
        <trkpt lat="29.547605" lon="103.341095"><ele>2329</ele><time>2026-05-11T22:34:32.000Z</time></trkpt>
        <trkpt lat="29.5476" lon="103.341097"><ele>2329</ele><time>2026-05-11T22:34:33.000Z</time></trkpt>
        <trkpt lat="29.547595" lon="103.341096"><ele>2329</ele><time>2026-05-11T22:34:35.000Z</time></trkpt>
        <trkpt lat="29.54759" lon="103.341085"><ele>2330</ele><time>2026-05-11T22:34:40.000Z</time></trkpt>
        <trkpt lat="29.547547" lon="103.341079"><ele>2331</ele><time>2026-05-11T22:34:45.000Z</time></trkpt>
        <trkpt lat="29.547541" lon="103.34107"><ele>2330</ele><time>2026-05-11T22:34:48.000Z</time></trkpt>
        <trkpt lat="29.547525" lon="103.341066"><ele>2330</ele><time>2026-05-11T22:34:54.000Z</time></trkpt>
        <trkpt lat="29.547435" lon="103.341061"><ele>2335</ele><time>2026-05-11T22:35:13.000Z</time></trkpt>
        <trkpt lat="29.547423" lon="103.341068"><ele>2338</ele><time>2026-05-11T22:35:15.000Z</time></trkpt>
        <trkpt lat="29.547358" lon="103.340894"><ele>2341</ele><time>2026-05-11T22:35:54.000Z</time></trkpt>
        <trkpt lat="29.547317" lon="103.340811"><ele>2340</ele><time>2026-05-11T22:36:03.000Z</time></trkpt>
        <trkpt lat="29.547297" lon="103.340795"><ele>2339</ele><time>2026-05-11T22:36:04.000Z</time></trkpt>
        <trkpt lat="29.547295" lon="103.34077"><ele>2339</ele><time>2026-05-11T22:36:07.000Z</time></trkpt>
        <trkpt lat="29.547272" lon="103.340746"><ele>2340</ele><time>2026-05-11T22:36:11.000Z</time></trkpt>
        <trkpt lat="29.547228" lon="103.340723"><ele>2341</ele><time>2026-05-11T22:36:14.000Z</time></trkpt>
        <trkpt lat="29.547181" lon="103.340691"><ele>2343</ele><time>2026-05-11T22:36:20.000Z</time></trkpt>
        <trkpt lat="29.547187" lon="103.340632"><ele>2344</ele><time>2026-05-11T22:36:31.000Z</time></trkpt>
        <trkpt lat="29.547199" lon="103.340612"><ele>2344</ele><time>2026-05-11T22:36:35.000Z</time></trkpt>
        <trkpt lat="29.547198" lon="103.340598"><ele>2344</ele><time>2026-05-11T22:36:38.000Z</time></trkpt>
        <trkpt lat="29.547193" lon="103.340567"><ele>2344</ele><time>2026-05-11T22:36:42.000Z</time></trkpt>
        <trkpt lat="29.547172" lon="103.340545"><ele>2345</ele><time>2026-05-11T22:36:45.000Z</time></trkpt>
        <trkpt lat="29.54716" lon="103.34054"><ele>2346</ele><time>2026-05-11T22:36:47.000Z</time></trkpt>
        <trkpt lat="29.547157" lon="103.340537"><ele>2346</ele><time>2026-05-11T22:36:49.000Z</time></trkpt>
        <trkpt lat="29.547145" lon="103.340524"><ele>2346</ele><time>2026-05-11T22:36:53.000Z</time></trkpt>
        <trkpt lat="29.547134" lon="103.340514"><ele>2347</ele><time>2026-05-11T22:36:56.000Z</time></trkpt>
        <trkpt lat="29.547143" lon="103.34047"><ele>2352</ele><time>2026-05-11T22:37:04.000Z</time></trkpt>
        <trkpt lat="29.547125" lon="103.340452"><ele>2352</ele><time>2026-05-11T22:37:08.000Z</time></trkpt>
        <trkpt lat="29.547112" lon="103.340444"><ele>2352</ele><time>2026-05-11T22:37:10.000Z</time></trkpt>
        <trkpt lat="29.547111" lon="103.340432"><ele>2351</ele><time>2026-05-11T22:37:13.000Z</time></trkpt>
        <trkpt lat="29.547105" lon="103.340413"><ele>2352</ele><time>2026-05-11T22:37:17.000Z</time></trkpt>
        <trkpt lat="29.547112" lon="103.340404"><ele>2355</ele><time>2026-05-11T22:37:20.000Z</time></trkpt>
        <trkpt lat="29.547101" lon="103.340383"><ele>2355</ele><time>2026-05-11T22:37:31.000Z</time></trkpt>
        <trkpt lat="29.547087" lon="103.340376"><ele>2355</ele><time>2026-05-11T22:37:34.000Z</time></trkpt>
        <trkpt lat="29.547073" lon="103.340345"><ele>2357</ele><time>2026-05-11T22:37:42.000Z</time></trkpt>
        <trkpt lat="29.547071" lon="103.340338"><ele>2358</ele><time>2026-05-11T22:37:44.000Z</time></trkpt>
        <trkpt lat="29.547062" lon="103.340326"><ele>2359</ele><time>2026-05-11T22:37:46.000Z</time></trkpt>
        <trkpt lat="29.547074" lon="103.340317"><ele>2362</ele><time>2026-05-11T22:37:50.000Z</time></trkpt>
        <trkpt lat="29.547081" lon="103.340303"><ele>2366</ele><time>2026-05-11T22:37:56.000Z</time></trkpt>
        <trkpt lat="29.547096" lon="103.340298"><ele>2371</ele><time>2026-05-11T22:38:01.000Z</time></trkpt>
        <trkpt lat="29.547091" lon="103.340285"><ele>2375</ele><time>2026-05-11T22:38:05.000Z</time></trkpt>
        <trkpt lat="29.547088" lon="103.340282"><ele>2375</ele><time>2026-05-11T22:38:07.000Z</time></trkpt>
        <trkpt lat="29.547104" lon="103.340261"><ele>2378</ele><time>2026-05-11T22:38:14.000Z</time></trkpt>
        <trkpt lat="29.547122" lon="103.340235"><ele>2378</ele><time>2026-05-11T22:38:20.000Z</time></trkpt>
        <trkpt lat="29.547111" lon="103.340222"><ele>2379</ele><time>2026-05-11T22:38:23.000Z</time></trkpt>
        <trkpt lat="29.547098" lon="103.340186"><ele>2378</ele><time>2026-05-11T22:38:27.000Z</time></trkpt>
        <trkpt lat="29.547086" lon="103.34017"><ele>2378</ele><time>2026-05-11T22:38:30.000Z</time></trkpt>
        <trkpt lat="29.547072" lon="103.340159"><ele>2377</ele><time>2026-05-11T22:38:34.000Z</time></trkpt>
        <trkpt lat="29.547065" lon="103.340163"><ele>2374</ele><time>2026-05-11T22:38:37.000Z</time></trkpt>
        <trkpt lat="29.547068" lon="103.340156"><ele>2369</ele><time>2026-05-11T22:38:41.000Z</time></trkpt>
        <trkpt lat="29.547104" lon="103.340074"><ele>2360</ele><time>2026-05-11T22:39:14.000Z</time></trkpt>
        <trkpt lat="29.547074" lon="103.340022"><ele>2361</ele><time>2026-05-11T22:39:21.000Z</time></trkpt>
        <trkpt lat="29.547084" lon="103.340008"><ele>2362</ele><time>2026-05-11T22:39:24.000Z</time></trkpt>
        <trkpt lat="29.547107" lon="103.339995"><ele>2363</ele><time>2026-05-11T22:39:27.000Z</time></trkpt>
        <trkpt lat="29.5471" lon="103.339982"><ele>2364</ele><time>2026-05-11T22:39:31.000Z</time></trkpt>
        <trkpt lat="29.547114" lon="103.339976"><ele>2363</ele><time>2026-05-11T22:39:33.000Z</time></trkpt>
        <trkpt lat="29.547121" lon="103.339971"><ele>2364</ele><time>2026-05-11T22:39:34.000Z</time></trkpt>
        <trkpt lat="29.547122" lon="103.339968"><ele>2364</ele><time>2026-05-11T22:39:35.000Z</time></trkpt>
        <trkpt lat="29.547132" lon="103.339948"><ele>2365</ele><time>2026-05-11T22:39:39.000Z</time></trkpt>
        <trkpt lat="29.547133" lon="103.33994"><ele>2365</ele><time>2026-05-11T22:39:40.000Z</time></trkpt>
        <trkpt lat="29.547131" lon="103.339939"><ele>2366</ele><time>2026-05-11T22:39:41.000Z</time></trkpt>
        <trkpt lat="29.547131" lon="103.339939"><ele>2366</ele><time>2026-05-11T22:39:42.000Z</time></trkpt>
        <trkpt lat="29.547131" lon="103.339938"><ele>2367</ele><time>2026-05-11T22:39:46.000Z</time></trkpt>
        <trkpt lat="29.547144" lon="103.339907"><ele>2373</ele><time>2026-05-11T22:39:55.000Z</time></trkpt>
        <trkpt lat="29.547088" lon="103.33986"><ele>2380</ele><time>2026-05-11T22:40:13.000Z</time></trkpt>
        <trkpt lat="29.54708" lon="103.339845"><ele>2381</ele><time>2026-05-11T22:40:16.000Z</time></trkpt>
        <trkpt lat="29.547084" lon="103.339831"><ele>2382</ele><time>2026-05-11T22:40:20.000Z</time></trkpt>
        <trkpt lat="29.547085" lon="103.339823"><ele>2381</ele><time>2026-05-11T22:40:21.000Z</time></trkpt>
        <trkpt lat="29.547086" lon="103.339815"><ele>2381</ele><time>2026-05-11T22:40:22.000Z</time></trkpt>
        <trkpt lat="29.547073" lon="103.339811"><ele>2382</ele><time>2026-05-11T22:40:23.000Z</time></trkpt>
        <trkpt lat="29.547073" lon="103.339811"><ele>2382</ele><time>2026-05-11T22:40:24.000Z</time></trkpt>
        <trkpt lat="29.547068" lon="103.339807"><ele>2382</ele><time>2026-05-11T22:40:26.000Z</time></trkpt>
        <trkpt lat="29.547072" lon="103.339801"><ele>2383</ele><time>2026-05-11T22:40:27.000Z</time></trkpt>
        <trkpt lat="29.547072" lon="103.339801"><ele>2383</ele><time>2026-05-11T22:40:28.000Z</time></trkpt>
        <trkpt lat="29.547076" lon="103.339789"><ele>2384</ele><time>2026-05-11T22:40:30.000Z</time></trkpt>
        <trkpt lat="29.547077" lon="103.339772"><ele>2384</ele><time>2026-05-11T22:40:33.000Z</time></trkpt>
        <trkpt lat="29.547072" lon="103.339766"><ele>2385</ele><time>2026-05-11T22:40:35.000Z</time></trkpt>
        <trkpt lat="29.54708" lon="103.339756"><ele>2385</ele><time>2026-05-11T22:40:36.000Z</time></trkpt>
        <trkpt lat="29.547077" lon="103.339753"><ele>2385</ele><time>2026-05-11T22:40:37.000Z</time></trkpt>
        <trkpt lat="29.54708" lon="103.339746"><ele>2385</ele><time>2026-05-11T22:40:38.000Z</time></trkpt>
        <trkpt lat="29.547085" lon="103.33974"><ele>2385</ele><time>2026-05-11T22:40:39.000Z</time></trkpt>
        <trkpt lat="29.547074" lon="103.33974"><ele>2386</ele><time>2026-05-11T22:40:40.000Z</time></trkpt>
        <trkpt lat="29.547079" lon="103.339727"><ele>2385</ele><time>2026-05-11T22:40:41.000Z</time></trkpt>
        <trkpt lat="29.54705" lon="103.339715"><ele>2384</ele><time>2026-05-11T22:40:47.000Z</time></trkpt>
        <trkpt lat="29.547031" lon="103.339688"><ele>2384</ele><time>2026-05-11T22:40:54.000Z</time></trkpt>
        <trkpt lat="29.547019" lon="103.339672"><ele>2384</ele><time>2026-05-11T22:40:59.000Z</time></trkpt>
        <trkpt lat="29.547017" lon="103.339671"><ele>2384</ele><time>2026-05-11T22:41:00.000Z</time></trkpt>
        <trkpt lat="29.54701" lon="103.339672"><ele>2384</ele><time>2026-05-11T22:41:01.000Z</time></trkpt>
        <trkpt lat="29.547004" lon="103.339673"><ele>2385</ele><time>2026-05-11T22:41:02.000Z</time></trkpt>
        <trkpt lat="29.546992" lon="103.339671"><ele>2385</ele><time>2026-05-11T22:41:03.000Z</time></trkpt>
        <trkpt lat="29.546992" lon="103.339671"><ele>2385</ele><time>2026-05-11T22:41:04.000Z</time></trkpt>
        <trkpt lat="29.546991" lon="103.339675"><ele>2387</ele><time>2026-05-11T22:41:07.000Z</time></trkpt>
        <trkpt lat="29.547006" lon="103.339669"><ele>2388</ele><time>2026-05-11T22:41:08.000Z</time></trkpt>
        <trkpt lat="29.546998" lon="103.339669"><ele>2388</ele><time>2026-05-11T22:41:10.000Z</time></trkpt>
        <trkpt lat="29.546988" lon="103.33967"><ele>2389</ele><time>2026-05-11T22:41:11.000Z</time></trkpt>
        <trkpt lat="29.546988" lon="103.33967"><ele>2389</ele><time>2026-05-11T22:41:12.000Z</time></trkpt>
        <trkpt lat="29.546974" lon="103.33966"><ele>2389</ele><time>2026-05-11T22:41:16.000Z</time></trkpt>
        <trkpt lat="29.546955" lon="103.339641"><ele>2389</ele><time>2026-05-11T22:41:22.000Z</time></trkpt>
        <trkpt lat="29.546964" lon="103.33963"><ele>2390</ele><time>2026-05-11T22:41:25.000Z</time></trkpt>
        <trkpt lat="29.546931" lon="103.339616"><ele>2392</ele><time>2026-05-11T22:41:30.000Z</time></trkpt>
        <trkpt lat="29.546897" lon="103.339615"><ele>2400</ele><time>2026-05-11T22:41:37.000Z</time></trkpt>
        <trkpt lat="29.546869" lon="103.33961"><ele>2404</ele><time>2026-05-11T22:41:42.000Z</time></trkpt>
        <trkpt lat="29.546866" lon="103.339608"><ele>2404</ele><time>2026-05-11T22:41:43.000Z</time></trkpt>
        <trkpt lat="29.546866" lon="103.339606"><ele>2404</ele><time>2026-05-11T22:41:44.000Z</time></trkpt>
        <trkpt lat="29.546877" lon="103.339581"><ele>2407</ele><time>2026-05-11T22:41:55.000Z</time></trkpt>
        <trkpt lat="29.546904" lon="103.339571"><ele>2408</ele><time>2026-05-11T22:41:59.000Z</time></trkpt>
        <trkpt lat="29.546942" lon="103.339549"><ele>2405</ele><time>2026-05-11T22:42:04.000Z</time></trkpt>
        <trkpt lat="29.546923" lon="103.339525"><ele>2398</ele><time>2026-05-11T22:42:38.000Z</time></trkpt>
        <trkpt lat="29.546934" lon="103.339473"><ele>2398</ele><time>2026-05-11T22:42:54.000Z</time></trkpt>
        <trkpt lat="29.546918" lon="103.339457"><ele>2397</ele><time>2026-05-11T22:43:07.000Z</time></trkpt>
        <trkpt lat="29.546905" lon="103.339455"><ele>2398</ele><time>2026-05-11T22:43:13.000Z</time></trkpt>
        <trkpt lat="29.546903" lon="103.339452"><ele>2397</ele><time>2026-05-11T22:43:35.000Z</time></trkpt>
        <trkpt lat="29.546931" lon="103.339418"><ele>2398</ele><time>2026-05-11T22:43:44.000Z</time></trkpt>
        <trkpt lat="29.546935" lon="103.339413"><ele>2401</ele><time>2026-05-11T22:43:52.000Z</time></trkpt>
        <trkpt lat="29.546878" lon="103.339382"><ele>2404</ele><time>2026-05-11T22:44:03.000Z</time></trkpt>
        <trkpt lat="29.546875" lon="103.339381"><ele>2403</ele><time>2026-05-11T22:44:04.000Z</time></trkpt>
        <trkpt lat="29.546879" lon="103.339377"><ele>2407</ele><time>2026-05-11T22:44:13.000Z</time></trkpt>
        <trkpt lat="29.546828" lon="103.33932"><ele>2409</ele><time>2026-05-11T22:44:27.000Z</time></trkpt>
        <trkpt lat="29.54681" lon="103.339298"><ele>2408</ele><time>2026-05-11T22:44:32.000Z</time></trkpt>
        <trkpt lat="29.546793" lon="103.339244"><ele>2406</ele><time>2026-05-11T22:44:42.000Z</time></trkpt>
        <trkpt lat="29.546779" lon="103.339237"><ele>2406</ele><time>2026-05-11T22:44:44.000Z</time></trkpt>
        <trkpt lat="29.546765" lon="103.339219"><ele>2407</ele><time>2026-05-11T22:44:53.000Z</time></trkpt>
        <trkpt lat="29.546698" lon="103.33918"><ele>2408</ele><time>2026-05-11T22:45:12.000Z</time></trkpt>
        <trkpt lat="29.546683" lon="103.339165"><ele>2408</ele><time>2026-05-11T22:45:16.000Z</time></trkpt>
        <trkpt lat="29.546682" lon="103.339164"><ele>2409</ele><time>2026-05-11T22:45:17.000Z</time></trkpt>
        <trkpt lat="29.546685" lon="103.339138"><ele>2412</ele><time>2026-05-11T22:45:25.000Z</time></trkpt>
        <trkpt lat="29.54665" lon="103.339054"><ele>2420</ele><time>2026-05-11T22:45:44.000Z</time></trkpt>
        <trkpt lat="29.546604" lon="103.33901"><ele>2422</ele><time>2026-05-11T22:45:53.000Z</time></trkpt>
        <trkpt lat="29.546546" lon="103.33895"><ele>2421</ele><time>2026-05-11T22:46:11.000Z</time></trkpt>
        <trkpt lat="29.546493" lon="103.338896"><ele>2421</ele><time>2026-05-11T22:46:25.000Z</time></trkpt>
        <trkpt lat="29.546502" lon="103.338857"><ele>2429</ele><time>2026-05-11T22:46:40.000Z</time></trkpt>
        <trkpt lat="29.546488" lon="103.338845"><ele>2429</ele><time>2026-05-11T22:46:44.000Z</time></trkpt>
        <trkpt lat="29.54647" lon="103.33883"><ele>2431</ele><time>2026-05-11T22:46:53.000Z</time></trkpt>
        <trkpt lat="29.546466" lon="103.338825"><ele>2433</ele><time>2026-05-11T22:46:58.000Z</time></trkpt>
        <trkpt lat="29.546448" lon="103.338821"><ele>2434</ele><time>2026-05-11T22:47:00.000Z</time></trkpt>
        <trkpt lat="29.546438" lon="103.338815"><ele>2434</ele><time>2026-05-11T22:47:02.000Z</time></trkpt>
        <trkpt lat="29.546369" lon="103.338784"><ele>2438</ele><time>2026-05-11T22:47:25.000Z</time></trkpt>
        <trkpt lat="29.546324" lon="103.338719"><ele>2441</ele><time>2026-05-11T22:47:48.000Z</time></trkpt>
        <trkpt lat="29.546319" lon="103.33864"><ele>2439</ele><time>2026-05-11T22:48:04.000Z</time></trkpt>
        <trkpt lat="29.546253" lon="103.338578"><ele>2440</ele><time>2026-05-11T22:48:15.000Z</time></trkpt>
        <trkpt lat="29.546255" lon="103.338574"><ele>2440</ele><time>2026-05-11T22:48:16.000Z</time></trkpt>
        <trkpt lat="29.546236" lon="103.338534"><ele>2441</ele><time>2026-05-11T22:48:22.000Z</time></trkpt>
        <trkpt lat="29.546222" lon="103.338524"><ele>2441</ele><time>2026-05-11T22:48:24.000Z</time></trkpt>
        <trkpt lat="29.546221" lon="103.338518"><ele>2441</ele><time>2026-05-11T22:48:25.000Z</time></trkpt>
        <trkpt lat="29.54621" lon="103.338503"><ele>2441</ele><time>2026-05-11T22:48:26.000Z</time></trkpt>
        <trkpt lat="29.54621" lon="103.338503"><ele>2441</ele><time>2026-05-11T22:48:27.000Z</time></trkpt>
        <trkpt lat="29.546204" lon="103.338494"><ele>2441</ele><time>2026-05-11T22:48:28.000Z</time></trkpt>
        <trkpt lat="29.546212" lon="103.338472"><ele>2440</ele><time>2026-05-11T22:48:31.000Z</time></trkpt>
        <trkpt lat="29.546221" lon="103.338469"><ele>2439</ele><time>2026-05-11T22:48:33.000Z</time></trkpt>
        <trkpt lat="29.546224" lon="103.338463"><ele>2439</ele><time>2026-05-11T22:48:34.000Z</time></trkpt>
        <trkpt lat="29.546224" lon="103.338463"><ele>2439</ele><time>2026-05-11T22:48:35.000Z</time></trkpt>
        <trkpt lat="29.546201" lon="103.338409"><ele>2440</ele><time>2026-05-11T22:48:46.000Z</time></trkpt>
        <trkpt lat="29.546199" lon="103.338398"><ele>2441</ele><time>2026-05-11T22:48:47.000Z</time></trkpt>
        <trkpt lat="29.546179" lon="103.33839"><ele>2439</ele><time>2026-05-11T22:48:48.000Z</time></trkpt>
        <trkpt lat="29.546152" lon="103.338373"><ele>2439</ele><time>2026-05-11T22:48:50.000Z</time></trkpt>
        <trkpt lat="29.546133" lon="103.338343"><ele>2438</ele><time>2026-05-11T22:48:54.000Z</time></trkpt>
        <trkpt lat="29.546121" lon="103.338297"><ele>2440</ele><time>2026-05-11T22:49:00.000Z</time></trkpt>
        <trkpt lat="29.546111" lon="103.33828"><ele>2440</ele><time>2026-05-11T22:49:03.000Z</time></trkpt>
        <trkpt lat="29.54612" lon="103.338277"><ele>2440</ele><time>2026-05-11T22:49:04.000Z</time></trkpt>
        <trkpt lat="29.546125" lon="103.338273"><ele>2440</ele><time>2026-05-11T22:49:05.000Z</time></trkpt>
        <trkpt lat="29.546132" lon="103.338269"><ele>2441</ele><time>2026-05-11T22:49:06.000Z</time></trkpt>
        <trkpt lat="29.546148" lon="103.338265"><ele>2442</ele><time>2026-05-11T22:49:08.000Z</time></trkpt>
        <trkpt lat="29.546161" lon="103.338259"><ele>2442</ele><time>2026-05-11T22:49:10.000Z</time></trkpt>
        <trkpt lat="29.546174" lon="103.338252"><ele>2443</ele><time>2026-05-11T22:49:13.000Z</time></trkpt>
        <trkpt lat="29.546221" lon="103.338086"><ele>2449</ele><time>2026-05-11T22:49:55.000Z</time></trkpt>
        <trkpt lat="29.546231" lon="103.33808"><ele>2450</ele><time>2026-05-11T22:49:58.000Z</time></trkpt>
        <trkpt lat="29.546295" lon="103.337896"><ele>2451</ele><time>2026-05-11T22:50:26.000Z</time></trkpt>
        <trkpt lat="29.546335" lon="103.337841"><ele>2451</ele><time>2026-05-11T22:50:35.000Z</time></trkpt>
        <trkpt lat="29.5464" lon="103.33776"><ele>2455</ele><time>2026-05-11T22:50:44.000Z</time></trkpt>
        <trkpt lat="29.546404" lon="103.337751"><ele>2456</ele><time>2026-05-11T22:50:45.000Z</time></trkpt>
        <trkpt lat="29.546424" lon="103.337736"><ele>2457</ele><time>2026-05-11T22:50:46.000Z</time></trkpt>
        <trkpt lat="29.546443" lon="103.33772"><ele>2457</ele><time>2026-05-11T22:50:49.000Z</time></trkpt>
        <trkpt lat="29.546469" lon="103.337694"><ele>2457</ele><time>2026-05-11T22:50:52.000Z</time></trkpt>
        <trkpt lat="29.546474" lon="103.337592"><ele>2457</ele><time>2026-05-11T22:51:03.000Z</time></trkpt>
        <trkpt lat="29.546476" lon="103.337562"><ele>2456</ele><time>2026-05-11T22:51:05.000Z</time></trkpt>
        <trkpt lat="29.546552" lon="103.337386"><ele>2453</ele><time>2026-05-11T22:51:19.000Z</time></trkpt>
        <trkpt lat="29.546672" lon="103.337238"><ele>2459</ele><time>2026-05-11T22:51:36.000Z</time></trkpt>
        <trkpt lat="29.54668" lon="103.337218"><ele>2459</ele><time>2026-05-11T22:51:38.000Z</time></trkpt>
        <trkpt lat="29.546689" lon="103.337151"><ele>2461</ele><time>2026-05-11T22:51:46.000Z</time></trkpt>
        <trkpt lat="29.546677" lon="103.337123"><ele>2462</ele><time>2026-05-11T22:51:49.000Z</time></trkpt>
        <trkpt lat="29.546576" lon="103.336963"><ele>2464</ele><time>2026-05-11T22:52:23.000Z</time></trkpt>
        <trkpt lat="29.546569" lon="103.336932"><ele>2464</ele><time>2026-05-11T22:52:28.000Z</time></trkpt>
        <trkpt lat="29.546566" lon="103.336922"><ele>2463</ele><time>2026-05-11T22:52:30.000Z</time></trkpt>
        <trkpt lat="29.546502" lon="103.336725"><ele>2460</ele><time>2026-05-11T22:52:55.000Z</time></trkpt>
        <trkpt lat="29.546512" lon="103.336671"><ele>2460</ele><time>2026-05-11T22:53:00.000Z</time></trkpt>
        <trkpt lat="29.546509" lon="103.33665"><ele>2459</ele><time>2026-05-11T22:53:02.000Z</time></trkpt>
        <trkpt lat="29.546503" lon="103.336628"><ele>2459</ele><time>2026-05-11T22:53:04.000Z</time></trkpt>
        <trkpt lat="29.546505" lon="103.336609"><ele>2458</ele><time>2026-05-11T22:53:05.000Z</time></trkpt>
        <trkpt lat="29.546505" lon="103.336609"><ele>2458</ele><time>2026-05-11T22:53:06.000Z</time></trkpt>
        <trkpt lat="29.546516" lon="103.336588"><ele>2457</ele><time>2026-05-11T22:53:09.000Z</time></trkpt>
        <trkpt lat="29.546518" lon="103.336583"><ele>2457</ele><time>2026-05-11T22:53:10.000Z</time></trkpt>
        <trkpt lat="29.54652" lon="103.336568"><ele>2457</ele><time>2026-05-11T22:53:11.000Z</time></trkpt>
        <trkpt lat="29.54652" lon="103.336568"><ele>2457</ele><time>2026-05-11T22:53:12.000Z</time></trkpt>
        <trkpt lat="29.546522" lon="103.33656"><ele>2457</ele><time>2026-05-11T22:53:13.000Z</time></trkpt>
        <trkpt lat="29.546526" lon="103.336554"><ele>2456</ele><time>2026-05-11T22:53:14.000Z</time></trkpt>
        <trkpt lat="29.546531" lon="103.336548"><ele>2456</ele><time>2026-05-11T22:53:15.000Z</time></trkpt>
        <trkpt lat="29.546541" lon="103.336537"><ele>2454</ele><time>2026-05-11T22:53:16.000Z</time></trkpt>
        <trkpt lat="29.546541" lon="103.336537"><ele>2454</ele><time>2026-05-11T22:53:17.000Z</time></trkpt>
        <trkpt lat="29.546547" lon="103.3365"><ele>2453</ele><time>2026-05-11T22:53:21.000Z</time></trkpt>
        <trkpt lat="29.546556" lon="103.336485"><ele>2452</ele><time>2026-05-11T22:53:23.000Z</time></trkpt>
        <trkpt lat="29.546562" lon="103.33646"><ele>2449</ele><time>2026-05-11T22:53:27.000Z</time></trkpt>
        <trkpt lat="29.546562" lon="103.336455"><ele>2448</ele><time>2026-05-11T22:53:28.000Z</time></trkpt>
        <trkpt lat="29.546561" lon="103.33645"><ele>2448</ele><time>2026-05-11T22:53:29.000Z</time></trkpt>
        <trkpt lat="29.546559" lon="103.336424"><ele>2445</ele><time>2026-05-11T22:53:33.000Z</time></trkpt>
        <trkpt lat="29.546559" lon="103.336419"><ele>2444</ele><time>2026-05-11T22:53:34.000Z</time></trkpt>
        <trkpt lat="29.54656" lon="103.336398"><ele>2444</ele><time>2026-05-11T22:53:35.000Z</time></trkpt>
        <trkpt lat="29.54656" lon="103.336398"><ele>2444</ele><time>2026-05-11T22:53:36.000Z</time></trkpt>
        <trkpt lat="29.546556" lon="103.336381"><ele>2444</ele><time>2026-05-11T22:53:37.000Z</time></trkpt>
        <trkpt lat="29.546556" lon="103.336381"><ele>2444</ele><time>2026-05-11T22:53:38.000Z</time></trkpt>
        <trkpt lat="29.546539" lon="103.336341"><ele>2443</ele><time>2026-05-11T22:53:42.000Z</time></trkpt>
        <trkpt lat="29.546531" lon="103.336312"><ele>2443</ele><time>2026-05-11T22:53:44.000Z</time></trkpt>
        <trkpt lat="29.546531" lon="103.336298"><ele>2444</ele><time>2026-05-11T22:53:45.000Z</time></trkpt>
        <trkpt lat="29.546543" lon="103.336261"><ele>2444</ele><time>2026-05-11T22:53:47.000Z</time></trkpt>
        <trkpt lat="29.546566" lon="103.3362"><ele>2444</ele><time>2026-05-11T22:53:51.000Z</time></trkpt>
        <trkpt lat="29.546662" lon="103.336051"><ele>2449</ele><time>2026-05-11T22:54:06.000Z</time></trkpt>
        <trkpt lat="29.546684" lon="103.335853"><ele>2442</ele><time>2026-05-11T22:54:29.000Z</time></trkpt>
        <trkpt lat="29.54669" lon="103.335813"><ele>2443</ele><time>2026-05-11T22:54:32.000Z</time></trkpt>
        <trkpt lat="29.54669" lon="103.335807"><ele>2442</ele><time>2026-05-11T22:54:33.000Z</time></trkpt>
        <trkpt lat="29.546694" lon="103.335783"><ele>2441</ele><time>2026-05-11T22:54:36.000Z</time></trkpt>
        <trkpt lat="29.546697" lon="103.335755"><ele>2440</ele><time>2026-05-11T22:54:39.000Z</time></trkpt>
        <trkpt lat="29.546695" lon="103.335748"><ele>2440</ele><time>2026-05-11T22:54:40.000Z</time></trkpt>
        <trkpt lat="29.546694" lon="103.335742"><ele>2440</ele><time>2026-05-11T22:54:41.000Z</time></trkpt>
        <trkpt lat="29.546695" lon="103.335731"><ele>2440</ele><time>2026-05-11T22:54:42.000Z</time></trkpt>
        <trkpt lat="29.546746" lon="103.33553"><ele>2440</ele><time>2026-05-11T22:55:03.000Z</time></trkpt>
        <trkpt lat="29.546761" lon="103.335465"><ele>2439</ele><time>2026-05-11T22:55:10.000Z</time></trkpt>
        <trkpt lat="29.546797" lon="103.335279"><ele>2437</ele><time>2026-05-11T22:55:34.000Z</time></trkpt>
        <trkpt lat="29.54679" lon="103.33516"><ele>2436</ele><time>2026-05-11T22:55:45.000Z</time></trkpt>
        <trkpt lat="29.546773" lon="103.33511"><ele>2431</ele><time>2026-05-11T22:55:51.000Z</time></trkpt>
        <trkpt lat="29.546699" lon="103.335014"><ele>2427</ele><time>2026-05-11T22:56:11.000Z</time></trkpt>
        <trkpt lat="29.546565" lon="103.334871"><ele>2440</ele><time>2026-05-11T22:56:36.000Z</time></trkpt>
        <trkpt lat="29.546412" lon="103.334809"><ele>2444</ele><time>2026-05-11T22:56:52.000Z</time></trkpt>
        <trkpt lat="29.546403" lon="103.334811"><ele>2445</ele><time>2026-05-11T22:56:54.000Z</time></trkpt>
        <trkpt lat="29.546394" lon="103.33481"><ele>2445</ele><time>2026-05-11T22:56:55.000Z</time></trkpt>
        <trkpt lat="29.54633" lon="103.334798"><ele>2447</ele><time>2026-05-11T22:57:04.000Z</time></trkpt>
        <trkpt lat="29.5463" lon="103.33479"><ele>2447</ele><time>2026-05-11T22:57:09.000Z</time></trkpt>
        <trkpt lat="29.546271" lon="103.334782"><ele>2447</ele><time>2026-05-11T22:57:15.000Z</time></trkpt>
        <trkpt lat="29.546259" lon="103.334789"><ele>2446</ele><time>2026-05-11T22:57:16.000Z</time></trkpt>
        <trkpt lat="29.546166" lon="103.334818"><ele>2447</ele><time>2026-05-11T22:57:37.000Z</time></trkpt>
        <trkpt lat="29.546137" lon="103.334811"><ele>2447</ele><time>2026-05-11T22:57:41.000Z</time></trkpt>
        <trkpt lat="29.545965" lon="103.334768"><ele>2447</ele><time>2026-05-11T22:58:06.000Z</time></trkpt>
        <trkpt lat="29.545959" lon="103.334767"><ele>2447</ele><time>2026-05-11T22:58:07.000Z</time></trkpt>
        <trkpt lat="29.545953" lon="103.334761"><ele>2446</ele><time>2026-05-11T22:58:09.000Z</time></trkpt>
        <trkpt lat="29.545943" lon="103.334756"><ele>2446</ele><time>2026-05-11T22:58:10.000Z</time></trkpt>
        <trkpt lat="29.545943" lon="103.334756"><ele>2446</ele><time>2026-05-11T22:58:11.000Z</time></trkpt>
        <trkpt lat="29.545933" lon="103.334745"><ele>2446</ele><time>2026-05-11T22:58:14.000Z</time></trkpt>
        <trkpt lat="29.545927" lon="103.334733"><ele>2445</ele><time>2026-05-11T22:58:16.000Z</time></trkpt>
        <trkpt lat="29.545925" lon="103.334729"><ele>2445</ele><time>2026-05-11T22:58:17.000Z</time></trkpt>
        <trkpt lat="29.545916" lon="103.33471"><ele>2443</ele><time>2026-05-11T22:58:21.000Z</time></trkpt>
        <trkpt lat="29.545912" lon="103.334702"><ele>2443</ele><time>2026-05-11T22:58:22.000Z</time></trkpt>
        <trkpt lat="29.545889" lon="103.33467"><ele>2441</ele><time>2026-05-11T22:58:26.000Z</time></trkpt>
        <trkpt lat="29.545874" lon="103.33465"><ele>2441</ele><time>2026-05-11T22:58:28.000Z</time></trkpt>
        <trkpt lat="29.54586" lon="103.334632"><ele>2441</ele><time>2026-05-11T22:58:30.000Z</time></trkpt>
        <trkpt lat="29.545818" lon="103.334579"><ele>2440</ele><time>2026-05-11T22:58:37.000Z</time></trkpt>
        <trkpt lat="29.545693" lon="103.334465"><ele>2441</ele><time>2026-05-11T22:59:00.000Z</time></trkpt>
        <trkpt lat="29.545687" lon="103.334463"><ele>2440</ele><time>2026-05-11T22:59:02.000Z</time></trkpt>
        <trkpt lat="29.545682" lon="103.33446"><ele>2440</ele><time>2026-05-11T22:59:03.000Z</time></trkpt>
        <trkpt lat="29.545682" lon="103.33446"><ele>2440</ele><time>2026-05-11T22:59:04.000Z</time></trkpt>
        <trkpt lat="29.545679" lon="103.334464"><ele>2439</ele><time>2026-05-11T22:59:07.000Z</time></trkpt>
        <trkpt lat="29.545659" lon="103.33447"><ele>2437</ele><time>2026-05-11T22:59:13.000Z</time></trkpt>
        <trkpt lat="29.545654" lon="103.334471"><ele>2437</ele><time>2026-05-11T22:59:14.000Z</time></trkpt>
        <trkpt lat="29.545651" lon="103.334468"><ele>2436</ele><time>2026-05-11T22:59:15.000Z</time></trkpt>
        <trkpt lat="29.5456" lon="103.334437"><ele>2434</ele><time>2026-05-11T22:59:24.000Z</time></trkpt>
        <trkpt lat="29.54559" lon="103.33443"><ele>2434</ele><time>2026-05-11T22:59:25.000Z</time></trkpt>
        <trkpt lat="29.545553" lon="103.334402"><ele>2434</ele><time>2026-05-11T22:59:33.000Z</time></trkpt>
        <trkpt lat="29.545548" lon="103.334407"><ele>2434</ele><time>2026-05-11T22:59:34.000Z</time></trkpt>
        <trkpt lat="29.545538" lon="103.334408"><ele>2433</ele><time>2026-05-11T22:59:35.000Z</time></trkpt>
        <trkpt lat="29.545517" lon="103.334407"><ele>2433</ele><time>2026-05-11T22:59:39.000Z</time></trkpt>
        <trkpt lat="29.545513" lon="103.334403"><ele>2433</ele><time>2026-05-11T22:59:41.000Z</time></trkpt>
        <trkpt lat="29.545499" lon="103.3344"><ele>2434</ele><time>2026-05-11T22:59:45.000Z</time></trkpt>
        <trkpt lat="29.545466" lon="103.334383"><ele>2438</ele><time>2026-05-11T22:59:51.000Z</time></trkpt>
        <trkpt lat="29.545334" lon="103.334272"><ele>2441</ele><time>2026-05-11T23:00:06.000Z</time></trkpt>
        <trkpt lat="29.545243" lon="103.334159"><ele>2443</ele><time>2026-05-11T23:00:24.000Z</time></trkpt>
        <trkpt lat="29.545153" lon="103.334111"><ele>2444</ele><time>2026-05-11T23:00:35.000Z</time></trkpt>
        <trkpt lat="29.545136" lon="103.334102"><ele>2445</ele><time>2026-05-11T23:00:37.000Z</time></trkpt>
        <trkpt lat="29.545125" lon="103.334102"><ele>2445</ele><time>2026-05-11T23:00:38.000Z</time></trkpt>
        <trkpt lat="29.545105" lon="103.334102"><ele>2445</ele><time>2026-05-11T23:00:40.000Z</time></trkpt>
        <trkpt lat="29.545033" lon="103.334102"><ele>2443</ele><time>2026-05-11T23:00:48.000Z</time></trkpt>
        <trkpt lat="29.545014" lon="103.334103"><ele>2443</ele><time>2026-05-11T23:00:51.000Z</time></trkpt>
        <trkpt lat="29.544899" lon="103.334099"><ele>2437</ele><time>2026-05-11T23:01:04.000Z</time></trkpt>
        <trkpt lat="29.544844" lon="103.334155"><ele>2437</ele><time>2026-05-11T23:01:13.000Z</time></trkpt>
        <trkpt lat="29.544825" lon="103.334184"><ele>2436</ele><time>2026-05-11T23:01:16.000Z</time></trkpt>
        <trkpt lat="29.544814" lon="103.334201"><ele>2436</ele><time>2026-05-11T23:01:18.000Z</time></trkpt>
        <trkpt lat="29.54464" lon="103.334225"><ele>2438</ele><time>2026-05-11T23:01:39.000Z</time></trkpt>
        <trkpt lat="29.544609" lon="103.334223"><ele>2438</ele><time>2026-05-11T23:01:41.000Z</time></trkpt>
        <trkpt lat="29.544571" lon="103.334219"><ele>2438</ele><time>2026-05-11T23:01:44.000Z</time></trkpt>
        <trkpt lat="29.54449" lon="103.334197"><ele>2438</ele><time>2026-05-11T23:01:50.000Z</time></trkpt>
        <trkpt lat="29.544404" lon="103.334184"><ele>2438</ele><time>2026-05-11T23:01:58.000Z</time></trkpt>
        <trkpt lat="29.544267" lon="103.334167"><ele>2444</ele><time>2026-05-11T23:02:11.000Z</time></trkpt>
        <trkpt lat="29.544081" lon="103.334121"><ele>2441</ele><time>2026-05-11T23:02:26.000Z</time></trkpt>
        <trkpt lat="29.54403" lon="103.334084"><ele>2439</ele><time>2026-05-11T23:02:34.000Z</time></trkpt>
        <trkpt lat="29.544038" lon="103.334082"><ele>2436</ele><time>2026-05-11T23:02:55.000Z</time></trkpt>
        <trkpt lat="29.544033" lon="103.334082"><ele>2436</ele><time>2026-05-11T23:02:56.000Z</time></trkpt>
        <trkpt lat="29.544033" lon="103.334082"><ele>2436</ele><time>2026-05-11T23:02:57.000Z</time></trkpt>
        <trkpt lat="29.54398" lon="103.334041"><ele>2435</ele><time>2026-05-11T23:03:08.000Z</time></trkpt>
        <trkpt lat="29.543893" lon="103.333945"><ele>2431</ele><time>2026-05-11T23:03:21.000Z</time></trkpt>
        <trkpt lat="29.543741" lon="103.333943"><ele>2429</ele><time>2026-05-11T23:03:38.000Z</time></trkpt>
        <trkpt lat="29.543654" lon="103.333886"><ele>2430</ele><time>2026-05-11T23:03:45.000Z</time></trkpt>
        <trkpt lat="29.543633" lon="103.33386"><ele>2430</ele><time>2026-05-11T23:03:47.000Z</time></trkpt>
        <trkpt lat="29.543611" lon="103.333824"><ele>2430</ele><time>2026-05-11T23:03:50.000Z</time></trkpt>
        <trkpt lat="29.543577" lon="103.333774"><ele>2431</ele><time>2026-05-11T23:03:56.000Z</time></trkpt>
        <trkpt lat="29.543572" lon="103.333764"><ele>2431</ele><time>2026-05-11T23:03:57.000Z</time></trkpt>
        <trkpt lat="29.543553" lon="103.333747"><ele>2430</ele><time>2026-05-11T23:04:00.000Z</time></trkpt>
        <trkpt lat="29.543531" lon="103.333733"><ele>2431</ele><time>2026-05-11T23:04:03.000Z</time></trkpt>
        <trkpt lat="29.543505" lon="103.333719"><ele>2430</ele><time>2026-05-11T23:04:06.000Z</time></trkpt>
        <trkpt lat="29.543472" lon="103.333697"><ele>2430</ele><time>2026-05-11T23:04:11.000Z</time></trkpt>
        <trkpt lat="29.543452" lon="103.333684"><ele>2428</ele><time>2026-05-11T23:04:16.000Z</time></trkpt>
        <trkpt lat="29.543441" lon="103.333699"><ele>2430</ele><time>2026-05-11T23:04:28.000Z</time></trkpt>
        <trkpt lat="29.543451" lon="103.33368"><ele>2429</ele><time>2026-05-11T23:04:32.000Z</time></trkpt>
        <trkpt lat="29.543407" lon="103.333471"><ele>2422</ele><time>2026-05-11T23:04:52.000Z</time></trkpt>
        <trkpt lat="29.543345" lon="103.33327"><ele>2422</ele><time>2026-05-11T23:05:12.000Z</time></trkpt>
        <trkpt lat="29.543262" lon="103.333153"><ele>2422</ele><time>2026-05-11T23:05:27.000Z</time></trkpt>
        <trkpt lat="29.543207" lon="103.333077"><ele>2421</ele><time>2026-05-11T23:05:40.000Z</time></trkpt>
        <trkpt lat="29.543184" lon="103.333044"><ele>2421</ele><time>2026-05-11T23:05:44.000Z</time></trkpt>
        <trkpt lat="29.543157" lon="103.333021"><ele>2421</ele><time>2026-05-11T23:05:48.000Z</time></trkpt>
        <trkpt lat="29.543129" lon="103.333011"><ele>2421</ele><time>2026-05-11T23:05:51.000Z</time></trkpt>
        <trkpt lat="29.542986" lon="103.332981"><ele>2425</ele><time>2026-05-11T23:06:05.000Z</time></trkpt>
        <trkpt lat="29.542879" lon="103.332935"><ele>2425</ele><time>2026-05-11T23:06:34.000Z</time></trkpt>
        <trkpt lat="29.542874" lon="103.332934"><ele>2425</ele><time>2026-05-11T23:06:48.000Z</time></trkpt>
        <trkpt lat="29.542862" lon="103.332949"><ele>2425</ele><time>2026-05-11T23:07:01.000Z</time></trkpt>
        <trkpt lat="29.542876" lon="103.332928"><ele>2425</ele><time>2026-05-11T23:07:07.000Z</time></trkpt>
        <trkpt lat="29.542873" lon="103.332874"><ele>2425</ele><time>2026-05-11T23:07:13.000Z</time></trkpt>
        <trkpt lat="29.542764" lon="103.332702"><ele>2426</ele><time>2026-05-11T23:07:29.000Z</time></trkpt>
        <trkpt lat="29.542703" lon="103.332662"><ele>2426</ele><time>2026-05-11T23:07:36.000Z</time></trkpt>
        <trkpt lat="29.542682" lon="103.332654"><ele>2426</ele><time>2026-05-11T23:07:38.000Z</time></trkpt>
        <trkpt lat="29.542671" lon="103.332653"><ele>2425</ele><time>2026-05-11T23:07:39.000Z</time></trkpt>
        <trkpt lat="29.542631" lon="103.332636"><ele>2425</ele><time>2026-05-11T23:07:42.000Z</time></trkpt>
        <trkpt lat="29.542618" lon="103.332628"><ele>2425</ele><time>2026-05-11T23:07:43.000Z</time></trkpt>
        <trkpt lat="29.542603" lon="103.33262"><ele>2425</ele><time>2026-05-11T23:07:44.000Z</time></trkpt>
        <trkpt lat="29.542576" lon="103.3326"><ele>2425</ele><time>2026-05-11T23:07:46.000Z</time></trkpt>
        <trkpt lat="29.542552" lon="103.332566"><ele>2426</ele><time>2026-05-11T23:07:49.000Z</time></trkpt>
        <trkpt lat="29.542551" lon="103.332522"><ele>2426</ele><time>2026-05-11T23:07:52.000Z</time></trkpt>
        <trkpt lat="29.542558" lon="103.332496"><ele>2426</ele><time>2026-05-11T23:07:54.000Z</time></trkpt>
        <trkpt lat="29.542555" lon="103.332476"><ele>2427</ele><time>2026-05-11T23:07:56.000Z</time></trkpt>
        <trkpt lat="29.54255" lon="103.332464"><ele>2428</ele><time>2026-05-11T23:07:57.000Z</time></trkpt>
        <trkpt lat="29.542539" lon="103.332434"><ele>2429</ele><time>2026-05-11T23:08:00.000Z</time></trkpt>
        <trkpt lat="29.542525" lon="103.3324"><ele>2429</ele><time>2026-05-11T23:08:04.000Z</time></trkpt>
        <trkpt lat="29.542523" lon="103.332392"><ele>2429</ele><time>2026-05-11T23:08:05.000Z</time></trkpt>
        <trkpt lat="29.542518" lon="103.332385"><ele>2429</ele><time>2026-05-11T23:08:06.000Z</time></trkpt>
        <trkpt lat="29.542511" lon="103.332376"><ele>2429</ele><time>2026-05-11T23:08:07.000Z</time></trkpt>
        <trkpt lat="29.542506" lon="103.332365"><ele>2430</ele><time>2026-05-11T23:08:08.000Z</time></trkpt>
        <trkpt lat="29.542473" lon="103.33232"><ele>2430</ele><time>2026-05-11T23:08:18.000Z</time></trkpt>
        <trkpt lat="29.542473" lon="103.332324"><ele>2430</ele><time>2026-05-11T23:08:20.000Z</time></trkpt>
        <trkpt lat="29.542473" lon="103.332333"><ele>2430</ele><time>2026-05-11T23:08:24.000Z</time></trkpt>
        <trkpt lat="29.542468" lon="103.332326"><ele>2430</ele><time>2026-05-11T23:08:26.000Z</time></trkpt>
        <trkpt lat="29.542458" lon="103.332315"><ele>2430</ele><time>2026-05-11T23:08:27.000Z</time></trkpt>
        <trkpt lat="29.542458" lon="103.332315"><ele>2430</ele><time>2026-05-11T23:08:28.000Z</time></trkpt>
        <trkpt lat="29.542451" lon="103.332299"><ele>2430</ele><time>2026-05-11T23:08:29.000Z</time></trkpt>
        <trkpt lat="29.542451" lon="103.332299"><ele>2430</ele><time>2026-05-11T23:08:30.000Z</time></trkpt>
        <trkpt lat="29.542446" lon="103.332271"><ele>2430</ele><time>2026-05-11T23:08:31.000Z</time></trkpt>
        <trkpt lat="29.542446" lon="103.332271"><ele>2430</ele><time>2026-05-11T23:08:32.000Z</time></trkpt>
        <trkpt lat="29.542432" lon="103.332231"><ele>2430</ele><time>2026-05-11T23:08:35.000Z</time></trkpt>
        <trkpt lat="29.542428" lon="103.332218"><ele>2430</ele><time>2026-05-11T23:08:36.000Z</time></trkpt>
        <trkpt lat="29.542425" lon="103.332206"><ele>2430</ele><time>2026-05-11T23:08:37.000Z</time></trkpt>
        <trkpt lat="29.542425" lon="103.332167"><ele>2430</ele><time>2026-05-11T23:08:40.000Z</time></trkpt>
        <trkpt lat="29.542425" lon="103.332157"><ele>2430</ele><time>2026-05-11T23:08:42.000Z</time></trkpt>
        <trkpt lat="29.542413" lon="103.332139"><ele>2430</ele><time>2026-05-11T23:08:47.000Z</time></trkpt>
        <trkpt lat="29.542408" lon="103.332135"><ele>2430</ele><time>2026-05-11T23:08:48.000Z</time></trkpt>
        <trkpt lat="29.5424" lon="103.332129"><ele>2430</ele><time>2026-05-11T23:08:49.000Z</time></trkpt>
        <trkpt lat="29.542393" lon="103.33213"><ele>2429</ele><time>2026-05-11T23:08:50.000Z</time></trkpt>
        <trkpt lat="29.542364" lon="103.332186"><ele>2426</ele><time>2026-05-11T23:09:06.000Z</time></trkpt>
        <trkpt lat="29.542364" lon="103.332189"><ele>2426</ele><time>2026-05-11T23:09:10.000Z</time></trkpt>
        <trkpt lat="29.542355" lon="103.332211"><ele>2426</ele><time>2026-05-11T23:09:22.000Z</time></trkpt>
        <trkpt lat="29.542293" lon="103.332126"><ele>2426</ele><time>2026-05-11T23:09:38.000Z</time></trkpt>
        <trkpt lat="29.542283" lon="103.332101"><ele>2427</ele><time>2026-05-11T23:09:41.000Z</time></trkpt>
        <trkpt lat="29.542271" lon="103.33209"><ele>2427</ele><time>2026-05-11T23:09:48.000Z</time></trkpt>
        <trkpt lat="29.542285" lon="103.332048"><ele>2426</ele><time>2026-05-11T23:10:00.000Z</time></trkpt>
        <trkpt lat="29.542264" lon="103.332053"><ele>2426</ele><time>2026-05-11T23:10:05.000Z</time></trkpt>
        <trkpt lat="29.54225" lon="103.332044"><ele>2427</ele><time>2026-05-11T23:10:16.000Z</time></trkpt>
        <trkpt lat="29.542234" lon="103.332016"><ele>2426</ele><time>2026-05-11T23:10:34.000Z</time></trkpt>
        <trkpt lat="29.542228" lon="103.332003"><ele>2426</ele><time>2026-05-11T23:10:36.000Z</time></trkpt>
        <trkpt lat="29.542225" lon="103.331991"><ele>2426</ele><time>2026-05-11T23:10:45.000Z</time></trkpt>
        <trkpt lat="29.542162" lon="103.331991"><ele>2426</ele><time>2026-05-11T23:10:58.000Z</time></trkpt>
        <trkpt lat="29.542139" lon="103.331995"><ele>2426</ele><time>2026-05-11T23:11:01.000Z</time></trkpt>
        <trkpt lat="29.54212" lon="103.331992"><ele>2425</ele><time>2026-05-11T23:11:04.000Z</time></trkpt>
        <trkpt lat="29.542074" lon="103.331994"><ele>2425</ele><time>2026-05-11T23:11:13.000Z</time></trkpt>
        <trkpt lat="29.542064" lon="103.331993"><ele>2425</ele><time>2026-05-11T23:11:14.000Z</time></trkpt>
        <trkpt lat="29.542052" lon="103.331989"><ele>2425</ele><time>2026-05-11T23:11:15.000Z</time></trkpt>
        <trkpt lat="29.542043" lon="103.331987"><ele>2425</ele><time>2026-05-11T23:11:16.000Z</time></trkpt>
        <trkpt lat="29.542034" lon="103.331983"><ele>2425</ele><time>2026-05-11T23:11:17.000Z</time></trkpt>
        <trkpt lat="29.542025" lon="103.331976"><ele>2425</ele><time>2026-05-11T23:11:18.000Z</time></trkpt>
        <trkpt lat="29.541963" lon="103.331853"><ele>2426</ele><time>2026-05-11T23:11:29.000Z</time></trkpt>
        <trkpt lat="29.541931" lon="103.331797"><ele>2425</ele><time>2026-05-11T23:11:34.000Z</time></trkpt>
        <trkpt lat="29.541849" lon="103.331698"><ele>2424</ele><time>2026-05-11T23:11:45.000Z</time></trkpt>
        <trkpt lat="29.54169" lon="103.331689"><ele>2424</ele><time>2026-05-11T23:11:59.000Z</time></trkpt>
        <trkpt lat="29.541568" lon="103.331703"><ele>2428</ele><time>2026-05-11T23:12:08.000Z</time></trkpt>
        <trkpt lat="29.541511" lon="103.331705"><ele>2430</ele><time>2026-05-11T23:12:13.000Z</time></trkpt>
        <trkpt lat="29.541437" lon="103.331716"><ele>2431</ele><time>2026-05-11T23:12:20.000Z</time></trkpt>
        <trkpt lat="29.541342" lon="103.331718"><ele>2431</ele><time>2026-05-11T23:12:28.000Z</time></trkpt>
        <trkpt lat="29.541167" lon="103.331779"><ele>2430</ele><time>2026-05-11T23:12:43.000Z</time></trkpt>
        <trkpt lat="29.541149" lon="103.331785"><ele>2430</ele><time>2026-05-11T23:12:45.000Z</time></trkpt>
        <trkpt lat="29.541113" lon="103.331799"><ele>2431</ele><time>2026-05-11T23:12:50.000Z</time></trkpt>
        <trkpt lat="29.541105" lon="103.331799"><ele>2431</ele><time>2026-05-11T23:12:52.000Z</time></trkpt>
        <trkpt lat="29.541094" lon="103.331798"><ele>2432</ele><time>2026-05-11T23:12:54.000Z</time></trkpt>
        <trkpt lat="29.541064" lon="103.331792"><ele>2433</ele><time>2026-05-11T23:12:58.000Z</time></trkpt>
        <trkpt lat="29.541018" lon="103.331819"><ele>2434</ele><time>2026-05-11T23:13:04.000Z</time></trkpt>
        <trkpt lat="29.540999" lon="103.331816"><ele>2435</ele><time>2026-05-11T23:13:06.000Z</time></trkpt>
        <trkpt lat="29.540985" lon="103.331807"><ele>2435</ele><time>2026-05-11T23:13:08.000Z</time></trkpt>
        <trkpt lat="29.54093" lon="103.331766"><ele>2434</ele><time>2026-05-11T23:13:13.000Z</time></trkpt>
        <trkpt lat="29.540909" lon="103.331757"><ele>2433</ele><time>2026-05-11T23:13:15.000Z</time></trkpt>
        <trkpt lat="29.540826" lon="103.331729"><ele>2434</ele><time>2026-05-11T23:13:21.000Z</time></trkpt>
        <trkpt lat="29.540801" lon="103.331726"><ele>2434</ele><time>2026-05-11T23:13:23.000Z</time></trkpt>
        <trkpt lat="29.540789" lon="103.331728"><ele>2434</ele><time>2026-05-11T23:13:24.000Z</time></trkpt>
        <trkpt lat="29.54074" lon="103.331731"><ele>2435</ele><time>2026-05-11T23:13:28.000Z</time></trkpt>
        <trkpt lat="29.540619" lon="103.331797"><ele>2434</ele><time>2026-05-11T23:13:40.000Z</time></trkpt>
        <trkpt lat="29.540477" lon="103.331913"><ele>2436</ele><time>2026-05-11T23:13:55.000Z</time></trkpt>
        <trkpt lat="29.540413" lon="103.331954"><ele>2435</ele><time>2026-05-11T23:14:01.000Z</time></trkpt>
        <trkpt lat="29.540387" lon="103.331969"><ele>2435</ele><time>2026-05-11T23:14:04.000Z</time></trkpt>
        <trkpt lat="29.540369" lon="103.331979"><ele>2436</ele><time>2026-05-11T23:14:06.000Z</time></trkpt>
        <trkpt lat="29.540353" lon="103.33199"><ele>2436</ele><time>2026-05-11T23:14:07.000Z</time></trkpt>
        <trkpt lat="29.540335" lon="103.331997"><ele>2437</ele><time>2026-05-11T23:14:08.000Z</time></trkpt>
        <trkpt lat="29.540289" lon="103.332031"><ele>2439</ele><time>2026-05-11T23:14:13.000Z</time></trkpt>
        <trkpt lat="29.540297" lon="103.33206"><ele>2440</ele><time>2026-05-11T23:14:16.000Z</time></trkpt>
        <trkpt lat="29.540287" lon="103.332097"><ele>2440</ele><time>2026-05-11T23:14:19.000Z</time></trkpt>
        <trkpt lat="29.540266" lon="103.332131"><ele>2437</ele><time>2026-05-11T23:14:22.000Z</time></trkpt>
        <trkpt lat="29.540257" lon="103.332139"><ele>2437</ele><time>2026-05-11T23:14:23.000Z</time></trkpt>
        <trkpt lat="29.540249" lon="103.332146"><ele>2437</ele><time>2026-05-11T23:14:24.000Z</time></trkpt>
        <trkpt lat="29.540242" lon="103.332152"><ele>2437</ele><time>2026-05-11T23:14:25.000Z</time></trkpt>
        <trkpt lat="29.540233" lon="103.332157"><ele>2438</ele><time>2026-05-11T23:14:26.000Z</time></trkpt>
        <trkpt lat="29.540222" lon="103.332157"><ele>2438</ele><time>2026-05-11T23:14:27.000Z</time></trkpt>
        <trkpt lat="29.540182" lon="103.332145"><ele>2441</ele><time>2026-05-11T23:14:31.000Z</time></trkpt>
        <trkpt lat="29.540173" lon="103.33215"><ele>2441</ele><time>2026-05-11T23:14:32.000Z</time></trkpt>
        <trkpt lat="29.540152" lon="103.332148"><ele>2441</ele><time>2026-05-11T23:14:33.000Z</time></trkpt>
        <trkpt lat="29.540152" lon="103.332148"><ele>2441</ele><time>2026-05-11T23:14:34.000Z</time></trkpt>
        <trkpt lat="29.540097" lon="103.332182"><ele>2441</ele><time>2026-05-11T23:14:40.000Z</time></trkpt>
        <trkpt lat="29.539976" lon="103.332256"><ele>2440</ele><time>2026-05-11T23:14:52.000Z</time></trkpt>
        <trkpt lat="29.539809" lon="103.332347"><ele>2439</ele><time>2026-05-11T23:15:07.000Z</time></trkpt>
        <trkpt lat="29.539681" lon="103.332421"><ele>2436</ele><time>2026-05-11T23:15:28.000Z</time></trkpt>
        <trkpt lat="29.539678" lon="103.332435"><ele>2436</ele><time>2026-05-11T23:15:31.000Z</time></trkpt>
        <trkpt lat="29.539667" lon="103.332445"><ele>2436</ele><time>2026-05-11T23:15:33.000Z</time></trkpt>
        <trkpt lat="29.539612" lon="103.332503"><ele>2440</ele><time>2026-05-11T23:15:44.000Z</time></trkpt>
        <trkpt lat="29.539517" lon="103.332589"><ele>2446</ele><time>2026-05-11T23:16:03.000Z</time></trkpt>
        <trkpt lat="29.539512" lon="103.332591"><ele>2446</ele><time>2026-05-11T23:16:04.000Z</time></trkpt>
        <trkpt lat="29.539508" lon="103.332593"><ele>2446</ele><time>2026-05-11T23:16:05.000Z</time></trkpt>
        <trkpt lat="29.539484" lon="103.332608"><ele>2446</ele><time>2026-05-11T23:16:09.000Z</time></trkpt>
        <trkpt lat="29.539462" lon="103.332623"><ele>2448</ele><time>2026-05-11T23:16:13.000Z</time></trkpt>
        <trkpt lat="29.539457" lon="103.332626"><ele>2448</ele><time>2026-05-11T23:16:14.000Z</time></trkpt>
        <trkpt lat="29.539441" lon="103.332635"><ele>2449</ele><time>2026-05-11T23:16:16.000Z</time></trkpt>
        <trkpt lat="29.539424" lon="103.332654"><ele>2450</ele><time>2026-05-11T23:16:19.000Z</time></trkpt>
        <trkpt lat="29.53941" lon="103.332661"><ele>2451</ele><time>2026-05-11T23:16:21.000Z</time></trkpt>
        <trkpt lat="29.539386" lon="103.332706"><ele>2454</ele><time>2026-05-11T23:16:29.000Z</time></trkpt>
        <trkpt lat="29.539365" lon="103.332744"><ele>2455</ele><time>2026-05-11T23:16:34.000Z</time></trkpt>
        <trkpt lat="29.539332" lon="103.332781"><ele>2455</ele><time>2026-05-11T23:16:41.000Z</time></trkpt>
        <trkpt lat="29.53929" lon="103.332818"><ele>2456</ele><time>2026-05-11T23:16:47.000Z</time></trkpt>
        <trkpt lat="29.539129" lon="103.332915"><ele>2460</ele><time>2026-05-11T23:17:03.000Z</time></trkpt>
        <trkpt lat="29.53909" lon="103.332961"><ele>2462</ele><time>2026-05-11T23:17:08.000Z</time></trkpt>
        <trkpt lat="29.53905" lon="103.333007"><ele>2464</ele><time>2026-05-11T23:17:13.000Z</time></trkpt>
        <trkpt lat="29.539033" lon="103.333023"><ele>2464</ele><time>2026-05-11T23:17:15.000Z</time></trkpt>
        <trkpt lat="29.539005" lon="103.333053"><ele>2464</ele><time>2026-05-11T23:17:18.000Z</time></trkpt>
        <trkpt lat="29.538881" lon="103.333112"><ele>2462</ele><time>2026-05-11T23:17:29.000Z</time></trkpt>
        <trkpt lat="29.538783" lon="103.333135"><ele>2460</ele><time>2026-05-11T23:17:38.000Z</time></trkpt>
        <trkpt lat="29.538595" lon="103.333168"><ele>2460</ele><time>2026-05-11T23:17:57.000Z</time></trkpt>
        <trkpt lat="29.538418" lon="103.333195"><ele>2462</ele><time>2026-05-11T23:18:15.000Z</time></trkpt>
        <trkpt lat="29.538366" lon="103.333214"><ele>2461</ele><time>2026-05-11T23:18:23.000Z</time></trkpt>
        <trkpt lat="29.53831" lon="103.333264"><ele>2462</ele><time>2026-05-11T23:18:29.000Z</time></trkpt>
        <trkpt lat="29.538202" lon="103.333332"><ele>2464</ele><time>2026-05-11T23:18:38.000Z</time></trkpt>
        <trkpt lat="29.538143" lon="103.333377"><ele>2464</ele><time>2026-05-11T23:18:44.000Z</time></trkpt>
        <trkpt lat="29.538111" lon="103.333399"><ele>2465</ele><time>2026-05-11T23:18:47.000Z</time></trkpt>
        <trkpt lat="29.538098" lon="103.333409"><ele>2465</ele><time>2026-05-11T23:18:48.000Z</time></trkpt>
        <trkpt lat="29.538078" lon="103.333424"><ele>2465</ele><time>2026-05-11T23:18:50.000Z</time></trkpt>
        <trkpt lat="29.538056" lon="103.333434"><ele>2465</ele><time>2026-05-11T23:18:52.000Z</time></trkpt>
        <trkpt lat="29.538032" lon="103.333457"><ele>2465</ele><time>2026-05-11T23:18:55.000Z</time></trkpt>
        <trkpt lat="29.53802" lon="103.333458"><ele>2465</ele><time>2026-05-11T23:18:56.000Z</time></trkpt>
        <trkpt lat="29.537999" lon="103.333471"><ele>2465</ele><time>2026-05-11T23:18:58.000Z</time></trkpt>
        <trkpt lat="29.53788" lon="103.333545"><ele>2458</ele><time>2026-05-11T23:19:10.000Z</time></trkpt>
        <trkpt lat="29.537856" lon="103.333574"><ele>2459</ele><time>2026-05-11T23:19:13.000Z</time></trkpt>
        <trkpt lat="29.537715" lon="103.333707"><ele>2460</ele><time>2026-05-11T23:19:33.000Z</time></trkpt>
        <trkpt lat="29.537682" lon="103.33373"><ele>2460</ele><time>2026-05-11T23:19:37.000Z</time></trkpt>
        <trkpt lat="29.537655" lon="103.333742"><ele>2460</ele><time>2026-05-11T23:19:42.000Z</time></trkpt>
        <trkpt lat="29.537632" lon="103.333756"><ele>2462</ele><time>2026-05-11T23:19:45.000Z</time></trkpt>
        <trkpt lat="29.537607" lon="103.333763"><ele>2461</ele><time>2026-05-11T23:19:48.000Z</time></trkpt>
        <trkpt lat="29.537601" lon="103.333765"><ele>2461</ele><time>2026-05-11T23:19:49.000Z</time></trkpt>
        <trkpt lat="29.537576" lon="103.333766"><ele>2461</ele><time>2026-05-11T23:19:52.000Z</time></trkpt>
        <trkpt lat="29.537559" lon="103.333769"><ele>2462</ele><time>2026-05-11T23:19:55.000Z</time></trkpt>
        <trkpt lat="29.537538" lon="103.33378"><ele>2462</ele><time>2026-05-11T23:19:58.000Z</time></trkpt>
        <trkpt lat="29.537531" lon="103.333782"><ele>2463</ele><time>2026-05-11T23:19:59.000Z</time></trkpt>
        <trkpt lat="29.537484" lon="103.333778"><ele>2464</ele><time>2026-05-11T23:20:03.000Z</time></trkpt>
        <trkpt lat="29.537394" lon="103.33381"><ele>2470</ele><time>2026-05-11T23:20:14.000Z</time></trkpt>
        <trkpt lat="29.53732" lon="103.333881"><ele>2472</ele><time>2026-05-11T23:20:27.000Z</time></trkpt>
        <trkpt lat="29.537314" lon="103.33389"><ele>2472</ele><time>2026-05-11T23:20:29.000Z</time></trkpt>
        <trkpt lat="29.537279" lon="103.33394"><ele>2474</ele><time>2026-05-11T23:20:43.000Z</time></trkpt>
        <trkpt lat="29.537276" lon="103.334019"><ele>2476</ele><time>2026-05-11T23:20:53.000Z</time></trkpt>
        <trkpt lat="29.537255" lon="103.33406"><ele>2476</ele><time>2026-05-11T23:20:58.000Z</time></trkpt>
        <trkpt lat="29.537242" lon="103.33407"><ele>2475</ele><time>2026-05-11T23:21:00.000Z</time></trkpt>
        <trkpt lat="29.537232" lon="103.334073"><ele>2474</ele><time>2026-05-11T23:21:01.000Z</time></trkpt>
        <trkpt lat="29.537217" lon="103.334081"><ele>2475</ele><time>2026-05-11T23:21:04.000Z</time></trkpt>
        <trkpt lat="29.537209" lon="103.334089"><ele>2475</ele><time>2026-05-11T23:21:05.000Z</time></trkpt>
        <trkpt lat="29.53719" lon="103.334109"><ele>2475</ele><time>2026-05-11T23:21:09.000Z</time></trkpt>
        <trkpt lat="29.537151" lon="103.334134"><ele>2475</ele><time>2026-05-11T23:21:15.000Z</time></trkpt>
        <trkpt lat="29.537085" lon="103.334175"><ele>2477</ele><time>2026-05-11T23:21:27.000Z</time></trkpt>
        <trkpt lat="29.53704" lon="103.334189"><ele>2479</ele><time>2026-05-11T23:21:36.000Z</time></trkpt>
        <trkpt lat="29.537035" lon="103.33419"><ele>2479</ele><time>2026-05-11T23:21:38.000Z</time></trkpt>
        <trkpt lat="29.536862" lon="103.334264"><ele>2486</ele><time>2026-05-11T23:22:14.000Z</time></trkpt>
        <trkpt lat="29.536823" lon="103.334275"><ele>2488</ele><time>2026-05-11T23:22:21.000Z</time></trkpt>
        <trkpt lat="29.536747" lon="103.334302"><ele>2490</ele><time>2026-05-11T23:22:31.000Z</time></trkpt>
        <trkpt lat="29.536653" lon="103.334343"><ele>2493</ele><time>2026-05-11T23:22:42.000Z</time></trkpt>
        <trkpt lat="29.536623" lon="103.334342"><ele>2493</ele><time>2026-05-11T23:22:45.000Z</time></trkpt>
        <trkpt lat="29.536559" lon="103.33434"><ele>2492</ele><time>2026-05-11T23:22:52.000Z</time></trkpt>
        <trkpt lat="29.536526" lon="103.334341"><ele>2492</ele><time>2026-05-11T23:22:55.000Z</time></trkpt>
        <trkpt lat="29.536474" lon="103.334344"><ele>2491</ele><time>2026-05-11T23:23:00.000Z</time></trkpt>
        <trkpt lat="29.536447" lon="103.334348"><ele>2491</ele><time>2026-05-11T23:23:02.000Z</time></trkpt>
        <trkpt lat="29.536374" lon="103.334371"><ele>2491</ele><time>2026-05-11T23:23:13.000Z</time></trkpt>
        <trkpt lat="29.536266" lon="103.334369"><ele>2491</ele><time>2026-05-11T23:23:31.000Z</time></trkpt>
        <trkpt lat="29.536104" lon="103.334268"><ele>2493</ele><time>2026-05-11T23:23:57.000Z</time></trkpt>
        <trkpt lat="29.536094" lon="103.334259"><ele>2493</ele><time>2026-05-11T23:24:00.000Z</time></trkpt>
        <trkpt lat="29.536064" lon="103.334225"><ele>2491</ele><time>2026-05-11T23:24:09.000Z</time></trkpt>
        <trkpt lat="29.53606" lon="103.334225"><ele>2491</ele><time>2026-05-11T23:24:10.000Z</time></trkpt>
        <trkpt lat="29.536056" lon="103.334223"><ele>2491</ele><time>2026-05-11T23:24:11.000Z</time></trkpt>
        <trkpt lat="29.536047" lon="103.33421"><ele>2491</ele><time>2026-05-11T23:24:15.000Z</time></trkpt>
        <trkpt lat="29.536036" lon="103.334201"><ele>2491</ele><time>2026-05-11T23:24:19.000Z</time></trkpt>
        <trkpt lat="29.536034" lon="103.334198"><ele>2490</ele><time>2026-05-11T23:24:21.000Z</time></trkpt>
        <trkpt lat="29.53603" lon="103.334196"><ele>2489</ele><time>2026-05-11T23:24:22.000Z</time></trkpt>
        <trkpt lat="29.536033" lon="103.334194"><ele>2489</ele><time>2026-05-11T23:24:23.000Z</time></trkpt>
        <trkpt lat="29.536033" lon="103.334194"><ele>2489</ele><time>2026-05-11T23:24:24.000Z</time></trkpt>
        <trkpt lat="29.536026" lon="103.334195"><ele>2489</ele><time>2026-05-11T23:24:25.000Z</time></trkpt>
        <trkpt lat="29.536027" lon="103.334191"><ele>2489</ele><time>2026-05-11T23:24:26.000Z</time></trkpt>
        <trkpt lat="29.536025" lon="103.334189"><ele>2490</ele><time>2026-05-11T23:24:27.000Z</time></trkpt>
        <trkpt lat="29.53602" lon="103.334185"><ele>2490</ele><time>2026-05-11T23:24:28.000Z</time></trkpt>
        <trkpt lat="29.53602" lon="103.334185"><ele>2490</ele><time>2026-05-11T23:24:29.000Z</time></trkpt>
        <trkpt lat="29.535935" lon="103.33414"><ele>2500</ele><time>2026-05-11T23:24:42.000Z</time></trkpt>
        <trkpt lat="29.535879" lon="103.334103"><ele>2500</ele><time>2026-05-11T23:24:48.000Z</time></trkpt>
        <trkpt lat="29.535868" lon="103.334098"><ele>2501</ele><time>2026-05-11T23:24:49.000Z</time></trkpt>
        <trkpt lat="29.535818" lon="103.334066"><ele>2503</ele><time>2026-05-11T23:24:56.000Z</time></trkpt>
        <trkpt lat="29.535677" lon="103.333997"><ele>2505</ele><time>2026-05-11T23:25:13.000Z</time></trkpt>
        <trkpt lat="29.53563" lon="103.333959"><ele>2507</ele><time>2026-05-11T23:25:25.000Z</time></trkpt>
        <trkpt lat="29.535583" lon="103.333899"><ele>2510</ele><time>2026-05-11T23:25:41.000Z</time></trkpt>
        <trkpt lat="29.535562" lon="103.333846"><ele>2509</ele><time>2026-05-11T23:25:53.000Z</time></trkpt>
        <trkpt lat="29.535533" lon="103.33381"><ele>2510</ele><time>2026-05-11T23:26:00.000Z</time></trkpt>
        <trkpt lat="29.535514" lon="103.333794"><ele>2511</ele><time>2026-05-11T23:26:03.000Z</time></trkpt>
        <trkpt lat="29.535416" lon="103.333636"><ele>2520</ele><time>2026-05-11T23:26:24.000Z</time></trkpt>
        <trkpt lat="29.535336" lon="103.333448"><ele>2526</ele><time>2026-05-11T23:26:53.000Z</time></trkpt>
        <trkpt lat="29.535298" lon="103.333352"><ele>2523</ele><time>2026-05-11T23:27:05.000Z</time></trkpt>
        <trkpt lat="29.535225" lon="103.333178"><ele>2517</ele><time>2026-05-11T23:27:34.000Z</time></trkpt>
        <trkpt lat="29.535141" lon="103.333012"><ele>2518</ele><time>2026-05-11T23:28:04.000Z</time></trkpt>
        <trkpt lat="29.535121" lon="103.332978"><ele>2519</ele><time>2026-05-11T23:28:12.000Z</time></trkpt>
        <trkpt lat="29.535072" lon="103.33284"><ele>2527</ele><time>2026-05-11T23:28:37.000Z</time></trkpt>
        <trkpt lat="29.535078" lon="103.33284"><ele>2529</ele><time>2026-05-11T23:28:45.000Z</time></trkpt>
        <trkpt lat="29.535081" lon="103.332838"><ele>2530</ele><time>2026-05-11T23:28:50.000Z</time></trkpt>
        <trkpt lat="29.535014" lon="103.332812"><ele>2530</ele><time>2026-05-11T23:29:00.000Z</time></trkpt>
        <trkpt lat="29.534983" lon="103.332833"><ele>2534</ele><time>2026-05-11T23:29:05.000Z</time></trkpt>
        <trkpt lat="29.534943" lon="103.332863"><ele>2534</ele><time>2026-05-11T23:29:09.000Z</time></trkpt>
        <trkpt lat="29.534926" lon="103.332858"><ele>2536</ele><time>2026-05-11T23:29:13.000Z</time></trkpt>
        <trkpt lat="29.534902" lon="103.332859"><ele>2539</ele><time>2026-05-11T23:29:21.000Z</time></trkpt>
        <trkpt lat="29.5349" lon="103.332853"><ele>2538</ele><time>2026-05-11T23:29:24.000Z</time></trkpt>
        <trkpt lat="29.534874" lon="103.33292"><ele>2536</ele><time>2026-05-11T23:29:34.000Z</time></trkpt>
        <trkpt lat="29.534854" lon="103.332939"><ele>2535</ele><time>2026-05-11T23:29:36.000Z</time></trkpt>
        <trkpt lat="29.534747" lon="103.333012"><ele>2537</ele><time>2026-05-11T23:29:55.000Z</time></trkpt>
        <trkpt lat="29.534723" lon="103.333024"><ele>2538</ele><time>2026-05-11T23:30:00.000Z</time></trkpt>
        <trkpt lat="29.534715" lon="103.333027"><ele>2538</ele><time>2026-05-11T23:30:03.000Z</time></trkpt>
        <trkpt lat="29.534707" lon="103.333035"><ele>2539</ele><time>2026-05-11T23:30:05.000Z</time></trkpt>
        <trkpt lat="29.534685" lon="103.333041"><ele>2539</ele><time>2026-05-11T23:30:09.000Z</time></trkpt>
        <trkpt lat="29.534589" lon="103.333066"><ele>2535</ele><time>2026-05-11T23:30:25.000Z</time></trkpt>
        <trkpt lat="29.53454" lon="103.333067"><ele>2536</ele><time>2026-05-11T23:30:32.000Z</time></trkpt>
        <trkpt lat="29.53437" lon="103.333135"><ele>2536</ele><time>2026-05-11T23:31:07.000Z</time></trkpt>
        <trkpt lat="29.534246" lon="103.333107"><ele>2542</ele><time>2026-05-11T23:31:44.000Z</time></trkpt>
        <trkpt lat="29.534091" lon="103.333205"><ele>2550</ele><time>2026-05-11T23:32:18.000Z</time></trkpt>
        <trkpt lat="29.533913" lon="103.333209"><ele>2558</ele><time>2026-05-11T23:32:50.000Z</time></trkpt>
        <trkpt lat="29.533762" lon="103.333098"><ele>2564</ele><time>2026-05-11T23:33:34.000Z</time></trkpt>
        <trkpt lat="29.533615" lon="103.332979"><ele>2576</ele><time>2026-05-11T23:34:24.000Z</time></trkpt>
        <trkpt lat="29.533571" lon="103.33293"><ele>2579</ele><time>2026-05-11T23:34:38.000Z</time></trkpt>
        <trkpt lat="29.533563" lon="103.332924"><ele>2579</ele><time>2026-05-11T23:34:40.000Z</time></trkpt>
        <trkpt lat="29.533558" lon="103.332919"><ele>2580</ele><time>2026-05-11T23:34:41.000Z</time></trkpt>
        <trkpt lat="29.533418" lon="103.332785"><ele>2585</ele><time>2026-05-11T23:35:23.000Z</time></trkpt>
        <trkpt lat="29.533365" lon="103.332746"><ele>2586</ele><time>2026-05-11T23:35:35.000Z</time></trkpt>
        <trkpt lat="29.533355" lon="103.332741"><ele>2587</ele><time>2026-05-11T23:35:38.000Z</time></trkpt>
        <trkpt lat="29.53329" lon="103.332707"><ele>2591</ele><time>2026-05-11T23:36:02.000Z</time></trkpt>
        <trkpt lat="29.533211" lon="103.332657"><ele>2594</ele><time>2026-05-11T23:36:21.000Z</time></trkpt>
        <trkpt lat="29.53307" lon="103.332529"><ele>2601</ele><time>2026-05-11T23:37:07.000Z</time></trkpt>
        <trkpt lat="29.532927" lon="103.3324"><ele>2604</ele><time>2026-05-11T23:37:38.000Z</time></trkpt>
        <trkpt lat="29.532815" lon="103.332237"><ele>2623</ele><time>2026-05-11T23:38:24.000Z</time></trkpt>
        <trkpt lat="29.532752" lon="103.332094"><ele>2627</ele><time>2026-05-11T23:39:00.000Z</time></trkpt>
        <trkpt lat="29.5327" lon="103.332044"><ele>2625</ele><time>2026-05-11T23:39:21.000Z</time></trkpt>
        <trkpt lat="29.532664" lon="103.332029"><ele>2625</ele><time>2026-05-11T23:39:29.000Z</time></trkpt>
        <trkpt lat="29.532649" lon="103.332022"><ele>2624</ele><time>2026-05-11T23:39:32.000Z</time></trkpt>
        <trkpt lat="29.532558" lon="103.331844"><ele>2626</ele><time>2026-05-11T23:40:15.000Z</time></trkpt>
        <trkpt lat="29.532535" lon="103.331724"><ele>2627</ele><time>2026-05-11T23:40:40.000Z</time></trkpt>
        <trkpt lat="29.532532" lon="103.33172"><ele>2627</ele><time>2026-05-11T23:40:43.000Z</time></trkpt>
        <trkpt lat="29.532515" lon="103.331713"><ele>2627</ele><time>2026-05-11T23:40:48.000Z</time></trkpt>
        <trkpt lat="29.532473" lon="103.331634"><ele>2630</ele><time>2026-05-11T23:41:11.000Z</time></trkpt>
        <trkpt lat="29.532406" lon="103.331475"><ele>2633</ele><time>2026-05-11T23:41:36.000Z</time></trkpt>
        <trkpt lat="29.532382" lon="103.331384"><ele>2637</ele><time>2026-05-11T23:41:57.000Z</time></trkpt>
        <trkpt lat="29.532321" lon="103.331204"><ele>2646</ele><time>2026-05-11T23:42:45.000Z</time></trkpt>
        <trkpt lat="29.532298" lon="103.331185"><ele>2646</ele><time>2026-05-11T23:43:04.000Z</time></trkpt>
        <trkpt lat="29.532292" lon="103.33119"><ele>2646</ele><time>2026-05-11T23:43:10.000Z</time></trkpt>
        <trkpt lat="29.532268" lon="103.331306"><ele>2647</ele><time>2026-05-11T23:43:34.000Z</time></trkpt>
        <trkpt lat="29.532164" lon="103.331391"><ele>2652</ele><time>2026-05-11T23:44:08.000Z</time></trkpt>
        <trkpt lat="29.53216" lon="103.331379"><ele>2653</ele><time>2026-05-11T23:44:13.000Z</time></trkpt>
        <trkpt lat="29.532147" lon="103.331357"><ele>2654</ele><time>2026-05-11T23:44:19.000Z</time></trkpt>
        <trkpt lat="29.53214" lon="103.331348"><ele>2655</ele><time>2026-05-11T23:44:22.000Z</time></trkpt>
        <trkpt lat="29.532137" lon="103.331324"><ele>2656</ele><time>2026-05-11T23:44:25.000Z</time></trkpt>
        <trkpt lat="29.532126" lon="103.331262"><ele>2658</ele><time>2026-05-11T23:44:33.000Z</time></trkpt>
        <trkpt lat="29.532145" lon="103.331066"><ele>2664</ele><time>2026-05-11T23:45:02.000Z</time></trkpt>
        <trkpt lat="29.532136" lon="103.330938"><ele>2663</ele><time>2026-05-11T23:45:20.000Z</time></trkpt>
        <trkpt lat="29.532137" lon="103.330881"><ele>2663</ele><time>2026-05-11T23:45:28.000Z</time></trkpt>
        <trkpt lat="29.53214" lon="103.330666"><ele>2666</ele><time>2026-05-11T23:45:51.000Z</time></trkpt>
        <trkpt lat="29.532115" lon="103.330548"><ele>2668</ele><time>2026-05-11T23:46:03.000Z</time></trkpt>
        <trkpt lat="29.532113" lon="103.33051"><ele>2668</ele><time>2026-05-11T23:46:08.000Z</time></trkpt>
        <trkpt lat="29.532134" lon="103.330479"><ele>2669</ele><time>2026-05-11T23:46:14.000Z</time></trkpt>
        <trkpt lat="29.532142" lon="103.330456"><ele>2669</ele><time>2026-05-11T23:46:20.000Z</time></trkpt>
        <trkpt lat="29.532145" lon="103.330431"><ele>2671</ele><time>2026-05-11T23:46:26.000Z</time></trkpt>
        <trkpt lat="29.532141" lon="103.330436"><ele>2674</ele><time>2026-05-11T23:46:36.000Z</time></trkpt>
        <trkpt lat="29.532114" lon="103.330448"><ele>2676</ele><time>2026-05-11T23:46:47.000Z</time></trkpt>
        <trkpt lat="29.532082" lon="103.330315"><ele>2676</ele><time>2026-05-11T23:47:09.000Z</time></trkpt>
        <trkpt lat="29.532141" lon="103.330219"><ele>2681</ele><time>2026-05-11T23:47:59.000Z</time></trkpt>
        <trkpt lat="29.532138" lon="103.330228"><ele>2683</ele><time>2026-05-11T23:48:05.000Z</time></trkpt>
        <trkpt lat="29.532044" lon="103.330269"><ele>2693</ele><time>2026-05-11T23:48:39.000Z</time></trkpt>
        <trkpt lat="29.53194" lon="103.330267"><ele>2704</ele><time>2026-05-11T23:49:16.000Z</time></trkpt>
        <trkpt lat="29.531891" lon="103.330244"><ele>2704</ele><time>2026-05-11T23:49:27.000Z</time></trkpt>
        <trkpt lat="29.531883" lon="103.330237"><ele>2705</ele><time>2026-05-11T23:49:29.000Z</time></trkpt>
        <trkpt lat="29.53188" lon="103.330234"><ele>2706</ele><time>2026-05-11T23:49:30.000Z</time></trkpt>
        <trkpt lat="29.531875" lon="103.330229"><ele>2707</ele><time>2026-05-11T23:49:32.000Z</time></trkpt>
        <trkpt lat="29.531863" lon="103.330226"><ele>2708</ele><time>2026-05-11T23:49:35.000Z</time></trkpt>
        <trkpt lat="29.531851" lon="103.330221"><ele>2709</ele><time>2026-05-11T23:49:38.000Z</time></trkpt>
        <trkpt lat="29.531832" lon="103.330207"><ele>2709</ele><time>2026-05-11T23:49:41.000Z</time></trkpt>
        <trkpt lat="29.531828" lon="103.3302"><ele>2709</ele><time>2026-05-11T23:49:42.000Z</time></trkpt>
        <trkpt lat="29.531804" lon="103.330159"><ele>2710</ele><time>2026-05-11T23:49:47.000Z</time></trkpt>
        <trkpt lat="29.531688" lon="103.330056"><ele>2718</ele><time>2026-05-11T23:50:14.000Z</time></trkpt>
        <trkpt lat="29.531634" lon="103.330046"><ele>2723</ele><time>2026-05-11T23:50:30.000Z</time></trkpt>
        <trkpt lat="29.531593" lon="103.329988"><ele>2731</ele><time>2026-05-11T23:50:54.000Z</time></trkpt>
        <trkpt lat="29.531575" lon="103.329981"><ele>2731</ele><time>2026-05-11T23:50:58.000Z</time></trkpt>
        <trkpt lat="29.531524" lon="103.329949"><ele>2733</ele><time>2026-05-11T23:51:09.000Z</time></trkpt>
        <trkpt lat="29.531502" lon="103.329938"><ele>2733</ele><time>2026-05-11T23:51:13.000Z</time></trkpt>
        <trkpt lat="29.531484" lon="103.329943"><ele>2735</ele><time>2026-05-11T23:51:17.000Z</time></trkpt>
        <trkpt lat="29.531481" lon="103.329936"><ele>2740</ele><time>2026-05-11T23:51:24.000Z</time></trkpt>
        <trkpt lat="29.531479" lon="103.329933"><ele>2740</ele><time>2026-05-11T23:51:25.000Z</time></trkpt>
        <trkpt lat="29.531481" lon="103.329931"><ele>2741</ele><time>2026-05-11T23:51:26.000Z</time></trkpt>
        <trkpt lat="29.531461" lon="103.329913"><ele>2748</ele><time>2026-05-11T23:51:40.000Z</time></trkpt>
        <trkpt lat="29.531458" lon="103.32991"><ele>2749</ele><time>2026-05-11T23:51:41.000Z</time></trkpt>
        <trkpt lat="29.531459" lon="103.32991"><ele>2750</ele><time>2026-05-11T23:51:43.000Z</time></trkpt>
        <trkpt lat="29.53143" lon="103.329904"><ele>2747</ele><time>2026-05-11T23:51:55.000Z</time></trkpt>
        <trkpt lat="29.531431" lon="103.329902"><ele>2746</ele><time>2026-05-11T23:51:56.000Z</time></trkpt>
        <trkpt lat="29.531425" lon="103.3299"><ele>2746</ele><time>2026-05-11T23:51:59.000Z</time></trkpt>
        <trkpt lat="29.53142" lon="103.329895"><ele>2747</ele><time>2026-05-11T23:52:03.000Z</time></trkpt>
        <trkpt lat="29.531413" lon="103.329895"><ele>2748</ele><time>2026-05-11T23:52:04.000Z</time></trkpt>
        <trkpt lat="29.5314" lon="103.329885"><ele>2747</ele><time>2026-05-11T23:52:10.000Z</time></trkpt>
        <trkpt lat="29.5314" lon="103.329873"><ele>2747</ele><time>2026-05-11T23:52:12.000Z</time></trkpt>
        <trkpt lat="29.531401" lon="103.329866"><ele>2747</ele><time>2026-05-11T23:52:13.000Z</time></trkpt>
        <trkpt lat="29.5314" lon="103.329861"><ele>2747</ele><time>2026-05-11T23:52:14.000Z</time></trkpt>
        <trkpt lat="29.531397" lon="103.329858"><ele>2747</ele><time>2026-05-11T23:52:15.000Z</time></trkpt>
        <trkpt lat="29.531397" lon="103.329849"><ele>2748</ele><time>2026-05-11T23:52:16.000Z</time></trkpt>
        <trkpt lat="29.531396" lon="103.329847"><ele>2748</ele><time>2026-05-11T23:52:18.000Z</time></trkpt>
        <trkpt lat="29.531386" lon="103.329834"><ele>2748</ele><time>2026-05-11T23:52:22.000Z</time></trkpt>
        <trkpt lat="29.531384" lon="103.329834"><ele>2748</ele><time>2026-05-11T23:52:23.000Z</time></trkpt>
        <trkpt lat="29.531381" lon="103.329831"><ele>2748</ele><time>2026-05-11T23:52:24.000Z</time></trkpt>
        <trkpt lat="29.531381" lon="103.329828"><ele>2748</ele><time>2026-05-11T23:52:25.000Z</time></trkpt>
        <trkpt lat="29.531364" lon="103.329815"><ele>2747</ele><time>2026-05-11T23:52:29.000Z</time></trkpt>
        <trkpt lat="29.53136" lon="103.329813"><ele>2747</ele><time>2026-05-11T23:52:30.000Z</time></trkpt>
        <trkpt lat="29.531356" lon="103.329813"><ele>2746</ele><time>2026-05-11T23:52:31.000Z</time></trkpt>
        <trkpt lat="29.531353" lon="103.329811"><ele>2746</ele><time>2026-05-11T23:52:32.000Z</time></trkpt>
        <trkpt lat="29.531352" lon="103.329808"><ele>2746</ele><time>2026-05-11T23:52:33.000Z</time></trkpt>
        <trkpt lat="29.531349" lon="103.329804"><ele>2746</ele><time>2026-05-11T23:52:34.000Z</time></trkpt>
        <trkpt lat="29.531346" lon="103.329799"><ele>2746</ele><time>2026-05-11T23:52:36.000Z</time></trkpt>
        <trkpt lat="29.531337" lon="103.329798"><ele>2746</ele><time>2026-05-11T23:52:41.000Z</time></trkpt>
        <trkpt lat="29.531337" lon="103.329799"><ele>2746</ele><time>2026-05-11T23:52:42.000Z</time></trkpt>
        <trkpt lat="29.531336" lon="103.329798"><ele>2746</ele><time>2026-05-11T23:52:43.000Z</time></trkpt>
        <trkpt lat="29.531336" lon="103.329797"><ele>2746</ele><time>2026-05-11T23:52:44.000Z</time></trkpt>
        <trkpt lat="29.531336" lon="103.329737"><ele>2744</ele><time>2026-05-11T23:52:58.000Z</time></trkpt>
        <trkpt lat="29.531328" lon="103.329733"><ele>2744</ele><time>2026-05-11T23:53:07.000Z</time></trkpt>
        <trkpt lat="29.531327" lon="103.329735"><ele>2743</ele><time>2026-05-11T23:53:11.000Z</time></trkpt>
        <trkpt lat="29.531318" lon="103.329729"><ele>2744</ele><time>2026-05-11T23:53:23.000Z</time></trkpt>
        <trkpt lat="29.531325" lon="103.329727"><ele>2744</ele><time>2026-05-11T23:53:28.000Z</time></trkpt>
        <trkpt lat="29.531339" lon="103.329723"><ele>2746</ele><time>2026-05-11T23:53:32.000Z</time></trkpt>
        <trkpt lat="29.531346" lon="103.329756"><ele>2745</ele><time>2026-05-11T23:53:54.000Z</time></trkpt>
        <trkpt lat="29.531299" lon="103.329735"><ele>2746</ele><time>2026-05-11T23:54:02.000Z</time></trkpt>
        <trkpt lat="29.531293" lon="103.329724"><ele>2746</ele><time>2026-05-11T23:54:05.000Z</time></trkpt>
        <trkpt lat="29.531286" lon="103.329719"><ele>2747</ele><time>2026-05-11T23:54:07.000Z</time></trkpt>
        <trkpt lat="29.531277" lon="103.329708"><ele>2748</ele><time>2026-05-11T23:54:12.000Z</time></trkpt>
        <trkpt lat="29.531276" lon="103.329703"><ele>2748</ele><time>2026-05-11T23:54:14.000Z</time></trkpt>
        <trkpt lat="29.531267" lon="103.329698"><ele>2748</ele><time>2026-05-11T23:54:16.000Z</time></trkpt>
        <trkpt lat="29.531254" lon="103.329686"><ele>2748</ele><time>2026-05-11T23:54:17.000Z</time></trkpt>
        <trkpt lat="29.531254" lon="103.329677"><ele>2749</ele><time>2026-05-11T23:54:20.000Z</time></trkpt>
        <trkpt lat="29.53125" lon="103.329672"><ele>2749</ele><time>2026-05-11T23:54:21.000Z</time></trkpt>
        <trkpt lat="29.531248" lon="103.329666"><ele>2749</ele><time>2026-05-11T23:54:22.000Z</time></trkpt>
        <trkpt lat="29.531188" lon="103.329602"><ele>2755</ele><time>2026-05-11T23:54:43.000Z</time></trkpt>
        <trkpt lat="29.531187" lon="103.329604"><ele>2755</ele><time>2026-05-11T23:54:44.000Z</time></trkpt>
        <trkpt lat="29.531169" lon="103.329538"><ele>2759</ele><time>2026-05-11T23:55:06.000Z</time></trkpt>
        <trkpt lat="29.531131" lon="103.329455"><ele>2760</ele><time>2026-05-11T23:55:21.000Z</time></trkpt>
        <trkpt lat="29.531109" lon="103.329316"><ele>2762</ele><time>2026-05-11T23:55:41.000Z</time></trkpt>
        <trkpt lat="29.531091" lon="103.329185"><ele>2766</ele><time>2026-05-11T23:55:59.000Z</time></trkpt>
        <trkpt lat="29.53108" lon="103.329066"><ele>2767</ele><time>2026-05-11T23:56:12.000Z</time></trkpt>
        <trkpt lat="29.53106" lon="103.328969"><ele>2768</ele><time>2026-05-11T23:56:25.000Z</time></trkpt>
        <trkpt lat="29.531066" lon="103.328852"><ele>2769</ele><time>2026-05-11T23:56:41.000Z</time></trkpt>
        <trkpt lat="29.53111" lon="103.328642"><ele>2774</ele><time>2026-05-11T23:57:10.000Z</time></trkpt>
        <trkpt lat="29.531161" lon="103.328451"><ele>2774</ele><time>2026-05-11T23:57:41.000Z</time></trkpt>
        <trkpt lat="29.531144" lon="103.328414"><ele>2775</ele><time>2026-05-11T23:57:46.000Z</time></trkpt>
        <trkpt lat="29.531148" lon="103.328407"><ele>2775</ele><time>2026-05-11T23:57:47.000Z</time></trkpt>
        <trkpt lat="29.531152" lon="103.328379"><ele>2776</ele><time>2026-05-11T23:57:50.000Z</time></trkpt>
        <trkpt lat="29.531151" lon="103.328368"><ele>2776</ele><time>2026-05-11T23:57:51.000Z</time></trkpt>
        <trkpt lat="29.531197" lon="103.328242"><ele>2779</ele><time>2026-05-11T23:58:03.000Z</time></trkpt>
        <trkpt lat="29.531224" lon="103.328142"><ele>2783</ele><time>2026-05-11T23:58:14.000Z</time></trkpt>
        <trkpt lat="29.531234" lon="103.328086"><ele>2784</ele><time>2026-05-11T23:58:20.000Z</time></trkpt>
        <trkpt lat="29.531239" lon="103.327987"><ele>2783</ele><time>2026-05-11T23:58:32.000Z</time></trkpt>
        <trkpt lat="29.531235" lon="103.327939"><ele>2784</ele><time>2026-05-11T23:58:39.000Z</time></trkpt>
        <trkpt lat="29.53123" lon="103.327916"><ele>2784</ele><time>2026-05-11T23:58:42.000Z</time></trkpt>
        <trkpt lat="29.531216" lon="103.327715"><ele>2786</ele><time>2026-05-11T23:59:15.000Z</time></trkpt>
        <trkpt lat="29.531213" lon="103.327689"><ele>2787</ele><time>2026-05-11T23:59:18.000Z</time></trkpt>
        <trkpt lat="29.531207" lon="103.32766"><ele>2789</ele><time>2026-05-11T23:59:22.000Z</time></trkpt>
        <trkpt lat="29.531196" lon="103.327575"><ele>2792</ele><time>2026-05-11T23:59:35.000Z</time></trkpt>
        <trkpt lat="29.531199" lon="103.327381"><ele>2801</ele><time>2026-05-12T00:00:17.000Z</time></trkpt>
        <trkpt lat="29.5312" lon="103.327368"><ele>2801</ele><time>2026-05-12T00:00:22.000Z</time></trkpt>
        <trkpt lat="29.531159" lon="103.327167"><ele>2805</ele><time>2026-05-12T00:01:04.000Z</time></trkpt>
        <trkpt lat="29.531032" lon="103.327073"><ele>2813</ele><time>2026-05-12T00:01:50.000Z</time></trkpt>
        <trkpt lat="29.530947" lon="103.327024"><ele>2817</ele><time>2026-05-12T00:02:10.000Z</time></trkpt>
        <trkpt lat="29.530863" lon="103.326986"><ele>2819</ele><time>2026-05-12T00:02:26.000Z</time></trkpt>
        <trkpt lat="29.530856" lon="103.326979"><ele>2820</ele><time>2026-05-12T00:02:29.000Z</time></trkpt>
        <trkpt lat="29.530828" lon="103.326919"><ele>2824</ele><time>2026-05-12T00:02:43.000Z</time></trkpt>
        <trkpt lat="29.530708" lon="103.326876"><ele>2829</ele><time>2026-05-12T00:03:31.000Z</time></trkpt>
        <trkpt lat="29.530548" lon="103.326944"><ele>2838</ele><time>2026-05-12T00:04:11.000Z</time></trkpt>
        <trkpt lat="29.530382" lon="103.327026"><ele>2845</ele><time>2026-05-12T00:04:42.000Z</time></trkpt>
        <trkpt lat="29.530361" lon="103.327032"><ele>2846</ele><time>2026-05-12T00:04:45.000Z</time></trkpt>
        <trkpt lat="29.530248" lon="103.327132"><ele>2858</ele><time>2026-05-12T00:05:10.000Z</time></trkpt>
        <trkpt lat="29.530224" lon="103.327146"><ele>2859</ele><time>2026-05-12T00:05:14.000Z</time></trkpt>
        <trkpt lat="29.530124" lon="103.327239"><ele>2862</ele><time>2026-05-12T00:05:29.000Z</time></trkpt>
        <trkpt lat="29.530107" lon="103.327267"><ele>2863</ele><time>2026-05-12T00:05:33.000Z</time></trkpt>
        <trkpt lat="29.530095" lon="103.327282"><ele>2863</ele><time>2026-05-12T00:05:34.000Z</time></trkpt>
        <trkpt lat="29.53009" lon="103.327287"><ele>2862</ele><time>2026-05-12T00:05:36.000Z</time></trkpt>
        <trkpt lat="29.529995" lon="103.32739"><ele>2860</ele><time>2026-05-12T00:05:53.000Z</time></trkpt>
        <trkpt lat="29.529952" lon="103.327487"><ele>2858</ele><time>2026-05-12T00:06:03.000Z</time></trkpt>
        <trkpt lat="29.529914" lon="103.327588"><ele>2857</ele><time>2026-05-12T00:06:13.000Z</time></trkpt>
        <trkpt lat="29.529909" lon="103.327651"><ele>2858</ele><time>2026-05-12T00:06:18.000Z</time></trkpt>
        <trkpt lat="29.529866" lon="103.327738"><ele>2861</ele><time>2026-05-12T00:06:28.000Z</time></trkpt>
        <trkpt lat="29.529842" lon="103.327774"><ele>2861</ele><time>2026-05-12T00:06:31.000Z</time></trkpt>
        <trkpt lat="29.529814" lon="103.327791"><ele>2861</ele><time>2026-05-12T00:06:33.000Z</time></trkpt>
        <trkpt lat="29.529702" lon="103.327847"><ele>2865</ele><time>2026-05-12T00:06:45.000Z</time></trkpt>
        <trkpt lat="29.529701" lon="103.327841"><ele>2866</ele><time>2026-05-12T00:06:59.000Z</time></trkpt>
        <trkpt lat="29.529612" lon="103.327857"><ele>2864</ele><time>2026-05-12T00:07:16.000Z</time></trkpt>
        <trkpt lat="29.529605" lon="103.327859"><ele>2864</ele><time>2026-05-12T00:07:17.000Z</time></trkpt>
        <trkpt lat="29.529592" lon="103.327859"><ele>2863</ele><time>2026-05-12T00:07:19.000Z</time></trkpt>
        <trkpt lat="29.529584" lon="103.327855"><ele>2861</ele><time>2026-05-12T00:07:25.000Z</time></trkpt>
        <trkpt lat="29.529586" lon="103.327858"><ele>2861</ele><time>2026-05-12T00:07:32.000Z</time></trkpt>
        <trkpt lat="29.529522" lon="103.327838"><ele>2858</ele><time>2026-05-12T00:07:54.000Z</time></trkpt>
        <trkpt lat="29.52948" lon="103.327828"><ele>2856</ele><time>2026-05-12T00:07:58.000Z</time></trkpt>
        <trkpt lat="29.529407" lon="103.32781"><ele>2856</ele><time>2026-05-12T00:08:05.000Z</time></trkpt>
        <trkpt lat="29.529377" lon="103.327814"><ele>2858</ele><time>2026-05-12T00:08:12.000Z</time></trkpt>
        <trkpt lat="29.529351" lon="103.327841"><ele>2858</ele><time>2026-05-12T00:08:23.000Z</time></trkpt>
        <trkpt lat="29.529349" lon="103.327855"><ele>2857</ele><time>2026-05-12T00:08:27.000Z</time></trkpt>
        <trkpt lat="29.52935" lon="103.327866"><ele>2855</ele><time>2026-05-12T00:08:33.000Z</time></trkpt>
        <trkpt lat="29.529339" lon="103.327904"><ele>2854</ele><time>2026-05-12T00:08:40.000Z</time></trkpt>
        <trkpt lat="29.529255" lon="103.328073"><ele>2855</ele><time>2026-05-12T00:09:07.000Z</time></trkpt>
        <trkpt lat="29.529249" lon="103.328279"><ele>2864</ele><time>2026-05-12T00:09:33.000Z</time></trkpt>
        <trkpt lat="29.529245" lon="103.328282"><ele>2864</ele><time>2026-05-12T00:09:34.000Z</time></trkpt>
        <trkpt lat="29.52921" lon="103.328325"><ele>2864</ele><time>2026-05-12T00:09:46.000Z</time></trkpt>
        <trkpt lat="29.529201" lon="103.328333"><ele>2864</ele><time>2026-05-12T00:09:49.000Z</time></trkpt>
        <trkpt lat="29.529199" lon="103.328371"><ele>2866</ele><time>2026-05-12T00:09:56.000Z</time></trkpt>
        <trkpt lat="29.529211" lon="103.328392"><ele>2867</ele><time>2026-05-12T00:10:01.000Z</time></trkpt>
        <trkpt lat="29.529206" lon="103.328399"><ele>2868</ele><time>2026-05-12T00:10:03.000Z</time></trkpt>
        <trkpt lat="29.529203" lon="103.328409"><ele>2868</ele><time>2026-05-12T00:10:05.000Z</time></trkpt>
        <trkpt lat="29.529175" lon="103.328599"><ele>2881</ele><time>2026-05-12T00:10:37.000Z</time></trkpt>
        <trkpt lat="29.529098" lon="103.328786"><ele>2884</ele><time>2026-05-12T00:11:05.000Z</time></trkpt>
        <trkpt lat="29.529071" lon="103.328808"><ele>2884</ele><time>2026-05-12T00:11:10.000Z</time></trkpt>
        <trkpt lat="29.529047" lon="103.328834"><ele>2884</ele><time>2026-05-12T00:11:14.000Z</time></trkpt>
        <trkpt lat="29.528989" lon="103.329005"><ele>2889</ele><time>2026-05-12T00:11:34.000Z</time></trkpt>
        <trkpt lat="29.528972" lon="103.329024"><ele>2890</ele><time>2026-05-12T00:11:37.000Z</time></trkpt>
        <trkpt lat="29.528967" lon="103.329029"><ele>2890</ele><time>2026-05-12T00:11:38.000Z</time></trkpt>
        <trkpt lat="29.52895" lon="103.329078"><ele>2894</ele><time>2026-05-12T00:11:51.000Z</time></trkpt>
        <trkpt lat="29.528938" lon="103.329092"><ele>2894</ele><time>2026-05-12T00:11:54.000Z</time></trkpt>
        <trkpt lat="29.52893" lon="103.329095"><ele>2894</ele><time>2026-05-12T00:11:55.000Z</time></trkpt>
        <trkpt lat="29.52891" lon="103.329111"><ele>2894</ele><time>2026-05-12T00:11:58.000Z</time></trkpt>
        <trkpt lat="29.528879" lon="103.329159"><ele>2891</ele><time>2026-05-12T00:12:07.000Z</time></trkpt>
        <trkpt lat="29.52884" lon="103.329213"><ele>2889</ele><time>2026-05-12T00:12:16.000Z</time></trkpt>
        <trkpt lat="29.528839" lon="103.329224"><ele>2889</ele><time>2026-05-12T00:12:17.000Z</time></trkpt>
        <trkpt lat="29.52877" lon="103.329429"><ele>2892</ele><time>2026-05-12T00:12:38.000Z</time></trkpt>
        <trkpt lat="29.528742" lon="103.32957"><ele>2894</ele><time>2026-05-12T00:12:53.000Z</time></trkpt>
        <trkpt lat="29.528731" lon="103.329596"><ele>2894</ele><time>2026-05-12T00:12:57.000Z</time></trkpt>
        <trkpt lat="29.528725" lon="103.329621"><ele>2895</ele><time>2026-05-12T00:13:00.000Z</time></trkpt>
        <trkpt lat="29.528714" lon="103.32978"><ele>2898</ele><time>2026-05-12T00:13:21.000Z</time></trkpt>
        <trkpt lat="29.528714" lon="103.329811"><ele>2899</ele><time>2026-05-12T00:13:25.000Z</time></trkpt>
        <trkpt lat="29.528648" lon="103.330002"><ele>2904</ele><time>2026-05-12T00:13:44.000Z</time></trkpt>
        <trkpt lat="29.528609" lon="103.330073"><ele>2905</ele><time>2026-05-12T00:13:51.000Z</time></trkpt>
        <trkpt lat="29.528536" lon="103.33018"><ele>2909</ele><time>2026-05-12T00:14:03.000Z</time></trkpt>
        <trkpt lat="29.528511" lon="103.330193"><ele>2908</ele><time>2026-05-12T00:14:06.000Z</time></trkpt>
        <trkpt lat="29.52849" lon="103.330223"><ele>2911</ele><time>2026-05-12T00:14:13.000Z</time></trkpt>
        <trkpt lat="29.52848" lon="103.33034"><ele>2915</ele><time>2026-05-12T00:14:28.000Z</time></trkpt>
        <trkpt lat="29.528478" lon="103.330358"><ele>2915</ele><time>2026-05-12T00:14:30.000Z</time></trkpt>
        <trkpt lat="29.528472" lon="103.330377"><ele>2916</ele><time>2026-05-12T00:14:32.000Z</time></trkpt>
        <trkpt lat="29.528455" lon="103.330399"><ele>2915</ele><time>2026-05-12T00:14:34.000Z</time></trkpt>
        <trkpt lat="29.528445" lon="103.330418"><ele>2915</ele><time>2026-05-12T00:14:36.000Z</time></trkpt>
        <trkpt lat="29.528441" lon="103.330445"><ele>2916</ele><time>2026-05-12T00:14:39.000Z</time></trkpt>
        <trkpt lat="29.528441" lon="103.330457"><ele>2916</ele><time>2026-05-12T00:14:41.000Z</time></trkpt>
        <trkpt lat="29.528427" lon="103.330513"><ele>2915</ele><time>2026-05-12T00:14:51.000Z</time></trkpt>
        <trkpt lat="29.528392" lon="103.330578"><ele>2913</ele><time>2026-05-12T00:15:02.000Z</time></trkpt>
        <trkpt lat="29.528384" lon="103.33061"><ele>2911</ele><time>2026-05-12T00:15:07.000Z</time></trkpt>
        <trkpt lat="29.528336" lon="103.330657"><ele>2907</ele><time>2026-05-12T00:15:15.000Z</time></trkpt>
        <trkpt lat="29.528311" lon="103.330682"><ele>2906</ele><time>2026-05-12T00:15:20.000Z</time></trkpt>
        <trkpt lat="29.528288" lon="103.330758"><ele>2913</ele><time>2026-05-12T00:15:41.000Z</time></trkpt>
        <trkpt lat="29.528215" lon="103.330842"><ele>2911</ele><time>2026-05-12T00:15:56.000Z</time></trkpt>
        <trkpt lat="29.528198" lon="103.330877"><ele>2913</ele><time>2026-05-12T00:16:01.000Z</time></trkpt>
        <trkpt lat="29.528191" lon="103.33091"><ele>2915</ele><time>2026-05-12T00:16:07.000Z</time></trkpt>
        <trkpt lat="29.528189" lon="103.330917"><ele>2916</ele><time>2026-05-12T00:16:08.000Z</time></trkpt>
        <trkpt lat="29.528157" lon="103.331079"><ele>2927</ele><time>2026-05-12T00:16:33.000Z</time></trkpt>
        <trkpt lat="29.528152" lon="103.331101"><ele>2927</ele><time>2026-05-12T00:16:38.000Z</time></trkpt>
        <trkpt lat="29.528009" lon="103.331236"><ele>2920</ele><time>2026-05-12T00:17:07.000Z</time></trkpt>
        <trkpt lat="29.527865" lon="103.331358"><ele>2920</ele><time>2026-05-12T00:17:31.000Z</time></trkpt>
        <trkpt lat="29.527792" lon="103.331523"><ele>2922</ele><time>2026-05-12T00:18:04.000Z</time></trkpt>
        <trkpt lat="29.527776" lon="103.33174"><ele>2928</ele><time>2026-05-12T00:18:29.000Z</time></trkpt>
        <trkpt lat="29.527794" lon="103.331949"><ele>2937</ele><time>2026-05-12T00:18:50.000Z</time></trkpt>
        <trkpt lat="29.527784" lon="103.332018"><ele>2941</ele><time>2026-05-12T00:19:00.000Z</time></trkpt>
        <trkpt lat="29.527761" lon="103.332041"><ele>2941</ele><time>2026-05-12T00:19:05.000Z</time></trkpt>
        <trkpt lat="29.527757" lon="103.332045"><ele>2941</ele><time>2026-05-12T00:19:06.000Z</time></trkpt>
        <trkpt lat="29.527747" lon="103.332045"><ele>2941</ele><time>2026-05-12T00:19:07.000Z</time></trkpt>
        <trkpt lat="29.527644" lon="103.332141"><ele>2937</ele><time>2026-05-12T00:19:27.000Z</time></trkpt>
        <trkpt lat="29.527608" lon="103.332169"><ele>2938</ele><time>2026-05-12T00:19:34.000Z</time></trkpt>
        <trkpt lat="29.52759" lon="103.332233"><ele>2941</ele><time>2026-05-12T00:19:57.000Z</time></trkpt>
        <trkpt lat="29.527607" lon="103.332307"><ele>2940</ele><time>2026-05-12T00:20:09.000Z</time></trkpt>
        <trkpt lat="29.527608" lon="103.332327"><ele>2940</ele><time>2026-05-12T00:20:12.000Z</time></trkpt>
        <trkpt lat="29.527602" lon="103.332336"><ele>2940</ele><time>2026-05-12T00:20:14.000Z</time></trkpt>
        <trkpt lat="29.527603" lon="103.332341"><ele>2941</ele><time>2026-05-12T00:20:17.000Z</time></trkpt>
        <trkpt lat="29.527473" lon="103.332476"><ele>2944</ele><time>2026-05-12T00:20:44.000Z</time></trkpt>
        <trkpt lat="29.527338" lon="103.332476"><ele>2949</ele><time>2026-05-12T00:21:23.000Z</time></trkpt>
        <trkpt lat="29.527343" lon="103.332479"><ele>2948</ele><time>2026-05-12T00:21:34.000Z</time></trkpt>
        <trkpt lat="29.527345" lon="103.332475"><ele>2946</ele><time>2026-05-12T00:21:40.000Z</time></trkpt>
        <trkpt lat="29.527339" lon="103.332467"><ele>2946</ele><time>2026-05-12T00:21:44.000Z</time></trkpt>
        <trkpt lat="29.527321" lon="103.332477"><ele>2948</ele><time>2026-05-12T00:22:05.000Z</time></trkpt>
        <trkpt lat="29.52728" lon="103.332429"><ele>2948</ele><time>2026-05-12T00:22:12.000Z</time></trkpt>
        <trkpt lat="29.527266" lon="103.332413"><ele>2948</ele><time>2026-05-12T00:22:14.000Z</time></trkpt>
        <trkpt lat="29.527215" lon="103.33233"><ele>2949</ele><time>2026-05-12T00:22:23.000Z</time></trkpt>
        <trkpt lat="29.527173" lon="103.33231"><ele>2949</ele><time>2026-05-12T00:22:30.000Z</time></trkpt>
        <trkpt lat="29.527118" lon="103.332355"><ele>2948</ele><time>2026-05-12T00:22:40.000Z</time></trkpt>
        <trkpt lat="29.527115" lon="103.332361"><ele>2948</ele><time>2026-05-12T00:22:41.000Z</time></trkpt>
        <trkpt lat="29.527083" lon="103.332377"><ele>2946</ele><time>2026-05-12T00:22:45.000Z</time></trkpt>
        <trkpt lat="29.527067" lon="103.332388"><ele>2946</ele><time>2026-05-12T00:22:51.000Z</time></trkpt>
        <trkpt lat="29.527053" lon="103.332396"><ele>2945</ele><time>2026-05-12T00:22:54.000Z</time></trkpt>
        <trkpt lat="29.527044" lon="103.3324"><ele>2945</ele><time>2026-05-12T00:22:55.000Z</time></trkpt>
        <trkpt lat="29.527019" lon="103.332445"><ele>2944</ele><time>2026-05-12T00:23:04.000Z</time></trkpt>
        <trkpt lat="29.527017" lon="103.332511"><ele>2946</ele><time>2026-05-12T00:23:15.000Z</time></trkpt>
        <trkpt lat="29.527063" lon="103.332714"><ele>2951</ele><time>2026-05-12T00:23:38.000Z</time></trkpt>
        <trkpt lat="29.527073" lon="103.332771"><ele>2952</ele><time>2026-05-12T00:23:44.000Z</time></trkpt>
        <trkpt lat="29.527082" lon="103.332856"><ele>2958</ele><time>2026-05-12T00:23:57.000Z</time></trkpt>
        <trkpt lat="29.527079" lon="103.332869"><ele>2959</ele><time>2026-05-12T00:23:59.000Z</time></trkpt>
        <trkpt lat="29.52715" lon="103.333064"><ele>2965</ele><time>2026-05-12T00:24:22.000Z</time></trkpt>
        <trkpt lat="29.527181" lon="103.333209"><ele>2967</ele><time>2026-05-12T00:24:39.000Z</time></trkpt>
        <trkpt lat="29.527056" lon="103.333364"><ele>2966</ele><time>2026-05-12T00:25:01.000Z</time></trkpt>
        <trkpt lat="29.526992" lon="103.333456"><ele>2969</ele><time>2026-05-12T00:25:19.000Z</time></trkpt>
        <trkpt lat="29.526946" lon="103.333484"><ele>2970</ele><time>2026-05-12T00:25:29.000Z</time></trkpt>
        <trkpt lat="29.526914" lon="103.333491"><ele>2970</ele><time>2026-05-12T00:25:36.000Z</time></trkpt>
        <trkpt lat="29.526885" lon="103.333507"><ele>2971</ele><time>2026-05-12T00:25:43.000Z</time></trkpt>
        <trkpt lat="29.526865" lon="103.333519"><ele>2973</ele><time>2026-05-12T00:25:52.000Z</time></trkpt>
        <trkpt lat="29.526791" lon="103.333537"><ele>2974</ele><time>2026-05-12T00:26:09.000Z</time></trkpt>
        <trkpt lat="29.526674" lon="103.333524"><ele>2976</ele><time>2026-05-12T00:26:32.000Z</time></trkpt>
        <trkpt lat="29.526522" lon="103.333553"><ele>2975</ele><time>2026-05-12T00:26:58.000Z</time></trkpt>
        <trkpt lat="29.526348" lon="103.333636"><ele>2973</ele><time>2026-05-12T00:27:25.000Z</time></trkpt>
        <trkpt lat="29.526343" lon="103.333648"><ele>2973</ele><time>2026-05-12T00:27:26.000Z</time></trkpt>
        <trkpt lat="29.526336" lon="103.333657"><ele>2973</ele><time>2026-05-12T00:27:27.000Z</time></trkpt>
        <trkpt lat="29.526302" lon="103.333674"><ele>2974</ele><time>2026-05-12T00:27:31.000Z</time></trkpt>
        <trkpt lat="29.52628" lon="103.333685"><ele>2975</ele><time>2026-05-12T00:27:34.000Z</time></trkpt>
        <trkpt lat="29.526242" lon="103.333745"><ele>2980</ele><time>2026-05-12T00:27:45.000Z</time></trkpt>
        <trkpt lat="29.526097" lon="103.333856"><ele>2994</ele><time>2026-05-12T00:28:20.000Z</time></trkpt>
        <trkpt lat="29.526059" lon="103.333869"><ele>2995</ele><time>2026-05-12T00:28:24.000Z</time></trkpt>
        <trkpt lat="29.525948" lon="103.333956"><ele>3001</ele><time>2026-05-12T00:28:50.000Z</time></trkpt>
        <trkpt lat="29.52579" lon="103.334036"><ele>2997</ele><time>2026-05-12T00:29:07.000Z</time></trkpt>
        <trkpt lat="29.525761" lon="103.334068"><ele>2997</ele><time>2026-05-12T00:29:13.000Z</time></trkpt>
        <trkpt lat="29.525646" lon="103.334199"><ele>2995</ele><time>2026-05-12T00:29:40.000Z</time></trkpt>
        <trkpt lat="29.525622" lon="103.334216"><ele>2995</ele><time>2026-05-12T00:29:46.000Z</time></trkpt>
        <trkpt lat="29.525556" lon="103.334333"><ele>2997</ele><time>2026-05-12T00:30:04.000Z</time></trkpt>
        <trkpt lat="29.525452" lon="103.334506"><ele>3008</ele><time>2026-05-12T00:30:40.000Z</time></trkpt>
        <trkpt lat="29.525313" lon="103.334641"><ele>3017</ele><time>2026-05-12T00:31:11.000Z</time></trkpt>
        <trkpt lat="29.525143" lon="103.334716"><ele>3016</ele><time>2026-05-12T00:31:37.000Z</time></trkpt>
        <trkpt lat="29.525007" lon="103.334815"><ele>3019</ele><time>2026-05-12T00:32:21.000Z</time></trkpt>
        <trkpt lat="29.524918" lon="103.334795"><ele>3020</ele><time>2026-05-12T00:32:31.000Z</time></trkpt>
        <trkpt lat="29.524856" lon="103.334756"><ele>3023</ele><time>2026-05-12T00:32:39.000Z</time></trkpt>
        <trkpt lat="29.524829" lon="103.334758"><ele>3024</ele><time>2026-05-12T00:32:46.000Z</time></trkpt>
        <trkpt lat="29.524767" lon="103.334746"><ele>3026</ele><time>2026-05-12T00:33:01.000Z</time></trkpt>
        <trkpt lat="29.524751" lon="103.334759"><ele>3026</ele><time>2026-05-12T00:33:09.000Z</time></trkpt>
        <trkpt lat="29.524747" lon="103.334764"><ele>3026</ele><time>2026-05-12T00:33:10.000Z</time></trkpt>
        <trkpt lat="29.524671" lon="103.334781"><ele>3027</ele><time>2026-05-12T00:33:26.000Z</time></trkpt>
        <trkpt lat="29.524638" lon="103.334806"><ele>3029</ele><time>2026-05-12T00:33:33.000Z</time></trkpt>
        <trkpt lat="29.52462" lon="103.334835"><ele>3029</ele><time>2026-05-12T00:33:37.000Z</time></trkpt>
        <trkpt lat="29.52451" lon="103.334882"><ele>3030</ele><time>2026-05-12T00:33:46.000Z</time></trkpt>
        <trkpt lat="29.524451" lon="103.334904"><ele>3031</ele><time>2026-05-12T00:33:52.000Z</time></trkpt>
        <trkpt lat="29.52427" lon="103.334928"><ele>3042</ele><time>2026-05-12T00:34:13.000Z</time></trkpt>
        <trkpt lat="29.524228" lon="103.334916"><ele>3045</ele><time>2026-05-12T00:34:16.000Z</time></trkpt>
        <trkpt lat="29.524047" lon="103.334937"><ele>3035</ele><time>2026-05-12T00:34:28.000Z</time></trkpt>
        <trkpt lat="29.523956" lon="103.334946"><ele>3030</ele><time>2026-05-12T00:34:37.000Z</time></trkpt>
        <trkpt lat="29.52377" lon="103.33493"><ele>3032</ele><time>2026-05-12T00:35:03.000Z</time></trkpt>
        <trkpt lat="29.523624" lon="103.334934"><ele>3031</ele><time>2026-05-12T00:35:18.000Z</time></trkpt>
        <trkpt lat="29.523446" lon="103.334874"><ele>3033</ele><time>2026-05-12T00:35:41.000Z</time></trkpt>
        <trkpt lat="29.523271" lon="103.3348"><ele>3038</ele><time>2026-05-12T00:36:05.000Z</time></trkpt>
        <trkpt lat="29.523136" lon="103.334747"><ele>3039</ele><time>2026-05-12T00:36:44.000Z</time></trkpt>
        <trkpt lat="29.523136" lon="103.334744"><ele>3039</ele><time>2026-05-12T00:36:49.000Z</time></trkpt>
        <trkpt lat="29.523122" lon="103.334739"><ele>3040</ele><time>2026-05-12T00:36:57.000Z</time></trkpt>
        <trkpt lat="29.522975" lon="103.334782"><ele>3043</ele><time>2026-05-12T00:37:24.000Z</time></trkpt>
        <trkpt lat="29.52295" lon="103.334765"><ele>3046</ele><time>2026-05-12T00:37:31.000Z</time></trkpt>
        <trkpt lat="29.52289" lon="103.334749"><ele>3040</ele><time>2026-05-12T00:37:58.000Z</time></trkpt>
        <trkpt lat="29.522793" lon="103.33478"><ele>3037</ele><time>2026-05-12T00:38:12.000Z</time></trkpt>
        <trkpt lat="29.522768" lon="103.334786"><ele>3037</ele><time>2026-05-12T00:38:15.000Z</time></trkpt>
        <trkpt lat="29.522741" lon="103.334813"><ele>3036</ele><time>2026-05-12T00:38:21.000Z</time></trkpt>
        <trkpt lat="29.52274" lon="103.33484"><ele>3037</ele><time>2026-05-12T00:38:26.000Z</time></trkpt>
        <trkpt lat="29.522727" lon="103.334876"><ele>3038</ele><time>2026-05-12T00:38:35.000Z</time></trkpt>
        <trkpt lat="29.522709" lon="103.334914"><ele>3038</ele><time>2026-05-12T00:38:41.000Z</time></trkpt>
        <trkpt lat="29.52273" lon="103.335111"><ele>3038</ele><time>2026-05-12T00:39:13.000Z</time></trkpt>
        <trkpt lat="29.522795" lon="103.335143"><ele>3045</ele><time>2026-05-12T00:39:22.000Z</time></trkpt>
        <trkpt lat="29.522817" lon="103.335141"><ele>3048</ele><time>2026-05-12T00:39:26.000Z</time></trkpt>
        <trkpt lat="29.522841" lon="103.335158"><ele>3053</ele><time>2026-05-12T00:39:42.000Z</time></trkpt>
        <trkpt lat="29.522814" lon="103.335142"><ele>3054</ele><time>2026-05-12T00:40:03.000Z</time></trkpt>
        <trkpt lat="29.522818" lon="103.335143"><ele>3055</ele><time>2026-05-12T00:40:05.000Z</time></trkpt>
        <trkpt lat="29.52282" lon="103.335139"><ele>3057</ele><time>2026-05-12T00:40:13.000Z</time></trkpt>
        <trkpt lat="29.522816" lon="103.335134"><ele>3057</ele><time>2026-05-12T00:40:24.000Z</time></trkpt>
        <trkpt lat="29.522772" lon="103.335178"><ele>3050</ele><time>2026-05-12T00:40:41.000Z</time></trkpt>
        <trkpt lat="29.522787" lon="103.335124"><ele>3047</ele><time>2026-05-12T00:41:20.000Z</time></trkpt>
        <trkpt lat="29.522801" lon="103.335167"><ele>3047</ele><time>2026-05-12T00:41:26.000Z</time></trkpt>
        <trkpt lat="29.522796" lon="103.335249"><ele>3047</ele><time>2026-05-12T00:41:35.000Z</time></trkpt>
        <trkpt lat="29.522796" lon="103.335292"><ele>3048</ele><time>2026-05-12T00:41:39.000Z</time></trkpt>
        <trkpt lat="29.522803" lon="103.335316"><ele>3049</ele><time>2026-05-12T00:41:40.000Z</time></trkpt>
        <trkpt lat="29.522803" lon="103.335316"><ele>3049</ele><time>2026-05-12T00:41:41.000Z</time></trkpt>
        <trkpt lat="29.522808" lon="103.335334"><ele>3049</ele><time>2026-05-12T00:41:42.000Z</time></trkpt>
        <trkpt lat="29.522818" lon="103.335386"><ele>3050</ele><time>2026-05-12T00:41:47.000Z</time></trkpt>
        <trkpt lat="29.522824" lon="103.335405"><ele>3051</ele><time>2026-05-12T00:41:48.000Z</time></trkpt>
        <trkpt lat="29.522824" lon="103.335405"><ele>3051</ele><time>2026-05-12T00:41:49.000Z</time></trkpt>
        <trkpt lat="29.522822" lon="103.335412"><ele>3051</ele><time>2026-05-12T00:41:50.000Z</time></trkpt>
        <trkpt lat="29.522804" lon="103.335404"><ele>3051</ele><time>2026-05-12T00:41:52.000Z</time></trkpt>
        <trkpt lat="29.522791" lon="103.335388"><ele>3050</ele><time>2026-05-12T00:41:54.000Z</time></trkpt>
        <trkpt lat="29.522785" lon="103.335383"><ele>3050</ele><time>2026-05-12T00:41:55.000Z</time></trkpt>
        <trkpt lat="29.522778" lon="103.33538"><ele>3050</ele><time>2026-05-12T00:41:56.000Z</time></trkpt>
        <trkpt lat="29.522771" lon="103.335378"><ele>3051</ele><time>2026-05-12T00:41:57.000Z</time></trkpt>
        <trkpt lat="29.522768" lon="103.33538"><ele>3051</ele><time>2026-05-12T00:41:59.000Z</time></trkpt>
        <trkpt lat="29.522774" lon="103.335374"><ele>3052</ele><time>2026-05-12T00:42:02.000Z</time></trkpt>
        <trkpt lat="29.522786" lon="103.335379"><ele>3052</ele><time>2026-05-12T00:42:04.000Z</time></trkpt>
        <trkpt lat="29.522792" lon="103.335381"><ele>3052</ele><time>2026-05-12T00:42:05.000Z</time></trkpt>
        <trkpt lat="29.522822" lon="103.335395"><ele>3052</ele><time>2026-05-12T00:42:08.000Z</time></trkpt>
        <trkpt lat="29.522827" lon="103.3354"><ele>3052</ele><time>2026-05-12T00:42:09.000Z</time></trkpt>
        <trkpt lat="29.522835" lon="103.335415"><ele>3052</ele><time>2026-05-12T00:42:10.000Z</time></trkpt>
        <trkpt lat="29.522837" lon="103.335419"><ele>3053</ele><time>2026-05-12T00:42:12.000Z</time></trkpt>
        <trkpt lat="29.52284" lon="103.335423"><ele>3053</ele><time>2026-05-12T00:42:13.000Z</time></trkpt>
        <trkpt lat="29.522848" lon="103.335446"><ele>3054</ele><time>2026-05-12T00:42:17.000Z</time></trkpt>
        <trkpt lat="29.522906" lon="103.33554"><ele>3054</ele><time>2026-05-12T00:42:34.000Z</time></trkpt>
        <trkpt lat="29.522891" lon="103.335631"><ele>3053</ele><time>2026-05-12T00:42:47.000Z</time></trkpt>
        <trkpt lat="29.52289" lon="103.335648"><ele>3053</ele><time>2026-05-12T00:42:49.000Z</time></trkpt>
        <trkpt lat="29.522909" lon="103.335828"><ele>3054</ele><time>2026-05-12T00:43:23.000Z</time></trkpt>
        <trkpt lat="29.523029" lon="103.335851"><ele>3058</ele><time>2026-05-12T00:43:40.000Z</time></trkpt>
        <trkpt lat="29.523079" lon="103.335866"><ele>3059</ele><time>2026-05-12T00:43:47.000Z</time></trkpt>
        <trkpt lat="29.52306" lon="103.335944"><ele>3061</ele><time>2026-05-12T00:43:57.000Z</time></trkpt>
        <trkpt lat="29.523058" lon="103.335948"><ele>3061</ele><time>2026-05-12T00:44:04.000Z</time></trkpt>
        <trkpt lat="29.523069" lon="103.335924"><ele>3060</ele><time>2026-05-12T00:44:12.000Z</time></trkpt>
        <trkpt lat="29.523049" lon="103.335922"><ele>3061</ele><time>2026-05-12T00:44:30.000Z</time></trkpt>
        <trkpt lat="29.523051" lon="103.335918"><ele>3061</ele><time>2026-05-12T00:44:35.000Z</time></trkpt>
        <trkpt lat="29.523084" lon="103.335973"><ele>3062</ele><time>2026-05-12T00:44:45.000Z</time></trkpt>
        <trkpt lat="29.523115" lon="103.336059"><ele>3062</ele><time>2026-05-12T00:44:53.000Z</time></trkpt>
        <trkpt lat="29.523142" lon="103.336139"><ele>3061</ele><time>2026-05-12T00:45:00.000Z</time></trkpt>
        <trkpt lat="29.523155" lon="103.336224"><ele>3061</ele><time>2026-05-12T00:45:07.000Z</time></trkpt>
        <trkpt lat="29.523162" lon="103.336337"><ele>3061</ele><time>2026-05-12T00:45:16.000Z</time></trkpt>
        <trkpt lat="29.523184" lon="103.33648"><ele>3060</ele><time>2026-05-12T00:45:28.000Z</time></trkpt>
        <trkpt lat="29.523188" lon="103.336541"><ele>3060</ele><time>2026-05-12T00:45:33.000Z</time></trkpt>
        <trkpt lat="29.523189" lon="103.336608"><ele>3059</ele><time>2026-05-12T00:45:38.000Z</time></trkpt>
        <trkpt lat="29.523185" lon="103.336638"><ele>3059</ele><time>2026-05-12T00:45:40.000Z</time></trkpt>
        <trkpt lat="29.523185" lon="103.336848"><ele>3061</ele><time>2026-05-12T00:45:56.000Z</time></trkpt>
        <trkpt lat="29.523182" lon="103.336872"><ele>3062</ele><time>2026-05-12T00:45:59.000Z</time></trkpt>
        <trkpt lat="29.523177" lon="103.336892"><ele>3064</ele><time>2026-05-12T00:46:03.000Z</time></trkpt>
        <trkpt lat="29.523165" lon="103.336945"><ele>3069</ele><time>2026-05-12T00:46:14.000Z</time></trkpt>
        <trkpt lat="29.523165" lon="103.336989"><ele>3069</ele><time>2026-05-12T00:46:19.000Z</time></trkpt>
        <trkpt lat="29.523159" lon="103.337019"><ele>3069</ele><time>2026-05-12T00:46:23.000Z</time></trkpt>
        <trkpt lat="29.52316" lon="103.337039"><ele>3069</ele><time>2026-05-12T00:46:26.000Z</time></trkpt>
        <trkpt lat="29.523163" lon="103.337095"><ele>3071</ele><time>2026-05-12T00:46:34.000Z</time></trkpt>
        <trkpt lat="29.523161" lon="103.337109"><ele>3069</ele><time>2026-05-12T00:46:35.000Z</time></trkpt>
        <trkpt lat="29.52316" lon="103.337147"><ele>3071</ele><time>2026-05-12T00:46:39.000Z</time></trkpt>
        <trkpt lat="29.523156" lon="103.337153"><ele>3071</ele><time>2026-05-12T00:46:40.000Z</time></trkpt>
        <trkpt lat="29.523153" lon="103.337157"><ele>3071</ele><time>2026-05-12T00:46:41.000Z</time></trkpt>
        <trkpt lat="29.52312" lon="103.337181"><ele>3073</ele><time>2026-05-12T00:46:47.000Z</time></trkpt>
        <trkpt lat="29.523108" lon="103.337209"><ele>3072</ele><time>2026-05-12T00:46:50.000Z</time></trkpt>
        <trkpt lat="29.523111" lon="103.337245"><ele>3072</ele><time>2026-05-12T00:47:03.000Z</time></trkpt>
        <trkpt lat="29.523113" lon="103.337244"><ele>3072</ele><time>2026-05-12T00:47:04.000Z</time></trkpt>
        <trkpt lat="29.523121" lon="103.337226"><ele>3072</ele><time>2026-05-12T00:47:24.000Z</time></trkpt>
        <trkpt lat="29.523104" lon="103.337227"><ele>3072</ele><time>2026-05-12T00:47:28.000Z</time></trkpt>
        <trkpt lat="29.523113" lon="103.337227"><ele>3072</ele><time>2026-05-12T00:47:38.000Z</time></trkpt>
        <trkpt lat="29.523059" lon="103.337203"><ele>3071</ele><time>2026-05-12T00:47:51.000Z</time></trkpt>
        <trkpt lat="29.523034" lon="103.337204"><ele>3071</ele><time>2026-05-12T00:47:54.000Z</time></trkpt>
        <trkpt lat="29.523007" lon="103.337211"><ele>3072</ele><time>2026-05-12T00:47:58.000Z</time></trkpt>
        <trkpt lat="29.523001" lon="103.33721"><ele>3072</ele><time>2026-05-12T00:47:59.000Z</time></trkpt>
        <trkpt lat="29.522975" lon="103.337209"><ele>3073</ele><time>2026-05-12T00:48:03.000Z</time></trkpt>
        <trkpt lat="29.522964" lon="103.337209"><ele>3074</ele><time>2026-05-12T00:48:04.000Z</time></trkpt>
        <trkpt lat="29.522936" lon="103.337185"><ele>3074</ele><time>2026-05-12T00:48:07.000Z</time></trkpt>
        <trkpt lat="29.522919" lon="103.337163"><ele>3074</ele><time>2026-05-12T00:48:08.000Z</time></trkpt>
        <trkpt lat="29.522919" lon="103.337163"><ele>3074</ele><time>2026-05-12T00:48:09.000Z</time></trkpt>
        <trkpt lat="29.522904" lon="103.337147"><ele>3074</ele><time>2026-05-12T00:48:11.000Z</time></trkpt>
        <trkpt lat="29.522885" lon="103.337133"><ele>3075</ele><time>2026-05-12T00:48:15.000Z</time></trkpt>
        <trkpt lat="29.522882" lon="103.337129"><ele>3075</ele><time>2026-05-12T00:48:16.000Z</time></trkpt>
        <trkpt lat="29.522878" lon="103.337112"><ele>3076</ele><time>2026-05-12T00:48:17.000Z</time></trkpt>
        <trkpt lat="29.522878" lon="103.337101"><ele>3076</ele><time>2026-05-12T00:48:19.000Z</time></trkpt>
        <trkpt lat="29.522877" lon="103.337084"><ele>3076</ele><time>2026-05-12T00:48:22.000Z</time></trkpt>
        <trkpt lat="29.522872" lon="103.337085"><ele>3076</ele><time>2026-05-12T00:48:24.000Z</time></trkpt>
        <trkpt lat="29.522856" lon="103.337091"><ele>3076</ele><time>2026-05-12T00:48:27.000Z</time></trkpt>
        <trkpt lat="29.52285" lon="103.337095"><ele>3076</ele><time>2026-05-12T00:48:28.000Z</time></trkpt>
        <trkpt lat="29.522847" lon="103.337092"><ele>3076</ele><time>2026-05-12T00:48:29.000Z</time></trkpt>
        <trkpt lat="29.522841" lon="103.337087"><ele>3077</ele><time>2026-05-12T00:48:32.000Z</time></trkpt>
        <trkpt lat="29.522842" lon="103.337084"><ele>3078</ele><time>2026-05-12T00:48:53.000Z</time></trkpt>
        <trkpt lat="29.522842" lon="103.337084"><ele>3078</ele><time>2026-05-12T00:49:00.000Z</time></trkpt>
        <trkpt lat="29.522836" lon="103.337079"><ele>3079</ele><time>2026-05-12T00:49:26.000Z</time></trkpt>
        <trkpt lat="29.522809" lon="103.33712"><ele>3079</ele><time>2026-05-12T00:49:38.000Z</time></trkpt>
        <trkpt lat="29.522804" lon="103.337131"><ele>3079</ele><time>2026-05-12T00:49:39.000Z</time></trkpt>
        <trkpt lat="29.522798" lon="103.337154"><ele>3079</ele><time>2026-05-12T00:49:40.000Z</time></trkpt>
        <trkpt lat="29.522798" lon="103.337154"><ele>3079</ele><time>2026-05-12T00:49:41.000Z</time></trkpt>
        <trkpt lat="29.522794" lon="103.337165"><ele>3079</ele><time>2026-05-12T00:49:42.000Z</time></trkpt>
        <trkpt lat="29.522793" lon="103.337175"><ele>3080</ele><time>2026-05-12T00:49:43.000Z</time></trkpt>
        <trkpt lat="29.522788" lon="103.337183"><ele>3080</ele><time>2026-05-12T00:49:44.000Z</time></trkpt>
        <trkpt lat="29.522775" lon="103.337202"><ele>3080</ele><time>2026-05-12T00:49:46.000Z</time></trkpt>
        <trkpt lat="29.522763" lon="103.337226"><ele>3079</ele><time>2026-05-12T00:49:50.000Z</time></trkpt>
        <trkpt lat="29.522763" lon="103.337282"><ele>3077</ele><time>2026-05-12T00:50:02.000Z</time></trkpt>
        <trkpt lat="29.522753" lon="103.337271"><ele>3076</ele><time>2026-05-12T00:50:28.000Z</time></trkpt>
        <trkpt lat="29.522752" lon="103.337274"><ele>3077</ele><time>2026-05-12T00:50:38.000Z</time></trkpt>
        <trkpt lat="29.522748" lon="103.337279"><ele>3076</ele><time>2026-05-12T00:50:54.000Z</time></trkpt>
        <trkpt lat="29.522748" lon="103.337278"><ele>3077</ele><time>2026-05-12T00:51:02.000Z</time></trkpt>
        <trkpt lat="29.522755" lon="103.337266"><ele>3077</ele><time>2026-05-12T00:51:20.000Z</time></trkpt>
        <trkpt lat="29.52275" lon="103.337267"><ele>3077</ele><time>2026-05-12T00:51:34.000Z</time></trkpt>
        <trkpt lat="29.522751" lon="103.337268"><ele>3077</ele><time>2026-05-12T00:51:43.000Z</time></trkpt>
        <trkpt lat="29.522735" lon="103.337201"><ele>3075</ele><time>2026-05-12T00:52:15.000Z</time></trkpt>
        <trkpt lat="29.522708" lon="103.337145"><ele>3074</ele><time>2026-05-12T00:52:31.000Z</time></trkpt>
        <trkpt lat="29.522689" lon="103.33714"><ele>3076</ele><time>2026-05-12T00:52:46.000Z</time></trkpt>
        <trkpt lat="29.52273" lon="103.337113"><ele>3076</ele><time>2026-05-12T00:52:54.000Z</time></trkpt>
        <trkpt lat="29.52274" lon="103.33711"><ele>3077</ele><time>2026-05-12T00:52:55.000Z</time></trkpt>
        <trkpt lat="29.522759" lon="103.337111"><ele>3077</ele><time>2026-05-12T00:52:57.000Z</time></trkpt>
        <trkpt lat="29.522783" lon="103.337116"><ele>3077</ele><time>2026-05-12T00:53:01.000Z</time></trkpt>
        <trkpt lat="29.522794" lon="103.337119"><ele>3077</ele><time>2026-05-12T00:53:06.000Z</time></trkpt>
        <trkpt lat="29.522814" lon="103.337122"><ele>3076</ele><time>2026-05-12T00:53:09.000Z</time></trkpt>
        <trkpt lat="29.522827" lon="103.337124"><ele>3076</ele><time>2026-05-12T00:53:11.000Z</time></trkpt>
        <trkpt lat="29.522844" lon="103.337114"><ele>3076</ele><time>2026-05-12T00:53:14.000Z</time></trkpt>
        <trkpt lat="29.522852" lon="103.337093"><ele>3076</ele><time>2026-05-12T00:53:16.000Z</time></trkpt>
        <trkpt lat="29.522851" lon="103.337075"><ele>3076</ele><time>2026-05-12T00:53:17.000Z</time></trkpt>
        <trkpt lat="29.522837" lon="103.337059"><ele>3076</ele><time>2026-05-12T00:53:20.000Z</time></trkpt>
        <trkpt lat="29.522806" lon="103.337067"><ele>3076</ele><time>2026-05-12T00:53:23.000Z</time></trkpt>
        <trkpt lat="29.522724" lon="103.337104"><ele>3075</ele><time>2026-05-12T00:53:33.000Z</time></trkpt>
        <trkpt lat="29.52271" lon="103.337113"><ele>3075</ele><time>2026-05-12T00:53:44.000Z</time></trkpt>
        <trkpt lat="29.522684" lon="103.337161"><ele>3075</ele><time>2026-05-12T00:53:51.000Z</time></trkpt>
        <trkpt lat="29.522701" lon="103.337216"><ele>3075</ele><time>2026-05-12T00:53:58.000Z</time></trkpt>
        <trkpt lat="29.522704" lon="103.337224"><ele>3075</ele><time>2026-05-12T00:53:59.000Z</time></trkpt>
        <trkpt lat="29.522706" lon="103.337232"><ele>3075</ele><time>2026-05-12T00:54:00.000Z</time></trkpt>
        <trkpt lat="29.522707" lon="103.337251"><ele>3075</ele><time>2026-05-12T00:54:01.000Z</time></trkpt>
        <trkpt lat="29.522707" lon="103.337251"><ele>3075</ele><time>2026-05-12T00:54:02.000Z</time></trkpt>
        <trkpt lat="29.522706" lon="103.337262"><ele>3075</ele><time>2026-05-12T00:54:03.000Z</time></trkpt>
        <trkpt lat="29.522707" lon="103.337272"><ele>3075</ele><time>2026-05-12T00:54:04.000Z</time></trkpt>
        <trkpt lat="29.522667" lon="103.33731"><ele>3073</ele><time>2026-05-12T00:54:12.000Z</time></trkpt>
        <trkpt lat="29.522661" lon="103.33731"><ele>3073</ele><time>2026-05-12T00:54:13.000Z</time></trkpt>
        <trkpt lat="29.522652" lon="103.337312"><ele>3072</ele><time>2026-05-12T00:54:14.000Z</time></trkpt>
        <trkpt lat="29.522644" lon="103.337309"><ele>3072</ele><time>2026-05-12T00:54:15.000Z</time></trkpt>
        <trkpt lat="29.52263" lon="103.337302"><ele>3071</ele><time>2026-05-12T00:54:17.000Z</time></trkpt>
        <trkpt lat="29.52262" lon="103.337293"><ele>3070</ele><time>2026-05-12T00:54:19.000Z</time></trkpt>
        <trkpt lat="29.522607" lon="103.33728"><ele>3070</ele><time>2026-05-12T00:54:21.000Z</time></trkpt>
        <trkpt lat="29.522592" lon="103.337266"><ele>3070</ele><time>2026-05-12T00:54:22.000Z</time></trkpt>
        <trkpt lat="29.522592" lon="103.337266"><ele>3070</ele><time>2026-05-12T00:54:23.000Z</time></trkpt>
        <trkpt lat="29.522567" lon="103.337239"><ele>3069</ele><time>2026-05-12T00:54:26.000Z</time></trkpt>
        <trkpt lat="29.522557" lon="103.337229"><ele>3069</ele><time>2026-05-12T00:54:27.000Z</time></trkpt>
        <trkpt lat="29.522548" lon="103.337219"><ele>3069</ele><time>2026-05-12T00:54:28.000Z</time></trkpt>
        <trkpt lat="29.522538" lon="103.337207"><ele>3069</ele><time>2026-05-12T00:54:29.000Z</time></trkpt>
        <trkpt lat="29.522497" lon="103.33716"><ele>3067</ele><time>2026-05-12T00:54:34.000Z</time></trkpt>
        <trkpt lat="29.522511" lon="103.336992"><ele>3064</ele><time>2026-05-12T00:54:48.000Z</time></trkpt>
        <trkpt lat="29.522515" lon="103.336944"><ele>3064</ele><time>2026-05-12T00:54:52.000Z</time></trkpt>
        <trkpt lat="29.522505" lon="103.336833"><ele>3061</ele><time>2026-05-12T00:55:03.000Z</time></trkpt>
        <trkpt lat="29.522501" lon="103.336794"><ele>3061</ele><time>2026-05-12T00:55:06.000Z</time></trkpt>
        <trkpt lat="29.522497" lon="103.33676"><ele>3061</ele><time>2026-05-12T00:55:09.000Z</time></trkpt>
        <trkpt lat="29.522495" lon="103.336749"><ele>3061</ele><time>2026-05-12T00:55:10.000Z</time></trkpt>
        <trkpt lat="29.522493" lon="103.336738"><ele>3061</ele><time>2026-05-12T00:55:11.000Z</time></trkpt>
        <trkpt lat="29.522492" lon="103.336697"><ele>3060</ele><time>2026-05-12T00:55:14.000Z</time></trkpt>
        <trkpt lat="29.522492" lon="103.336668"><ele>3061</ele><time>2026-05-12T00:55:16.000Z</time></trkpt>
        <trkpt lat="29.522526" lon="103.336503"><ele>3064</ele><time>2026-05-12T00:55:24.000Z</time></trkpt>
        <trkpt lat="29.522523" lon="103.336484"><ele>3064</ele><time>2026-05-12T00:55:25.000Z</time></trkpt>
        <trkpt lat="29.522522" lon="103.336464"><ele>3065</ele><time>2026-05-12T00:55:26.000Z</time></trkpt>
        <trkpt lat="29.522519" lon="103.336446"><ele>3065</ele><time>2026-05-12T00:55:27.000Z</time></trkpt>
        <trkpt lat="29.522526" lon="103.336333"><ele>3068</ele><time>2026-05-12T00:55:33.000Z</time></trkpt>
        <trkpt lat="29.522533" lon="103.336311"><ele>3068</ele><time>2026-05-12T00:55:34.000Z</time></trkpt>
        <trkpt lat="29.522546" lon="103.336292"><ele>3069</ele><time>2026-05-12T00:55:35.000Z</time></trkpt>
        <trkpt lat="29.522586" lon="103.33614"><ele>3069</ele><time>2026-05-12T00:55:43.000Z</time></trkpt>
        <trkpt lat="29.522588" lon="103.336103"><ele>3069</ele><time>2026-05-12T00:55:45.000Z</time></trkpt>
        <trkpt lat="29.522592" lon="103.336068"><ele>3068</ele><time>2026-05-12T00:55:47.000Z</time></trkpt>
        <trkpt lat="29.522676" lon="103.335887"><ele>3067</ele><time>2026-05-12T00:56:02.000Z</time></trkpt>
        <trkpt lat="29.522707" lon="103.335875"><ele>3066</ele><time>2026-05-12T00:56:05.000Z</time></trkpt>
        <trkpt lat="29.522726" lon="103.335874"><ele>3066</ele><time>2026-05-12T00:56:07.000Z</time></trkpt>
        <trkpt lat="29.522775" lon="103.335865"><ele>3064</ele><time>2026-05-12T00:56:12.000Z</time></trkpt>
        <trkpt lat="29.522811" lon="103.335838"><ele>3062</ele><time>2026-05-12T00:56:17.000Z</time></trkpt>
        <trkpt lat="29.522818" lon="103.335815"><ele>3061</ele><time>2026-05-12T00:56:19.000Z</time></trkpt>
        <trkpt lat="29.522823" lon="103.335778"><ele>3061</ele><time>2026-05-12T00:56:23.000Z</time></trkpt>
        <trkpt lat="29.522838" lon="103.335683"><ele>3056</ele><time>2026-05-12T00:56:33.000Z</time></trkpt>
        <trkpt lat="29.522846" lon="103.335647"><ele>3052</ele><time>2026-05-12T00:56:38.000Z</time></trkpt>
        <trkpt lat="29.522843" lon="103.335585"><ele>3049</ele><time>2026-05-12T00:56:44.000Z</time></trkpt>
        <trkpt lat="29.522844" lon="103.335551"><ele>3048</ele><time>2026-05-12T00:56:48.000Z</time></trkpt>
        <trkpt lat="29.522843" lon="103.335544"><ele>3048</ele><time>2026-05-12T00:56:49.000Z</time></trkpt>
        <trkpt lat="29.522845" lon="103.335536"><ele>3047</ele><time>2026-05-12T00:56:51.000Z</time></trkpt>
        <trkpt lat="29.522841" lon="103.335519"><ele>3047</ele><time>2026-05-12T00:56:52.000Z</time></trkpt>
        <trkpt lat="29.522838" lon="103.335483"><ele>3046</ele><time>2026-05-12T00:56:56.000Z</time></trkpt>
        <trkpt lat="29.522842" lon="103.335406"><ele>3044</ele><time>2026-05-12T00:57:03.000Z</time></trkpt>
        <trkpt lat="29.52282" lon="103.335304"><ele>3043</ele><time>2026-05-12T00:57:11.000Z</time></trkpt>
        <trkpt lat="29.522801" lon="103.335272"><ele>3043</ele><time>2026-05-12T00:57:14.000Z</time></trkpt>
        <trkpt lat="29.522798" lon="103.33526"><ele>3043</ele><time>2026-05-12T00:57:15.000Z</time></trkpt>
        <trkpt lat="29.522799" lon="103.335233"><ele>3043</ele><time>2026-05-12T00:57:18.000Z</time></trkpt>
        <trkpt lat="29.5228" lon="103.335223"><ele>3043</ele><time>2026-05-12T00:57:19.000Z</time></trkpt>
        <trkpt lat="29.522797" lon="103.335181"><ele>3043</ele><time>2026-05-12T00:57:23.000Z</time></trkpt>
        <trkpt lat="29.522795" lon="103.335171"><ele>3042</ele><time>2026-05-12T00:57:24.000Z</time></trkpt>
        <trkpt lat="29.522792" lon="103.335164"><ele>3042</ele><time>2026-05-12T00:57:25.000Z</time></trkpt>
        <trkpt lat="29.52279" lon="103.335152"><ele>3042</ele><time>2026-05-12T00:57:26.000Z</time></trkpt>
        <trkpt lat="29.5228" lon="103.335105"><ele>3043</ele><time>2026-05-12T00:57:32.000Z</time></trkpt>
        <trkpt lat="29.522798" lon="103.335073"><ele>3043</ele><time>2026-05-12T00:57:36.000Z</time></trkpt>
        <trkpt lat="29.522787" lon="103.334965"><ele>3043</ele><time>2026-05-12T00:57:44.000Z</time></trkpt>
        <trkpt lat="29.52276" lon="103.334816"><ele>3041</ele><time>2026-05-12T00:57:56.000Z</time></trkpt>
        <trkpt lat="29.522806" lon="103.33476"><ele>3041</ele><time>2026-05-12T00:58:02.000Z</time></trkpt>
        <trkpt lat="29.522869" lon="103.334745"><ele>3040</ele><time>2026-05-12T00:58:10.000Z</time></trkpt>
        <trkpt lat="29.522888" lon="103.334743"><ele>3040</ele><time>2026-05-12T00:58:12.000Z</time></trkpt>
        <trkpt lat="29.522922" lon="103.33474"><ele>3040</ele><time>2026-05-12T00:58:16.000Z</time></trkpt>
        <trkpt lat="29.522956" lon="103.334733"><ele>3040</ele><time>2026-05-12T00:58:22.000Z</time></trkpt>
        <trkpt lat="29.522961" lon="103.334731"><ele>3040</ele><time>2026-05-12T00:58:23.000Z</time></trkpt>
        <trkpt lat="29.523006" lon="103.334715"><ele>3040</ele><time>2026-05-12T00:58:27.000Z</time></trkpt>
        <trkpt lat="29.52305" lon="103.334707"><ele>3040</ele><time>2026-05-12T00:58:31.000Z</time></trkpt>
        <trkpt lat="29.523116" lon="103.334697"><ele>3040</ele><time>2026-05-12T00:58:39.000Z</time></trkpt>
        <trkpt lat="29.523138" lon="103.334705"><ele>3039</ele><time>2026-05-12T00:58:44.000Z</time></trkpt>
        <trkpt lat="29.523113" lon="103.334711"><ele>3039</ele><time>2026-05-12T00:58:49.000Z</time></trkpt>
        <trkpt lat="29.523098" lon="103.334714"><ele>3039</ele><time>2026-05-12T00:58:59.000Z</time></trkpt>
        <trkpt lat="29.52326" lon="103.334792"><ele>3037</ele><time>2026-05-12T00:59:15.000Z</time></trkpt>
        <trkpt lat="29.523336" lon="103.334816"><ele>3037</ele><time>2026-05-12T00:59:20.000Z</time></trkpt>
        <trkpt lat="29.523349" lon="103.334812"><ele>3038</ele><time>2026-05-12T00:59:21.000Z</time></trkpt>
        <trkpt lat="29.523362" lon="103.334812"><ele>3038</ele><time>2026-05-12T00:59:22.000Z</time></trkpt>
        <trkpt lat="29.523391" lon="103.334813"><ele>3038</ele><time>2026-05-12T00:59:24.000Z</time></trkpt>
        <trkpt lat="29.523423" lon="103.334822"><ele>3038</ele><time>2026-05-12T00:59:26.000Z</time></trkpt>
        <trkpt lat="29.523487" lon="103.334854"><ele>3036</ele><time>2026-05-12T00:59:31.000Z</time></trkpt>
        <trkpt lat="29.5235" lon="103.334857"><ele>3036</ele><time>2026-05-12T00:59:32.000Z</time></trkpt>
        <trkpt lat="29.523516" lon="103.334861"><ele>3034</ele><time>2026-05-12T00:59:34.000Z</time></trkpt>
        <trkpt lat="29.523525" lon="103.334862"><ele>3034</ele><time>2026-05-12T00:59:36.000Z</time></trkpt>
        <trkpt lat="29.523532" lon="103.334862"><ele>3034</ele><time>2026-05-12T00:59:37.000Z</time></trkpt>
        <trkpt lat="29.52354" lon="103.33486"><ele>3034</ele><time>2026-05-12T00:59:38.000Z</time></trkpt>
        <trkpt lat="29.52356" lon="103.334851"><ele>3035</ele><time>2026-05-12T00:59:39.000Z</time></trkpt>
        <trkpt lat="29.523586" lon="103.334845"><ele>3036</ele><time>2026-05-12T00:59:42.000Z</time></trkpt>
        <trkpt lat="29.523599" lon="103.334844"><ele>3036</ele><time>2026-05-12T00:59:43.000Z</time></trkpt>
        <trkpt lat="29.523644" lon="103.334853"><ele>3034</ele><time>2026-05-12T00:59:48.000Z</time></trkpt>
        <trkpt lat="29.523658" lon="103.334854"><ele>3034</ele><time>2026-05-12T00:59:49.000Z</time></trkpt>
        <trkpt lat="29.523669" lon="103.334856"><ele>3033</ele><time>2026-05-12T00:59:50.000Z</time></trkpt>
        <trkpt lat="29.52369" lon="103.334857"><ele>3033</ele><time>2026-05-12T00:59:51.000Z</time></trkpt>
        <trkpt lat="29.52369" lon="103.334857"><ele>3033</ele><time>2026-05-12T00:59:52.000Z</time></trkpt>
        <trkpt lat="29.523699" lon="103.334858"><ele>3033</ele><time>2026-05-12T00:59:53.000Z</time></trkpt>
        <trkpt lat="29.523724" lon="103.33486"><ele>3033</ele><time>2026-05-12T00:59:55.000Z</time></trkpt>
        <trkpt lat="29.523738" lon="103.334862"><ele>3033</ele><time>2026-05-12T00:59:56.000Z</time></trkpt>
        <trkpt lat="29.52378" lon="103.334874"><ele>3032</ele><time>2026-05-12T00:59:59.000Z</time></trkpt>
        <trkpt lat="29.523813" lon="103.334886"><ele>3031</ele><time>2026-05-12T01:00:02.000Z</time></trkpt>
        <trkpt lat="29.523823" lon="103.33489"><ele>3031</ele><time>2026-05-12T01:00:03.000Z</time></trkpt>
        <trkpt lat="29.523835" lon="103.334897"><ele>3030</ele><time>2026-05-12T01:00:04.000Z</time></trkpt>
        <trkpt lat="29.52391" lon="103.334893"><ele>3028</ele><time>2026-05-12T01:00:09.000Z</time></trkpt>
        <trkpt lat="29.523923" lon="103.334893"><ele>3029</ele><time>2026-05-12T01:00:10.000Z</time></trkpt>
        <trkpt lat="29.523932" lon="103.334895"><ele>3028</ele><time>2026-05-12T01:00:11.000Z</time></trkpt>
        <trkpt lat="29.523967" lon="103.334891"><ele>3027</ele><time>2026-05-12T01:00:15.000Z</time></trkpt>
        <trkpt lat="29.523972" lon="103.334893"><ele>3027</ele><time>2026-05-12T01:00:16.000Z</time></trkpt>
        <trkpt lat="29.523974" lon="103.334908"><ele>3027</ele><time>2026-05-12T01:00:17.000Z</time></trkpt>
        <trkpt lat="29.523974" lon="103.334908"><ele>3027</ele><time>2026-05-12T01:00:18.000Z</time></trkpt>
        <trkpt lat="29.523978" lon="103.33491"><ele>3028</ele><time>2026-05-12T01:00:19.000Z</time></trkpt>
        <trkpt lat="29.523982" lon="103.33491"><ele>3028</ele><time>2026-05-12T01:00:20.000Z</time></trkpt>
        <trkpt lat="29.523988" lon="103.334909"><ele>3028</ele><time>2026-05-12T01:00:21.000Z</time></trkpt>
        <trkpt lat="29.524015" lon="103.334911"><ele>3029</ele><time>2026-05-12T01:00:24.000Z</time></trkpt>
        <trkpt lat="29.524054" lon="103.334924"><ele>3031</ele><time>2026-05-12T01:00:27.000Z</time></trkpt>
        <trkpt lat="29.524067" lon="103.334924"><ele>3032</ele><time>2026-05-12T01:00:28.000Z</time></trkpt>
        <trkpt lat="29.524092" lon="103.334923"><ele>3032</ele><time>2026-05-12T01:00:30.000Z</time></trkpt>
        <trkpt lat="29.524104" lon="103.334924"><ele>3032</ele><time>2026-05-12T01:00:31.000Z</time></trkpt>
        <trkpt lat="29.524116" lon="103.334927"><ele>3033</ele><time>2026-05-12T01:00:32.000Z</time></trkpt>
        <trkpt lat="29.524124" lon="103.33492"><ele>3034</ele><time>2026-05-12T01:00:36.000Z</time></trkpt>
        <trkpt lat="29.52416" lon="103.334902"><ele>3034</ele><time>2026-05-12T01:00:45.000Z</time></trkpt>
        <trkpt lat="29.524183" lon="103.334892"><ele>3034</ele><time>2026-05-12T01:00:47.000Z</time></trkpt>
        <trkpt lat="29.524207" lon="103.334885"><ele>3035</ele><time>2026-05-12T01:00:48.000Z</time></trkpt>
        <trkpt lat="29.524207" lon="103.334885"><ele>3035</ele><time>2026-05-12T01:00:49.000Z</time></trkpt>
        <trkpt lat="29.524257" lon="103.33487"><ele>3034</ele><time>2026-05-12T01:00:53.000Z</time></trkpt>
        <trkpt lat="29.524294" lon="103.334867"><ele>3034</ele><time>2026-05-12T01:00:56.000Z</time></trkpt>
        <trkpt lat="29.52432" lon="103.334866"><ele>3034</ele><time>2026-05-12T01:00:57.000Z</time></trkpt>
        <trkpt lat="29.52432" lon="103.334866"><ele>3034</ele><time>2026-05-12T01:00:58.000Z</time></trkpt>
        <trkpt lat="29.524441" lon="103.334844"><ele>3034</ele><time>2026-05-12T01:01:08.000Z</time></trkpt>
        <trkpt lat="29.52455" lon="103.33479"><ele>3033</ele><time>2026-05-12T01:01:18.000Z</time></trkpt>
        <trkpt lat="29.524602" lon="103.334753"><ele>3033</ele><time>2026-05-12T01:01:24.000Z</time></trkpt>
        <trkpt lat="29.524622" lon="103.33474"><ele>3033</ele><time>2026-05-12T01:01:25.000Z</time></trkpt>
        <trkpt lat="29.524631" lon="103.334736"><ele>3033</ele><time>2026-05-12T01:01:27.000Z</time></trkpt>
        <trkpt lat="29.524649" lon="103.334732"><ele>3033</ele><time>2026-05-12T01:01:28.000Z</time></trkpt>
        <trkpt lat="29.524757" lon="103.334712"><ele>3029</ele><time>2026-05-12T01:01:45.000Z</time></trkpt>
        <trkpt lat="29.524781" lon="103.334712"><ele>3028</ele><time>2026-05-12T01:01:48.000Z</time></trkpt>
        <trkpt lat="29.52479" lon="103.334714"><ele>3028</ele><time>2026-05-12T01:01:49.000Z</time></trkpt>
        <trkpt lat="29.524798" lon="103.334714"><ele>3027</ele><time>2026-05-12T01:01:50.000Z</time></trkpt>
        <trkpt lat="29.524805" lon="103.334716"><ele>3027</ele><time>2026-05-12T01:01:51.000Z</time></trkpt>
        <trkpt lat="29.524836" lon="103.334719"><ele>3026</ele><time>2026-05-12T01:01:52.000Z</time></trkpt>
        <trkpt lat="29.524836" lon="103.334719"><ele>3026</ele><time>2026-05-12T01:01:53.000Z</time></trkpt>
        <trkpt lat="29.52485" lon="103.334719"><ele>3026</ele><time>2026-05-12T01:01:54.000Z</time></trkpt>
        <trkpt lat="29.524866" lon="103.334722"><ele>3025</ele><time>2026-05-12T01:01:55.000Z</time></trkpt>
        <trkpt lat="29.524904" lon="103.334733"><ele>3024</ele><time>2026-05-12T01:01:56.000Z</time></trkpt>
        <trkpt lat="29.524948" lon="103.33475"><ele>3024</ele><time>2026-05-12T01:01:59.000Z</time></trkpt>
        <trkpt lat="29.52509" lon="103.334776"><ele>3020</ele><time>2026-05-12T01:02:11.000Z</time></trkpt>
        <trkpt lat="29.525097" lon="103.334771"><ele>3019</ele><time>2026-05-12T01:02:12.000Z</time></trkpt>
        <trkpt lat="29.525102" lon="103.334769"><ele>3018</ele><time>2026-05-12T01:02:13.000Z</time></trkpt>
        <trkpt lat="29.525109" lon="103.334767"><ele>3018</ele><time>2026-05-12T01:02:14.000Z</time></trkpt>
        <trkpt lat="29.52512" lon="103.334763"><ele>3017</ele><time>2026-05-12T01:02:15.000Z</time></trkpt>
        <trkpt lat="29.52512" lon="103.334763"><ele>3017</ele><time>2026-05-12T01:02:16.000Z</time></trkpt>
        <trkpt lat="29.525125" lon="103.334762"><ele>3016</ele><time>2026-05-12T01:02:17.000Z</time></trkpt>
        <trkpt lat="29.525131" lon="103.334759"><ele>3016</ele><time>2026-05-12T01:02:18.000Z</time></trkpt>
        <trkpt lat="29.52523" lon="103.334671"><ele>3015</ele><time>2026-05-12T01:02:37.000Z</time></trkpt>
        <trkpt lat="29.525253" lon="103.334655"><ele>3014</ele><time>2026-05-12T01:02:40.000Z</time></trkpt>
        <trkpt lat="29.525274" lon="103.334629"><ele>3014</ele><time>2026-05-12T01:02:44.000Z</time></trkpt>
        <trkpt lat="29.525289" lon="103.334607"><ele>3013</ele><time>2026-05-12T01:02:47.000Z</time></trkpt>
        <trkpt lat="29.525296" lon="103.334573"><ele>3014</ele><time>2026-05-12T01:02:54.000Z</time></trkpt>
        <trkpt lat="29.525342" lon="103.334537"><ele>3014</ele><time>2026-05-12T01:03:05.000Z</time></trkpt>
        <trkpt lat="29.525381" lon="103.334493"><ele>3012</ele><time>2026-05-12T01:03:11.000Z</time></trkpt>
        <trkpt lat="29.525403" lon="103.334471"><ele>3012</ele><time>2026-05-12T01:03:14.000Z</time></trkpt>
        <trkpt lat="29.525413" lon="103.334455"><ele>3011</ele><time>2026-05-12T01:03:16.000Z</time></trkpt>
        <trkpt lat="29.52542" lon="103.334448"><ele>3011</ele><time>2026-05-12T01:03:17.000Z</time></trkpt>
        <trkpt lat="29.525432" lon="103.334434"><ele>3010</ele><time>2026-05-12T01:03:18.000Z</time></trkpt>
        <trkpt lat="29.525432" lon="103.334434"><ele>3010</ele><time>2026-05-12T01:03:19.000Z</time></trkpt>
        <trkpt lat="29.525442" lon="103.334424"><ele>3010</ele><time>2026-05-12T01:03:20.000Z</time></trkpt>
        <trkpt lat="29.52545" lon="103.334414"><ele>3010</ele><time>2026-05-12T01:03:21.000Z</time></trkpt>
        <trkpt lat="29.525485" lon="103.334377"><ele>3009</ele><time>2026-05-12T01:03:26.000Z</time></trkpt>
        <trkpt lat="29.525506" lon="103.334348"><ele>3009</ele><time>2026-05-12T01:03:30.000Z</time></trkpt>
        <trkpt lat="29.525521" lon="103.334325"><ele>3009</ele><time>2026-05-12T01:03:32.000Z</time></trkpt>
        <trkpt lat="29.525538" lon="103.334299"><ele>3010</ele><time>2026-05-12T01:03:34.000Z</time></trkpt>
        <trkpt lat="29.525563" lon="103.334277"><ele>3010</ele><time>2026-05-12T01:03:37.000Z</time></trkpt>
        <trkpt lat="29.525615" lon="103.334202"><ele>3010</ele><time>2026-05-12T01:03:44.000Z</time></trkpt>
        <trkpt lat="29.525631" lon="103.334182"><ele>3008</ele><time>2026-05-12T01:03:47.000Z</time></trkpt>
        <trkpt lat="29.525649" lon="103.334165"><ele>3007</ele><time>2026-05-12T01:03:50.000Z</time></trkpt>
        <trkpt lat="29.525653" lon="103.334161"><ele>3006</ele><time>2026-05-12T01:03:51.000Z</time></trkpt>
        <trkpt lat="29.52569" lon="103.334127"><ele>3002</ele><time>2026-05-12T01:03:57.000Z</time></trkpt>
        <trkpt lat="29.52574" lon="103.334069"><ele>2998</ele><time>2026-05-12T01:04:07.000Z</time></trkpt>
        <trkpt lat="29.525746" lon="103.334065"><ele>2997</ele><time>2026-05-12T01:04:08.000Z</time></trkpt>
        <trkpt lat="29.52576" lon="103.334058"><ele>2997</ele><time>2026-05-12T01:04:10.000Z</time></trkpt>
        <trkpt lat="29.525771" lon="103.334053"><ele>2997</ele><time>2026-05-12T01:04:11.000Z</time></trkpt>
        <trkpt lat="29.52578" lon="103.334045"><ele>2997</ele><time>2026-05-12T01:04:12.000Z</time></trkpt>
        <trkpt lat="29.525856" lon="103.333971"><ele>2998</ele><time>2026-05-12T01:04:20.000Z</time></trkpt>
        <trkpt lat="29.525918" lon="103.333937"><ele>3000</ele><time>2026-05-12T01:04:29.000Z</time></trkpt>
        <trkpt lat="29.525932" lon="103.333927"><ele>3000</ele><time>2026-05-12T01:04:31.000Z</time></trkpt>
        <trkpt lat="29.525965" lon="103.333909"><ele>3000</ele><time>2026-05-12T01:04:35.000Z</time></trkpt>
        <trkpt lat="29.525983" lon="103.333913"><ele>2999</ele><time>2026-05-12T01:04:37.000Z</time></trkpt>
        <trkpt lat="29.525991" lon="103.333914"><ele>2999</ele><time>2026-05-12T01:04:38.000Z</time></trkpt>
        <trkpt lat="29.526046" lon="103.333885"><ele>2997</ele><time>2026-05-12T01:04:45.000Z</time></trkpt>
        <trkpt lat="29.526193" lon="103.333752"><ele>2991</ele><time>2026-05-12T01:05:08.000Z</time></trkpt>
        <trkpt lat="29.526313" lon="103.333695"><ele>2987</ele><time>2026-05-12T01:05:26.000Z</time></trkpt>
        <trkpt lat="29.526355" lon="103.333667"><ele>2986</ele><time>2026-05-12T01:05:31.000Z</time></trkpt>
        <trkpt lat="29.526393" lon="103.333637"><ele>2986</ele><time>2026-05-12T01:05:35.000Z</time></trkpt>
        <trkpt lat="29.526414" lon="103.333618"><ele>2985</ele><time>2026-05-12T01:05:38.000Z</time></trkpt>
        <trkpt lat="29.526462" lon="103.33359"><ele>2985</ele><time>2026-05-12T01:05:43.000Z</time></trkpt>
        <trkpt lat="29.526528" lon="103.333541"><ele>2986</ele><time>2026-05-12T01:05:51.000Z</time></trkpt>
        <trkpt lat="29.526607" lon="103.333489"><ele>2985</ele><time>2026-05-12T01:06:02.000Z</time></trkpt>
        <trkpt lat="29.526787" lon="103.333458"><ele>2984</ele><time>2026-05-12T01:06:29.000Z</time></trkpt>
        <trkpt lat="29.526831" lon="103.333431"><ele>2983</ele><time>2026-05-12T01:06:36.000Z</time></trkpt>
        <trkpt lat="29.526977" lon="103.333381"><ele>2974</ele><time>2026-05-12T01:07:01.000Z</time></trkpt>
        <trkpt lat="29.527111" lon="103.333243"><ele>2953</ele><time>2026-05-12T01:07:29.000Z</time></trkpt>
        <trkpt lat="29.527104" lon="103.333145"><ele>2953</ele><time>2026-05-12T01:07:40.000Z</time></trkpt>
        <trkpt lat="29.527014" lon="103.332963"><ele>2948</ele><time>2026-05-12T01:08:02.000Z</time></trkpt>
        <trkpt lat="29.527023" lon="103.332914"><ele>2948</ele><time>2026-05-12T01:08:07.000Z</time></trkpt>
        <trkpt lat="29.527027" lon="103.332901"><ele>2948</ele><time>2026-05-12T01:08:08.000Z</time></trkpt>
        <trkpt lat="29.527031" lon="103.332888"><ele>2947</ele><time>2026-05-12T01:08:10.000Z</time></trkpt>
        <trkpt lat="29.52707" lon="103.332802"><ele>2949</ele><time>2026-05-12T01:08:16.000Z</time></trkpt>
        <trkpt lat="29.527064" lon="103.332681"><ele>2950</ele><time>2026-05-12T01:08:25.000Z</time></trkpt>
        <trkpt lat="29.527053" lon="103.332473"><ele>2953</ele><time>2026-05-12T01:08:44.000Z</time></trkpt>
        <trkpt lat="29.527066" lon="103.332375"><ele>2954</ele><time>2026-05-12T01:08:55.000Z</time></trkpt>
        <trkpt lat="29.527071" lon="103.332362"><ele>2954</ele><time>2026-05-12T01:08:57.000Z</time></trkpt>
        <trkpt lat="29.527074" lon="103.332338"><ele>2955</ele><time>2026-05-12T01:09:02.000Z</time></trkpt>
        <trkpt lat="29.527127" lon="103.332277"><ele>2955</ele><time>2026-05-12T01:09:10.000Z</time></trkpt>
        <trkpt lat="29.527158" lon="103.332251"><ele>2954</ele><time>2026-05-12T01:09:15.000Z</time></trkpt>
        <trkpt lat="29.527159" lon="103.332246"><ele>2951</ele><time>2026-05-12T01:09:18.000Z</time></trkpt>
        <trkpt lat="29.527164" lon="103.332241"><ele>2951</ele><time>2026-05-12T01:09:19.000Z</time></trkpt>
        <trkpt lat="29.527164" lon="103.332232"><ele>2951</ele><time>2026-05-12T01:09:20.000Z</time></trkpt>
        <trkpt lat="29.527199" lon="103.332258"><ele>2953</ele><time>2026-05-12T01:09:34.000Z</time></trkpt>
        <trkpt lat="29.527276" lon="103.332375"><ele>2952</ele><time>2026-05-12T01:09:45.000Z</time></trkpt>
        <trkpt lat="29.527309" lon="103.33243"><ele>2952</ele><time>2026-05-12T01:09:50.000Z</time></trkpt>
        <trkpt lat="29.527427" lon="103.332476"><ele>2952</ele><time>2026-05-12T01:10:03.000Z</time></trkpt>
        <trkpt lat="29.527466" lon="103.332458"><ele>2951</ele><time>2026-05-12T01:10:10.000Z</time></trkpt>
        <trkpt lat="29.527525" lon="103.332385"><ele>2951</ele><time>2026-05-12T01:10:24.000Z</time></trkpt>
        <trkpt lat="29.527588" lon="103.332209"><ele>2947</ele><time>2026-05-12T01:10:52.000Z</time></trkpt>
        <trkpt lat="29.527563" lon="103.33213"><ele>2941</ele><time>2026-05-12T01:11:04.000Z</time></trkpt>
        <trkpt lat="29.527655" lon="103.331995"><ele>2937</ele><time>2026-05-12T01:11:31.000Z</time></trkpt>
        <trkpt lat="29.527709" lon="103.331931"><ele>2935</ele><time>2026-05-12T01:11:48.000Z</time></trkpt>
        <trkpt lat="29.527708" lon="103.331835"><ele>2933</ele><time>2026-05-12T01:12:00.000Z</time></trkpt>
        <trkpt lat="29.527711" lon="103.33175"><ele>2932</ele><time>2026-05-12T01:12:08.000Z</time></trkpt>
        <trkpt lat="29.527712" lon="103.331712"><ele>2932</ele><time>2026-05-12T01:12:11.000Z</time></trkpt>
        <trkpt lat="29.527708" lon="103.331704"><ele>2932</ele><time>2026-05-12T01:12:12.000Z</time></trkpt>
        <trkpt lat="29.52773" lon="103.33156"><ele>2927</ele><time>2026-05-12T01:12:26.000Z</time></trkpt>
        <trkpt lat="29.527745" lon="103.331508"><ele>2924</ele><time>2026-05-12T01:12:33.000Z</time></trkpt>
        <trkpt lat="29.527787" lon="103.33145"><ele>2927</ele><time>2026-05-12T01:12:41.000Z</time></trkpt>
        <trkpt lat="29.527789" lon="103.331445"><ele>2927</ele><time>2026-05-12T01:12:42.000Z</time></trkpt>
        <trkpt lat="29.527793" lon="103.331438"><ele>2928</ele><time>2026-05-12T01:12:43.000Z</time></trkpt>
        <trkpt lat="29.527797" lon="103.331431"><ele>2928</ele><time>2026-05-12T01:12:44.000Z</time></trkpt>
        <trkpt lat="29.527854" lon="103.331349"><ele>2930</ele><time>2026-05-12T01:12:53.000Z</time></trkpt>
        <trkpt lat="29.527894" lon="103.331308"><ele>2929</ele><time>2026-05-12T01:12:58.000Z</time></trkpt>
        <trkpt lat="29.527902" lon="103.331296"><ele>2929</ele><time>2026-05-12T01:13:00.000Z</time></trkpt>
        <trkpt lat="29.527911" lon="103.331283"><ele>2928</ele><time>2026-05-12T01:13:02.000Z</time></trkpt>
        <trkpt lat="29.527932" lon="103.331253"><ele>2926</ele><time>2026-05-12T01:13:06.000Z</time></trkpt>
        <trkpt lat="29.527942" lon="103.331241"><ele>2926</ele><time>2026-05-12T01:13:08.000Z</time></trkpt>
        <trkpt lat="29.527951" lon="103.33123"><ele>2925</ele><time>2026-05-12T01:13:10.000Z</time></trkpt>
        <trkpt lat="29.527978" lon="103.33117"><ele>2919</ele><time>2026-05-12T01:13:25.000Z</time></trkpt>
        <trkpt lat="29.52807" lon="103.330996"><ele>2917</ele><time>2026-05-12T01:13:47.000Z</time></trkpt>
        <trkpt lat="29.528087" lon="103.330971"><ele>2917</ele><time>2026-05-12T01:13:49.000Z</time></trkpt>
        <trkpt lat="29.528125" lon="103.33086"><ele>2912</ele><time>2026-05-12T01:14:02.000Z</time></trkpt>
        <trkpt lat="29.52823" lon="103.330694"><ele>2908</ele><time>2026-05-12T01:14:30.000Z</time></trkpt>
        <trkpt lat="29.528337" lon="103.330535"><ele>2903</ele><time>2026-05-12T01:15:00.000Z</time></trkpt>
        <trkpt lat="29.528331" lon="103.330469"><ele>2900</ele><time>2026-05-12T01:15:14.000Z</time></trkpt>
        <trkpt lat="29.528316" lon="103.330397"><ele>2901</ele><time>2026-05-12T01:15:28.000Z</time></trkpt>
        <trkpt lat="29.528424" lon="103.330228"><ele>2902</ele><time>2026-05-12T01:15:43.000Z</time></trkpt>
        <trkpt lat="29.528412" lon="103.330175"><ele>2901</ele><time>2026-05-12T01:15:49.000Z</time></trkpt>
        <trkpt lat="29.528413" lon="103.330166"><ele>2901</ele><time>2026-05-12T01:15:50.000Z</time></trkpt>
        <trkpt lat="29.528364" lon="103.330202"><ele>2903</ele><time>2026-05-12T01:15:56.000Z</time></trkpt>
        <trkpt lat="29.528313" lon="103.330246"><ele>2903</ele><time>2026-05-12T01:16:02.000Z</time></trkpt>
        <trkpt lat="29.528303" lon="103.330245"><ele>2903</ele><time>2026-05-12T01:16:03.000Z</time></trkpt>
        <trkpt lat="29.528287" lon="103.33025"><ele>2902</ele><time>2026-05-12T01:16:05.000Z</time></trkpt>
        <trkpt lat="29.528279" lon="103.330248"><ele>2902</ele><time>2026-05-12T01:16:06.000Z</time></trkpt>
        <trkpt lat="29.528269" lon="103.330247"><ele>2901</ele><time>2026-05-12T01:16:08.000Z</time></trkpt>
        <trkpt lat="29.528217" lon="103.330249"><ele>2901</ele><time>2026-05-12T01:16:17.000Z</time></trkpt>
        <trkpt lat="29.528211" lon="103.330249"><ele>2901</ele><time>2026-05-12T01:16:18.000Z</time></trkpt>
        <trkpt lat="29.528192" lon="103.33025"><ele>2900</ele><time>2026-05-12T01:16:22.000Z</time></trkpt>
        <trkpt lat="29.528181" lon="103.330249"><ele>2900</ele><time>2026-05-12T01:16:24.000Z</time></trkpt>
        <trkpt lat="29.528007" lon="103.330391"><ele>2899</ele><time>2026-05-12T01:16:46.000Z</time></trkpt>
        <trkpt lat="29.527972" lon="103.330443"><ele>2898</ele><time>2026-05-12T01:16:51.000Z</time></trkpt>
        <trkpt lat="29.52821" lon="103.330325"><ele>2893</ele><time>2026-05-12T01:16:59.000Z</time></trkpt>
        <trkpt lat="29.528313" lon="103.330309"><ele>2894</ele><time>2026-05-12T01:17:03.000Z</time></trkpt>
        <trkpt lat="29.528429" lon="103.33011"><ele>2890</ele><time>2026-05-12T01:17:16.000Z</time></trkpt>
        <trkpt lat="29.52844" lon="103.330102"><ele>2889</ele><time>2026-05-12T01:17:17.000Z</time></trkpt>
        <trkpt lat="29.528474" lon="103.330072"><ele>2889</ele><time>2026-05-12T01:17:20.000Z</time></trkpt>
        <trkpt lat="29.528483" lon="103.330061"><ele>2889</ele><time>2026-05-12T01:17:21.000Z</time></trkpt>
        <trkpt lat="29.528493" lon="103.330053"><ele>2889</ele><time>2026-05-12T01:17:22.000Z</time></trkpt>
        <trkpt lat="29.528504" lon="103.330044"><ele>2890</ele><time>2026-05-12T01:17:23.000Z</time></trkpt>
        <trkpt lat="29.528514" lon="103.330038"><ele>2890</ele><time>2026-05-12T01:17:24.000Z</time></trkpt>
        <trkpt lat="29.528528" lon="103.330007"><ele>2891</ele><time>2026-05-12T01:17:26.000Z</time></trkpt>
        <trkpt lat="29.528536" lon="103.329991"><ele>2891</ele><time>2026-05-12T01:17:27.000Z</time></trkpt>
        <trkpt lat="29.528599" lon="103.329893"><ele>2893</ele><time>2026-05-12T01:17:35.000Z</time></trkpt>
        <trkpt lat="29.528606" lon="103.329875"><ele>2892</ele><time>2026-05-12T01:17:37.000Z</time></trkpt>
        <trkpt lat="29.528603" lon="103.329863"><ele>2892</ele><time>2026-05-12T01:17:39.000Z</time></trkpt>
        <trkpt lat="29.528604" lon="103.32986"><ele>2893</ele><time>2026-05-12T01:17:40.000Z</time></trkpt>
        <trkpt lat="29.5286" lon="103.329851"><ele>2893</ele><time>2026-05-12T01:17:41.000Z</time></trkpt>
        <trkpt lat="29.5286" lon="103.329851"><ele>2893</ele><time>2026-05-12T01:17:42.000Z</time></trkpt>
        <trkpt lat="29.528599" lon="103.329844"><ele>2893</ele><time>2026-05-12T01:17:43.000Z</time></trkpt>
        <trkpt lat="29.528598" lon="103.329833"><ele>2893</ele><time>2026-05-12T01:17:44.000Z</time></trkpt>
        <trkpt lat="29.52859" lon="103.3298"><ele>2895</ele><time>2026-05-12T01:17:47.000Z</time></trkpt>
        <trkpt lat="29.528588" lon="103.329776"><ele>2895</ele><time>2026-05-12T01:17:49.000Z</time></trkpt>
        <trkpt lat="29.528588" lon="103.329724"><ele>2895</ele><time>2026-05-12T01:17:54.000Z</time></trkpt>
        <trkpt lat="29.528585" lon="103.32972"><ele>2896</ele><time>2026-05-12T01:17:55.000Z</time></trkpt>
        <trkpt lat="29.528597" lon="103.329668"><ele>2898</ele><time>2026-05-12T01:18:01.000Z</time></trkpt>
        <trkpt lat="29.52861" lon="103.329645"><ele>2898</ele><time>2026-05-12T01:18:04.000Z</time></trkpt>
        <trkpt lat="29.528614" lon="103.329637"><ele>2898</ele><time>2026-05-12T01:18:05.000Z</time></trkpt>
        <trkpt lat="29.528616" lon="103.32961"><ele>2898</ele><time>2026-05-12T01:18:08.000Z</time></trkpt>
        <trkpt lat="29.528619" lon="103.3296"><ele>2898</ele><time>2026-05-12T01:18:09.000Z</time></trkpt>
        <trkpt lat="29.528623" lon="103.329586"><ele>2898</ele><time>2026-05-12T01:18:10.000Z</time></trkpt>
        <trkpt lat="29.528628" lon="103.329576"><ele>2898</ele><time>2026-05-12T01:18:11.000Z</time></trkpt>
        <trkpt lat="29.528629" lon="103.329565"><ele>2898</ele><time>2026-05-12T01:18:12.000Z</time></trkpt>
        <trkpt lat="29.528631" lon="103.329549"><ele>2898</ele><time>2026-05-12T01:18:13.000Z</time></trkpt>
        <trkpt lat="29.528631" lon="103.329549"><ele>2898</ele><time>2026-05-12T01:18:14.000Z</time></trkpt>
        <trkpt lat="29.52866" lon="103.329458"><ele>2897</ele><time>2026-05-12T01:18:23.000Z</time></trkpt>
        <trkpt lat="29.528734" lon="103.329262"><ele>2893</ele><time>2026-05-12T01:18:42.000Z</time></trkpt>
        <trkpt lat="29.528776" lon="103.329185"><ele>2889</ele><time>2026-05-12T01:18:52.000Z</time></trkpt>
        <trkpt lat="29.528788" lon="103.329145"><ele>2888</ele><time>2026-05-12T01:18:57.000Z</time></trkpt>
        <trkpt lat="29.528876" lon="103.329004"><ele>2885</ele><time>2026-05-12T01:19:18.000Z</time></trkpt>
        <trkpt lat="29.528937" lon="103.328922"><ele>2883</ele><time>2026-05-12T01:19:25.000Z</time></trkpt>
        <trkpt lat="29.528966" lon="103.328882"><ele>2881</ele><time>2026-05-12T01:19:29.000Z</time></trkpt>
        <trkpt lat="29.528976" lon="103.328867"><ele>2880</ele><time>2026-05-12T01:19:31.000Z</time></trkpt>
        <trkpt lat="29.528987" lon="103.328835"><ele>2878</ele><time>2026-05-12T01:19:34.000Z</time></trkpt>
        <trkpt lat="29.529023" lon="103.328778"><ele>2877</ele><time>2026-05-12T01:19:40.000Z</time></trkpt>
        <trkpt lat="29.529034" lon="103.328739"><ele>2875</ele><time>2026-05-12T01:19:45.000Z</time></trkpt>
        <trkpt lat="29.529043" lon="103.328672"><ele>2874</ele><time>2026-05-12T01:19:52.000Z</time></trkpt>
        <trkpt lat="29.529056" lon="103.328627"><ele>2873</ele><time>2026-05-12T01:19:57.000Z</time></trkpt>
        <trkpt lat="29.529068" lon="103.3286"><ele>2873</ele><time>2026-05-12T01:20:00.000Z</time></trkpt>
        <trkpt lat="29.52907" lon="103.328566"><ele>2872</ele><time>2026-05-12T01:20:04.000Z</time></trkpt>
        <trkpt lat="29.529124" lon="103.328467"><ele>2873</ele><time>2026-05-12T01:20:15.000Z</time></trkpt>
        <trkpt lat="29.529142" lon="103.328399"><ele>2870</ele><time>2026-05-12T01:20:26.000Z</time></trkpt>
        <trkpt lat="29.529197" lon="103.3282"><ele>2863</ele><time>2026-05-12T01:20:56.000Z</time></trkpt>
        <trkpt lat="29.529208" lon="103.328113"><ele>2859</ele><time>2026-05-12T01:21:08.000Z</time></trkpt>
        <trkpt lat="29.529232" lon="103.32807"><ele>2858</ele><time>2026-05-12T01:21:14.000Z</time></trkpt>
        <trkpt lat="29.529242" lon="103.328001"><ele>2851</ele><time>2026-05-12T01:21:26.000Z</time></trkpt>
        <trkpt lat="29.52925" lon="103.327948"><ele>2850</ele><time>2026-05-12T01:21:32.000Z</time></trkpt>
        <trkpt lat="29.529315" lon="103.327769"><ele>2845</ele><time>2026-05-12T01:22:00.000Z</time></trkpt>
        <trkpt lat="29.529371" lon="103.327766"><ele>2845</ele><time>2026-05-12T01:22:06.000Z</time></trkpt>
        <trkpt lat="29.529378" lon="103.327764"><ele>2845</ele><time>2026-05-12T01:22:07.000Z</time></trkpt>
        <trkpt lat="29.529415" lon="103.327768"><ele>2844</ele><time>2026-05-12T01:22:10.000Z</time></trkpt>
        <trkpt lat="29.529441" lon="103.327775"><ele>2844</ele><time>2026-05-12T01:22:12.000Z</time></trkpt>
        <trkpt lat="29.529485" lon="103.32778"><ele>2845</ele><time>2026-05-12T01:22:15.000Z</time></trkpt>
        <trkpt lat="29.529575" lon="103.327768"><ele>2849</ele><time>2026-05-12T01:22:21.000Z</time></trkpt>
        <trkpt lat="29.529717" lon="103.327733"><ele>2857</ele><time>2026-05-12T01:22:32.000Z</time></trkpt>
        <trkpt lat="29.529747" lon="103.327706"><ele>2857</ele><time>2026-05-12T01:22:36.000Z</time></trkpt>
        <trkpt lat="29.529814" lon="103.327508"><ele>2849</ele><time>2026-05-12T01:22:59.000Z</time></trkpt>
        <trkpt lat="29.529821" lon="103.327483"><ele>2848</ele><time>2026-05-12T01:23:01.000Z</time></trkpt>
        <trkpt lat="29.529926" lon="103.327311"><ele>2846</ele><time>2026-05-12T01:23:16.000Z</time></trkpt>
        <trkpt lat="29.530074" lon="103.327181"><ele>2845</ele><time>2026-05-12T01:23:34.000Z</time></trkpt>
        <trkpt lat="29.530157" lon="103.327123"><ele>2845</ele><time>2026-05-12T01:23:45.000Z</time></trkpt>
        <trkpt lat="29.530168" lon="103.327116"><ele>2845</ele><time>2026-05-12T01:23:47.000Z</time></trkpt>
        <trkpt lat="29.530202" lon="103.327076"><ele>2843</ele><time>2026-05-12T01:23:52.000Z</time></trkpt>
        <trkpt lat="29.53021" lon="103.327067"><ele>2843</ele><time>2026-05-12T01:23:53.000Z</time></trkpt>
        <trkpt lat="29.530234" lon="103.327037"><ele>2843</ele><time>2026-05-12T01:23:57.000Z</time></trkpt>
        <trkpt lat="29.530264" lon="103.327009"><ele>2842</ele><time>2026-05-12T01:24:02.000Z</time></trkpt>
        <trkpt lat="29.530393" lon="103.326934"><ele>2843</ele><time>2026-05-12T01:24:22.000Z</time></trkpt>
        <trkpt lat="29.530449" lon="103.326921"><ele>2842</ele><time>2026-05-12T01:24:30.000Z</time></trkpt>
        <trkpt lat="29.530492" lon="103.326912"><ele>2842</ele><time>2026-05-12T01:24:35.000Z</time></trkpt>
        <trkpt lat="29.530538" lon="103.326908"><ele>2841</ele><time>2026-05-12T01:24:42.000Z</time></trkpt>
        <trkpt lat="29.530553" lon="103.326909"><ele>2840</ele><time>2026-05-12T01:24:44.000Z</time></trkpt>
        <trkpt lat="29.530663" lon="103.32684"><ele>2831</ele><time>2026-05-12T01:25:02.000Z</time></trkpt>
        <trkpt lat="29.530675" lon="103.326832"><ele>2831</ele><time>2026-05-12T01:25:04.000Z</time></trkpt>
        <trkpt lat="29.530681" lon="103.326831"><ele>2831</ele><time>2026-05-12T01:25:05.000Z</time></trkpt>
        <trkpt lat="29.530687" lon="103.326825"><ele>2831</ele><time>2026-05-12T01:25:06.000Z</time></trkpt>
        <trkpt lat="29.530843" lon="103.326859"><ele>2819</ele><time>2026-05-12T01:25:39.000Z</time></trkpt>
        <trkpt lat="29.53085" lon="103.326908"><ele>2819</ele><time>2026-05-12T01:25:46.000Z</time></trkpt>
        <trkpt lat="29.530959" lon="103.326973"><ele>2818</ele><time>2026-05-12T01:26:11.000Z</time></trkpt>
        <trkpt lat="29.531129" lon="103.327057"><ele>2808</ele><time>2026-05-12T01:26:37.000Z</time></trkpt>
        <trkpt lat="29.531194" lon="103.327168"><ele>2803</ele><time>2026-05-12T01:26:54.000Z</time></trkpt>
        <trkpt lat="29.53121" lon="103.327223"><ele>2800</ele><time>2026-05-12T01:27:02.000Z</time></trkpt>
        <trkpt lat="29.531241" lon="103.327378"><ele>2792</ele><time>2026-05-12T01:27:28.000Z</time></trkpt>
        <trkpt lat="29.53124" lon="103.327429"><ele>2788</ele><time>2026-05-12T01:27:37.000Z</time></trkpt>
        <trkpt lat="29.531246" lon="103.327467"><ele>2789</ele><time>2026-05-12T01:27:43.000Z</time></trkpt>
        <trkpt lat="29.531257" lon="103.327526"><ele>2787</ele><time>2026-05-12T01:27:51.000Z</time></trkpt>
        <trkpt lat="29.531242" lon="103.327549"><ele>2787</ele><time>2026-05-12T01:27:54.000Z</time></trkpt>
        <trkpt lat="29.531247" lon="103.327627"><ele>2784</ele><time>2026-05-12T01:28:05.000Z</time></trkpt>
        <trkpt lat="29.531264" lon="103.327669"><ele>2783</ele><time>2026-05-12T01:28:11.000Z</time></trkpt>
        <trkpt lat="29.53128" lon="103.327776"><ele>2781</ele><time>2026-05-12T01:28:26.000Z</time></trkpt>
        <trkpt lat="29.531301" lon="103.32779"><ele>2780</ele><time>2026-05-12T01:28:30.000Z</time></trkpt>
        <trkpt lat="29.531297" lon="103.327863"><ele>2776</ele><time>2026-05-12T01:28:43.000Z</time></trkpt>
        <trkpt lat="29.531303" lon="103.328032"><ele>2775</ele><time>2026-05-12T01:29:00.000Z</time></trkpt>
        <trkpt lat="29.531302" lon="103.328198"><ele>2774</ele><time>2026-05-12T01:29:17.000Z</time></trkpt>
        <trkpt lat="29.531256" lon="103.328398"><ele>2773</ele><time>2026-05-12T01:29:34.000Z</time></trkpt>
        <trkpt lat="29.531191" lon="103.328519"><ele>2771</ele><time>2026-05-12T01:29:49.000Z</time></trkpt>
        <trkpt lat="29.531187" lon="103.328534"><ele>2771</ele><time>2026-05-12T01:29:51.000Z</time></trkpt>
        <trkpt lat="29.531164" lon="103.328733"><ele>2766</ele><time>2026-05-12T01:30:26.000Z</time></trkpt>
        <trkpt lat="29.531162" lon="103.32888"><ele>2762</ele><time>2026-05-12T01:30:44.000Z</time></trkpt>
        <trkpt lat="29.531149" lon="103.329046"><ele>2758</ele><time>2026-05-12T01:31:04.000Z</time></trkpt>
        <trkpt lat="29.531155" lon="103.329109"><ele>2757</ele><time>2026-05-12T01:31:09.000Z</time></trkpt>
        <trkpt lat="29.531168" lon="103.32928"><ele>2755</ele><time>2026-05-12T01:31:26.000Z</time></trkpt>
        <trkpt lat="29.53117" lon="103.329295"><ele>2754</ele><time>2026-05-12T01:31:28.000Z</time></trkpt>
        <trkpt lat="29.531203" lon="103.32943"><ele>2751</ele><time>2026-05-12T01:31:44.000Z</time></trkpt>
        <trkpt lat="29.531201" lon="103.329433"><ele>2751</ele><time>2026-05-12T01:31:45.000Z</time></trkpt>
        <trkpt lat="29.531205" lon="103.329442"><ele>2751</ele><time>2026-05-12T01:31:54.000Z</time></trkpt>
        <trkpt lat="29.531196" lon="103.329468"><ele>2750</ele><time>2026-05-12T01:32:10.000Z</time></trkpt>
        <trkpt lat="29.531194" lon="103.32947"><ele>2750</ele><time>2026-05-12T01:32:15.000Z</time></trkpt>
        <trkpt lat="29.531203" lon="103.329476"><ele>2750</ele><time>2026-05-12T01:32:19.000Z</time></trkpt>
        <trkpt lat="29.531205" lon="103.329477"><ele>2750</ele><time>2026-05-12T01:32:20.000Z</time></trkpt>
        <trkpt lat="29.531207" lon="103.329481"><ele>2751</ele><time>2026-05-12T01:32:21.000Z</time></trkpt>
        <trkpt lat="29.531208" lon="103.329482"><ele>2751</ele><time>2026-05-12T01:32:22.000Z</time></trkpt>
        <trkpt lat="29.531212" lon="103.329482"><ele>2752</ele><time>2026-05-12T01:32:37.000Z</time></trkpt>
        <trkpt lat="29.531226" lon="103.329553"><ele>2752</ele><time>2026-05-12T01:32:52.000Z</time></trkpt>
        <trkpt lat="29.53124" lon="103.329583"><ele>2752</ele><time>2026-05-12T01:32:58.000Z</time></trkpt>
        <trkpt lat="29.531249" lon="103.329602"><ele>2752</ele><time>2026-05-12T01:33:03.000Z</time></trkpt>
        <trkpt lat="29.531247" lon="103.329609"><ele>2752</ele><time>2026-05-12T01:33:04.000Z</time></trkpt>
        <trkpt lat="29.531248" lon="103.329623"><ele>2752</ele><time>2026-05-12T01:33:07.000Z</time></trkpt>
        <trkpt lat="29.531248" lon="103.329631"><ele>2753</ele><time>2026-05-12T01:33:09.000Z</time></trkpt>
        <trkpt lat="29.531258" lon="103.329656"><ele>2753</ele><time>2026-05-12T01:33:15.000Z</time></trkpt>
        <trkpt lat="29.531257" lon="103.32966"><ele>2752</ele><time>2026-05-12T01:33:16.000Z</time></trkpt>
        <trkpt lat="29.531259" lon="103.329669"><ele>2752</ele><time>2026-05-12T01:33:18.000Z</time></trkpt>
        <trkpt lat="29.531272" lon="103.329698"><ele>2752</ele><time>2026-05-12T01:33:24.000Z</time></trkpt>
        <trkpt lat="29.531285" lon="103.329717"><ele>2752</ele><time>2026-05-12T01:33:28.000Z</time></trkpt>
        <trkpt lat="29.531324" lon="103.329735"><ele>2750</ele><time>2026-05-12T01:33:37.000Z</time></trkpt>
        <trkpt lat="29.53134" lon="103.329765"><ele>2748</ele><time>2026-05-12T01:33:44.000Z</time></trkpt>
        <trkpt lat="29.531426" lon="103.32983"><ele>2741</ele><time>2026-05-12T01:34:12.000Z</time></trkpt>
        <trkpt lat="29.531444" lon="103.329868"><ele>2739</ele><time>2026-05-12T01:34:21.000Z</time></trkpt>
        <trkpt lat="29.531538" lon="103.329905"><ele>2738</ele><time>2026-05-12T01:34:51.000Z</time></trkpt>
        <trkpt lat="29.531578" lon="103.329929"><ele>2738</ele><time>2026-05-12T01:35:01.000Z</time></trkpt>
        <trkpt lat="29.531615" lon="103.329957"><ele>2737</ele><time>2026-05-12T01:35:09.000Z</time></trkpt>
        <trkpt lat="29.531736" lon="103.329994"><ele>2732</ele><time>2026-05-12T01:35:34.000Z</time></trkpt>
        <trkpt lat="29.531826" lon="103.330125"><ele>2725</ele><time>2026-05-12T01:35:53.000Z</time></trkpt>
        <trkpt lat="29.531902" lon="103.330216"><ele>2709</ele><time>2026-05-12T01:36:14.000Z</time></trkpt>
        <trkpt lat="29.531928" lon="103.330217"><ele>2706</ele><time>2026-05-12T01:36:19.000Z</time></trkpt>
        <trkpt lat="29.531964" lon="103.330221"><ele>2703</ele><time>2026-05-12T01:36:27.000Z</time></trkpt>
        <trkpt lat="29.532142" lon="103.330226"><ele>2692</ele><time>2026-05-12T01:37:07.000Z</time></trkpt>
        <trkpt lat="29.532171" lon="103.330216"><ele>2691</ele><time>2026-05-12T01:37:12.000Z</time></trkpt>
        <trkpt lat="29.532224" lon="103.330236"><ele>2686</ele><time>2026-05-12T01:37:31.000Z</time></trkpt>
        <trkpt lat="29.532226" lon="103.330237"><ele>2687</ele><time>2026-05-12T01:37:40.000Z</time></trkpt>
        <trkpt lat="29.532117" lon="103.330385"><ele>2676</ele><time>2026-05-12T01:38:19.000Z</time></trkpt>
        <trkpt lat="29.532143" lon="103.330428"><ele>2672</ele><time>2026-05-12T01:38:33.000Z</time></trkpt>
        <trkpt lat="29.532163" lon="103.330437"><ele>2669</ele><time>2026-05-12T01:38:39.000Z</time></trkpt>
        <trkpt lat="29.532175" lon="103.330441"><ele>2669</ele><time>2026-05-12T01:38:41.000Z</time></trkpt>
        <trkpt lat="29.532205" lon="103.330557"><ele>2664</ele><time>2026-05-12T01:39:07.000Z</time></trkpt>
        <trkpt lat="29.532207" lon="103.330568"><ele>2664</ele><time>2026-05-12T01:39:08.000Z</time></trkpt>
        <trkpt lat="29.532219" lon="103.330578"><ele>2664</ele><time>2026-05-12T01:39:09.000Z</time></trkpt>
        <trkpt lat="29.532221" lon="103.330587"><ele>2664</ele><time>2026-05-12T01:39:10.000Z</time></trkpt>
        <trkpt lat="29.53223" lon="103.330606"><ele>2665</ele><time>2026-05-12T01:39:12.000Z</time></trkpt>
        <trkpt lat="29.532258" lon="103.330719"><ele>2665</ele><time>2026-05-12T01:39:25.000Z</time></trkpt>
        <trkpt lat="29.532273" lon="103.330794"><ele>2665</ele><time>2026-05-12T01:39:34.000Z</time></trkpt>
        <trkpt lat="29.532285" lon="103.330917"><ele>2662</ele><time>2026-05-12T01:39:47.000Z</time></trkpt>
        <trkpt lat="29.532252" lon="103.331127"><ele>2658</ele><time>2026-05-12T01:40:15.000Z</time></trkpt>
        <trkpt lat="29.532229" lon="103.331217"><ele>2656</ele><time>2026-05-12T01:40:29.000Z</time></trkpt>
        <trkpt lat="29.532221" lon="103.331298"><ele>2654</ele><time>2026-05-12T01:40:41.000Z</time></trkpt>
        <trkpt lat="29.532312" lon="103.331346"><ele>2648</ele><time>2026-05-12T01:41:14.000Z</time></trkpt>
        <trkpt lat="29.532321" lon="103.331309"><ele>2647</ele><time>2026-05-12T01:41:19.000Z</time></trkpt>
        <trkpt lat="29.532334" lon="103.331229"><ele>2647</ele><time>2026-05-12T01:41:30.000Z</time></trkpt>
        <trkpt lat="29.532388" lon="103.33118"><ele>2643</ele><time>2026-05-12T01:41:47.000Z</time></trkpt>
        <trkpt lat="29.532391" lon="103.331204"><ele>2643</ele><time>2026-05-12T01:42:00.000Z</time></trkpt>
        <trkpt lat="29.532426" lon="103.331293"><ele>2641</ele><time>2026-05-12T01:42:17.000Z</time></trkpt>
        <trkpt lat="29.532502" lon="103.331463"><ele>2638</ele><time>2026-05-12T01:42:49.000Z</time></trkpt>
        <trkpt lat="29.532519" lon="103.33151"><ele>2637</ele><time>2026-05-12T01:42:58.000Z</time></trkpt>
        <trkpt lat="29.532551" lon="103.33163"><ele>2634</ele><time>2026-05-12T01:43:22.000Z</time></trkpt>
        <trkpt lat="29.532554" lon="103.331639"><ele>2633</ele><time>2026-05-12T01:43:25.000Z</time></trkpt>
        <trkpt lat="29.532542" lon="103.331656"><ele>2631</ele><time>2026-05-12T01:43:33.000Z</time></trkpt>
        <trkpt lat="29.532595" lon="103.331754"><ele>2620</ele><time>2026-05-12T01:43:59.000Z</time></trkpt>
        <trkpt lat="29.532617" lon="103.331852"><ele>2619</ele><time>2026-05-12T01:44:12.000Z</time></trkpt>
        <trkpt lat="29.532623" lon="103.331863"><ele>2618</ele><time>2026-05-12T01:44:15.000Z</time></trkpt>
        <trkpt lat="29.532643" lon="103.331915"><ele>2617</ele><time>2026-05-12T01:44:22.000Z</time></trkpt>
        <trkpt lat="29.532643" lon="103.331923"><ele>2617</ele><time>2026-05-12T01:44:23.000Z</time></trkpt>
        <trkpt lat="29.53264" lon="103.33193"><ele>2616</ele><time>2026-05-12T01:44:24.000Z</time></trkpt>
        <trkpt lat="29.532657" lon="103.331945"><ele>2616</ele><time>2026-05-12T01:44:27.000Z</time></trkpt>
        <trkpt lat="29.532662" lon="103.331951"><ele>2615</ele><time>2026-05-12T01:44:28.000Z</time></trkpt>
        <trkpt lat="29.5327" lon="103.33198"><ele>2614</ele><time>2026-05-12T01:44:39.000Z</time></trkpt>
        <trkpt lat="29.532765" lon="103.33207"><ele>2613</ele><time>2026-05-12T01:45:03.000Z</time></trkpt>
        <trkpt lat="29.532791" lon="103.332144"><ele>2610</ele><time>2026-05-12T01:45:15.000Z</time></trkpt>
        <trkpt lat="29.532829" lon="103.332198"><ele>2608</ele><time>2026-05-12T01:45:25.000Z</time></trkpt>
        <trkpt lat="29.532862" lon="103.332247"><ele>2608</ele><time>2026-05-12T01:45:33.000Z</time></trkpt>
        <trkpt lat="29.532867" lon="103.332255"><ele>2609</ele><time>2026-05-12T01:45:34.000Z</time></trkpt>
        <trkpt lat="29.532878" lon="103.332279"><ele>2610</ele><time>2026-05-12T01:45:37.000Z</time></trkpt>
        <trkpt lat="29.532885" lon="103.332287"><ele>2609</ele><time>2026-05-12T01:45:38.000Z</time></trkpt>
        <trkpt lat="29.532896" lon="103.332293"><ele>2609</ele><time>2026-05-12T01:45:39.000Z</time></trkpt>
        <trkpt lat="29.532902" lon="103.332301"><ele>2609</ele><time>2026-05-12T01:45:40.000Z</time></trkpt>
        <trkpt lat="29.532908" lon="103.332308"><ele>2610</ele><time>2026-05-12T01:45:41.000Z</time></trkpt>
        <trkpt lat="29.53292" lon="103.332325"><ele>2610</ele><time>2026-05-12T01:45:44.000Z</time></trkpt>
        <trkpt lat="29.532937" lon="103.332352"><ele>2609</ele><time>2026-05-12T01:45:48.000Z</time></trkpt>
        <trkpt lat="29.532972" lon="103.33238"><ele>2608</ele><time>2026-05-12T01:45:53.000Z</time></trkpt>
        <trkpt lat="29.532985" lon="103.332389"><ele>2607</ele><time>2026-05-12T01:45:55.000Z</time></trkpt>
        <trkpt lat="29.533007" lon="103.332397"><ele>2608</ele><time>2026-05-12T01:45:57.000Z</time></trkpt>
        <trkpt lat="29.533014" lon="103.332399"><ele>2609</ele><time>2026-05-12T01:45:58.000Z</time></trkpt>
        <trkpt lat="29.533021" lon="103.332406"><ele>2610</ele><time>2026-05-12T01:45:59.000Z</time></trkpt>
        <trkpt lat="29.533028" lon="103.332411"><ele>2610</ele><time>2026-05-12T01:46:00.000Z</time></trkpt>
        <trkpt lat="29.533035" lon="103.332415"><ele>2610</ele><time>2026-05-12T01:46:01.000Z</time></trkpt>
        <trkpt lat="29.533047" lon="103.332427"><ele>2611</ele><time>2026-05-12T01:46:02.000Z</time></trkpt>
        <trkpt lat="29.533047" lon="103.332427"><ele>2611</ele><time>2026-05-12T01:46:03.000Z</time></trkpt>
        <trkpt lat="29.533065" lon="103.332436"><ele>2611</ele><time>2026-05-12T01:46:07.000Z</time></trkpt>
        <trkpt lat="29.533121" lon="103.33249"><ele>2610</ele><time>2026-05-12T01:46:17.000Z</time></trkpt>
        <trkpt lat="29.533188" lon="103.332595"><ele>2607</ele><time>2026-05-12T01:46:34.000Z</time></trkpt>
        <trkpt lat="29.53319" lon="103.332602"><ele>2607</ele><time>2026-05-12T01:46:35.000Z</time></trkpt>
        <trkpt lat="29.533244" lon="103.332653"><ele>2603</ele><time>2026-05-12T01:46:46.000Z</time></trkpt>
        <trkpt lat="29.533262" lon="103.332666"><ele>2602</ele><time>2026-05-12T01:46:49.000Z</time></trkpt>
        <trkpt lat="29.533309" lon="103.332694"><ele>2600</ele><time>2026-05-12T01:46:57.000Z</time></trkpt>
        <trkpt lat="29.533357" lon="103.332708"><ele>2598</ele><time>2026-05-12T01:47:04.000Z</time></trkpt>
        <trkpt lat="29.533368" lon="103.332711"><ele>2598</ele><time>2026-05-12T01:47:06.000Z</time></trkpt>
        <trkpt lat="29.533381" lon="103.332714"><ele>2598</ele><time>2026-05-12T01:47:09.000Z</time></trkpt>
        <trkpt lat="29.533393" lon="103.332719"><ele>2598</ele><time>2026-05-12T01:47:10.000Z</time></trkpt>
        <trkpt lat="29.533398" lon="103.332723"><ele>2597</ele><time>2026-05-12T01:47:12.000Z</time></trkpt>
        <trkpt lat="29.533409" lon="103.332728"><ele>2596</ele><time>2026-05-12T01:47:14.000Z</time></trkpt>
        <trkpt lat="29.53342" lon="103.332743"><ele>2594</ele><time>2026-05-12T01:47:17.000Z</time></trkpt>
        <trkpt lat="29.533496" lon="103.332833"><ele>2594</ele><time>2026-05-12T01:47:31.000Z</time></trkpt>
        <trkpt lat="29.533501" lon="103.332837"><ele>2593</ele><time>2026-05-12T01:47:32.000Z</time></trkpt>
        <trkpt lat="29.533505" lon="103.332842"><ele>2593</ele><time>2026-05-12T01:47:33.000Z</time></trkpt>
        <trkpt lat="29.533511" lon="103.332848"><ele>2593</ele><time>2026-05-12T01:47:34.000Z</time></trkpt>
        <trkpt lat="29.533516" lon="103.332853"><ele>2592</ele><time>2026-05-12T01:47:35.000Z</time></trkpt>
        <trkpt lat="29.533526" lon="103.332865"><ele>2591</ele><time>2026-05-12T01:47:37.000Z</time></trkpt>
        <trkpt lat="29.533546" lon="103.332879"><ele>2590</ele><time>2026-05-12T01:47:40.000Z</time></trkpt>
        <trkpt lat="29.533553" lon="103.332882"><ele>2590</ele><time>2026-05-12T01:47:41.000Z</time></trkpt>
        <trkpt lat="29.533567" lon="103.33289"><ele>2590</ele><time>2026-05-12T01:47:43.000Z</time></trkpt>
        <trkpt lat="29.533575" lon="103.332893"><ele>2589</ele><time>2026-05-12T01:47:44.000Z</time></trkpt>
        <trkpt lat="29.53358" lon="103.332898"><ele>2589</ele><time>2026-05-12T01:47:45.000Z</time></trkpt>
        <trkpt lat="29.533638" lon="103.332937"><ele>2587</ele><time>2026-05-12T01:47:54.000Z</time></trkpt>
        <trkpt lat="29.533649" lon="103.332949"><ele>2587</ele><time>2026-05-12T01:47:56.000Z</time></trkpt>
        <trkpt lat="29.533682" lon="103.332973"><ele>2585</ele><time>2026-05-12T01:48:01.000Z</time></trkpt>
        <trkpt lat="29.533694" lon="103.332982"><ele>2585</ele><time>2026-05-12T01:48:03.000Z</time></trkpt>
        <trkpt lat="29.533716" lon="103.333003"><ele>2583</ele><time>2026-05-12T01:48:08.000Z</time></trkpt>
        <trkpt lat="29.53372" lon="103.33301"><ele>2582</ele><time>2026-05-12T01:48:09.000Z</time></trkpt>
        <trkpt lat="29.533723" lon="103.333014"><ele>2582</ele><time>2026-05-12T01:48:10.000Z</time></trkpt>
        <trkpt lat="29.53375" lon="103.333062"><ele>2577</ele><time>2026-05-12T01:48:18.000Z</time></trkpt>
        <trkpt lat="29.533761" lon="103.333093"><ele>2577</ele><time>2026-05-12T01:48:23.000Z</time></trkpt>
        <trkpt lat="29.533768" lon="103.333115"><ele>2576</ele><time>2026-05-12T01:48:27.000Z</time></trkpt>
        <trkpt lat="29.533884" lon="103.333197"><ele>2569</ele><time>2026-05-12T01:48:51.000Z</time></trkpt>
        <trkpt lat="29.533885" lon="103.3332"><ele>2569</ele><time>2026-05-12T01:48:52.000Z</time></trkpt>
        <trkpt lat="29.533887" lon="103.333201"><ele>2568</ele><time>2026-05-12T01:48:53.000Z</time></trkpt>
        <trkpt lat="29.533892" lon="103.333202"><ele>2568</ele><time>2026-05-12T01:48:54.000Z</time></trkpt>
        <trkpt lat="29.533971" lon="103.333179"><ele>2567</ele><time>2026-05-12T01:49:05.000Z</time></trkpt>
        <trkpt lat="29.533982" lon="103.333174"><ele>2567</ele><time>2026-05-12T01:49:06.000Z</time></trkpt>
        <trkpt lat="29.534025" lon="103.333169"><ele>2566</ele><time>2026-05-12T01:49:10.000Z</time></trkpt>
        <trkpt lat="29.534039" lon="103.333166"><ele>2566</ele><time>2026-05-12T01:49:11.000Z</time></trkpt>
        <trkpt lat="29.53413" lon="103.333155"><ele>2563</ele><time>2026-05-12T01:49:23.000Z</time></trkpt>
        <trkpt lat="29.534147" lon="103.33315"><ele>2562</ele><time>2026-05-12T01:49:26.000Z</time></trkpt>
        <trkpt lat="29.534151" lon="103.333145"><ele>2562</ele><time>2026-05-12T01:49:27.000Z</time></trkpt>
        <trkpt lat="29.534159" lon="103.333138"><ele>2561</ele><time>2026-05-12T01:49:29.000Z</time></trkpt>
        <trkpt lat="29.534166" lon="103.333135"><ele>2561</ele><time>2026-05-12T01:49:30.000Z</time></trkpt>
        <trkpt lat="29.534185" lon="103.333123"><ele>2561</ele><time>2026-05-12T01:49:32.000Z</time></trkpt>
        <trkpt lat="29.534233" lon="103.3331"><ele>2561</ele><time>2026-05-12T01:49:38.000Z</time></trkpt>
        <trkpt lat="29.534242" lon="103.333096"><ele>2561</ele><time>2026-05-12T01:49:39.000Z</time></trkpt>
        <trkpt lat="29.534278" lon="103.333115"><ele>2559</ele><time>2026-05-12T01:49:44.000Z</time></trkpt>
        <trkpt lat="29.534286" lon="103.33313"><ele>2557</ele><time>2026-05-12T01:49:46.000Z</time></trkpt>
        <trkpt lat="29.534291" lon="103.333134"><ele>2557</ele><time>2026-05-12T01:49:47.000Z</time></trkpt>
        <trkpt lat="29.534314" lon="103.33314"><ele>2556</ele><time>2026-05-12T01:49:51.000Z</time></trkpt>
        <trkpt lat="29.534319" lon="103.333138"><ele>2556</ele><time>2026-05-12T01:49:52.000Z</time></trkpt>
        <trkpt lat="29.534331" lon="103.333138"><ele>2556</ele><time>2026-05-12T01:49:53.000Z</time></trkpt>
        <trkpt lat="29.534341" lon="103.333136"><ele>2555</ele><time>2026-05-12T01:49:54.000Z</time></trkpt>
        <trkpt lat="29.534351" lon="103.333131"><ele>2555</ele><time>2026-05-12T01:49:55.000Z</time></trkpt>
        <trkpt lat="29.534382" lon="103.333119"><ele>2553</ele><time>2026-05-12T01:49:59.000Z</time></trkpt>
        <trkpt lat="29.534446" lon="103.333088"><ele>2547</ele><time>2026-05-12T01:50:08.000Z</time></trkpt>
        <trkpt lat="29.534463" lon="103.333077"><ele>2546</ele><time>2026-05-12T01:50:10.000Z</time></trkpt>
        <trkpt lat="29.534505" lon="103.333057"><ele>2543</ele><time>2026-05-12T01:50:14.000Z</time></trkpt>
        <trkpt lat="29.534572" lon="103.333034"><ele>2541</ele><time>2026-05-12T01:50:22.000Z</time></trkpt>
        <trkpt lat="29.534643" lon="103.333031"><ele>2543</ele><time>2026-05-12T01:50:31.000Z</time></trkpt>
        <trkpt lat="29.534666" lon="103.333019"><ele>2544</ele><time>2026-05-12T01:50:34.000Z</time></trkpt>
        <trkpt lat="29.534694" lon="103.33301"><ele>2545</ele><time>2026-05-12T01:50:38.000Z</time></trkpt>
        <trkpt lat="29.534745" lon="103.332978"><ele>2544</ele><time>2026-05-12T01:50:47.000Z</time></trkpt>
        <trkpt lat="29.534798" lon="103.332928"><ele>2542</ele><time>2026-05-12T01:50:58.000Z</time></trkpt>
        <trkpt lat="29.534874" lon="103.332879"><ele>2541</ele><time>2026-05-12T01:51:10.000Z</time></trkpt>
        <trkpt lat="29.534872" lon="103.332871"><ele>2541</ele><time>2026-05-12T01:51:11.000Z</time></trkpt>
        <trkpt lat="29.534867" lon="103.332862"><ele>2541</ele><time>2026-05-12T01:51:12.000Z</time></trkpt>
        <trkpt lat="29.534877" lon="103.332835"><ele>2541</ele><time>2026-05-12T01:51:16.000Z</time></trkpt>
        <trkpt lat="29.534887" lon="103.332832"><ele>2542</ele><time>2026-05-12T01:51:18.000Z</time></trkpt>
        <trkpt lat="29.534896" lon="103.332831"><ele>2544</ele><time>2026-05-12T01:51:22.000Z</time></trkpt>
        <trkpt lat="29.534915" lon="103.332816"><ele>2544</ele><time>2026-05-12T01:51:26.000Z</time></trkpt>
        <trkpt lat="29.534979" lon="103.332792"><ele>2547</ele><time>2026-05-12T01:51:34.000Z</time></trkpt>
        <trkpt lat="29.535067" lon="103.332848"><ele>2545</ele><time>2026-05-12T01:51:45.000Z</time></trkpt>
        <trkpt lat="29.535076" lon="103.332862"><ele>2545</ele><time>2026-05-12T01:51:46.000Z</time></trkpt>
        <trkpt lat="29.535086" lon="103.332875"><ele>2544</ele><time>2026-05-12T01:51:47.000Z</time></trkpt>
        <trkpt lat="29.535168" lon="103.333018"><ele>2534</ele><time>2026-05-12T01:52:02.000Z</time></trkpt>
        <trkpt lat="29.535167" lon="103.333031"><ele>2533</ele><time>2026-05-12T01:52:04.000Z</time></trkpt>
        <trkpt lat="29.53518" lon="103.333066"><ele>2530</ele><time>2026-05-12T01:52:08.000Z</time></trkpt>
        <trkpt lat="29.535183" lon="103.333072"><ele>2530</ele><time>2026-05-12T01:52:09.000Z</time></trkpt>
        <trkpt lat="29.535201" lon="103.333106"><ele>2527</ele><time>2026-05-12T01:52:14.000Z</time></trkpt>
        <trkpt lat="29.535214" lon="103.333121"><ele>2526</ele><time>2026-05-12T01:52:16.000Z</time></trkpt>
        <trkpt lat="29.535225" lon="103.333139"><ele>2524</ele><time>2026-05-12T01:52:19.000Z</time></trkpt>
        <trkpt lat="29.535228" lon="103.333159"><ele>2523</ele><time>2026-05-12T01:52:22.000Z</time></trkpt>
        <trkpt lat="29.535228" lon="103.333174"><ele>2521</ele><time>2026-05-12T01:52:24.000Z</time></trkpt>
        <trkpt lat="29.535235" lon="103.333208"><ele>2519</ele><time>2026-05-12T01:52:28.000Z</time></trkpt>
        <trkpt lat="29.535243" lon="103.333233"><ele>2517</ele><time>2026-05-12T01:52:31.000Z</time></trkpt>
        <trkpt lat="29.535255" lon="103.333254"><ele>2516</ele><time>2026-05-12T01:52:34.000Z</time></trkpt>
        <trkpt lat="29.535261" lon="103.333273"><ele>2514</ele><time>2026-05-12T01:52:36.000Z</time></trkpt>
        <trkpt lat="29.535275" lon="103.333291"><ele>2513</ele><time>2026-05-12T01:52:38.000Z</time></trkpt>
        <trkpt lat="29.535281" lon="103.333301"><ele>2512</ele><time>2026-05-12T01:52:39.000Z</time></trkpt>
        <trkpt lat="29.535288" lon="103.333314"><ele>2511</ele><time>2026-05-12T01:52:40.000Z</time></trkpt>
        <trkpt lat="29.535288" lon="103.333314"><ele>2511</ele><time>2026-05-12T01:52:41.000Z</time></trkpt>
        <trkpt lat="29.535296" lon="103.333322"><ele>2510</ele><time>2026-05-12T01:52:42.000Z</time></trkpt>
        <trkpt lat="29.535309" lon="103.33334"><ele>2510</ele><time>2026-05-12T01:52:44.000Z</time></trkpt>
        <trkpt lat="29.535314" lon="103.333354"><ele>2509</ele><time>2026-05-12T01:52:46.000Z</time></trkpt>
        <trkpt lat="29.535317" lon="103.333362"><ele>2509</ele><time>2026-05-12T01:52:47.000Z</time></trkpt>
        <trkpt lat="29.53532" lon="103.333367"><ele>2508</ele><time>2026-05-12T01:52:48.000Z</time></trkpt>
        <trkpt lat="29.535323" lon="103.333373"><ele>2508</ele><time>2026-05-12T01:52:49.000Z</time></trkpt>
        <trkpt lat="29.535332" lon="103.333381"><ele>2508</ele><time>2026-05-12T01:52:50.000Z</time></trkpt>
        <trkpt lat="29.535374" lon="103.333428"><ele>2506</ele><time>2026-05-12T01:52:56.000Z</time></trkpt>
        <trkpt lat="29.535388" lon="103.33345"><ele>2505</ele><time>2026-05-12T01:52:58.000Z</time></trkpt>
        <trkpt lat="29.535404" lon="103.33348"><ele>2503</ele><time>2026-05-12T01:53:02.000Z</time></trkpt>
        <trkpt lat="29.535408" lon="103.333487"><ele>2503</ele><time>2026-05-12T01:53:03.000Z</time></trkpt>
        <trkpt lat="29.53541" lon="103.333494"><ele>2502</ele><time>2026-05-12T01:53:04.000Z</time></trkpt>
        <trkpt lat="29.535423" lon="103.333515"><ele>2500</ele><time>2026-05-12T01:53:09.000Z</time></trkpt>
        <trkpt lat="29.535436" lon="103.33357"><ele>2499</ele><time>2026-05-12T01:53:14.000Z</time></trkpt>
        <trkpt lat="29.535468" lon="103.333645"><ele>2501</ele><time>2026-05-12T01:53:19.000Z</time></trkpt>
        <trkpt lat="29.535592" lon="103.333666"><ele>2502</ele><time>2026-05-12T01:53:25.000Z</time></trkpt>
        <trkpt lat="29.53563" lon="103.333647"><ele>2501</ele><time>2026-05-12T01:53:29.000Z</time></trkpt>
        <trkpt lat="29.535627" lon="103.333653"><ele>2501</ele><time>2026-05-12T01:53:30.000Z</time></trkpt>
        <trkpt lat="29.535625" lon="103.333663"><ele>2501</ele><time>2026-05-12T01:53:31.000Z</time></trkpt>
        <trkpt lat="29.535607" lon="103.333704"><ele>2502</ele><time>2026-05-12T01:53:34.000Z</time></trkpt>
        <trkpt lat="29.535596" lon="103.333732"><ele>2502</ele><time>2026-05-12T01:53:36.000Z</time></trkpt>
        <trkpt lat="29.535579" lon="103.333767"><ele>2502</ele><time>2026-05-12T01:53:39.000Z</time></trkpt>
        <trkpt lat="29.535577" lon="103.333801"><ele>2501</ele><time>2026-05-12T01:53:43.000Z</time></trkpt>
        <trkpt lat="29.535577" lon="103.33381"><ele>2501</ele><time>2026-05-12T01:53:44.000Z</time></trkpt>
        <trkpt lat="29.535597" lon="103.333855"><ele>2501</ele><time>2026-05-12T01:53:49.000Z</time></trkpt>
        <trkpt lat="29.535601" lon="103.333872"><ele>2501</ele><time>2026-05-12T01:53:51.000Z</time></trkpt>
        <trkpt lat="29.535608" lon="103.333896"><ele>2500</ele><time>2026-05-12T01:53:55.000Z</time></trkpt>
        <trkpt lat="29.535617" lon="103.333911"><ele>2500</ele><time>2026-05-12T01:53:56.000Z</time></trkpt>
        <trkpt lat="29.535617" lon="103.333911"><ele>2500</ele><time>2026-05-12T01:53:57.000Z</time></trkpt>
        <trkpt lat="29.535632" lon="103.333943"><ele>2498</ele><time>2026-05-12T01:54:02.000Z</time></trkpt>
        <trkpt lat="29.535692" lon="103.334009"><ele>2496</ele><time>2026-05-12T01:54:12.000Z</time></trkpt>
        <trkpt lat="29.535878" lon="103.334078"><ele>2494</ele><time>2026-05-12T01:54:23.000Z</time></trkpt>
        <trkpt lat="29.535924" lon="103.334099"><ele>2493</ele><time>2026-05-12T01:54:28.000Z</time></trkpt>
        <trkpt lat="29.535956" lon="103.334122"><ele>2493</ele><time>2026-05-12T01:54:34.000Z</time></trkpt>
        <trkpt lat="29.535972" lon="103.334146"><ele>2493</ele><time>2026-05-12T01:54:38.000Z</time></trkpt>
        <trkpt lat="29.535986" lon="103.334157"><ele>2492</ele><time>2026-05-12T01:54:39.000Z</time></trkpt>
        <trkpt lat="29.536059" lon="103.334191"><ele>2490</ele><time>2026-05-12T01:54:52.000Z</time></trkpt>
        <trkpt lat="29.536064" lon="103.334194"><ele>2489</ele><time>2026-05-12T01:54:53.000Z</time></trkpt>
        <trkpt lat="29.536093" lon="103.334212"><ele>2488</ele><time>2026-05-12T01:54:58.000Z</time></trkpt>
        <trkpt lat="29.536109" lon="103.334219"><ele>2487</ele><time>2026-05-12T01:55:00.000Z</time></trkpt>
        <trkpt lat="29.536124" lon="103.334231"><ele>2486</ele><time>2026-05-12T01:55:02.000Z</time></trkpt>
        <trkpt lat="29.536189" lon="103.334283"><ele>2482</ele><time>2026-05-12T01:55:08.000Z</time></trkpt>
        <trkpt lat="29.536202" lon="103.334292"><ele>2482</ele><time>2026-05-12T01:55:09.000Z</time></trkpt>
        <trkpt lat="29.536218" lon="103.334301"><ele>2482</ele><time>2026-05-12T01:55:10.000Z</time></trkpt>
        <trkpt lat="29.536231" lon="103.334311"><ele>2482</ele><time>2026-05-12T01:55:11.000Z</time></trkpt>
        <trkpt lat="29.536242" lon="103.334318"><ele>2482</ele><time>2026-05-12T01:55:12.000Z</time></trkpt>
        <trkpt lat="29.536256" lon="103.334333"><ele>2483</ele><time>2026-05-12T01:55:14.000Z</time></trkpt>
        <trkpt lat="29.53628" lon="103.334348"><ele>2484</ele><time>2026-05-12T01:55:17.000Z</time></trkpt>
        <trkpt lat="29.536286" lon="103.334353"><ele>2484</ele><time>2026-05-12T01:55:18.000Z</time></trkpt>
        <trkpt lat="29.536301" lon="103.334356"><ele>2485</ele><time>2026-05-12T01:55:20.000Z</time></trkpt>
        <trkpt lat="29.536308" lon="103.334358"><ele>2484</ele><time>2026-05-12T01:55:21.000Z</time></trkpt>
        <trkpt lat="29.536316" lon="103.334361"><ele>2485</ele><time>2026-05-12T01:55:22.000Z</time></trkpt>
        <trkpt lat="29.53636" lon="103.334363"><ele>2484</ele><time>2026-05-12T01:55:27.000Z</time></trkpt>
        <trkpt lat="29.536388" lon="103.334358"><ele>2483</ele><time>2026-05-12T01:55:30.000Z</time></trkpt>
        <trkpt lat="29.536402" lon="103.334354"><ele>2484</ele><time>2026-05-12T01:55:32.000Z</time></trkpt>
        <trkpt lat="29.536412" lon="103.334352"><ele>2484</ele><time>2026-05-12T01:55:33.000Z</time></trkpt>
        <trkpt lat="29.536441" lon="103.334341"><ele>2484</ele><time>2026-05-12T01:55:36.000Z</time></trkpt>
        <trkpt lat="29.536467" lon="103.33433"><ele>2484</ele><time>2026-05-12T01:55:38.000Z</time></trkpt>
        <trkpt lat="29.536516" lon="103.334331"><ele>2485</ele><time>2026-05-12T01:55:41.000Z</time></trkpt>
        <trkpt lat="29.536533" lon="103.33433"><ele>2486</ele><time>2026-05-12T01:55:42.000Z</time></trkpt>
        <trkpt lat="29.536562" lon="103.334329"><ele>2489</ele><time>2026-05-12T01:55:44.000Z</time></trkpt>
        <trkpt lat="29.53659" lon="103.334325"><ele>2490</ele><time>2026-05-12T01:55:46.000Z</time></trkpt>
        <trkpt lat="29.536652" lon="103.334314"><ele>2492</ele><time>2026-05-12T01:55:50.000Z</time></trkpt>
        <trkpt lat="29.536688" lon="103.334304"><ele>2492</ele><time>2026-05-12T01:55:53.000Z</time></trkpt>
        <trkpt lat="29.5367" lon="103.334305"><ele>2492</ele><time>2026-05-12T01:55:54.000Z</time></trkpt>
        <trkpt lat="29.536759" lon="103.334295"><ele>2492</ele><time>2026-05-12T01:56:00.000Z</time></trkpt>
        <trkpt lat="29.536766" lon="103.334294"><ele>2492</ele><time>2026-05-12T01:56:01.000Z</time></trkpt>
        <trkpt lat="29.536832" lon="103.334265"><ele>2491</ele><time>2026-05-12T01:56:10.000Z</time></trkpt>
        <trkpt lat="29.536899" lon="103.33423"><ele>2491</ele><time>2026-05-12T01:56:20.000Z</time></trkpt>
        <trkpt lat="29.537055" lon="103.334179"><ele>2485</ele><time>2026-05-12T01:56:39.000Z</time></trkpt>
        <trkpt lat="29.537105" lon="103.334153"><ele>2483</ele><time>2026-05-12T01:56:45.000Z</time></trkpt>
        <trkpt lat="29.537143" lon="103.334138"><ele>2482</ele><time>2026-05-12T01:56:49.000Z</time></trkpt>
        <trkpt lat="29.537165" lon="103.334119"><ele>2481</ele><time>2026-05-12T01:56:52.000Z</time></trkpt>
        <trkpt lat="29.537235" lon="103.334027"><ele>2474</ele><time>2026-05-12T01:57:01.000Z</time></trkpt>
        <trkpt lat="29.537245" lon="103.333979"><ele>2472</ele><time>2026-05-12T01:57:05.000Z</time></trkpt>
        <trkpt lat="29.537261" lon="103.333936"><ele>2470</ele><time>2026-05-12T01:57:10.000Z</time></trkpt>
        <trkpt lat="29.537291" lon="103.333857"><ele>2467</ele><time>2026-05-12T01:57:18.000Z</time></trkpt>
        <trkpt lat="29.537297" lon="103.333842"><ele>2467</ele><time>2026-05-12T01:57:20.000Z</time></trkpt>
        <trkpt lat="29.537322" lon="103.333769"><ele>2464</ele><time>2026-05-12T01:57:27.000Z</time></trkpt>
        <trkpt lat="29.537348" lon="103.333745"><ele>2463</ele><time>2026-05-12T01:57:31.000Z</time></trkpt>
        <trkpt lat="29.537406" lon="103.333725"><ele>2462</ele><time>2026-05-12T01:57:36.000Z</time></trkpt>
        <trkpt lat="29.53746" lon="103.333731"><ele>2463</ele><time>2026-05-12T01:57:40.000Z</time></trkpt>
        <trkpt lat="29.53752" lon="103.333726"><ele>2462</ele><time>2026-05-12T01:57:45.000Z</time></trkpt>
        <trkpt lat="29.537612" lon="103.333694"><ele>2461</ele><time>2026-05-12T01:57:53.000Z</time></trkpt>
        <trkpt lat="29.537667" lon="103.333668"><ele>2461</ele><time>2026-05-12T01:57:58.000Z</time></trkpt>
        <trkpt lat="29.537684" lon="103.333653"><ele>2460</ele><time>2026-05-12T01:58:00.000Z</time></trkpt>
        <trkpt lat="29.537714" lon="103.333632"><ele>2459</ele><time>2026-05-12T01:58:03.000Z</time></trkpt>
        <trkpt lat="29.537863" lon="103.333485"><ele>2452</ele><time>2026-05-12T01:58:16.000Z</time></trkpt>
        <trkpt lat="29.537931" lon="103.333449"><ele>2453</ele><time>2026-05-12T01:58:20.000Z</time></trkpt>
        <trkpt lat="29.538107" lon="103.33336"><ele>2453</ele><time>2026-05-12T01:58:32.000Z</time></trkpt>
        <trkpt lat="29.538255" lon="103.333225"><ele>2452</ele><time>2026-05-12T01:58:43.000Z</time></trkpt>
        <trkpt lat="29.538369" lon="103.333177"><ele>2458</ele><time>2026-05-12T01:58:53.000Z</time></trkpt>
        <trkpt lat="29.538552" lon="103.333125"><ele>2470</ele><time>2026-05-12T01:59:10.000Z</time></trkpt>
        <trkpt lat="29.538735" lon="103.333061"><ele>2467</ele><time>2026-05-12T01:59:23.000Z</time></trkpt>
        <trkpt lat="29.538908" lon="103.332979"><ele>2460</ele><time>2026-05-12T01:59:33.000Z</time></trkpt>
        <trkpt lat="29.539027" lon="103.332892"><ele>2458</ele><time>2026-05-12T01:59:44.000Z</time></trkpt>
        <trkpt lat="29.539185" lon="103.332787"><ele>2459</ele><time>2026-05-12T01:59:56.000Z</time></trkpt>
        <trkpt lat="29.539296" lon="103.332715"><ele>2456</ele><time>2026-05-12T02:00:08.000Z</time></trkpt>
        <trkpt lat="29.53931" lon="103.332704"><ele>2458</ele><time>2026-05-12T02:00:10.000Z</time></trkpt>
        <trkpt lat="29.539365" lon="103.33265"><ele>2460</ele><time>2026-05-12T02:00:17.000Z</time></trkpt>
        <trkpt lat="29.539407" lon="103.332605"><ele>2461</ele><time>2026-05-12T02:00:22.000Z</time></trkpt>
        <trkpt lat="29.539459" lon="103.332554"><ele>2460</ele><time>2026-05-12T02:00:29.000Z</time></trkpt>
        <trkpt lat="29.539514" lon="103.332516"><ele>2455</ele><time>2026-05-12T02:00:36.000Z</time></trkpt>
        <trkpt lat="29.539575" lon="103.332455"><ele>2451</ele><time>2026-05-12T02:00:47.000Z</time></trkpt>
        <trkpt lat="29.539586" lon="103.332439"><ele>2450</ele><time>2026-05-12T02:00:49.000Z</time></trkpt>
        <trkpt lat="29.539589" lon="103.332426"><ele>2450</ele><time>2026-05-12T02:00:50.000Z</time></trkpt>
        <trkpt lat="29.53961" lon="103.332399"><ele>2451</ele><time>2026-05-12T02:00:54.000Z</time></trkpt>
        <trkpt lat="29.539616" lon="103.332398"><ele>2450</ele><time>2026-05-12T02:00:55.000Z</time></trkpt>
        <trkpt lat="29.539654" lon="103.33237"><ele>2447</ele><time>2026-05-12T02:01:00.000Z</time></trkpt>
        <trkpt lat="29.539716" lon="103.332345"><ele>2448</ele><time>2026-05-12T02:01:07.000Z</time></trkpt>
        <trkpt lat="29.539768" lon="103.332302"><ele>2448</ele><time>2026-05-12T02:01:14.000Z</time></trkpt>
        <trkpt lat="29.539765" lon="103.33228"><ele>2448</ele><time>2026-05-12T02:01:16.000Z</time></trkpt>
        <trkpt lat="29.539793" lon="103.332213"><ele>2447</ele><time>2026-05-12T02:01:22.000Z</time></trkpt>
        <trkpt lat="29.539799" lon="103.332206"><ele>2446</ele><time>2026-05-12T02:01:23.000Z</time></trkpt>
        <trkpt lat="29.539821" lon="103.332166"><ele>2443</ele><time>2026-05-12T02:01:29.000Z</time></trkpt>
        <trkpt lat="29.539795" lon="103.332113"><ele>2439</ele><time>2026-05-12T02:01:36.000Z</time></trkpt>
        <trkpt lat="29.539726" lon="103.332063"><ele>2447</ele><time>2026-05-12T02:01:43.000Z</time></trkpt>
        <trkpt lat="29.539682" lon="103.33197"><ele>2448</ele><time>2026-05-12T02:01:48.000Z</time></trkpt>
        <trkpt lat="29.539699" lon="103.331928"><ele>2448</ele><time>2026-05-12T02:01:50.000Z</time></trkpt>
        <trkpt lat="29.539712" lon="103.331918"><ele>2448</ele><time>2026-05-12T02:01:51.000Z</time></trkpt>
        <trkpt lat="29.539725" lon="103.331912"><ele>2448</ele><time>2026-05-12T02:01:52.000Z</time></trkpt>
        <trkpt lat="29.539737" lon="103.331908"><ele>2448</ele><time>2026-05-12T02:01:53.000Z</time></trkpt>
        <trkpt lat="29.539779" lon="103.331909"><ele>2448</ele><time>2026-05-12T02:01:56.000Z</time></trkpt>
        <trkpt lat="29.53982" lon="103.331875"><ele>2449</ele><time>2026-05-12T02:02:01.000Z</time></trkpt>
        <trkpt lat="29.539855" lon="103.331859"><ele>2450</ele><time>2026-05-12T02:02:03.000Z</time></trkpt>
        <trkpt lat="29.539964" lon="103.331803"><ele>2451</ele><time>2026-05-12T02:02:09.000Z</time></trkpt>
        <trkpt lat="29.540142" lon="103.331729"><ele>2451</ele><time>2026-05-12T02:02:15.000Z</time></trkpt>
        <trkpt lat="29.540252" lon="103.33168"><ele>2452</ele><time>2026-05-12T02:02:19.000Z</time></trkpt>
        <trkpt lat="29.540276" lon="103.331661"><ele>2452</ele><time>2026-05-12T02:02:20.000Z</time></trkpt>
        <trkpt lat="29.540325" lon="103.331624"><ele>2454</ele><time>2026-05-12T02:02:22.000Z</time></trkpt>
        <trkpt lat="29.540387" lon="103.331554"><ele>2457</ele><time>2026-05-12T02:02:25.000Z</time></trkpt>
        <trkpt lat="29.540446" lon="103.331433"><ele>2467</ele><time>2026-05-12T02:02:32.000Z</time></trkpt>
        <trkpt lat="29.540459" lon="103.331426"><ele>2468</ele><time>2026-05-12T02:02:35.000Z</time></trkpt>
        <trkpt lat="29.54047" lon="103.331407"><ele>2471</ele><time>2026-05-12T02:02:42.000Z</time></trkpt>
        <trkpt lat="29.540473" lon="103.331396"><ele>2472</ele><time>2026-05-12T02:02:44.000Z</time></trkpt>
        <trkpt lat="29.540536" lon="103.331417"><ele>2470</ele><time>2026-05-12T02:02:58.000Z</time></trkpt>
        <trkpt lat="29.540522" lon="103.331425"><ele>2472</ele><time>2026-05-12T02:03:06.000Z</time></trkpt>
        <trkpt lat="29.540513" lon="103.331422"><ele>2472</ele><time>2026-05-12T02:03:08.000Z</time></trkpt>
        <trkpt lat="29.540466" lon="103.331468"><ele>2473</ele><time>2026-05-12T02:03:12.000Z</time></trkpt>
        <trkpt lat="29.540261" lon="103.331489"><ele>2464</ele><time>2026-05-12T02:03:31.000Z</time></trkpt>
        <trkpt lat="29.540119" lon="103.331567"><ele>2464</ele><time>2026-05-12T02:03:54.000Z</time></trkpt>
        <trkpt lat="29.540119" lon="103.331567"><ele>2464</ele><time>2026-05-12T02:04:17.000Z</time></trkpt>
        <trkpt lat="29.540118" lon="103.331568"><ele>2464</ele><time>2026-05-12T02:04:18.000Z</time></trkpt>
        <trkpt lat="29.540119" lon="103.33157"><ele>2464</ele><time>2026-05-12T02:04:19.000Z</time></trkpt>
        <trkpt lat="29.540121" lon="103.331564"><ele>2464</ele><time>2026-05-12T02:04:23.000Z</time></trkpt>
        <trkpt lat="29.540113" lon="103.331561"><ele>2464</ele><time>2026-05-12T02:04:26.000Z</time></trkpt>
        <trkpt lat="29.540116" lon="103.331574"><ele>2465</ele><time>2026-05-12T02:04:32.000Z</time></trkpt>
        <trkpt lat="29.539965" lon="103.331222"><ele>2453</ele><time>2026-05-12T02:05:09.000Z</time></trkpt>
        <trkpt lat="29.540253" lon="103.331497"><ele>2454</ele><time>2026-05-12T02:05:51.000Z</time></trkpt>
        <trkpt lat="29.540205" lon="103.33135"><ele>2452</ele><time>2026-05-12T02:06:24.000Z</time></trkpt>
        <trkpt lat="29.540086" lon="103.33123"><ele>2454</ele><time>2026-05-12T02:07:31.000Z</time></trkpt>
        <trkpt lat="29.540074" lon="103.331233"><ele>2454</ele><time>2026-05-12T02:07:32.000Z</time></trkpt>
        <trkpt lat="29.540067" lon="103.331234"><ele>2454</ele><time>2026-05-12T02:07:33.000Z</time></trkpt>
        <trkpt lat="29.540049" lon="103.331287"><ele>2454</ele><time>2026-05-12T02:07:36.000Z</time></trkpt>
        <trkpt lat="29.540025" lon="103.331332"><ele>2455</ele><time>2026-05-12T02:07:37.000Z</time></trkpt>
        <trkpt lat="29.540025" lon="103.331332"><ele>2455</ele><time>2026-05-12T02:07:38.000Z</time></trkpt>
        <trkpt lat="29.540011" lon="103.331359"><ele>2455</ele><time>2026-05-12T02:07:39.000Z</time></trkpt>
        <trkpt lat="29.539981" lon="103.331399"><ele>2456</ele><time>2026-05-12T02:07:41.000Z</time></trkpt>
        <trkpt lat="29.539925" lon="103.331462"><ele>2457</ele><time>2026-05-12T02:07:44.000Z</time></trkpt>
        <trkpt lat="29.539915" lon="103.331476"><ele>2458</ele><time>2026-05-12T02:07:47.000Z</time></trkpt>
        <trkpt lat="29.539918" lon="103.331479"><ele>2458</ele><time>2026-05-12T02:07:48.000Z</time></trkpt>
        <trkpt lat="29.539925" lon="103.331485"><ele>2458</ele><time>2026-05-12T02:07:49.000Z</time></trkpt>
        <trkpt lat="29.539926" lon="103.331482"><ele>2459</ele><time>2026-05-12T02:07:50.000Z</time></trkpt>
        <trkpt lat="29.539917" lon="103.331462"><ele>2459</ele><time>2026-05-12T02:07:51.000Z</time></trkpt>
        <trkpt lat="29.539889" lon="103.331451"><ele>2462</ele><time>2026-05-12T02:07:56.000Z</time></trkpt>
        <trkpt lat="29.539878" lon="103.331445"><ele>2462</ele><time>2026-05-12T02:07:57.000Z</time></trkpt>
        <trkpt lat="29.539864" lon="103.331449"><ele>2463</ele><time>2026-05-12T02:07:59.000Z</time></trkpt>
        <trkpt lat="29.53985" lon="103.331573"><ele>2455</ele><time>2026-05-12T02:08:05.000Z</time></trkpt>
        <trkpt lat="29.539848" lon="103.33158"><ele>2450</ele><time>2026-05-12T02:08:08.000Z</time></trkpt>
        <trkpt lat="29.539921" lon="103.331706"><ele>2437</ele><time>2026-05-12T02:08:32.000Z</time></trkpt>
        <trkpt lat="29.540175" lon="103.332047"><ele>2442</ele><time>2026-05-12T02:09:24.000Z</time></trkpt>
        <trkpt lat="29.540098" lon="103.33199"><ele>2442</ele><time>2026-05-12T02:09:35.000Z</time></trkpt>
        <trkpt lat="29.539981" lon="103.332214"><ele>2403</ele><time>2026-05-12T02:11:41.000Z</time></trkpt>
        <trkpt lat="29.539992" lon="103.332219"><ele>2403</ele><time>2026-05-12T02:11:43.000Z</time></trkpt>
        <trkpt lat="29.540008" lon="103.332213"><ele>2401</ele><time>2026-05-12T02:11:45.000Z</time></trkpt>
        <trkpt lat="29.540016" lon="103.332219"><ele>2401</ele><time>2026-05-12T02:11:46.000Z</time></trkpt>
        <trkpt lat="29.540028" lon="103.332216"><ele>2399</ele><time>2026-05-12T02:11:49.000Z</time></trkpt>
        <trkpt lat="29.540031" lon="103.3322"><ele>2397</ele><time>2026-05-12T02:11:53.000Z</time></trkpt>
        <trkpt lat="29.540043" lon="103.332208"><ele>2395</ele><time>2026-05-12T02:11:56.000Z</time></trkpt>
        <trkpt lat="29.540046" lon="103.33222"><ele>2394</ele><time>2026-05-12T02:11:57.000Z</time></trkpt>
        <trkpt lat="29.540028" lon="103.332191"><ele>2395</ele><time>2026-05-12T02:12:02.000Z</time></trkpt>
        <trkpt lat="29.54002" lon="103.332171"><ele>2396</ele><time>2026-05-12T02:12:03.000Z</time></trkpt>
        <trkpt lat="29.540046" lon="103.332048"><ele>2403</ele><time>2026-05-12T02:12:09.000Z</time></trkpt>
        <trkpt lat="29.539986" lon="103.332046"><ele>2402</ele><time>2026-05-12T02:12:30.000Z</time></trkpt>
        <trkpt lat="29.539972" lon="103.331956"><ele>2413</ele><time>2026-05-12T02:12:48.000Z</time></trkpt>
        <trkpt lat="29.539995" lon="103.331815"><ele>2425</ele><time>2026-05-12T02:12:54.000Z</time></trkpt>
        <trkpt lat="29.540044" lon="103.331796"><ele>2429</ele><time>2026-05-12T02:12:59.000Z</time></trkpt>
        <trkpt lat="29.54005" lon="103.331788"><ele>2430</ele><time>2026-05-12T02:13:00.000Z</time></trkpt>
        <trkpt lat="29.540058" lon="103.331781"><ele>2430</ele><time>2026-05-12T02:13:01.000Z</time></trkpt>
        <trkpt lat="29.540062" lon="103.331778"><ele>2431</ele><time>2026-05-12T02:13:02.000Z</time></trkpt>
        <trkpt lat="29.540067" lon="103.331774"><ele>2431</ele><time>2026-05-12T02:13:03.000Z</time></trkpt>
        <trkpt lat="29.540077" lon="103.331766"><ele>2431</ele><time>2026-05-12T02:13:04.000Z</time></trkpt>
        <trkpt lat="29.540101" lon="103.331749"><ele>2428</ele><time>2026-05-12T02:13:06.000Z</time></trkpt>
        <trkpt lat="29.54011" lon="103.331742"><ele>2426</ele><time>2026-05-12T02:13:07.000Z</time></trkpt>
        <trkpt lat="29.540127" lon="103.33173"><ele>2425</ele><time>2026-05-12T02:13:09.000Z</time></trkpt>
        <trkpt lat="29.540154" lon="103.331713"><ele>2423</ele><time>2026-05-12T02:13:13.000Z</time></trkpt>
        <trkpt lat="29.540149" lon="103.331703"><ele>2424</ele><time>2026-05-12T02:13:17.000Z</time></trkpt>
        <trkpt lat="29.540115" lon="103.331664"><ele>2426</ele><time>2026-05-12T02:13:25.000Z</time></trkpt>
        <trkpt lat="29.540121" lon="103.331618"><ele>2426</ele><time>2026-05-12T02:13:28.000Z</time></trkpt>
        <trkpt lat="29.540115" lon="103.331576"><ele>2427</ele><time>2026-05-12T02:13:29.000Z</time></trkpt>
        <trkpt lat="29.540115" lon="103.331576"><ele>2427</ele><time>2026-05-12T02:13:30.000Z</time></trkpt>
        <trkpt lat="29.540237" lon="103.331473"><ele>2436</ele><time>2026-05-12T02:13:42.000Z</time></trkpt>
        <trkpt lat="29.540256" lon="103.331405"><ele>2444</ele><time>2026-05-12T02:13:46.000Z</time></trkpt>
        <trkpt lat="29.540279" lon="103.331392"><ele>2446</ele><time>2026-05-12T02:13:48.000Z</time></trkpt>
        <trkpt lat="29.540333" lon="103.331372"><ele>2451</ele><time>2026-05-12T02:13:52.000Z</time></trkpt>
        <trkpt lat="29.540346" lon="103.331372"><ele>2453</ele><time>2026-05-12T02:13:53.000Z</time></trkpt>
        <trkpt lat="29.540358" lon="103.331369"><ele>2453</ele><time>2026-05-12T02:13:54.000Z</time></trkpt>
        <trkpt lat="29.540414" lon="103.331408"><ele>2445</ele><time>2026-05-12T02:13:55.000Z</time></trkpt>
        <trkpt lat="29.540436" lon="103.331423"><ele>2436</ele><time>2026-05-12T02:13:57.000Z</time></trkpt>
        <trkpt lat="29.540461" lon="103.331422"><ele>2430</ele><time>2026-05-12T02:13:58.000Z</time></trkpt>
        <trkpt lat="29.540498" lon="103.331419"><ele>2425</ele><time>2026-05-12T02:13:59.000Z</time></trkpt>
        <trkpt lat="29.540521" lon="103.331451"><ele>2418</ele><time>2026-05-12T02:14:00.000Z</time></trkpt>
        <trkpt lat="29.540521" lon="103.331451"><ele>2418</ele><time>2026-05-12T02:14:01.000Z</time></trkpt>
        <trkpt lat="29.540524" lon="103.331458"><ele>2417</ele><time>2026-05-12T02:14:02.000Z</time></trkpt>
        <trkpt lat="29.540538" lon="103.331469"><ele>2415</ele><time>2026-05-12T02:14:04.000Z</time></trkpt>
        <trkpt lat="29.540548" lon="103.331485"><ele>2413</ele><time>2026-05-12T02:14:08.000Z</time></trkpt>
        <trkpt lat="29.540551" lon="103.331487"><ele>2412</ele><time>2026-05-12T02:14:10.000Z</time></trkpt>
        <trkpt lat="29.540547" lon="103.331487"><ele>2413</ele><time>2026-05-12T02:14:19.000Z</time></trkpt>
        <trkpt lat="29.540549" lon="103.33149"><ele>2414</ele><time>2026-05-12T02:14:21.000Z</time></trkpt>
        <trkpt lat="29.54055" lon="103.331494"><ele>2414</ele><time>2026-05-12T02:14:22.000Z</time></trkpt>
        <trkpt lat="29.54055" lon="103.331494"><ele>2414</ele><time>2026-05-12T02:14:23.000Z</time></trkpt>
        <trkpt lat="29.540548" lon="103.331497"><ele>2415</ele><time>2026-05-12T02:14:24.000Z</time></trkpt>
        <trkpt lat="29.540546" lon="103.331497"><ele>2416</ele><time>2026-05-12T02:14:26.000Z</time></trkpt>
        <trkpt lat="29.540548" lon="103.331495"><ele>2417</ele><time>2026-05-12T02:14:27.000Z</time></trkpt>
        <trkpt lat="29.540548" lon="103.331495"><ele>2417</ele><time>2026-05-12T02:14:28.000Z</time></trkpt>
        <trkpt lat="29.540548" lon="103.331497"><ele>2418</ele><time>2026-05-12T02:14:29.000Z</time></trkpt>
        <trkpt lat="29.540547" lon="103.331499"><ele>2418</ele><time>2026-05-12T02:14:30.000Z</time></trkpt>
        <trkpt lat="29.540547" lon="103.331502"><ele>2419</ele><time>2026-05-12T02:14:31.000Z</time></trkpt>
        <trkpt lat="29.540546" lon="103.331506"><ele>2420</ele><time>2026-05-12T02:14:33.000Z</time></trkpt>
        <trkpt lat="29.540546" lon="103.331507"><ele>2422</ele><time>2026-05-12T02:14:34.000Z</time></trkpt>
        <trkpt lat="29.540545" lon="103.331509"><ele>2423</ele><time>2026-05-12T02:14:35.000Z</time></trkpt>
        <trkpt lat="29.54054" lon="103.331517"><ele>2427</ele><time>2026-05-12T02:14:37.000Z</time></trkpt>
        <trkpt lat="29.540532" lon="103.331533"><ele>2439</ele><time>2026-05-12T02:14:45.000Z</time></trkpt>
        <trkpt lat="29.540532" lon="103.331535"><ele>2442</ele><time>2026-05-12T02:14:47.000Z</time></trkpt>
        <trkpt lat="29.540535" lon="103.331535"><ele>2442</ele><time>2026-05-12T02:14:48.000Z</time></trkpt>
        <trkpt lat="29.540535" lon="103.331535"><ele>2442</ele><time>2026-05-12T02:14:49.000Z</time></trkpt>
        <trkpt lat="29.540535" lon="103.331534"><ele>2443</ele><time>2026-05-12T02:14:50.000Z</time></trkpt>
        <trkpt lat="29.540536" lon="103.331535"><ele>2443</ele><time>2026-05-12T02:14:51.000Z</time></trkpt>
        <trkpt lat="29.540537" lon="103.331534"><ele>2444</ele><time>2026-05-12T02:14:52.000Z</time></trkpt>
        <trkpt lat="29.540538" lon="103.331532"><ele>2444</ele><time>2026-05-12T02:14:53.000Z</time></trkpt>
        <trkpt lat="29.540538" lon="103.331531"><ele>2445</ele><time>2026-05-12T02:14:54.000Z</time></trkpt>
        <trkpt lat="29.540537" lon="103.331531"><ele>2445</ele><time>2026-05-12T02:14:57.000Z</time></trkpt>
        <trkpt lat="29.540538" lon="103.331531"><ele>2445</ele><time>2026-05-12T02:15:02.000Z</time></trkpt>
        <trkpt lat="29.540544" lon="103.331503"><ele>2445</ele><time>2026-05-12T02:15:24.000Z</time></trkpt>
        <trkpt lat="29.540548" lon="103.331497"><ele>2444</ele><time>2026-05-12T02:15:31.000Z</time></trkpt>
        <trkpt lat="29.540552" lon="103.331498"><ele>2444</ele><time>2026-05-12T02:15:35.000Z</time></trkpt>
        <trkpt lat="29.540554" lon="103.331512"><ele>2443</ele><time>2026-05-12T02:15:53.000Z</time></trkpt>
        <trkpt lat="29.540552" lon="103.331511"><ele>2442</ele><time>2026-05-12T02:15:59.000Z</time></trkpt>
        <trkpt lat="29.540553" lon="103.331511"><ele>2441</ele><time>2026-05-12T02:16:01.000Z</time></trkpt>
        <trkpt lat="29.540549" lon="103.331517"><ele>2441</ele><time>2026-05-12T02:16:12.000Z</time></trkpt>
        <trkpt lat="29.540549" lon="103.331517"><ele>2441</ele><time>2026-05-12T02:16:13.000Z</time></trkpt>
        <trkpt lat="29.540548" lon="103.331512"><ele>2441</ele><time>2026-05-12T02:16:16.000Z</time></trkpt>
        <trkpt lat="29.540611" lon="103.331528"><ele>2411</ele><time>2026-05-12T02:17:24.000Z</time></trkpt>
        <trkpt lat="29.540575" lon="103.331542"><ele>2434</ele><time>2026-05-12T02:18:24.000Z</time></trkpt>
      </trkseg>
  </trk>
</gpx>